<?xml version="1.0" encoding="UTF-8" standalone="no" ?>
<gpx xmlns="http://www.topografix.com/GPX/1/1" xmlns:xsi="http://www.w3.org/2001/XMLSchema-instance" xsi:schemaLocation="http://www.topografix.com/GPX/1/1 http://www.topografix.com/GPX/1/1/gpx.xsd" version="1.1" creator="VisuGPX - https://www.visugpx.com">
  <metadata>
    <name>Champagnat Cyclisme sur route</name>
  </metadata>
  <trk>
    <name><![CDATA[Champagnat Cyclisme sur route_1]]></name>
    <trkseg>
      <trkpt lat="46.48262" lon="5.36825">
        <ele>269.6</ele>
        <time>2021-12-11T11:06:02Z</time>
      </trkpt>
      <trkpt lat="46.48253" lon="5.36815">
        <ele>268.8</ele>
        <time>2021-12-11T11:06:03Z</time>
      </trkpt>
      <trkpt lat="46.48243" lon="5.36807">
        <ele>267.4</ele>
        <time>2021-12-11T11:06:05Z</time>
      </trkpt>
      <trkpt lat="46.48224" lon="5.36791">
        <ele>267</ele>
        <time>2021-12-11T11:06:06Z</time>
      </trkpt>
      <trkpt lat="46.48214" lon="5.36783">
        <ele>265.8</ele>
        <time>2021-12-11T11:06:07Z</time>
      </trkpt>
      <trkpt lat="46.48195" lon="5.36767">
        <ele>264.4</ele>
        <time>2021-12-11T11:06:09Z</time>
      </trkpt>
      <trkpt lat="46.48186" lon="5.36759">
        <ele>263</ele>
        <time>2021-12-11T11:06:11Z</time>
      </trkpt>
      <trkpt lat="46.48168" lon="5.36744">
        <ele>261.4</ele>
        <time>2021-12-11T11:06:13Z</time>
      </trkpt>
      <trkpt lat="46.48149" lon="5.36729">
        <ele>260.4</ele>
        <time>2021-12-11T11:06:14Z</time>
      </trkpt>
      <trkpt lat="46.48149" lon="5.36729">
        <ele>259.4</ele>
        <time>2021-12-11T11:06:15Z</time>
      </trkpt>
      <trkpt lat="46.48132" lon="5.36716">
        <ele>258.4</ele>
        <time>2021-12-11T11:06:17Z</time>
      </trkpt>
      <trkpt lat="46.48112" lon="5.36698">
        <ele>257</ele>
        <time>2021-12-11T11:06:19Z</time>
      </trkpt>
      <trkpt lat="46.48109" lon="5.36692">
        <ele>256.6</ele>
        <time>2021-12-11T11:06:20Z</time>
      </trkpt>
      <trkpt lat="46.4811" lon="5.36678">
        <ele>255.8</ele>
        <time>2021-12-11T11:06:22Z</time>
      </trkpt>
      <trkpt lat="46.48115" lon="5.36672">
        <ele>255.4</ele>
        <time>2021-12-11T11:06:23Z</time>
      </trkpt>
      <trkpt lat="46.4812" lon="5.36666">
        <ele>254.6</ele>
        <time>2021-12-11T11:06:24Z</time>
      </trkpt>
      <trkpt lat="46.48134" lon="5.36654">
        <ele>253</ele>
        <time>2021-12-11T11:06:26Z</time>
      </trkpt>
      <trkpt lat="46.4814" lon="5.36648">
        <ele>252.6</ele>
        <time>2021-12-11T11:06:27Z</time>
      </trkpt>
      <trkpt lat="46.4814" lon="5.36648">
        <ele>252</ele>
        <time>2021-12-11T11:06:28Z</time>
      </trkpt>
      <trkpt lat="46.48163" lon="5.36622">
        <ele>251</ele>
        <time>2021-12-11T11:06:31Z</time>
      </trkpt>
      <trkpt lat="46.48171" lon="5.36618">
        <ele>250.8</ele>
        <time>2021-12-11T11:06:32Z</time>
      </trkpt>
      <trkpt lat="46.4819" lon="5.36605">
        <ele>250.4</ele>
        <time>2021-12-11T11:06:35Z</time>
      </trkpt>
      <trkpt lat="46.48205" lon="5.36601">
        <ele>250</ele>
        <time>2021-12-11T11:06:37Z</time>
      </trkpt>
      <trkpt lat="46.48211" lon="5.36597">
        <ele>250</ele>
        <time>2021-12-11T11:06:38Z</time>
      </trkpt>
      <trkpt lat="46.48211" lon="5.36597">
        <ele>249.8</ele>
        <time>2021-12-11T11:06:39Z</time>
      </trkpt>
      <trkpt lat="46.48216" lon="5.36591">
        <ele>249.8</ele>
        <time>2021-12-11T11:06:40Z</time>
      </trkpt>
      <trkpt lat="46.48223" lon="5.36574">
        <ele>249.4</ele>
        <time>2021-12-11T11:06:42Z</time>
      </trkpt>
      <trkpt lat="46.48226" lon="5.36565">
        <ele>249.4</ele>
        <time>2021-12-11T11:06:43Z</time>
      </trkpt>
      <trkpt lat="46.48234" lon="5.36552">
        <ele>249.2</ele>
        <time>2021-12-11T11:06:44Z</time>
      </trkpt>
      <trkpt lat="46.4824" lon="5.36546">
        <ele>249.2</ele>
        <time>2021-12-11T11:06:46Z</time>
      </trkpt>
      <trkpt lat="46.48264" lon="5.36519">
        <ele>248.8</ele>
        <time>2021-12-11T11:06:49Z</time>
      </trkpt>
      <trkpt lat="46.48275" lon="5.36507">
        <ele>248.8</ele>
        <time>2021-12-11T11:06:51Z</time>
      </trkpt>
      <trkpt lat="46.48294" lon="5.36486">
        <ele>248.2</ele>
        <time>2021-12-11T11:06:54Z</time>
      </trkpt>
      <trkpt lat="46.48305" lon="5.36474">
        <ele>247.8</ele>
        <time>2021-12-11T11:06:56Z</time>
      </trkpt>
      <trkpt lat="46.48328" lon="5.36448">
        <ele>246.6</ele>
        <time>2021-12-11T11:07:01Z</time>
      </trkpt>
      <trkpt lat="46.48346" lon="5.36427">
        <ele>245.8</ele>
        <time>2021-12-11T11:07:03Z</time>
      </trkpt>
      <trkpt lat="46.48352" lon="5.36421">
        <ele>245.4</ele>
        <time>2021-12-11T11:07:05Z</time>
      </trkpt>
      <trkpt lat="46.48382" lon="5.36388">
        <ele>244.6</ele>
        <time>2021-12-11T11:07:10Z</time>
      </trkpt>
      <trkpt lat="46.48399" lon="5.36371">
        <ele>244.2</ele>
        <time>2021-12-11T11:07:13Z</time>
      </trkpt>
      <trkpt lat="46.48431" lon="5.36351">
        <ele>243.2</ele>
        <time>2021-12-11T11:07:18Z</time>
      </trkpt>
      <trkpt lat="46.48466" lon="5.36344">
        <ele>242.4</ele>
        <time>2021-12-11T11:07:23Z</time>
      </trkpt>
      <trkpt lat="46.48487" lon="5.36341">
        <ele>242.4</ele>
        <time>2021-12-11T11:07:26Z</time>
      </trkpt>
      <trkpt lat="46.48541" lon="5.36331">
        <ele>242.6</ele>
        <time>2021-12-11T11:07:33Z</time>
      </trkpt>
      <trkpt lat="46.48576" lon="5.36326">
        <ele>242.2</ele>
        <time>2021-12-11T11:07:39Z</time>
      </trkpt>
      <trkpt lat="46.48607" lon="5.36321">
        <ele>241.8</ele>
        <time>2021-12-11T11:07:42Z</time>
      </trkpt>
      <trkpt lat="46.48615" lon="5.36317">
        <ele>241.8</ele>
        <time>2021-12-11T11:07:43Z</time>
      </trkpt>
      <trkpt lat="46.48627" lon="5.36302">
        <ele>241.2</ele>
        <time>2021-12-11T11:07:45Z</time>
      </trkpt>
      <trkpt lat="46.48631" lon="5.36292">
        <ele>240.6</ele>
        <time>2021-12-11T11:07:46Z</time>
      </trkpt>
      <trkpt lat="46.48634" lon="5.3628">
        <ele>240.4</ele>
        <time>2021-12-11T11:07:47Z</time>
      </trkpt>
      <trkpt lat="46.48636" lon="5.36271">
        <ele>239.6</ele>
        <time>2021-12-11T11:07:48Z</time>
      </trkpt>
      <trkpt lat="46.48639" lon="5.36245">
        <ele>238.4</ele>
        <time>2021-12-11T11:07:50Z</time>
      </trkpt>
      <trkpt lat="46.48642" lon="5.36211">
        <ele>237.2</ele>
        <time>2021-12-11T11:07:53Z</time>
      </trkpt>
      <trkpt lat="46.48646" lon="5.36161">
        <ele>235.8</ele>
        <time>2021-12-11T11:07:57Z</time>
      </trkpt>
      <trkpt lat="46.48648" lon="5.36139">
        <ele>235.4</ele>
        <time>2021-12-11T11:07:59Z</time>
      </trkpt>
      <trkpt lat="46.48655" lon="5.36106">
        <ele>234.8</ele>
        <time>2021-12-11T11:08:02Z</time>
      </trkpt>
      <trkpt lat="46.48667" lon="5.36055">
        <ele>234.2</ele>
        <time>2021-12-11T11:08:07Z</time>
      </trkpt>
      <trkpt lat="46.48672" lon="5.3603">
        <ele>234.2</ele>
        <time>2021-12-11T11:08:10Z</time>
      </trkpt>
      <trkpt lat="46.48676" lon="5.36011">
        <ele>234.2</ele>
        <time>2021-12-11T11:08:12Z</time>
      </trkpt>
      <trkpt lat="46.48679" lon="5.35989">
        <ele>234.4</ele>
        <time>2021-12-11T11:08:15Z</time>
      </trkpt>
      <trkpt lat="46.48679" lon="5.35989">
        <ele>234.6</ele>
        <time>2021-12-11T11:08:16Z</time>
      </trkpt>
      <trkpt lat="46.4869" lon="5.35912">
        <ele>235.6</ele>
        <time>2021-12-11T11:08:23Z</time>
      </trkpt>
      <trkpt lat="46.48715" lon="5.35846">
        <ele>235.2</ele>
        <time>2021-12-11T11:08:30Z</time>
      </trkpt>
      <trkpt lat="46.48746" lon="5.35774">
        <ele>234</ele>
        <time>2021-12-11T11:08:38Z</time>
      </trkpt>
      <trkpt lat="46.4875" lon="5.35765">
        <ele>233.6</ele>
        <time>2021-12-11T11:08:39Z</time>
      </trkpt>
      <trkpt lat="46.48785" lon="5.35687">
        <ele>233</ele>
        <time>2021-12-11T11:08:48Z</time>
      </trkpt>
      <trkpt lat="46.48789" lon="5.35679">
        <ele>233</ele>
        <time>2021-12-11T11:08:49Z</time>
      </trkpt>
      <trkpt lat="46.48815" lon="5.35618">
        <ele>233</ele>
        <time>2021-12-11T11:08:57Z</time>
      </trkpt>
      <trkpt lat="46.48845" lon="5.35554">
        <ele>233</ele>
        <time>2021-12-11T11:09:06Z</time>
      </trkpt>
      <trkpt lat="46.48875" lon="5.35485">
        <ele>233.2</ele>
        <time>2021-12-11T11:09:15Z</time>
      </trkpt>
      <trkpt lat="46.48882" lon="5.35469">
        <ele>233</ele>
        <time>2021-12-11T11:09:17Z</time>
      </trkpt>
      <trkpt lat="46.48901" lon="5.35428">
        <ele>232.4</ele>
        <time>2021-12-11T11:09:22Z</time>
      </trkpt>
      <trkpt lat="46.48915" lon="5.35395">
        <ele>232.2</ele>
        <time>2021-12-11T11:09:26Z</time>
      </trkpt>
      <trkpt lat="46.48941" lon="5.35335">
        <ele>231.4</ele>
        <time>2021-12-11T11:09:33Z</time>
      </trkpt>
      <trkpt lat="46.48949" lon="5.35319">
        <ele>231.4</ele>
        <time>2021-12-11T11:09:35Z</time>
      </trkpt>
      <trkpt lat="46.48952" lon="5.3531">
        <ele>231.4</ele>
        <time>2021-12-11T11:09:36Z</time>
      </trkpt>
      <trkpt lat="46.48976" lon="5.35256">
        <ele>231.4</ele>
        <time>2021-12-11T11:09:43Z</time>
      </trkpt>
      <trkpt lat="46.48998" lon="5.35205">
        <ele>231.8</ele>
        <time>2021-12-11T11:09:51Z</time>
      </trkpt>
      <trkpt lat="46.49021" lon="5.35152">
        <ele>232.6</ele>
        <time>2021-12-11T11:09:58Z</time>
      </trkpt>
      <trkpt lat="46.49032" lon="5.35124">
        <ele>233</ele>
        <time>2021-12-11T11:10:02Z</time>
      </trkpt>
      <trkpt lat="46.49042" lon="5.35111">
        <ele>233.2</ele>
        <time>2021-12-11T11:10:04Z</time>
      </trkpt>
      <trkpt lat="46.49051" lon="5.35102">
        <ele>233.6</ele>
        <time>2021-12-11T11:10:07Z</time>
      </trkpt>
      <trkpt lat="46.49073" lon="5.35084">
        <ele>233.8</ele>
        <time>2021-12-11T11:10:10Z</time>
      </trkpt>
      <trkpt lat="46.49106" lon="5.35057">
        <ele>233.2</ele>
        <time>2021-12-11T11:10:16Z</time>
      </trkpt>
      <trkpt lat="46.49136" lon="5.35031">
        <ele>232.6</ele>
        <time>2021-12-11T11:10:21Z</time>
      </trkpt>
      <trkpt lat="46.49148" lon="5.3502">
        <ele>232.2</ele>
        <time>2021-12-11T11:10:23Z</time>
      </trkpt>
      <trkpt lat="46.4916" lon="5.3501">
        <ele>232.2</ele>
        <time>2021-12-11T11:10:25Z</time>
      </trkpt>
      <trkpt lat="46.49198" lon="5.3497">
        <ele>231.6</ele>
        <time>2021-12-11T11:10:32Z</time>
      </trkpt>
      <trkpt lat="46.49204" lon="5.34962">
        <ele>231.4</ele>
        <time>2021-12-11T11:10:33Z</time>
      </trkpt>
      <trkpt lat="46.49222" lon="5.34934">
        <ele>231.2</ele>
        <time>2021-12-11T11:10:37Z</time>
      </trkpt>
      <trkpt lat="46.49225" lon="5.34928">
        <ele>231.2</ele>
        <time>2021-12-11T11:10:38Z</time>
      </trkpt>
      <trkpt lat="46.49258" lon="5.34879">
        <ele>231</ele>
        <time>2021-12-11T11:10:45Z</time>
      </trkpt>
      <trkpt lat="46.49283" lon="5.34848">
        <ele>230.8</ele>
        <time>2021-12-11T11:10:50Z</time>
      </trkpt>
      <trkpt lat="46.49289" lon="5.34844">
        <ele>230.8</ele>
        <time>2021-12-11T11:10:51Z</time>
      </trkpt>
      <trkpt lat="46.49295" lon="5.3484">
        <ele>230.8</ele>
        <time>2021-12-11T11:10:52Z</time>
      </trkpt>
      <trkpt lat="46.49308" lon="5.34835">
        <ele>230.6</ele>
        <time>2021-12-11T11:10:54Z</time>
      </trkpt>
      <trkpt lat="46.49314" lon="5.34834">
        <ele>230.6</ele>
        <time>2021-12-11T11:10:55Z</time>
      </trkpt>
      <trkpt lat="46.49334" lon="5.3483">
        <ele>230.6</ele>
        <time>2021-12-11T11:10:58Z</time>
      </trkpt>
      <trkpt lat="46.49359" lon="5.34826">
        <ele>230.8</ele>
        <time>2021-12-11T11:11:02Z</time>
      </trkpt>
      <trkpt lat="46.49401" lon="5.34813">
        <ele>231</ele>
        <time>2021-12-11T11:11:09Z</time>
      </trkpt>
      <trkpt lat="46.49435" lon="5.3479">
        <ele>231</ele>
        <time>2021-12-11T11:11:15Z</time>
      </trkpt>
      <trkpt lat="46.4944" lon="5.34784">
        <ele>231</ele>
        <time>2021-12-11T11:11:16Z</time>
      </trkpt>
      <trkpt lat="46.49472" lon="5.34751">
        <ele>230.4</ele>
        <time>2021-12-11T11:11:21Z</time>
      </trkpt>
      <trkpt lat="46.49479" lon="5.34744">
        <ele>230.2</ele>
        <time>2021-12-11T11:11:22Z</time>
      </trkpt>
      <trkpt lat="46.495" lon="5.3472">
        <ele>229.2</ele>
        <time>2021-12-11T11:11:25Z</time>
      </trkpt>
      <trkpt lat="46.495" lon="5.3472">
        <ele>229</ele>
        <time>2021-12-11T11:11:26Z</time>
      </trkpt>
      <trkpt lat="46.49538" lon="5.34678">
        <ele>228</ele>
        <time>2021-12-11T11:11:30Z</time>
      </trkpt>
      <trkpt lat="46.49552" lon="5.3466">
        <ele>227.2</ele>
        <time>2021-12-11T11:11:32Z</time>
      </trkpt>
      <trkpt lat="46.49559" lon="5.34651">
        <ele>227</ele>
        <time>2021-12-11T11:11:33Z</time>
      </trkpt>
      <trkpt lat="46.49566" lon="5.34642">
        <ele>226</ele>
        <time>2021-12-11T11:11:34Z</time>
      </trkpt>
      <trkpt lat="46.49581" lon="5.34624">
        <ele>224.6</ele>
        <time>2021-12-11T11:11:36Z</time>
      </trkpt>
      <trkpt lat="46.49593" lon="5.34606">
        <ele>223.4</ele>
        <time>2021-12-11T11:11:38Z</time>
      </trkpt>
      <trkpt lat="46.49611" lon="5.34578">
        <ele>222.4</ele>
        <time>2021-12-11T11:11:41Z</time>
      </trkpt>
      <trkpt lat="46.49617" lon="5.3457">
        <ele>222.2</ele>
        <time>2021-12-11T11:11:42Z</time>
      </trkpt>
      <trkpt lat="46.49628" lon="5.34555">
        <ele>220.6</ele>
        <time>2021-12-11T11:11:44Z</time>
      </trkpt>
      <trkpt lat="46.49633" lon="5.34549">
        <ele>219.4</ele>
        <time>2021-12-11T11:11:45Z</time>
      </trkpt>
      <trkpt lat="46.49638" lon="5.34544">
        <ele>219.2</ele>
        <time>2021-12-11T11:11:46Z</time>
      </trkpt>
      <trkpt lat="46.49647" lon="5.34539">
        <ele>218.2</ele>
        <time>2021-12-11T11:11:48Z</time>
      </trkpt>
      <trkpt lat="46.49648" lon="5.34537">
        <ele>218</ele>
        <time>2021-12-11T11:11:49Z</time>
      </trkpt>
      <trkpt lat="46.49649" lon="5.34536">
        <ele>217.6</ele>
        <time>2021-12-11T11:11:52Z</time>
      </trkpt>
      <trkpt lat="46.49653" lon="5.34533">
        <ele>217.6</ele>
        <time>2021-12-11T11:11:59Z</time>
      </trkpt>
      <trkpt lat="46.49656" lon="5.34524">
        <ele>217.8</ele>
        <time>2021-12-11T11:12:01Z</time>
      </trkpt>
      <trkpt lat="46.49662" lon="5.34498">
        <ele>218</ele>
        <time>2021-12-11T11:12:05Z</time>
      </trkpt>
      <trkpt lat="46.49674" lon="5.34455">
        <ele>218.4</ele>
        <time>2021-12-11T11:12:11Z</time>
      </trkpt>
      <trkpt lat="46.49686" lon="5.34419">
        <ele>219.2</ele>
        <time>2021-12-11T11:12:16Z</time>
      </trkpt>
      <trkpt lat="46.49692" lon="5.34397">
        <ele>220</ele>
        <time>2021-12-11T11:12:19Z</time>
      </trkpt>
      <trkpt lat="46.49693" lon="5.3439">
        <ele>220.4</ele>
        <time>2021-12-11T11:12:20Z</time>
      </trkpt>
      <trkpt lat="46.49702" lon="5.34358">
        <ele>221.4</ele>
        <time>2021-12-11T11:12:25Z</time>
      </trkpt>
      <trkpt lat="46.49703" lon="5.34351">
        <ele>221.6</ele>
        <time>2021-12-11T11:12:27Z</time>
      </trkpt>
      <trkpt lat="46.49714" lon="5.34318">
        <ele>222.2</ele>
        <time>2021-12-11T11:12:31Z</time>
      </trkpt>
      <trkpt lat="46.49721" lon="5.34305">
        <ele>222.6</ele>
        <time>2021-12-11T11:12:33Z</time>
      </trkpt>
      <trkpt lat="46.49743" lon="5.34262">
        <ele>223.2</ele>
        <time>2021-12-11T11:12:40Z</time>
      </trkpt>
      <trkpt lat="46.49782" lon="5.34197">
        <ele>223.4</ele>
        <time>2021-12-11T11:12:49Z</time>
      </trkpt>
      <trkpt lat="46.49808" lon="5.34153">
        <ele>223.6</ele>
        <time>2021-12-11T11:12:56Z</time>
      </trkpt>
      <trkpt lat="46.49816" lon="5.34141">
        <ele>223.8</ele>
        <time>2021-12-11T11:12:58Z</time>
      </trkpt>
      <trkpt lat="46.49853" lon="5.34081">
        <ele>224</ele>
        <time>2021-12-11T11:13:07Z</time>
      </trkpt>
      <trkpt lat="46.49857" lon="5.34075">
        <ele>224</ele>
        <time>2021-12-11T11:13:08Z</time>
      </trkpt>
      <trkpt lat="46.49898" lon="5.34027">
        <ele>223.8</ele>
        <time>2021-12-11T11:13:16Z</time>
      </trkpt>
      <trkpt lat="46.49924" lon="5.33998">
        <ele>224</ele>
        <time>2021-12-11T11:13:22Z</time>
      </trkpt>
      <trkpt lat="46.49933" lon="5.33989">
        <ele>224.2</ele>
        <time>2021-12-11T11:13:24Z</time>
      </trkpt>
      <trkpt lat="46.49946" lon="5.33974">
        <ele>224.6</ele>
        <time>2021-12-11T11:13:27Z</time>
      </trkpt>
      <trkpt lat="46.49954" lon="5.33965">
        <ele>225</ele>
        <time>2021-12-11T11:13:29Z</time>
      </trkpt>
      <trkpt lat="46.49975" lon="5.33942">
        <ele>225.6</ele>
        <time>2021-12-11T11:13:34Z</time>
      </trkpt>
      <trkpt lat="46.49979" lon="5.33937">
        <ele>225.6</ele>
        <time>2021-12-11T11:13:35Z</time>
      </trkpt>
      <trkpt lat="46.49984" lon="5.33932">
        <ele>225.8</ele>
        <time>2021-12-11T11:13:36Z</time>
      </trkpt>
      <trkpt lat="46.50013" lon="5.33901">
        <ele>226.6</ele>
        <time>2021-12-11T11:13:42Z</time>
      </trkpt>
      <trkpt lat="46.50018" lon="5.33896">
        <ele>226.8</ele>
        <time>2021-12-11T11:13:43Z</time>
      </trkpt>
      <trkpt lat="46.5006" lon="5.3385">
        <ele>226.8</ele>
        <time>2021-12-11T11:13:51Z</time>
      </trkpt>
      <trkpt lat="46.50107" lon="5.338">
        <ele>225.4</ele>
        <time>2021-12-11T11:13:59Z</time>
      </trkpt>
      <trkpt lat="46.50143" lon="5.3376">
        <ele>224.4</ele>
        <time>2021-12-11T11:14:05Z</time>
      </trkpt>
      <trkpt lat="46.50177" lon="5.33724">
        <ele>224.2</ele>
        <time>2021-12-11T11:14:11Z</time>
      </trkpt>
      <trkpt lat="46.50197" lon="5.33702">
        <ele>224.4</ele>
        <time>2021-12-11T11:14:15Z</time>
      </trkpt>
      <trkpt lat="46.50237" lon="5.33659">
        <ele>224.6</ele>
        <time>2021-12-11T11:14:23Z</time>
      </trkpt>
      <trkpt lat="46.50282" lon="5.33609">
        <ele>224.2</ele>
        <time>2021-12-11T11:14:32Z</time>
      </trkpt>
      <trkpt lat="46.50292" lon="5.33597">
        <ele>224.2</ele>
        <time>2021-12-11T11:14:34Z</time>
      </trkpt>
      <trkpt lat="46.50336" lon="5.33551">
        <ele>223.6</ele>
        <time>2021-12-11T11:14:42Z</time>
      </trkpt>
      <trkpt lat="46.50353" lon="5.33533">
        <ele>223.4</ele>
        <time>2021-12-11T11:14:45Z</time>
      </trkpt>
      <trkpt lat="46.50369" lon="5.33515">
        <ele>223.2</ele>
        <time>2021-12-11T11:14:48Z</time>
      </trkpt>
      <trkpt lat="46.50396" lon="5.33486">
        <ele>223</ele>
        <time>2021-12-11T11:14:53Z</time>
      </trkpt>
      <trkpt lat="46.50441" lon="5.33434">
        <ele>222.2</ele>
        <time>2021-12-11T11:15:01Z</time>
      </trkpt>
      <trkpt lat="46.50445" lon="5.33427">
        <ele>222.2</ele>
        <time>2021-12-11T11:15:02Z</time>
      </trkpt>
      <trkpt lat="46.50463" lon="5.33382">
        <ele>221.6</ele>
        <time>2021-12-11T11:15:07Z</time>
      </trkpt>
      <trkpt lat="46.50468" lon="5.33351">
        <ele>220.8</ele>
        <time>2021-12-11T11:15:10Z</time>
      </trkpt>
      <trkpt lat="46.50469" lon="5.33331">
        <ele>220.6</ele>
        <time>2021-12-11T11:15:12Z</time>
      </trkpt>
      <trkpt lat="46.5047" lon="5.33247">
        <ele>220.4</ele>
        <time>2021-12-11T11:15:21Z</time>
      </trkpt>
      <trkpt lat="46.5047" lon="5.33185">
        <ele>220.8</ele>
        <time>2021-12-11T11:15:29Z</time>
      </trkpt>
      <trkpt lat="46.50472" lon="5.33126">
        <ele>220.2</ele>
        <time>2021-12-11T11:15:34Z</time>
      </trkpt>
      <trkpt lat="46.50473" lon="5.33093">
        <ele>219.6</ele>
        <time>2021-12-11T11:15:37Z</time>
      </trkpt>
      <trkpt lat="46.50474" lon="5.33068">
        <ele>219.2</ele>
        <time>2021-12-11T11:15:39Z</time>
      </trkpt>
      <trkpt lat="46.50474" lon="5.33028">
        <ele>218.4</ele>
        <time>2021-12-11T11:15:42Z</time>
      </trkpt>
      <trkpt lat="46.50474" lon="5.32986">
        <ele>217.2</ele>
        <time>2021-12-11T11:15:45Z</time>
      </trkpt>
      <trkpt lat="46.50475" lon="5.32957">
        <ele>216.2</ele>
        <time>2021-12-11T11:15:47Z</time>
      </trkpt>
      <trkpt lat="46.50475" lon="5.32928">
        <ele>215</ele>
        <time>2021-12-11T11:15:49Z</time>
      </trkpt>
      <trkpt lat="46.50477" lon="5.32885">
        <ele>213.6</ele>
        <time>2021-12-11T11:15:52Z</time>
      </trkpt>
      <trkpt lat="46.50477" lon="5.3287">
        <ele>213</ele>
        <time>2021-12-11T11:15:53Z</time>
      </trkpt>
      <trkpt lat="46.50478" lon="5.32854">
        <ele>212.6</ele>
        <time>2021-12-11T11:15:54Z</time>
      </trkpt>
      <trkpt lat="46.50478" lon="5.3281">
        <ele>211</ele>
        <time>2021-12-11T11:15:57Z</time>
      </trkpt>
      <trkpt lat="46.50479" lon="5.32769">
        <ele>209.4</ele>
        <time>2021-12-11T11:16:00Z</time>
      </trkpt>
      <trkpt lat="46.5048" lon="5.32714">
        <ele>208.2</ele>
        <time>2021-12-11T11:16:04Z</time>
      </trkpt>
      <trkpt lat="46.50481" lon="5.32667">
        <ele>207.4</ele>
        <time>2021-12-11T11:16:08Z</time>
      </trkpt>
      <trkpt lat="46.50481" lon="5.32652">
        <ele>207.2</ele>
        <time>2021-12-11T11:16:09Z</time>
      </trkpt>
      <trkpt lat="46.5048" lon="5.3258">
        <ele>206.2</ele>
        <time>2021-12-11T11:16:15Z</time>
      </trkpt>
      <trkpt lat="46.50479" lon="5.32556">
        <ele>205.8</ele>
        <time>2021-12-11T11:16:17Z</time>
      </trkpt>
      <trkpt lat="46.50475" lon="5.32497">
        <ele>205</ele>
        <time>2021-12-11T11:16:22Z</time>
      </trkpt>
      <trkpt lat="46.5047" lon="5.32442">
        <ele>204.4</ele>
        <time>2021-12-11T11:16:27Z</time>
      </trkpt>
      <trkpt lat="46.50462" lon="5.32396">
        <ele>204</ele>
        <time>2021-12-11T11:16:31Z</time>
      </trkpt>
      <trkpt lat="46.50455" lon="5.32365">
        <ele>203.6</ele>
        <time>2021-12-11T11:16:34Z</time>
      </trkpt>
      <trkpt lat="46.5044" lon="5.32289">
        <ele>203.4</ele>
        <time>2021-12-11T11:16:42Z</time>
      </trkpt>
      <trkpt lat="46.50435" lon="5.32224">
        <ele>203.6</ele>
        <time>2021-12-11T11:16:49Z</time>
      </trkpt>
      <trkpt lat="46.50436" lon="5.32205">
        <ele>203.2</ele>
        <time>2021-12-11T11:16:51Z</time>
      </trkpt>
      <trkpt lat="46.50444" lon="5.32192">
        <ele>203.2</ele>
        <time>2021-12-11T11:16:53Z</time>
      </trkpt>
      <trkpt lat="46.50465" lon="5.32172">
        <ele>203</ele>
        <time>2021-12-11T11:16:57Z</time>
      </trkpt>
      <trkpt lat="46.50469" lon="5.32165">
        <ele>203</ele>
        <time>2021-12-11T11:16:58Z</time>
      </trkpt>
      <trkpt lat="46.50473" lon="5.32157">
        <ele>202.8</ele>
        <time>2021-12-11T11:16:59Z</time>
      </trkpt>
      <trkpt lat="46.50481" lon="5.3213">
        <ele>202.6</ele>
        <time>2021-12-11T11:17:02Z</time>
      </trkpt>
      <trkpt lat="46.505" lon="5.3208">
        <ele>202.6</ele>
        <time>2021-12-11T11:17:08Z</time>
      </trkpt>
      <trkpt lat="46.50534" lon="5.32023">
        <ele>203.2</ele>
        <time>2021-12-11T11:17:16Z</time>
      </trkpt>
      <trkpt lat="46.50555" lon="5.31988">
        <ele>203.4</ele>
        <time>2021-12-11T11:17:22Z</time>
      </trkpt>
      <trkpt lat="46.50558" lon="5.31981">
        <ele>203.4</ele>
        <time>2021-12-11T11:17:23Z</time>
      </trkpt>
      <trkpt lat="46.50567" lon="5.31957">
        <ele>204</ele>
        <time>2021-12-11T11:17:27Z</time>
      </trkpt>
      <trkpt lat="46.50572" lon="5.31944">
        <ele>204.6</ele>
        <time>2021-12-11T11:17:29Z</time>
      </trkpt>
      <trkpt lat="46.50574" lon="5.31938">
        <ele>204.8</ele>
        <time>2021-12-11T11:17:30Z</time>
      </trkpt>
      <trkpt lat="46.50578" lon="5.31928">
        <ele>205</ele>
        <time>2021-12-11T11:17:32Z</time>
      </trkpt>
      <trkpt lat="46.50579" lon="5.31922">
        <ele>205.2</ele>
        <time>2021-12-11T11:17:33Z</time>
      </trkpt>
      <trkpt lat="46.50585" lon="5.31906">
        <ele>206.2</ele>
        <time>2021-12-11T11:17:36Z</time>
      </trkpt>
      <trkpt lat="46.50589" lon="5.31897">
        <ele>207</ele>
        <time>2021-12-11T11:17:38Z</time>
      </trkpt>
      <trkpt lat="46.50593" lon="5.31887">
        <ele>207.2</ele>
        <time>2021-12-11T11:17:40Z</time>
      </trkpt>
      <trkpt lat="46.50598" lon="5.31873">
        <ele>208</ele>
        <time>2021-12-11T11:17:43Z</time>
      </trkpt>
      <trkpt lat="46.50602" lon="5.31864">
        <ele>208.4</ele>
        <time>2021-12-11T11:17:45Z</time>
      </trkpt>
      <trkpt lat="46.50608" lon="5.31849">
        <ele>209</ele>
        <time>2021-12-11T11:17:48Z</time>
      </trkpt>
      <trkpt lat="46.5061" lon="5.31844">
        <ele>209.4</ele>
        <time>2021-12-11T11:17:49Z</time>
      </trkpt>
      <trkpt lat="46.50616" lon="5.3182">
        <ele>210.4</ele>
        <time>2021-12-11T11:17:53Z</time>
      </trkpt>
      <trkpt lat="46.50618" lon="5.31814">
        <ele>210.4</ele>
        <time>2021-12-11T11:17:54Z</time>
      </trkpt>
      <trkpt lat="46.50622" lon="5.31802">
        <ele>210.8</ele>
        <time>2021-12-11T11:17:56Z</time>
      </trkpt>
      <trkpt lat="46.50627" lon="5.31788">
        <ele>211</ele>
        <time>2021-12-11T11:17:58Z</time>
      </trkpt>
      <trkpt lat="46.50634" lon="5.31762">
        <ele>211.8</ele>
        <time>2021-12-11T11:18:02Z</time>
      </trkpt>
      <trkpt lat="46.50636" lon="5.31756">
        <ele>211.8</ele>
        <time>2021-12-11T11:18:03Z</time>
      </trkpt>
      <trkpt lat="46.50642" lon="5.31743">
        <ele>212.2</ele>
        <time>2021-12-11T11:18:05Z</time>
      </trkpt>
      <trkpt lat="46.5065" lon="5.31731">
        <ele>212.2</ele>
        <time>2021-12-11T11:18:07Z</time>
      </trkpt>
      <trkpt lat="46.50658" lon="5.3172">
        <ele>212.4</ele>
        <time>2021-12-11T11:18:09Z</time>
      </trkpt>
      <trkpt lat="46.50663" lon="5.31717">
        <ele>212.4</ele>
        <time>2021-12-11T11:18:10Z</time>
      </trkpt>
      <trkpt lat="46.50668" lon="5.31714">
        <ele>212.4</ele>
        <time>2021-12-11T11:18:11Z</time>
      </trkpt>
      <trkpt lat="46.50684" lon="5.31709">
        <ele>212.4</ele>
        <time>2021-12-11T11:18:14Z</time>
      </trkpt>
      <trkpt lat="46.50729" lon="5.31705">
        <ele>212.6</ele>
        <time>2021-12-11T11:18:22Z</time>
      </trkpt>
      <trkpt lat="46.50765" lon="5.31702">
        <ele>212.6</ele>
        <time>2021-12-11T11:18:28Z</time>
      </trkpt>
      <trkpt lat="46.50773" lon="5.31704">
        <ele>212.6</ele>
        <time>2021-12-11T11:18:29Z</time>
      </trkpt>
      <trkpt lat="46.50778" lon="5.31706">
        <ele>212.6</ele>
        <time>2021-12-11T11:18:30Z</time>
      </trkpt>
      <trkpt lat="46.508" lon="5.31722">
        <ele>212.6</ele>
        <time>2021-12-11T11:18:34Z</time>
      </trkpt>
      <trkpt lat="46.5081" lon="5.31731">
        <ele>212.8</ele>
        <time>2021-12-11T11:18:36Z</time>
      </trkpt>
      <trkpt lat="46.50826" lon="5.31743">
        <ele>212.8</ele>
        <time>2021-12-11T11:18:39Z</time>
      </trkpt>
      <trkpt lat="46.50836" lon="5.31746">
        <ele>213</ele>
        <time>2021-12-11T11:18:41Z</time>
      </trkpt>
      <trkpt lat="46.50846" lon="5.31744">
        <ele>213.2</ele>
        <time>2021-12-11T11:18:43Z</time>
      </trkpt>
      <trkpt lat="46.50857" lon="5.31738">
        <ele>213.4</ele>
        <time>2021-12-11T11:18:45Z</time>
      </trkpt>
      <trkpt lat="46.5088" lon="5.31714">
        <ele>213.8</ele>
        <time>2021-12-11T11:18:50Z</time>
      </trkpt>
      <trkpt lat="46.50885" lon="5.31709">
        <ele>213.8</ele>
        <time>2021-12-11T11:18:51Z</time>
      </trkpt>
      <trkpt lat="46.50925" lon="5.31666">
        <ele>213.8</ele>
        <time>2021-12-11T11:18:59Z</time>
      </trkpt>
      <trkpt lat="46.50963" lon="5.31627">
        <ele>213</ele>
        <time>2021-12-11T11:19:05Z</time>
      </trkpt>
      <trkpt lat="46.50975" lon="5.31615">
        <ele>212.6</ele>
        <time>2021-12-11T11:19:07Z</time>
      </trkpt>
      <trkpt lat="46.51005" lon="5.31582">
        <ele>212.4</ele>
        <time>2021-12-11T11:19:13Z</time>
      </trkpt>
      <trkpt lat="46.51033" lon="5.3155">
        <ele>212.6</ele>
        <time>2021-12-11T11:19:19Z</time>
      </trkpt>
      <trkpt lat="46.5104" lon="5.31535">
        <ele>212.8</ele>
        <time>2021-12-11T11:19:21Z</time>
      </trkpt>
      <trkpt lat="46.51046" lon="5.31517">
        <ele>212.8</ele>
        <time>2021-12-11T11:19:23Z</time>
      </trkpt>
      <trkpt lat="46.51061" lon="5.31453">
        <ele>212.4</ele>
        <time>2021-12-11T11:19:29Z</time>
      </trkpt>
      <trkpt lat="46.51071" lon="5.31406">
        <ele>211.6</ele>
        <time>2021-12-11T11:19:33Z</time>
      </trkpt>
      <trkpt lat="46.51075" lon="5.31384">
        <ele>210.8</ele>
        <time>2021-12-11T11:19:35Z</time>
      </trkpt>
      <trkpt lat="46.51076" lon="5.31373">
        <ele>210.4</ele>
        <time>2021-12-11T11:19:36Z</time>
      </trkpt>
      <trkpt lat="46.51074" lon="5.31349">
        <ele>209.8</ele>
        <time>2021-12-11T11:19:38Z</time>
      </trkpt>
      <trkpt lat="46.51073" lon="5.31337">
        <ele>209.8</ele>
        <time>2021-12-11T11:19:39Z</time>
      </trkpt>
      <trkpt lat="46.51074" lon="5.31325">
        <ele>209.2</ele>
        <time>2021-12-11T11:19:40Z</time>
      </trkpt>
      <trkpt lat="46.51076" lon="5.31313">
        <ele>209</ele>
        <time>2021-12-11T11:19:41Z</time>
      </trkpt>
      <trkpt lat="46.51087" lon="5.31294">
        <ele>208.4</ele>
        <time>2021-12-11T11:19:43Z</time>
      </trkpt>
      <trkpt lat="46.51093" lon="5.31284">
        <ele>208.2</ele>
        <time>2021-12-11T11:19:44Z</time>
      </trkpt>
      <trkpt lat="46.51114" lon="5.31258">
        <ele>207</ele>
        <time>2021-12-11T11:19:47Z</time>
      </trkpt>
      <trkpt lat="46.51121" lon="5.31249">
        <ele>206.8</ele>
        <time>2021-12-11T11:19:48Z</time>
      </trkpt>
      <trkpt lat="46.51128" lon="5.3124">
        <ele>206.4</ele>
        <time>2021-12-11T11:19:49Z</time>
      </trkpt>
      <trkpt lat="46.51141" lon="5.31222">
        <ele>205.2</ele>
        <time>2021-12-11T11:19:51Z</time>
      </trkpt>
      <trkpt lat="46.51162" lon="5.31197">
        <ele>204</ele>
        <time>2021-12-11T11:19:54Z</time>
      </trkpt>
      <trkpt lat="46.51174" lon="5.31181">
        <ele>203.6</ele>
        <time>2021-12-11T11:19:56Z</time>
      </trkpt>
      <trkpt lat="46.51198" lon="5.3115">
        <ele>203</ele>
        <time>2021-12-11T11:20:00Z</time>
      </trkpt>
      <trkpt lat="46.51211" lon="5.31136">
        <ele>202.8</ele>
        <time>2021-12-11T11:20:02Z</time>
      </trkpt>
      <trkpt lat="46.51243" lon="5.31099">
        <ele>202.4</ele>
        <time>2021-12-11T11:20:07Z</time>
      </trkpt>
      <trkpt lat="46.51258" lon="5.31085">
        <ele>202</ele>
        <time>2021-12-11T11:20:09Z</time>
      </trkpt>
      <trkpt lat="46.51274" lon="5.31079">
        <ele>201.6</ele>
        <time>2021-12-11T11:20:11Z</time>
      </trkpt>
      <trkpt lat="46.51297" lon="5.31077">
        <ele>200.6</ele>
        <time>2021-12-11T11:20:14Z</time>
      </trkpt>
      <trkpt lat="46.51319" lon="5.31076">
        <ele>200.2</ele>
        <time>2021-12-11T11:20:17Z</time>
      </trkpt>
      <trkpt lat="46.51373" lon="5.31073">
        <ele>200.2</ele>
        <time>2021-12-11T11:20:25Z</time>
      </trkpt>
      <trkpt lat="46.5138" lon="5.31072">
        <ele>200.2</ele>
        <time>2021-12-11T11:20:26Z</time>
      </trkpt>
      <trkpt lat="46.51438" lon="5.3107">
        <ele>200.2</ele>
        <time>2021-12-11T11:20:35Z</time>
      </trkpt>
      <trkpt lat="46.51493" lon="5.3107">
        <ele>200</ele>
        <time>2021-12-11T11:20:44Z</time>
      </trkpt>
      <trkpt lat="46.51551" lon="5.31074">
        <ele>200.2</ele>
        <time>2021-12-11T11:20:54Z</time>
      </trkpt>
      <trkpt lat="46.51599" lon="5.31084">
        <ele>200.4</ele>
        <time>2021-12-11T11:21:03Z</time>
      </trkpt>
      <trkpt lat="46.51632" lon="5.31101">
        <ele>200.6</ele>
        <time>2021-12-11T11:21:10Z</time>
      </trkpt>
      <trkpt lat="46.51637" lon="5.31103">
        <ele>200.6</ele>
        <time>2021-12-11T11:21:11Z</time>
      </trkpt>
      <trkpt lat="46.51641" lon="5.31103">
        <ele>200.8</ele>
        <time>2021-12-11T11:21:12Z</time>
      </trkpt>
      <trkpt lat="46.51649" lon="5.31103">
        <ele>201</ele>
        <time>2021-12-11T11:21:14Z</time>
      </trkpt>
      <trkpt lat="46.51653" lon="5.31101">
        <ele>201.2</ele>
        <time>2021-12-11T11:21:15Z</time>
      </trkpt>
      <trkpt lat="46.51664" lon="5.31097">
        <ele>202</ele>
        <time>2021-12-11T11:21:18Z</time>
      </trkpt>
      <trkpt lat="46.51666" lon="5.31094">
        <ele>202.2</ele>
        <time>2021-12-11T11:21:19Z</time>
      </trkpt>
      <trkpt lat="46.51668" lon="5.31089">
        <ele>202.4</ele>
        <time>2021-12-11T11:21:20Z</time>
      </trkpt>
      <trkpt lat="46.5167" lon="5.31078">
        <ele>202.4</ele>
        <time>2021-12-11T11:21:22Z</time>
      </trkpt>
      <trkpt lat="46.51668" lon="5.31063">
        <ele>202.4</ele>
        <time>2021-12-11T11:21:24Z</time>
      </trkpt>
      <trkpt lat="46.51661" lon="5.31016">
        <ele>202.4</ele>
        <time>2021-12-11T11:21:29Z</time>
      </trkpt>
      <trkpt lat="46.51646" lon="5.3093">
        <ele>201.8</ele>
        <time>2021-12-11T11:21:37Z</time>
      </trkpt>
      <trkpt lat="46.51638" lon="5.30883">
        <ele>200.6</ele>
        <time>2021-12-11T11:21:41Z</time>
      </trkpt>
      <trkpt lat="46.51629" lon="5.30848">
        <ele>199.8</ele>
        <time>2021-12-11T11:21:44Z</time>
      </trkpt>
      <trkpt lat="46.51625" lon="5.30836">
        <ele>199.4</ele>
        <time>2021-12-11T11:21:45Z</time>
      </trkpt>
      <trkpt lat="46.51612" lon="5.30803">
        <ele>198</ele>
        <time>2021-12-11T11:21:48Z</time>
      </trkpt>
      <trkpt lat="46.51607" lon="5.30793">
        <ele>197.8</ele>
        <time>2021-12-11T11:21:49Z</time>
      </trkpt>
      <trkpt lat="46.51597" lon="5.30773">
        <ele>197.2</ele>
        <time>2021-12-11T11:21:51Z</time>
      </trkpt>
      <trkpt lat="46.51591" lon="5.30764">
        <ele>196.8</ele>
        <time>2021-12-11T11:21:52Z</time>
      </trkpt>
      <trkpt lat="46.51574" lon="5.30738">
        <ele>196.4</ele>
        <time>2021-12-11T11:21:55Z</time>
      </trkpt>
      <trkpt lat="46.51547" lon="5.30695">
        <ele>195.8</ele>
        <time>2021-12-11T11:22:00Z</time>
      </trkpt>
      <trkpt lat="46.51531" lon="5.30671">
        <ele>195.6</ele>
        <time>2021-12-11T11:22:03Z</time>
      </trkpt>
      <trkpt lat="46.51501" lon="5.30619">
        <ele>195.4</ele>
        <time>2021-12-11T11:22:10Z</time>
      </trkpt>
      <trkpt lat="46.51496" lon="5.30609">
        <ele>195.4</ele>
        <time>2021-12-11T11:22:11Z</time>
      </trkpt>
      <trkpt lat="46.51489" lon="5.30584">
        <ele>195.4</ele>
        <time>2021-12-11T11:22:14Z</time>
      </trkpt>
      <trkpt lat="46.51484" lon="5.30564">
        <ele>195.4</ele>
        <time>2021-12-11T11:22:16Z</time>
      </trkpt>
      <trkpt lat="46.51479" lon="5.30526">
        <ele>195.4</ele>
        <time>2021-12-11T11:22:20Z</time>
      </trkpt>
      <trkpt lat="46.51463" lon="5.30462">
        <ele>195.4</ele>
        <time>2021-12-11T11:22:27Z</time>
      </trkpt>
      <trkpt lat="46.51438" lon="5.30387">
        <ele>195.8</ele>
        <time>2021-12-11T11:22:36Z</time>
      </trkpt>
      <trkpt lat="46.51429" lon="5.30363">
        <ele>195.8</ele>
        <time>2021-12-11T11:22:39Z</time>
      </trkpt>
      <trkpt lat="46.51403" lon="5.30293">
        <ele>196</ele>
        <time>2021-12-11T11:22:48Z</time>
      </trkpt>
      <trkpt lat="46.51397" lon="5.30278">
        <ele>196</ele>
        <time>2021-12-11T11:22:50Z</time>
      </trkpt>
      <trkpt lat="46.51391" lon="5.30262">
        <ele>195.8</ele>
        <time>2021-12-11T11:22:52Z</time>
      </trkpt>
      <trkpt lat="46.5139" lon="5.30245">
        <ele>195.8</ele>
        <time>2021-12-11T11:22:54Z</time>
      </trkpt>
      <trkpt lat="46.51394" lon="5.30229">
        <ele>195.6</ele>
        <time>2021-12-11T11:22:56Z</time>
      </trkpt>
      <trkpt lat="46.51397" lon="5.30223">
        <ele>195.6</ele>
        <time>2021-12-11T11:22:57Z</time>
      </trkpt>
      <trkpt lat="46.51416" lon="5.30178">
        <ele>195.8</ele>
        <time>2021-12-11T11:23:04Z</time>
      </trkpt>
      <trkpt lat="46.51428" lon="5.30147">
        <ele>196.4</ele>
        <time>2021-12-11T11:23:10Z</time>
      </trkpt>
      <trkpt lat="46.51429" lon="5.30143">
        <ele>196.6</ele>
        <time>2021-12-11T11:23:11Z</time>
      </trkpt>
      <trkpt lat="46.51432" lon="5.30131">
        <ele>196.8</ele>
        <time>2021-12-11T11:23:13Z</time>
      </trkpt>
      <trkpt lat="46.51436" lon="5.30117">
        <ele>198</ele>
        <time>2021-12-11T11:23:16Z</time>
      </trkpt>
      <trkpt lat="46.51444" lon="5.30095">
        <ele>199.4</ele>
        <time>2021-12-11T11:23:21Z</time>
      </trkpt>
      <trkpt lat="46.51449" lon="5.30077">
        <ele>200.2</ele>
        <time>2021-12-11T11:23:25Z</time>
      </trkpt>
      <trkpt lat="46.5145" lon="5.30073">
        <ele>200.4</ele>
        <time>2021-12-11T11:23:26Z</time>
      </trkpt>
      <trkpt lat="46.51457" lon="5.30051">
        <ele>201.4</ele>
        <time>2021-12-11T11:23:31Z</time>
      </trkpt>
      <trkpt lat="46.51458" lon="5.30047">
        <ele>201.6</ele>
        <time>2021-12-11T11:23:32Z</time>
      </trkpt>
      <trkpt lat="46.51465" lon="5.30025">
        <ele>202.8</ele>
        <time>2021-12-11T11:23:37Z</time>
      </trkpt>
      <trkpt lat="46.51466" lon="5.3002">
        <ele>203</ele>
        <time>2021-12-11T11:23:38Z</time>
      </trkpt>
      <trkpt lat="46.51472" lon="5.3">
        <ele>203.8</ele>
        <time>2021-12-11T11:23:42Z</time>
      </trkpt>
      <trkpt lat="46.51478" lon="5.29981">
        <ele>204.6</ele>
        <time>2021-12-11T11:23:46Z</time>
      </trkpt>
      <trkpt lat="46.51481" lon="5.29971">
        <ele>204.8</ele>
        <time>2021-12-11T11:23:48Z</time>
      </trkpt>
      <trkpt lat="46.51501" lon="5.29911">
        <ele>205.8</ele>
        <time>2021-12-11T11:23:59Z</time>
      </trkpt>
      <trkpt lat="46.51509" lon="5.29893">
        <ele>205.8</ele>
        <time>2021-12-11T11:24:02Z</time>
      </trkpt>
      <trkpt lat="46.51515" lon="5.29879">
        <ele>205.8</ele>
        <time>2021-12-11T11:24:04Z</time>
      </trkpt>
      <trkpt lat="46.51527" lon="5.29836">
        <ele>205.2</ele>
        <time>2021-12-11T11:24:10Z</time>
      </trkpt>
      <trkpt lat="46.51529" lon="5.2983">
        <ele>205.2</ele>
        <time>2021-12-11T11:24:11Z</time>
      </trkpt>
      <trkpt lat="46.51537" lon="5.29804">
        <ele>205</ele>
        <time>2021-12-11T11:24:15Z</time>
      </trkpt>
      <trkpt lat="46.51547" lon="5.29767">
        <ele>204.8</ele>
        <time>2021-12-11T11:24:19Z</time>
      </trkpt>
      <trkpt lat="46.51549" lon="5.29758">
        <ele>204.8</ele>
        <time>2021-12-11T11:24:20Z</time>
      </trkpt>
      <trkpt lat="46.51555" lon="5.29738">
        <ele>204</ele>
        <time>2021-12-11T11:24:22Z</time>
      </trkpt>
      <trkpt lat="46.51566" lon="5.297">
        <ele>203</ele>
        <time>2021-12-11T11:24:26Z</time>
      </trkpt>
      <trkpt lat="46.51569" lon="5.29692">
        <ele>203</ele>
        <time>2021-12-11T11:24:27Z</time>
      </trkpt>
      <trkpt lat="46.51571" lon="5.29685">
        <ele>203</ele>
        <time>2021-12-11T11:24:28Z</time>
      </trkpt>
      <trkpt lat="46.51574" lon="5.29671">
        <ele>202.8</ele>
        <time>2021-12-11T11:24:30Z</time>
      </trkpt>
      <trkpt lat="46.51576" lon="5.29655">
        <ele>202.8</ele>
        <time>2021-12-11T11:24:32Z</time>
      </trkpt>
      <trkpt lat="46.51577" lon="5.29635">
        <ele>203.4</ele>
        <time>2021-12-11T11:24:35Z</time>
      </trkpt>
      <trkpt lat="46.51577" lon="5.29616">
        <ele>204</ele>
        <time>2021-12-11T11:24:38Z</time>
      </trkpt>
      <trkpt lat="46.51579" lon="5.29597">
        <ele>204.8</ele>
        <time>2021-12-11T11:24:41Z</time>
      </trkpt>
      <trkpt lat="46.5158" lon="5.29591">
        <ele>205</ele>
        <time>2021-12-11T11:24:42Z</time>
      </trkpt>
      <trkpt lat="46.51582" lon="5.29586">
        <ele>205.4</ele>
        <time>2021-12-11T11:24:43Z</time>
      </trkpt>
      <trkpt lat="46.51584" lon="5.29575">
        <ele>205.8</ele>
        <time>2021-12-11T11:24:45Z</time>
      </trkpt>
      <trkpt lat="46.5159" lon="5.29552">
        <ele>206.8</ele>
        <time>2021-12-11T11:24:49Z</time>
      </trkpt>
      <trkpt lat="46.51591" lon="5.29546">
        <ele>206.8</ele>
        <time>2021-12-11T11:24:50Z</time>
      </trkpt>
      <trkpt lat="46.51598" lon="5.29515">
        <ele>207.8</ele>
        <time>2021-12-11T11:24:55Z</time>
      </trkpt>
      <trkpt lat="46.51599" lon="5.29508">
        <ele>208</ele>
        <time>2021-12-11T11:24:56Z</time>
      </trkpt>
      <trkpt lat="46.51602" lon="5.29481">
        <ele>208.4</ele>
        <time>2021-12-11T11:25:00Z</time>
      </trkpt>
      <trkpt lat="46.51602" lon="5.29462">
        <ele>209.2</ele>
        <time>2021-12-11T11:25:03Z</time>
      </trkpt>
      <trkpt lat="46.51599" lon="5.29401">
        <ele>210.2</ele>
        <time>2021-12-11T11:25:12Z</time>
      </trkpt>
      <trkpt lat="46.51599" lon="5.29394">
        <ele>210.2</ele>
        <time>2021-12-11T11:25:13Z</time>
      </trkpt>
      <trkpt lat="46.51602" lon="5.29332">
        <ele>210.4</ele>
        <time>2021-12-11T11:25:22Z</time>
      </trkpt>
      <trkpt lat="46.5161" lon="5.29272">
        <ele>210.4</ele>
        <time>2021-12-11T11:25:29Z</time>
      </trkpt>
      <trkpt lat="46.51616" lon="5.29205">
        <ele>209.4</ele>
        <time>2021-12-11T11:25:36Z</time>
      </trkpt>
      <trkpt lat="46.51616" lon="5.29196">
        <ele>209</ele>
        <time>2021-12-11T11:25:37Z</time>
      </trkpt>
      <trkpt lat="46.51612" lon="5.29165">
        <ele>208.2</ele>
        <time>2021-12-11T11:25:40Z</time>
      </trkpt>
      <trkpt lat="46.5161" lon="5.29154">
        <ele>208</ele>
        <time>2021-12-11T11:25:41Z</time>
      </trkpt>
      <trkpt lat="46.51605" lon="5.29122">
        <ele>206.8</ele>
        <time>2021-12-11T11:25:44Z</time>
      </trkpt>
      <trkpt lat="46.51605" lon="5.29111">
        <ele>206.6</ele>
        <time>2021-12-11T11:25:45Z</time>
      </trkpt>
      <trkpt lat="46.51606" lon="5.291">
        <ele>206.4</ele>
        <time>2021-12-11T11:25:46Z</time>
      </trkpt>
      <trkpt lat="46.51612" lon="5.29079">
        <ele>205.8</ele>
        <time>2021-12-11T11:25:48Z</time>
      </trkpt>
      <trkpt lat="46.51624" lon="5.29054">
        <ele>204.6</ele>
        <time>2021-12-11T11:25:51Z</time>
      </trkpt>
      <trkpt lat="46.51628" lon="5.29047">
        <ele>204.6</ele>
        <time>2021-12-11T11:25:52Z</time>
      </trkpt>
      <trkpt lat="46.51635" lon="5.29033">
        <ele>204.4</ele>
        <time>2021-12-11T11:25:54Z</time>
      </trkpt>
      <trkpt lat="46.5164" lon="5.29015">
        <ele>204.2</ele>
        <time>2021-12-11T11:25:56Z</time>
      </trkpt>
      <trkpt lat="46.51643" lon="5.2896">
        <ele>204.8</ele>
        <time>2021-12-11T11:26:02Z</time>
      </trkpt>
      <trkpt lat="46.51646" lon="5.28927">
        <ele>205.8</ele>
        <time>2021-12-11T11:26:06Z</time>
      </trkpt>
      <trkpt lat="46.5165" lon="5.28902">
        <ele>206.4</ele>
        <time>2021-12-11T11:26:09Z</time>
      </trkpt>
      <trkpt lat="46.51655" lon="5.28887">
        <ele>207</ele>
        <time>2021-12-11T11:26:11Z</time>
      </trkpt>
      <trkpt lat="46.51662" lon="5.28865">
        <ele>207.6</ele>
        <time>2021-12-11T11:26:14Z</time>
      </trkpt>
      <trkpt lat="46.51665" lon="5.28858">
        <ele>207.6</ele>
        <time>2021-12-11T11:26:15Z</time>
      </trkpt>
      <trkpt lat="46.51685" lon="5.28815">
        <ele>207.6</ele>
        <time>2021-12-11T11:26:20Z</time>
      </trkpt>
      <trkpt lat="46.51697" lon="5.28786">
        <ele>206.8</ele>
        <time>2021-12-11T11:26:23Z</time>
      </trkpt>
      <trkpt lat="46.51706" lon="5.28763">
        <ele>206.2</ele>
        <time>2021-12-11T11:26:25Z</time>
      </trkpt>
      <trkpt lat="46.51711" lon="5.28751">
        <ele>206</ele>
        <time>2021-12-11T11:26:26Z</time>
      </trkpt>
      <trkpt lat="46.51724" lon="5.28731">
        <ele>204.2</ele>
        <time>2021-12-11T11:26:28Z</time>
      </trkpt>
      <trkpt lat="46.51741" lon="5.28716">
        <ele>202.4</ele>
        <time>2021-12-11T11:26:30Z</time>
      </trkpt>
      <trkpt lat="46.51751" lon="5.2871">
        <ele>202</ele>
        <time>2021-12-11T11:26:31Z</time>
      </trkpt>
      <trkpt lat="46.51766" lon="5.28703">
        <ele>200.8</ele>
        <time>2021-12-11T11:26:33Z</time>
      </trkpt>
      <trkpt lat="46.51773" lon="5.287">
        <ele>199.6</ele>
        <time>2021-12-11T11:26:34Z</time>
      </trkpt>
      <trkpt lat="46.5178" lon="5.28697">
        <ele>198.8</ele>
        <time>2021-12-11T11:26:35Z</time>
      </trkpt>
      <trkpt lat="46.51787" lon="5.28695">
        <ele>197.6</ele>
        <time>2021-12-11T11:26:36Z</time>
      </trkpt>
      <trkpt lat="46.5181" lon="5.28692">
        <ele>196.2</ele>
        <time>2021-12-11T11:26:39Z</time>
      </trkpt>
      <trkpt lat="46.51817" lon="5.28692">
        <ele>196</ele>
        <time>2021-12-11T11:26:40Z</time>
      </trkpt>
      <trkpt lat="46.51832" lon="5.28695">
        <ele>195</ele>
        <time>2021-12-11T11:26:42Z</time>
      </trkpt>
      <trkpt lat="46.51853" lon="5.28703">
        <ele>193.8</ele>
        <time>2021-12-11T11:26:45Z</time>
      </trkpt>
      <trkpt lat="46.51886" lon="5.28729">
        <ele>193.2</ele>
        <time>2021-12-11T11:26:50Z</time>
      </trkpt>
      <trkpt lat="46.51898" lon="5.2874">
        <ele>192.8</ele>
        <time>2021-12-11T11:26:52Z</time>
      </trkpt>
      <trkpt lat="46.51912" lon="5.28746">
        <ele>192.4</ele>
        <time>2021-12-11T11:26:54Z</time>
      </trkpt>
      <trkpt lat="46.51957" lon="5.28752">
        <ele>192</ele>
        <time>2021-12-11T11:27:00Z</time>
      </trkpt>
      <trkpt lat="46.51973" lon="5.28752">
        <ele>191.4</ele>
        <time>2021-12-11T11:27:02Z</time>
      </trkpt>
      <trkpt lat="46.51996" lon="5.28747">
        <ele>191</ele>
        <time>2021-12-11T11:27:05Z</time>
      </trkpt>
      <trkpt lat="46.52018" lon="5.28735">
        <ele>190.4</ele>
        <time>2021-12-11T11:27:08Z</time>
      </trkpt>
      <trkpt lat="46.5204" lon="5.28724">
        <ele>189.4</ele>
        <time>2021-12-11T11:27:11Z</time>
      </trkpt>
      <trkpt lat="46.52047" lon="5.28721">
        <ele>189.4</ele>
        <time>2021-12-11T11:27:12Z</time>
      </trkpt>
      <trkpt lat="46.52084" lon="5.28714">
        <ele>189</ele>
        <time>2021-12-11T11:27:17Z</time>
      </trkpt>
      <trkpt lat="46.5214" lon="5.28698">
        <ele>188.6</ele>
        <time>2021-12-11T11:27:25Z</time>
      </trkpt>
      <trkpt lat="46.52162" lon="5.28689">
        <ele>188</ele>
        <time>2021-12-11T11:27:28Z</time>
      </trkpt>
      <trkpt lat="46.52201" lon="5.28673">
        <ele>187.2</ele>
        <time>2021-12-11T11:27:34Z</time>
      </trkpt>
      <trkpt lat="46.5224" lon="5.28662">
        <ele>187.4</ele>
        <time>2021-12-11T11:27:40Z</time>
      </trkpt>
      <trkpt lat="46.52269" lon="5.2866">
        <ele>188.4</ele>
        <time>2021-12-11T11:27:45Z</time>
      </trkpt>
      <trkpt lat="46.52304" lon="5.28658">
        <ele>189.2</ele>
        <time>2021-12-11T11:27:52Z</time>
      </trkpt>
      <trkpt lat="46.52347" lon="5.28653">
        <ele>190.4</ele>
        <time>2021-12-11T11:28:01Z</time>
      </trkpt>
      <trkpt lat="46.52378" lon="5.28648">
        <ele>191.6</ele>
        <time>2021-12-11T11:28:08Z</time>
      </trkpt>
      <trkpt lat="46.52387" lon="5.28647">
        <ele>192</ele>
        <time>2021-12-11T11:28:10Z</time>
      </trkpt>
      <trkpt lat="46.52413" lon="5.2864">
        <ele>192.8</ele>
        <time>2021-12-11T11:28:17Z</time>
      </trkpt>
      <trkpt lat="46.52422" lon="5.28638">
        <ele>193.4</ele>
        <time>2021-12-11T11:28:19Z</time>
      </trkpt>
      <trkpt lat="46.52429" lon="5.28636">
        <ele>193.8</ele>
        <time>2021-12-11T11:28:21Z</time>
      </trkpt>
      <trkpt lat="46.52438" lon="5.28635">
        <ele>194.4</ele>
        <time>2021-12-11T11:28:23Z</time>
      </trkpt>
      <trkpt lat="46.52446" lon="5.28634">
        <ele>194.8</ele>
        <time>2021-12-11T11:28:25Z</time>
      </trkpt>
      <trkpt lat="46.52465" lon="5.28631">
        <ele>195.8</ele>
        <time>2021-12-11T11:28:30Z</time>
      </trkpt>
      <trkpt lat="46.5248" lon="5.28628">
        <ele>196.4</ele>
        <time>2021-12-11T11:28:34Z</time>
      </trkpt>
      <trkpt lat="46.52487" lon="5.28626">
        <ele>196.8</ele>
        <time>2021-12-11T11:28:36Z</time>
      </trkpt>
      <trkpt lat="46.52505" lon="5.28623">
        <ele>198</ele>
        <time>2021-12-11T11:28:41Z</time>
      </trkpt>
      <trkpt lat="46.52509" lon="5.28623">
        <ele>198.2</ele>
        <time>2021-12-11T11:28:42Z</time>
      </trkpt>
      <trkpt lat="46.52527" lon="5.2862">
        <ele>199.2</ele>
        <time>2021-12-11T11:28:47Z</time>
      </trkpt>
      <trkpt lat="46.52534" lon="5.28619">
        <ele>199.6</ele>
        <time>2021-12-11T11:28:49Z</time>
      </trkpt>
      <trkpt lat="46.52545" lon="5.28617">
        <ele>200.2</ele>
        <time>2021-12-11T11:28:52Z</time>
      </trkpt>
      <trkpt lat="46.5256" lon="5.28613">
        <ele>201.2</ele>
        <time>2021-12-11T11:28:56Z</time>
      </trkpt>
      <trkpt lat="46.52571" lon="5.28611">
        <ele>201.6</ele>
        <time>2021-12-11T11:28:59Z</time>
      </trkpt>
      <trkpt lat="46.52591" lon="5.28609">
        <ele>202.4</ele>
        <time>2021-12-11T11:29:04Z</time>
      </trkpt>
      <trkpt lat="46.5261" lon="5.28611">
        <ele>203</ele>
        <time>2021-12-11T11:29:09Z</time>
      </trkpt>
      <trkpt lat="46.52628" lon="5.28616">
        <ele>203.6</ele>
        <time>2021-12-11T11:29:14Z</time>
      </trkpt>
      <trkpt lat="46.52647" lon="5.28623">
        <ele>204.4</ele>
        <time>2021-12-11T11:29:19Z</time>
      </trkpt>
      <trkpt lat="46.52655" lon="5.28625">
        <ele>204.8</ele>
        <time>2021-12-11T11:29:21Z</time>
      </trkpt>
      <trkpt lat="46.52682" lon="5.28627">
        <ele>205.4</ele>
        <time>2021-12-11T11:29:27Z</time>
      </trkpt>
      <trkpt lat="46.52728" lon="5.2862">
        <ele>205.6</ele>
        <time>2021-12-11T11:29:36Z</time>
      </trkpt>
      <trkpt lat="46.52764" lon="5.28614">
        <ele>206</ele>
        <time>2021-12-11T11:29:43Z</time>
      </trkpt>
      <trkpt lat="46.52769" lon="5.28613">
        <ele>206</ele>
        <time>2021-12-11T11:29:44Z</time>
      </trkpt>
      <trkpt lat="46.52818" lon="5.28604">
        <ele>206.8</ele>
        <time>2021-12-11T11:29:54Z</time>
      </trkpt>
      <trkpt lat="46.52823" lon="5.28603">
        <ele>207</ele>
        <time>2021-12-11T11:29:55Z</time>
      </trkpt>
      <trkpt lat="46.52858" lon="5.28596">
        <ele>207.4</ele>
        <time>2021-12-11T11:30:02Z</time>
      </trkpt>
      <trkpt lat="46.52913" lon="5.28586">
        <ele>207.6</ele>
        <time>2021-12-11T11:30:12Z</time>
      </trkpt>
      <trkpt lat="46.52919" lon="5.28585">
        <ele>207.6</ele>
        <time>2021-12-11T11:30:13Z</time>
      </trkpt>
      <trkpt lat="46.52958" lon="5.28578">
        <ele>207.6</ele>
        <time>2021-12-11T11:30:20Z</time>
      </trkpt>
      <trkpt lat="46.53015" lon="5.28567">
        <ele>207</ele>
        <time>2021-12-11T11:30:29Z</time>
      </trkpt>
      <trkpt lat="46.53049" lon="5.28561">
        <ele>206.4</ele>
        <time>2021-12-11T11:30:34Z</time>
      </trkpt>
      <trkpt lat="46.53078" lon="5.28554">
        <ele>205.4</ele>
        <time>2021-12-11T11:30:38Z</time>
      </trkpt>
      <trkpt lat="46.53115" lon="5.28548">
        <ele>204.4</ele>
        <time>2021-12-11T11:30:43Z</time>
      </trkpt>
      <trkpt lat="46.53123" lon="5.28546">
        <ele>204.4</ele>
        <time>2021-12-11T11:30:44Z</time>
      </trkpt>
      <trkpt lat="46.53166" lon="5.28535">
        <ele>203.4</ele>
        <time>2021-12-11T11:30:50Z</time>
      </trkpt>
      <trkpt lat="46.53173" lon="5.28533">
        <ele>203</ele>
        <time>2021-12-11T11:30:51Z</time>
      </trkpt>
      <trkpt lat="46.53212" lon="5.28527">
        <ele>201.6</ele>
        <time>2021-12-11T11:30:56Z</time>
      </trkpt>
      <trkpt lat="46.53221" lon="5.28526">
        <ele>201.4</ele>
        <time>2021-12-11T11:30:57Z</time>
      </trkpt>
      <trkpt lat="46.53237" lon="5.28524">
        <ele>200.6</ele>
        <time>2021-12-11T11:30:59Z</time>
      </trkpt>
      <trkpt lat="46.53263" lon="5.28523">
        <ele>199.6</ele>
        <time>2021-12-11T11:31:02Z</time>
      </trkpt>
      <trkpt lat="46.53282" lon="5.28523">
        <ele>198.6</ele>
        <time>2021-12-11T11:31:04Z</time>
      </trkpt>
      <trkpt lat="46.53291" lon="5.28523">
        <ele>198.2</ele>
        <time>2021-12-11T11:31:05Z</time>
      </trkpt>
      <trkpt lat="46.53309" lon="5.28525">
        <ele>197</ele>
        <time>2021-12-11T11:31:07Z</time>
      </trkpt>
      <trkpt lat="46.53326" lon="5.28528">
        <ele>196.4</ele>
        <time>2021-12-11T11:31:09Z</time>
      </trkpt>
      <trkpt lat="46.53333" lon="5.28531">
        <ele>196</ele>
        <time>2021-12-11T11:31:10Z</time>
      </trkpt>
      <trkpt lat="46.5334" lon="5.28533">
        <ele>195.8</ele>
        <time>2021-12-11T11:31:11Z</time>
      </trkpt>
      <trkpt lat="46.53347" lon="5.28532">
        <ele>195.8</ele>
        <time>2021-12-11T11:31:12Z</time>
      </trkpt>
      <trkpt lat="46.53352" lon="5.28527">
        <ele>195.8</ele>
        <time>2021-12-11T11:31:13Z</time>
      </trkpt>
      <trkpt lat="46.53355" lon="5.28521">
        <ele>195.8</ele>
        <time>2021-12-11T11:31:14Z</time>
      </trkpt>
      <trkpt lat="46.53357" lon="5.28513">
        <ele>195.8</ele>
        <time>2021-12-11T11:31:15Z</time>
      </trkpt>
      <trkpt lat="46.53357" lon="5.28495">
        <ele>195.8</ele>
        <time>2021-12-11T11:31:17Z</time>
      </trkpt>
      <trkpt lat="46.53361" lon="5.28407">
        <ele>196.2</ele>
        <time>2021-12-11T11:31:26Z</time>
      </trkpt>
      <trkpt lat="46.53365" lon="5.28323">
        <ele>196.4</ele>
        <time>2021-12-11T11:31:35Z</time>
      </trkpt>
      <trkpt lat="46.53366" lon="5.28309">
        <ele>196.6</ele>
        <time>2021-12-11T11:31:37Z</time>
      </trkpt>
      <trkpt lat="46.53366" lon="5.28296">
        <ele>197.2</ele>
        <time>2021-12-11T11:31:39Z</time>
      </trkpt>
      <trkpt lat="46.53366" lon="5.28289">
        <ele>197.4</ele>
        <time>2021-12-11T11:31:40Z</time>
      </trkpt>
      <trkpt lat="46.53366" lon="5.28263">
        <ele>198.2</ele>
        <time>2021-12-11T11:31:44Z</time>
      </trkpt>
      <trkpt lat="46.53366" lon="5.2825">
        <ele>198.6</ele>
        <time>2021-12-11T11:31:46Z</time>
      </trkpt>
      <trkpt lat="46.53366" lon="5.28237">
        <ele>199</ele>
        <time>2021-12-11T11:31:48Z</time>
      </trkpt>
      <trkpt lat="46.53366" lon="5.28226">
        <ele>199.6</ele>
        <time>2021-12-11T11:31:50Z</time>
      </trkpt>
      <trkpt lat="46.53366" lon="5.28214">
        <ele>200</ele>
        <time>2021-12-11T11:31:52Z</time>
      </trkpt>
      <trkpt lat="46.53367" lon="5.28203">
        <ele>200.6</ele>
        <time>2021-12-11T11:31:54Z</time>
      </trkpt>
      <trkpt lat="46.53367" lon="5.28192">
        <ele>201.2</ele>
        <time>2021-12-11T11:31:56Z</time>
      </trkpt>
      <trkpt lat="46.53367" lon="5.28188">
        <ele>201.4</ele>
        <time>2021-12-11T11:31:57Z</time>
      </trkpt>
      <trkpt lat="46.53367" lon="5.28184">
        <ele>202</ele>
        <time>2021-12-11T11:31:58Z</time>
      </trkpt>
      <trkpt lat="46.53367" lon="5.28176">
        <ele>202.4</ele>
        <time>2021-12-11T11:32:00Z</time>
      </trkpt>
      <trkpt lat="46.53368" lon="5.28172">
        <ele>202.4</ele>
        <time>2021-12-11T11:32:01Z</time>
      </trkpt>
      <trkpt lat="46.5337" lon="5.2816">
        <ele>203.2</ele>
        <time>2021-12-11T11:32:04Z</time>
      </trkpt>
      <trkpt lat="46.5337" lon="5.28147">
        <ele>204</ele>
        <time>2021-12-11T11:32:07Z</time>
      </trkpt>
      <trkpt lat="46.5337" lon="5.28143">
        <ele>204.2</ele>
        <time>2021-12-11T11:32:08Z</time>
      </trkpt>
      <trkpt lat="46.53371" lon="5.28138">
        <ele>204.4</ele>
        <time>2021-12-11T11:32:09Z</time>
      </trkpt>
      <trkpt lat="46.53375" lon="5.28108">
        <ele>205.6</ele>
        <time>2021-12-11T11:32:14Z</time>
      </trkpt>
      <trkpt lat="46.53375" lon="5.2808">
        <ele>206.6</ele>
        <time>2021-12-11T11:32:21Z</time>
      </trkpt>
      <trkpt lat="46.53375" lon="5.28079">
        <ele>206.8</ele>
        <time>2021-12-11T11:32:22Z</time>
      </trkpt>
      <trkpt lat="46.53376" lon="5.28064">
        <ele>206.8</ele>
        <time>2021-12-11T11:34:08Z</time>
      </trkpt>
      <trkpt lat="46.53377" lon="5.28054">
        <ele>206.6</ele>
        <time>2021-12-11T11:34:10Z</time>
      </trkpt>
      <trkpt lat="46.53379" lon="5.28032">
        <ele>206.6</ele>
        <time>2021-12-11T11:34:13Z</time>
      </trkpt>
      <trkpt lat="46.53379" lon="5.28024">
        <ele>206.6</ele>
        <time>2021-12-11T11:34:14Z</time>
      </trkpt>
      <trkpt lat="46.53379" lon="5.28016">
        <ele>206.6</ele>
        <time>2021-12-11T11:34:15Z</time>
      </trkpt>
      <trkpt lat="46.5338" lon="5.27998">
        <ele>206.8</ele>
        <time>2021-12-11T11:34:17Z</time>
      </trkpt>
      <trkpt lat="46.5338" lon="5.27988">
        <ele>206.8</ele>
        <time>2021-12-11T11:34:18Z</time>
      </trkpt>
      <trkpt lat="46.53381" lon="5.27927">
        <ele>206.8</ele>
        <time>2021-12-11T11:34:24Z</time>
      </trkpt>
      <trkpt lat="46.53382" lon="5.27856">
        <ele>207.2</ele>
        <time>2021-12-11T11:34:31Z</time>
      </trkpt>
      <trkpt lat="46.53382" lon="5.27815">
        <ele>207.2</ele>
        <time>2021-12-11T11:34:35Z</time>
      </trkpt>
      <trkpt lat="46.53383" lon="5.27794">
        <ele>207</ele>
        <time>2021-12-11T11:34:37Z</time>
      </trkpt>
      <trkpt lat="46.5338" lon="5.27734">
        <ele>206</ele>
        <time>2021-12-11T11:34:43Z</time>
      </trkpt>
      <trkpt lat="46.53367" lon="5.27687">
        <ele>205.6</ele>
        <time>2021-12-11T11:34:48Z</time>
      </trkpt>
      <trkpt lat="46.53363" lon="5.27676">
        <ele>205.4</ele>
        <time>2021-12-11T11:34:49Z</time>
      </trkpt>
      <trkpt lat="46.53343" lon="5.27627">
        <ele>204.2</ele>
        <time>2021-12-11T11:34:54Z</time>
      </trkpt>
      <trkpt lat="46.53339" lon="5.27617">
        <ele>203.6</ele>
        <time>2021-12-11T11:34:55Z</time>
      </trkpt>
      <trkpt lat="46.53335" lon="5.27606">
        <ele>203.2</ele>
        <time>2021-12-11T11:34:56Z</time>
      </trkpt>
      <trkpt lat="46.53323" lon="5.27574">
        <ele>202</ele>
        <time>2021-12-11T11:34:59Z</time>
      </trkpt>
      <trkpt lat="46.53312" lon="5.27547">
        <ele>201.6</ele>
        <time>2021-12-11T11:35:02Z</time>
      </trkpt>
      <trkpt lat="46.53294" lon="5.27502">
        <ele>201.4</ele>
        <time>2021-12-11T11:35:07Z</time>
      </trkpt>
      <trkpt lat="46.53273" lon="5.27457">
        <ele>200.8</ele>
        <time>2021-12-11T11:35:12Z</time>
      </trkpt>
      <trkpt lat="46.53269" lon="5.27447">
        <ele>200.6</ele>
        <time>2021-12-11T11:35:13Z</time>
      </trkpt>
      <trkpt lat="46.53267" lon="5.27426">
        <ele>199.8</ele>
        <time>2021-12-11T11:35:15Z</time>
      </trkpt>
      <trkpt lat="46.53269" lon="5.27416">
        <ele>199.8</ele>
        <time>2021-12-11T11:35:16Z</time>
      </trkpt>
      <trkpt lat="46.53273" lon="5.27409">
        <ele>199</ele>
        <time>2021-12-11T11:35:17Z</time>
      </trkpt>
      <trkpt lat="46.53279" lon="5.27405">
        <ele>198.8</ele>
        <time>2021-12-11T11:35:18Z</time>
      </trkpt>
      <trkpt lat="46.53285" lon="5.27403">
        <ele>198.6</ele>
        <time>2021-12-11T11:35:19Z</time>
      </trkpt>
      <trkpt lat="46.53297" lon="5.27401">
        <ele>198.2</ele>
        <time>2021-12-11T11:35:21Z</time>
      </trkpt>
      <trkpt lat="46.53303" lon="5.27399">
        <ele>198</ele>
        <time>2021-12-11T11:35:22Z</time>
      </trkpt>
      <trkpt lat="46.53335" lon="5.2739">
        <ele>198.4</ele>
        <time>2021-12-11T11:35:28Z</time>
      </trkpt>
      <trkpt lat="46.53367" lon="5.27375">
        <ele>199.8</ele>
        <time>2021-12-11T11:35:34Z</time>
      </trkpt>
      <trkpt lat="46.53372" lon="5.27371">
        <ele>200</ele>
        <time>2021-12-11T11:35:35Z</time>
      </trkpt>
      <trkpt lat="46.53411" lon="5.27343">
        <ele>200.4</ele>
        <time>2021-12-11T11:35:41Z</time>
      </trkpt>
      <trkpt lat="46.53455" lon="5.27311">
        <ele>198.2</ele>
        <time>2021-12-11T11:35:47Z</time>
      </trkpt>
      <trkpt lat="46.53463" lon="5.27305">
        <ele>197.6</ele>
        <time>2021-12-11T11:35:48Z</time>
      </trkpt>
      <trkpt lat="46.53471" lon="5.27299">
        <ele>197</ele>
        <time>2021-12-11T11:35:49Z</time>
      </trkpt>
      <trkpt lat="46.53495" lon="5.27281">
        <ele>195.8</ele>
        <time>2021-12-11T11:35:52Z</time>
      </trkpt>
      <trkpt lat="46.53512" lon="5.27269">
        <ele>194.6</ele>
        <time>2021-12-11T11:35:54Z</time>
      </trkpt>
      <trkpt lat="46.53529" lon="5.27257">
        <ele>193.2</ele>
        <time>2021-12-11T11:35:56Z</time>
      </trkpt>
      <trkpt lat="46.53546" lon="5.27248">
        <ele>192</ele>
        <time>2021-12-11T11:35:58Z</time>
      </trkpt>
      <trkpt lat="46.53562" lon="5.27241">
        <ele>191.2</ele>
        <time>2021-12-11T11:36:00Z</time>
      </trkpt>
      <trkpt lat="46.53571" lon="5.27239">
        <ele>190.6</ele>
        <time>2021-12-11T11:36:01Z</time>
      </trkpt>
      <trkpt lat="46.53603" lon="5.27232">
        <ele>189.8</ele>
        <time>2021-12-11T11:36:05Z</time>
      </trkpt>
      <trkpt lat="46.53611" lon="5.27231">
        <ele>189.6</ele>
        <time>2021-12-11T11:36:06Z</time>
      </trkpt>
      <trkpt lat="46.53658" lon="5.27222">
        <ele>189</ele>
        <time>2021-12-11T11:36:12Z</time>
      </trkpt>
      <trkpt lat="46.53688" lon="5.27216">
        <ele>188.6</ele>
        <time>2021-12-11T11:36:16Z</time>
      </trkpt>
      <trkpt lat="46.53718" lon="5.27212">
        <ele>188</ele>
        <time>2021-12-11T11:36:20Z</time>
      </trkpt>
      <trkpt lat="46.53747" lon="5.27203">
        <ele>187.4</ele>
        <time>2021-12-11T11:36:24Z</time>
      </trkpt>
      <trkpt lat="46.53762" lon="5.27195">
        <ele>187</ele>
        <time>2021-12-11T11:36:26Z</time>
      </trkpt>
      <trkpt lat="46.53818" lon="5.27163">
        <ele>186.8</ele>
        <time>2021-12-11T11:36:34Z</time>
      </trkpt>
      <trkpt lat="46.53825" lon="5.27159">
        <ele>186.6</ele>
        <time>2021-12-11T11:36:35Z</time>
      </trkpt>
      <trkpt lat="46.53877" lon="5.27129">
        <ele>186.6</ele>
        <time>2021-12-11T11:36:43Z</time>
      </trkpt>
      <trkpt lat="46.53883" lon="5.27126">
        <ele>186.8</ele>
        <time>2021-12-11T11:36:44Z</time>
      </trkpt>
      <trkpt lat="46.53913" lon="5.27112">
        <ele>187</ele>
        <time>2021-12-11T11:36:49Z</time>
      </trkpt>
      <trkpt lat="46.53946" lon="5.27094">
        <ele>186.8</ele>
        <time>2021-12-11T11:36:55Z</time>
      </trkpt>
      <trkpt lat="46.53972" lon="5.27078">
        <ele>186.6</ele>
        <time>2021-12-11T11:37:00Z</time>
      </trkpt>
      <trkpt lat="46.53989" lon="5.27063">
        <ele>186.8</ele>
        <time>2021-12-11T11:37:04Z</time>
      </trkpt>
      <trkpt lat="46.53993" lon="5.2706">
        <ele>187</ele>
        <time>2021-12-11T11:37:05Z</time>
      </trkpt>
      <trkpt lat="46.53995" lon="5.27055">
        <ele>187.2</ele>
        <time>2021-12-11T11:37:06Z</time>
      </trkpt>
      <trkpt lat="46.53997" lon="5.27043">
        <ele>187.2</ele>
        <time>2021-12-11T11:37:08Z</time>
      </trkpt>
      <trkpt lat="46.53995" lon="5.27029">
        <ele>187.2</ele>
        <time>2021-12-11T11:37:10Z</time>
      </trkpt>
      <trkpt lat="46.53992" lon="5.27021">
        <ele>187.2</ele>
        <time>2021-12-11T11:37:11Z</time>
      </trkpt>
      <trkpt lat="46.5397" lon="5.26969">
        <ele>186.6</ele>
        <time>2021-12-11T11:37:17Z</time>
      </trkpt>
      <trkpt lat="46.53957" lon="5.26942">
        <ele>186.4</ele>
        <time>2021-12-11T11:37:20Z</time>
      </trkpt>
      <trkpt lat="46.53939" lon="5.2691">
        <ele>185.6</ele>
        <time>2021-12-11T11:37:24Z</time>
      </trkpt>
      <trkpt lat="46.5392" lon="5.2688">
        <ele>185.4</ele>
        <time>2021-12-11T11:37:28Z</time>
      </trkpt>
      <trkpt lat="46.53892" lon="5.26838">
        <ele>185</ele>
        <time>2021-12-11T11:37:34Z</time>
      </trkpt>
      <trkpt lat="46.53858" lon="5.26782">
        <ele>185</ele>
        <time>2021-12-11T11:37:42Z</time>
      </trkpt>
      <trkpt lat="46.53841" lon="5.26747">
        <ele>185</ele>
        <time>2021-12-11T11:37:47Z</time>
      </trkpt>
      <trkpt lat="46.53839" lon="5.26738">
        <ele>185.2</ele>
        <time>2021-12-11T11:37:48Z</time>
      </trkpt>
      <trkpt lat="46.53836" lon="5.26721">
        <ele>185.2</ele>
        <time>2021-12-11T11:37:50Z</time>
      </trkpt>
      <trkpt lat="46.53837" lon="5.26693">
        <ele>185</ele>
        <time>2021-12-11T11:37:53Z</time>
      </trkpt>
      <trkpt lat="46.5384" lon="5.26676">
        <ele>185</ele>
        <time>2021-12-11T11:37:55Z</time>
      </trkpt>
      <trkpt lat="46.53846" lon="5.26659">
        <ele>185</ele>
        <time>2021-12-11T11:37:57Z</time>
      </trkpt>
      <trkpt lat="46.5385" lon="5.26651">
        <ele>185</ele>
        <time>2021-12-11T11:37:58Z</time>
      </trkpt>
      <trkpt lat="46.53879" lon="5.26607">
        <ele>184.8</ele>
        <time>2021-12-11T11:38:05Z</time>
      </trkpt>
      <trkpt lat="46.53895" lon="5.26575">
        <ele>185.2</ele>
        <time>2021-12-11T11:38:11Z</time>
      </trkpt>
      <trkpt lat="46.53897" lon="5.2657">
        <ele>185.6</ele>
        <time>2021-12-11T11:38:12Z</time>
      </trkpt>
      <trkpt lat="46.53905" lon="5.26549">
        <ele>186.4</ele>
        <time>2021-12-11T11:38:16Z</time>
      </trkpt>
      <trkpt lat="46.53916" lon="5.26514">
        <ele>187.4</ele>
        <time>2021-12-11T11:38:22Z</time>
      </trkpt>
      <trkpt lat="46.53922" lon="5.26496">
        <ele>188.2</ele>
        <time>2021-12-11T11:38:25Z</time>
      </trkpt>
      <trkpt lat="46.53925" lon="5.2649">
        <ele>188.4</ele>
        <time>2021-12-11T11:38:26Z</time>
      </trkpt>
      <trkpt lat="46.53941" lon="5.26446">
        <ele>189.6</ele>
        <time>2021-12-11T11:38:33Z</time>
      </trkpt>
      <trkpt lat="46.53945" lon="5.26434">
        <ele>189.6</ele>
        <time>2021-12-11T11:38:35Z</time>
      </trkpt>
      <trkpt lat="46.53961" lon="5.26387">
        <ele>190.6</ele>
        <time>2021-12-11T11:38:43Z</time>
      </trkpt>
      <trkpt lat="46.53965" lon="5.26376">
        <ele>190.8</ele>
        <time>2021-12-11T11:38:45Z</time>
      </trkpt>
      <trkpt lat="46.53977" lon="5.2634">
        <ele>191.6</ele>
        <time>2021-12-11T11:38:51Z</time>
      </trkpt>
      <trkpt lat="46.53985" lon="5.26318">
        <ele>192</ele>
        <time>2021-12-11T11:38:55Z</time>
      </trkpt>
      <trkpt lat="46.53995" lon="5.26292">
        <ele>192.8</ele>
        <time>2021-12-11T11:39:00Z</time>
      </trkpt>
      <trkpt lat="46.54004" lon="5.26268">
        <ele>193.6</ele>
        <time>2021-12-11T11:39:05Z</time>
      </trkpt>
      <trkpt lat="46.54006" lon="5.26263">
        <ele>193.8</ele>
        <time>2021-12-11T11:39:06Z</time>
      </trkpt>
      <trkpt lat="46.54016" lon="5.26241">
        <ele>194.8</ele>
        <time>2021-12-11T11:39:11Z</time>
      </trkpt>
      <trkpt lat="46.54018" lon="5.26237">
        <ele>195.2</ele>
        <time>2021-12-11T11:39:12Z</time>
      </trkpt>
      <trkpt lat="46.5403" lon="5.26223">
        <ele>196</ele>
        <time>2021-12-11T11:39:16Z</time>
      </trkpt>
      <trkpt lat="46.5404" lon="5.26215">
        <ele>196.8</ele>
        <time>2021-12-11T11:39:19Z</time>
      </trkpt>
      <trkpt lat="46.54044" lon="5.26213">
        <ele>197.4</ele>
        <time>2021-12-11T11:39:20Z</time>
      </trkpt>
      <trkpt lat="46.54064" lon="5.26202">
        <ele>198.4</ele>
        <time>2021-12-11T11:39:25Z</time>
      </trkpt>
      <trkpt lat="46.54077" lon="5.26195">
        <ele>198.6</ele>
        <time>2021-12-11T11:39:28Z</time>
      </trkpt>
      <trkpt lat="46.54107" lon="5.26178">
        <ele>199.2</ele>
        <time>2021-12-11T11:39:35Z</time>
      </trkpt>
      <trkpt lat="46.54111" lon="5.26174">
        <ele>199.2</ele>
        <time>2021-12-11T11:39:36Z</time>
      </trkpt>
      <trkpt lat="46.54125" lon="5.26157">
        <ele>199.4</ele>
        <time>2021-12-11T11:39:40Z</time>
      </trkpt>
      <trkpt lat="46.54132" lon="5.26149">
        <ele>199.6</ele>
        <time>2021-12-11T11:39:42Z</time>
      </trkpt>
      <trkpt lat="46.54141" lon="5.26144">
        <ele>199.6</ele>
        <time>2021-12-11T11:39:44Z</time>
      </trkpt>
      <trkpt lat="46.54145" lon="5.26143">
        <ele>199.8</ele>
        <time>2021-12-11T11:39:45Z</time>
      </trkpt>
      <trkpt lat="46.54186" lon="5.26135">
        <ele>200.2</ele>
        <time>2021-12-11T11:39:53Z</time>
      </trkpt>
      <trkpt lat="46.54192" lon="5.26137">
        <ele>200.2</ele>
        <time>2021-12-11T11:39:54Z</time>
      </trkpt>
      <trkpt lat="46.54198" lon="5.26139">
        <ele>200.2</ele>
        <time>2021-12-11T11:39:55Z</time>
      </trkpt>
      <trkpt lat="46.5421" lon="5.26148">
        <ele>199.8</ele>
        <time>2021-12-11T11:39:57Z</time>
      </trkpt>
      <trkpt lat="46.54216" lon="5.26155">
        <ele>199.6</ele>
        <time>2021-12-11T11:39:58Z</time>
      </trkpt>
      <trkpt lat="46.54243" lon="5.26188">
        <ele>198</ele>
        <time>2021-12-11T11:40:03Z</time>
      </trkpt>
      <trkpt lat="46.54255" lon="5.26196">
        <ele>196.8</ele>
        <time>2021-12-11T11:40:05Z</time>
      </trkpt>
      <trkpt lat="46.54261" lon="5.26197">
        <ele>196.2</ele>
        <time>2021-12-11T11:40:06Z</time>
      </trkpt>
      <trkpt lat="46.54268" lon="5.26197">
        <ele>195.8</ele>
        <time>2021-12-11T11:40:07Z</time>
      </trkpt>
      <trkpt lat="46.54275" lon="5.26196">
        <ele>195.2</ele>
        <time>2021-12-11T11:40:08Z</time>
      </trkpt>
      <trkpt lat="46.5429" lon="5.26192">
        <ele>194.2</ele>
        <time>2021-12-11T11:40:10Z</time>
      </trkpt>
      <trkpt lat="46.54298" lon="5.26189">
        <ele>193.4</ele>
        <time>2021-12-11T11:40:11Z</time>
      </trkpt>
      <trkpt lat="46.54319" lon="5.26179">
        <ele>192.4</ele>
        <time>2021-12-11T11:40:14Z</time>
      </trkpt>
      <trkpt lat="46.54343" lon="5.26167">
        <ele>191.4</ele>
        <time>2021-12-11T11:40:17Z</time>
      </trkpt>
      <trkpt lat="46.54351" lon="5.26163">
        <ele>191</ele>
        <time>2021-12-11T11:40:18Z</time>
      </trkpt>
      <trkpt lat="46.54394" lon="5.26135">
        <ele>189.8</ele>
        <time>2021-12-11T11:40:24Z</time>
      </trkpt>
      <trkpt lat="46.5442" lon="5.26111">
        <ele>188.6</ele>
        <time>2021-12-11T11:40:28Z</time>
      </trkpt>
      <trkpt lat="46.54433" lon="5.261">
        <ele>188.2</ele>
        <time>2021-12-11T11:40:30Z</time>
      </trkpt>
      <trkpt lat="46.54467" lon="5.26071">
        <ele>187.6</ele>
        <time>2021-12-11T11:40:36Z</time>
      </trkpt>
      <trkpt lat="46.545" lon="5.26045">
        <ele>188.2</ele>
        <time>2021-12-11T11:40:42Z</time>
      </trkpt>
      <trkpt lat="46.54549" lon="5.2602">
        <ele>188.8</ele>
        <time>2021-12-11T11:40:51Z</time>
      </trkpt>
      <trkpt lat="46.54592" lon="5.26009">
        <ele>189.4</ele>
        <time>2021-12-11T11:40:59Z</time>
      </trkpt>
      <trkpt lat="46.54603" lon="5.26007">
        <ele>189.6</ele>
        <time>2021-12-11T11:41:01Z</time>
      </trkpt>
      <trkpt lat="46.54647" lon="5.26002">
        <ele>190.4</ele>
        <time>2021-12-11T11:41:09Z</time>
      </trkpt>
      <trkpt lat="46.54694" lon="5.25995">
        <ele>190.4</ele>
        <time>2021-12-11T11:41:17Z</time>
      </trkpt>
      <trkpt lat="46.54739" lon="5.2599">
        <ele>189.6</ele>
        <time>2021-12-11T11:41:24Z</time>
      </trkpt>
      <trkpt lat="46.54748" lon="5.25991">
        <ele>189.4</ele>
        <time>2021-12-11T11:41:25Z</time>
      </trkpt>
      <trkpt lat="46.54778" lon="5.25999">
        <ele>188.6</ele>
        <time>2021-12-11T11:41:29Z</time>
      </trkpt>
      <trkpt lat="46.54786" lon="5.26002">
        <ele>188.4</ele>
        <time>2021-12-11T11:41:30Z</time>
      </trkpt>
      <trkpt lat="46.54816" lon="5.26014">
        <ele>187.4</ele>
        <time>2021-12-11T11:41:34Z</time>
      </trkpt>
      <trkpt lat="46.5483" lon="5.2602">
        <ele>187.2</ele>
        <time>2021-12-11T11:41:36Z</time>
      </trkpt>
      <trkpt lat="46.54869" lon="5.26032">
        <ele>187</ele>
        <time>2021-12-11T11:41:42Z</time>
      </trkpt>
      <trkpt lat="46.54891" lon="5.26035">
        <ele>187</ele>
        <time>2021-12-11T11:41:46Z</time>
      </trkpt>
      <trkpt lat="46.54909" lon="5.26037">
        <ele>187.4</ele>
        <time>2021-12-11T11:41:50Z</time>
      </trkpt>
      <trkpt lat="46.54918" lon="5.26038">
        <ele>187.8</ele>
        <time>2021-12-11T11:41:52Z</time>
      </trkpt>
      <trkpt lat="46.54939" lon="5.26038">
        <ele>188.6</ele>
        <time>2021-12-11T11:41:57Z</time>
      </trkpt>
      <trkpt lat="46.54958" lon="5.26039">
        <ele>189.6</ele>
        <time>2021-12-11T11:42:02Z</time>
      </trkpt>
      <trkpt lat="46.54962" lon="5.2604">
        <ele>189.6</ele>
        <time>2021-12-11T11:42:03Z</time>
      </trkpt>
      <trkpt lat="46.54976" lon="5.26042">
        <ele>191</ele>
        <time>2021-12-11T11:42:07Z</time>
      </trkpt>
      <trkpt lat="46.54987" lon="5.26044">
        <ele>191.8</ele>
        <time>2021-12-11T11:42:10Z</time>
      </trkpt>
      <trkpt lat="46.5499" lon="5.26045">
        <ele>192.2</ele>
        <time>2021-12-11T11:42:11Z</time>
      </trkpt>
      <trkpt lat="46.55003" lon="5.26044">
        <ele>193.2</ele>
        <time>2021-12-11T11:42:15Z</time>
      </trkpt>
      <trkpt lat="46.55012" lon="5.26046">
        <ele>194</ele>
        <time>2021-12-11T11:42:18Z</time>
      </trkpt>
      <trkpt lat="46.55016" lon="5.26047">
        <ele>194.2</ele>
        <time>2021-12-11T11:42:19Z</time>
      </trkpt>
      <trkpt lat="46.55029" lon="5.26049">
        <ele>195.2</ele>
        <time>2021-12-11T11:42:23Z</time>
      </trkpt>
      <trkpt lat="46.55039" lon="5.26051">
        <ele>196</ele>
        <time>2021-12-11T11:42:26Z</time>
      </trkpt>
      <trkpt lat="46.55046" lon="5.26052">
        <ele>196.4</ele>
        <time>2021-12-11T11:42:28Z</time>
      </trkpt>
      <trkpt lat="46.5506" lon="5.26054">
        <ele>197.4</ele>
        <time>2021-12-11T11:42:32Z</time>
      </trkpt>
      <trkpt lat="46.55066" lon="5.26056">
        <ele>198</ele>
        <time>2021-12-11T11:42:34Z</time>
      </trkpt>
      <trkpt lat="46.55076" lon="5.26059">
        <ele>198.4</ele>
        <time>2021-12-11T11:42:37Z</time>
      </trkpt>
      <trkpt lat="46.55094" lon="5.26066">
        <ele>199.4</ele>
        <time>2021-12-11T11:42:42Z</time>
      </trkpt>
      <trkpt lat="46.55097" lon="5.26067">
        <ele>199.6</ele>
        <time>2021-12-11T11:42:43Z</time>
      </trkpt>
      <trkpt lat="46.55123" lon="5.2608">
        <ele>200.6</ele>
        <time>2021-12-11T11:42:50Z</time>
      </trkpt>
      <trkpt lat="46.5513" lon="5.26084">
        <ele>201</ele>
        <time>2021-12-11T11:42:52Z</time>
      </trkpt>
      <trkpt lat="46.55144" lon="5.26093">
        <ele>201.8</ele>
        <time>2021-12-11T11:42:56Z</time>
      </trkpt>
      <trkpt lat="46.55169" lon="5.26109">
        <ele>203</ele>
        <time>2021-12-11T11:43:03Z</time>
      </trkpt>
      <trkpt lat="46.55173" lon="5.26111">
        <ele>203</ele>
        <time>2021-12-11T11:43:04Z</time>
      </trkpt>
      <trkpt lat="46.55199" lon="5.26128">
        <ele>204</ele>
        <time>2021-12-11T11:43:11Z</time>
      </trkpt>
      <trkpt lat="46.55215" lon="5.26136">
        <ele>204.4</ele>
        <time>2021-12-11T11:43:15Z</time>
      </trkpt>
      <trkpt lat="46.55224" lon="5.26139">
        <ele>204.6</ele>
        <time>2021-12-11T11:43:17Z</time>
      </trkpt>
      <trkpt lat="46.55241" lon="5.26139">
        <ele>204.6</ele>
        <time>2021-12-11T11:43:20Z</time>
      </trkpt>
      <trkpt lat="46.55279" lon="5.26125">
        <ele>204</ele>
        <time>2021-12-11T11:43:26Z</time>
      </trkpt>
      <trkpt lat="46.5532" lon="5.26127">
        <ele>203.6</ele>
        <time>2021-12-11T11:43:32Z</time>
      </trkpt>
      <trkpt lat="46.5537" lon="5.26147">
        <ele>203.4</ele>
        <time>2021-12-11T11:43:40Z</time>
      </trkpt>
      <trkpt lat="46.55403" lon="5.26171">
        <ele>203.6</ele>
        <time>2021-12-11T11:43:46Z</time>
      </trkpt>
      <trkpt lat="46.55448" lon="5.26204">
        <ele>203.4</ele>
        <time>2021-12-11T11:43:54Z</time>
      </trkpt>
      <trkpt lat="46.55481" lon="5.26217">
        <ele>203.4</ele>
        <time>2021-12-11T11:43:59Z</time>
      </trkpt>
      <trkpt lat="46.55487" lon="5.26218">
        <ele>203.2</ele>
        <time>2021-12-11T11:44:00Z</time>
      </trkpt>
      <trkpt lat="46.55513" lon="5.26215">
        <ele>203</ele>
        <time>2021-12-11T11:44:04Z</time>
      </trkpt>
      <trkpt lat="46.55519" lon="5.26214">
        <ele>203</ele>
        <time>2021-12-11T11:44:05Z</time>
      </trkpt>
      <trkpt lat="46.55561" lon="5.26209">
        <ele>203</ele>
        <time>2021-12-11T11:44:12Z</time>
      </trkpt>
      <trkpt lat="46.55567" lon="5.2621">
        <ele>203</ele>
        <time>2021-12-11T11:44:13Z</time>
      </trkpt>
      <trkpt lat="46.55591" lon="5.26217">
        <ele>203</ele>
        <time>2021-12-11T11:44:17Z</time>
      </trkpt>
      <trkpt lat="46.55629" lon="5.26217">
        <ele>203.2</ele>
        <time>2021-12-11T11:44:23Z</time>
      </trkpt>
      <trkpt lat="46.55674" lon="5.26213">
        <ele>203.4</ele>
        <time>2021-12-11T11:44:30Z</time>
      </trkpt>
      <trkpt lat="46.55729" lon="5.2621">
        <ele>203.6</ele>
        <time>2021-12-11T11:44:39Z</time>
      </trkpt>
      <trkpt lat="46.55787" lon="5.26207">
        <ele>203.6</ele>
        <time>2021-12-11T11:44:49Z</time>
      </trkpt>
      <trkpt lat="46.5582" lon="5.26207">
        <ele>204</ele>
        <time>2021-12-11T11:44:55Z</time>
      </trkpt>
      <trkpt lat="46.5588" lon="5.26204">
        <ele>203</ele>
        <time>2021-12-11T11:45:04Z</time>
      </trkpt>
      <trkpt lat="46.55919" lon="5.26202">
        <ele>201.8</ele>
        <time>2021-12-11T11:45:09Z</time>
      </trkpt>
      <trkpt lat="46.55928" lon="5.26202">
        <ele>201.4</ele>
        <time>2021-12-11T11:45:10Z</time>
      </trkpt>
      <trkpt lat="46.55946" lon="5.26201">
        <ele>200.6</ele>
        <time>2021-12-11T11:45:12Z</time>
      </trkpt>
      <trkpt lat="46.55974" lon="5.262">
        <ele>199</ele>
        <time>2021-12-11T11:45:15Z</time>
      </trkpt>
      <trkpt lat="46.55993" lon="5.262">
        <ele>197.8</ele>
        <time>2021-12-11T11:45:17Z</time>
      </trkpt>
      <trkpt lat="46.56013" lon="5.26199">
        <ele>196.8</ele>
        <time>2021-12-11T11:45:19Z</time>
      </trkpt>
      <trkpt lat="46.56033" lon="5.262">
        <ele>195.8</ele>
        <time>2021-12-11T11:45:21Z</time>
      </trkpt>
      <trkpt lat="46.56062" lon="5.26203">
        <ele>194.4</ele>
        <time>2021-12-11T11:45:24Z</time>
      </trkpt>
      <trkpt lat="46.56091" lon="5.26208">
        <ele>192.8</ele>
        <time>2021-12-11T11:45:27Z</time>
      </trkpt>
      <trkpt lat="46.56109" lon="5.26213">
        <ele>191.6</ele>
        <time>2021-12-11T11:45:29Z</time>
      </trkpt>
      <trkpt lat="46.56117" lon="5.26215">
        <ele>191.2</ele>
        <time>2021-12-11T11:45:30Z</time>
      </trkpt>
      <trkpt lat="46.56126" lon="5.26216">
        <ele>190.6</ele>
        <time>2021-12-11T11:45:31Z</time>
      </trkpt>
      <trkpt lat="46.56134" lon="5.26216">
        <ele>190.4</ele>
        <time>2021-12-11T11:45:32Z</time>
      </trkpt>
      <trkpt lat="46.56142" lon="5.26215">
        <ele>190.2</ele>
        <time>2021-12-11T11:45:33Z</time>
      </trkpt>
      <trkpt lat="46.5615" lon="5.26213">
        <ele>190.2</ele>
        <time>2021-12-11T11:45:34Z</time>
      </trkpt>
      <trkpt lat="46.56158" lon="5.26209">
        <ele>190</ele>
        <time>2021-12-11T11:45:35Z</time>
      </trkpt>
      <trkpt lat="46.56178" lon="5.26193">
        <ele>189.4</ele>
        <time>2021-12-11T11:45:38Z</time>
      </trkpt>
      <trkpt lat="46.56185" lon="5.26187">
        <ele>189.4</ele>
        <time>2021-12-11T11:45:39Z</time>
      </trkpt>
      <trkpt lat="46.56234" lon="5.2614">
        <ele>188.8</ele>
        <time>2021-12-11T11:45:47Z</time>
      </trkpt>
      <trkpt lat="46.56281" lon="5.26094">
        <ele>188.4</ele>
        <time>2021-12-11T11:45:55Z</time>
      </trkpt>
      <trkpt lat="46.56322" lon="5.26055">
        <ele>187.4</ele>
        <time>2021-12-11T11:46:02Z</time>
      </trkpt>
      <trkpt lat="46.56339" lon="5.26038">
        <ele>187.2</ele>
        <time>2021-12-11T11:46:05Z</time>
      </trkpt>
      <trkpt lat="46.56385" lon="5.25995">
        <ele>187.4</ele>
        <time>2021-12-11T11:46:13Z</time>
      </trkpt>
      <trkpt lat="46.56396" lon="5.25985">
        <ele>187.4</ele>
        <time>2021-12-11T11:46:15Z</time>
      </trkpt>
      <trkpt lat="46.56446" lon="5.25937">
        <ele>187</ele>
        <time>2021-12-11T11:46:24Z</time>
      </trkpt>
      <trkpt lat="46.56452" lon="5.25932">
        <ele>187</ele>
        <time>2021-12-11T11:46:25Z</time>
      </trkpt>
      <trkpt lat="46.56499" lon="5.25887">
        <ele>186.8</ele>
        <time>2021-12-11T11:46:34Z</time>
      </trkpt>
      <trkpt lat="46.5651" lon="5.25877">
        <ele>186.8</ele>
        <time>2021-12-11T11:46:36Z</time>
      </trkpt>
      <trkpt lat="46.56556" lon="5.25832">
        <ele>187</ele>
        <time>2021-12-11T11:46:45Z</time>
      </trkpt>
      <trkpt lat="46.56576" lon="5.25811">
        <ele>187</ele>
        <time>2021-12-11T11:46:49Z</time>
      </trkpt>
      <trkpt lat="46.56621" lon="5.25759">
        <ele>187</ele>
        <time>2021-12-11T11:46:58Z</time>
      </trkpt>
      <trkpt lat="46.56626" lon="5.25753">
        <ele>187</ele>
        <time>2021-12-11T11:46:59Z</time>
      </trkpt>
      <trkpt lat="46.5667" lon="5.25701">
        <ele>187</ele>
        <time>2021-12-11T11:47:08Z</time>
      </trkpt>
      <trkpt lat="46.56679" lon="5.2569">
        <ele>186.8</ele>
        <time>2021-12-11T11:47:10Z</time>
      </trkpt>
      <trkpt lat="46.56709" lon="5.25655">
        <ele>186.2</ele>
        <time>2021-12-11T11:47:16Z</time>
      </trkpt>
      <trkpt lat="46.56729" lon="5.25631">
        <ele>186</ele>
        <time>2021-12-11T11:47:20Z</time>
      </trkpt>
      <trkpt lat="46.56763" lon="5.25578">
        <ele>185.6</ele>
        <time>2021-12-11T11:47:28Z</time>
      </trkpt>
      <trkpt lat="46.56777" lon="5.25545">
        <ele>185.2</ele>
        <time>2021-12-11T11:47:32Z</time>
      </trkpt>
      <trkpt lat="46.56787" lon="5.25518">
        <ele>185</ele>
        <time>2021-12-11T11:47:35Z</time>
      </trkpt>
      <trkpt lat="46.56811" lon="5.25445">
        <ele>184.2</ele>
        <time>2021-12-11T11:47:43Z</time>
      </trkpt>
      <trkpt lat="46.56813" lon="5.25396">
        <ele>183.4</ele>
        <time>2021-12-11T11:47:48Z</time>
      </trkpt>
      <trkpt lat="46.56806" lon="5.25352">
        <ele>183.2</ele>
        <time>2021-12-11T11:47:53Z</time>
      </trkpt>
      <trkpt lat="46.56788" lon="5.2528">
        <ele>183.6</ele>
        <time>2021-12-11T11:48:02Z</time>
      </trkpt>
      <trkpt lat="46.56783" lon="5.25234">
        <ele>183.8</ele>
        <time>2021-12-11T11:48:08Z</time>
      </trkpt>
      <trkpt lat="46.56788" lon="5.25174">
        <ele>184.2</ele>
        <time>2021-12-11T11:48:16Z</time>
      </trkpt>
      <trkpt lat="46.56799" lon="5.25137">
        <ele>184.4</ele>
        <time>2021-12-11T11:48:21Z</time>
      </trkpt>
      <trkpt lat="46.56801" lon="5.25129">
        <ele>184.4</ele>
        <time>2021-12-11T11:48:22Z</time>
      </trkpt>
      <trkpt lat="46.56806" lon="5.25106">
        <ele>184.6</ele>
        <time>2021-12-11T11:48:25Z</time>
      </trkpt>
      <trkpt lat="46.56809" lon="5.25082">
        <ele>184.8</ele>
        <time>2021-12-11T11:48:28Z</time>
      </trkpt>
      <trkpt lat="46.56809" lon="5.25066">
        <ele>185.2</ele>
        <time>2021-12-11T11:48:30Z</time>
      </trkpt>
      <trkpt lat="46.56811" lon="5.25019">
        <ele>186</ele>
        <time>2021-12-11T11:48:36Z</time>
      </trkpt>
      <trkpt lat="46.56816" lon="5.24997">
        <ele>186.2</ele>
        <time>2021-12-11T11:48:39Z</time>
      </trkpt>
      <trkpt lat="46.56819" lon="5.2499">
        <ele>186.2</ele>
        <time>2021-12-11T11:48:40Z</time>
      </trkpt>
      <trkpt lat="46.56822" lon="5.24984">
        <ele>186.2</ele>
        <time>2021-12-11T11:48:41Z</time>
      </trkpt>
      <trkpt lat="46.56846" lon="5.24943">
        <ele>186.6</ele>
        <time>2021-12-11T11:48:48Z</time>
      </trkpt>
      <trkpt lat="46.56879" lon="5.24897">
        <ele>186.8</ele>
        <time>2021-12-11T11:48:56Z</time>
      </trkpt>
      <trkpt lat="46.56898" lon="5.24852">
        <ele>186</ele>
        <time>2021-12-11T11:49:02Z</time>
      </trkpt>
      <trkpt lat="46.56921" lon="5.24787">
        <ele>185.4</ele>
        <time>2021-12-11T11:49:10Z</time>
      </trkpt>
      <trkpt lat="46.56944" lon="5.24723">
        <ele>185.8</ele>
        <time>2021-12-11T11:49:19Z</time>
      </trkpt>
      <trkpt lat="46.56963" lon="5.24669">
        <ele>186.4</ele>
        <time>2021-12-11T11:49:27Z</time>
      </trkpt>
      <trkpt lat="46.56968" lon="5.24658">
        <ele>186.6</ele>
        <time>2021-12-11T11:49:29Z</time>
      </trkpt>
      <trkpt lat="46.56971" lon="5.2465">
        <ele>186.8</ele>
        <time>2021-12-11T11:49:31Z</time>
      </trkpt>
      <trkpt lat="46.56974" lon="5.24646">
        <ele>187.2</ele>
        <time>2021-12-11T11:49:35Z</time>
      </trkpt>
      <trkpt lat="46.56974" lon="5.24646">
        <ele>187.6</ele>
        <time>2021-12-11T11:49:36Z</time>
      </trkpt>
      <trkpt lat="46.56979" lon="5.24644">
        <ele>187.8</ele>
        <time>2021-12-11T11:49:41Z</time>
      </trkpt>
      <trkpt lat="46.56986" lon="5.24647">
        <ele>187.8</ele>
        <time>2021-12-11T11:49:43Z</time>
      </trkpt>
      <trkpt lat="46.57008" lon="5.24656">
        <ele>187.8</ele>
        <time>2021-12-11T11:49:47Z</time>
      </trkpt>
      <trkpt lat="46.57045" lon="5.24669">
        <ele>187.6</ele>
        <time>2021-12-11T11:49:53Z</time>
      </trkpt>
      <trkpt lat="46.57105" lon="5.2469">
        <ele>186.4</ele>
        <time>2021-12-11T11:50:02Z</time>
      </trkpt>
      <trkpt lat="46.57112" lon="5.24692">
        <ele>186.2</ele>
        <time>2021-12-11T11:50:03Z</time>
      </trkpt>
      <trkpt lat="46.57134" lon="5.24696">
        <ele>185.4</ele>
        <time>2021-12-11T11:50:06Z</time>
      </trkpt>
      <trkpt lat="46.57141" lon="5.24696">
        <ele>185.2</ele>
        <time>2021-12-11T11:50:07Z</time>
      </trkpt>
      <trkpt lat="46.57149" lon="5.24694">
        <ele>185</ele>
        <time>2021-12-11T11:50:08Z</time>
      </trkpt>
      <trkpt lat="46.57185" lon="5.24683">
        <ele>184.4</ele>
        <time>2021-12-11T11:50:13Z</time>
      </trkpt>
      <trkpt lat="46.57206" lon="5.24675">
        <ele>184</ele>
        <time>2021-12-11T11:50:16Z</time>
      </trkpt>
      <trkpt lat="46.5724" lon="5.24663">
        <ele>183.4</ele>
        <time>2021-12-11T11:50:21Z</time>
      </trkpt>
      <trkpt lat="46.57259" lon="5.24656">
        <ele>183</ele>
        <time>2021-12-11T11:50:24Z</time>
      </trkpt>
      <trkpt lat="46.57276" lon="5.24649">
        <ele>182.8</ele>
        <time>2021-12-11T11:50:27Z</time>
      </trkpt>
      <trkpt lat="46.57283" lon="5.24639">
        <ele>182.6</ele>
        <time>2021-12-11T11:50:29Z</time>
      </trkpt>
      <trkpt lat="46.57283" lon="5.24631">
        <ele>182.6</ele>
        <time>2021-12-11T11:50:30Z</time>
      </trkpt>
      <trkpt lat="46.57283" lon="5.24623">
        <ele>182.6</ele>
        <time>2021-12-11T11:50:31Z</time>
      </trkpt>
      <trkpt lat="46.57282" lon="5.24597">
        <ele>182.4</ele>
        <time>2021-12-11T11:50:34Z</time>
      </trkpt>
      <trkpt lat="46.57281" lon="5.24556">
        <ele>182.4</ele>
        <time>2021-12-11T11:50:39Z</time>
      </trkpt>
      <trkpt lat="46.57282" lon="5.24541">
        <ele>182.6</ele>
        <time>2021-12-11T11:50:41Z</time>
      </trkpt>
      <trkpt lat="46.57295" lon="5.24483">
        <ele>183.4</ele>
        <time>2021-12-11T11:50:49Z</time>
      </trkpt>
      <trkpt lat="46.57313" lon="5.24404">
        <ele>184</ele>
        <time>2021-12-11T11:51:00Z</time>
      </trkpt>
      <trkpt lat="46.57313" lon="5.24389">
        <ele>184.2</ele>
        <time>2021-12-11T11:51:02Z</time>
      </trkpt>
      <trkpt lat="46.57312" lon="5.24367">
        <ele>184.6</ele>
        <time>2021-12-11T11:51:05Z</time>
      </trkpt>
      <trkpt lat="46.57309" lon="5.24334">
        <ele>185</ele>
        <time>2021-12-11T11:51:10Z</time>
      </trkpt>
      <trkpt lat="46.57307" lon="5.24315">
        <ele>185.8</ele>
        <time>2021-12-11T11:51:13Z</time>
      </trkpt>
      <trkpt lat="46.57303" lon="5.24297">
        <ele>186.2</ele>
        <time>2021-12-11T11:51:16Z</time>
      </trkpt>
      <trkpt lat="46.57297" lon="5.24268">
        <ele>187.6</ele>
        <time>2021-12-11T11:51:21Z</time>
      </trkpt>
      <trkpt lat="46.57287" lon="5.24237">
        <ele>188.6</ele>
        <time>2021-12-11T11:51:27Z</time>
      </trkpt>
      <trkpt lat="46.5728" lon="5.24223">
        <ele>189.4</ele>
        <time>2021-12-11T11:51:30Z</time>
      </trkpt>
      <trkpt lat="46.57278" lon="5.24218">
        <ele>189.8</ele>
        <time>2021-12-11T11:51:31Z</time>
      </trkpt>
      <trkpt lat="46.57265" lon="5.242">
        <ele>190.8</ele>
        <time>2021-12-11T11:51:36Z</time>
      </trkpt>
      <trkpt lat="46.57259" lon="5.24193">
        <ele>191.4</ele>
        <time>2021-12-11T11:51:38Z</time>
      </trkpt>
      <trkpt lat="46.57253" lon="5.24189">
        <ele>192.2</ele>
        <time>2021-12-11T11:51:40Z</time>
      </trkpt>
      <trkpt lat="46.5724" lon="5.24182">
        <ele>193.2</ele>
        <time>2021-12-11T11:51:44Z</time>
      </trkpt>
      <trkpt lat="46.57228" lon="5.24175">
        <ele>194.4</ele>
        <time>2021-12-11T11:51:48Z</time>
      </trkpt>
      <trkpt lat="46.57213" lon="5.24166">
        <ele>195.6</ele>
        <time>2021-12-11T11:51:53Z</time>
      </trkpt>
      <trkpt lat="46.57203" lon="5.24154">
        <ele>196.4</ele>
        <time>2021-12-11T11:51:57Z</time>
      </trkpt>
      <trkpt lat="46.57199" lon="5.24147">
        <ele>196.6</ele>
        <time>2021-12-11T11:51:59Z</time>
      </trkpt>
      <trkpt lat="46.57198" lon="5.24143">
        <ele>197</ele>
        <time>2021-12-11T11:52:00Z</time>
      </trkpt>
      <trkpt lat="46.57198" lon="5.24133">
        <ele>197.6</ele>
        <time>2021-12-11T11:52:02Z</time>
      </trkpt>
      <trkpt lat="46.57201" lon="5.24124">
        <ele>198</ele>
        <time>2021-12-11T11:52:04Z</time>
      </trkpt>
      <trkpt lat="46.57207" lon="5.24113">
        <ele>199</ele>
        <time>2021-12-11T11:52:07Z</time>
      </trkpt>
      <trkpt lat="46.5721" lon="5.2411">
        <ele>199.2</ele>
        <time>2021-12-11T11:52:08Z</time>
      </trkpt>
      <trkpt lat="46.57218" lon="5.24098">
        <ele>200.4</ele>
        <time>2021-12-11T11:52:12Z</time>
      </trkpt>
      <trkpt lat="46.5722" lon="5.24094">
        <ele>201</ele>
        <time>2021-12-11T11:52:13Z</time>
      </trkpt>
      <trkpt lat="46.57226" lon="5.24084">
        <ele>201.8</ele>
        <time>2021-12-11T11:52:16Z</time>
      </trkpt>
      <trkpt lat="46.57237" lon="5.24064">
        <ele>203</ele>
        <time>2021-12-11T11:52:21Z</time>
      </trkpt>
      <trkpt lat="46.57253" lon="5.24024">
        <ele>203.6</ele>
        <time>2021-12-11T11:52:29Z</time>
      </trkpt>
      <trkpt lat="46.57261" lon="5.24008">
        <ele>204</ele>
        <time>2021-12-11T11:52:32Z</time>
      </trkpt>
      <trkpt lat="46.57276" lon="5.23975">
        <ele>204.4</ele>
        <time>2021-12-11T11:52:38Z</time>
      </trkpt>
      <trkpt lat="46.57306" lon="5.2392">
        <ele>204.2</ele>
        <time>2021-12-11T11:52:47Z</time>
      </trkpt>
      <trkpt lat="46.57316" lon="5.23899">
        <ele>204.2</ele>
        <time>2021-12-11T11:52:50Z</time>
      </trkpt>
      <trkpt lat="46.57324" lon="5.23876">
        <ele>204</ele>
        <time>2021-12-11T11:52:53Z</time>
      </trkpt>
      <trkpt lat="46.57342" lon="5.23822">
        <ele>203.6</ele>
        <time>2021-12-11T11:53:00Z</time>
      </trkpt>
      <trkpt lat="46.57354" lon="5.2377">
        <ele>204</ele>
        <time>2021-12-11T11:53:07Z</time>
      </trkpt>
      <trkpt lat="46.57365" lon="5.23693">
        <ele>204.4</ele>
        <time>2021-12-11T11:53:17Z</time>
      </trkpt>
      <trkpt lat="46.57374" lon="5.23625">
        <ele>204.4</ele>
        <time>2021-12-11T11:53:25Z</time>
      </trkpt>
      <trkpt lat="46.57387" lon="5.23587">
        <ele>204.2</ele>
        <time>2021-12-11T11:53:30Z</time>
      </trkpt>
      <trkpt lat="46.57396" lon="5.23576">
        <ele>204</ele>
        <time>2021-12-11T11:53:32Z</time>
      </trkpt>
      <trkpt lat="46.57406" lon="5.23568">
        <ele>204</ele>
        <time>2021-12-11T11:53:34Z</time>
      </trkpt>
      <trkpt lat="46.57422" lon="5.23562">
        <ele>204</ele>
        <time>2021-12-11T11:53:37Z</time>
      </trkpt>
      <trkpt lat="46.57433" lon="5.23562">
        <ele>204</ele>
        <time>2021-12-11T11:53:39Z</time>
      </trkpt>
      <trkpt lat="46.57465" lon="5.2357">
        <ele>204.6</ele>
        <time>2021-12-11T11:53:45Z</time>
      </trkpt>
      <trkpt lat="46.57483" lon="5.23572">
        <ele>204.6</ele>
        <time>2021-12-11T11:53:48Z</time>
      </trkpt>
      <trkpt lat="46.57494" lon="5.23568">
        <ele>204.6</ele>
        <time>2021-12-11T11:53:50Z</time>
      </trkpt>
      <trkpt lat="46.57521" lon="5.23546">
        <ele>204.4</ele>
        <time>2021-12-11T11:53:55Z</time>
      </trkpt>
      <trkpt lat="46.57558" lon="5.23512">
        <ele>204.4</ele>
        <time>2021-12-11T11:54:02Z</time>
      </trkpt>
      <trkpt lat="46.57586" lon="5.23485">
        <ele>204</ele>
        <time>2021-12-11T11:54:07Z</time>
      </trkpt>
      <trkpt lat="46.57595" lon="5.2347">
        <ele>203.8</ele>
        <time>2021-12-11T11:54:09Z</time>
      </trkpt>
      <trkpt lat="46.57599" lon="5.23451">
        <ele>203.4</ele>
        <time>2021-12-11T11:54:11Z</time>
      </trkpt>
      <trkpt lat="46.57601" lon="5.23431">
        <ele>203</ele>
        <time>2021-12-11T11:54:13Z</time>
      </trkpt>
      <trkpt lat="46.57601" lon="5.23421">
        <ele>202.8</ele>
        <time>2021-12-11T11:54:14Z</time>
      </trkpt>
      <trkpt lat="46.57607" lon="5.23364">
        <ele>202</ele>
        <time>2021-12-11T11:54:20Z</time>
      </trkpt>
      <trkpt lat="46.57611" lon="5.23346">
        <ele>201.8</ele>
        <time>2021-12-11T11:54:22Z</time>
      </trkpt>
      <trkpt lat="46.57621" lon="5.23303">
        <ele>201.6</ele>
        <time>2021-12-11T11:54:27Z</time>
      </trkpt>
      <trkpt lat="46.57635" lon="5.23254">
        <ele>201.6</ele>
        <time>2021-12-11T11:54:33Z</time>
      </trkpt>
      <trkpt lat="46.57639" lon="5.23247">
        <ele>201.6</ele>
        <time>2021-12-11T11:54:34Z</time>
      </trkpt>
      <trkpt lat="46.57644" lon="5.23242">
        <ele>201.6</ele>
        <time>2021-12-11T11:54:35Z</time>
      </trkpt>
      <trkpt lat="46.57656" lon="5.23238">
        <ele>201.6</ele>
        <time>2021-12-11T11:54:37Z</time>
      </trkpt>
      <trkpt lat="46.57667" lon="5.23245">
        <ele>201.8</ele>
        <time>2021-12-11T11:54:39Z</time>
      </trkpt>
      <trkpt lat="46.57672" lon="5.2325">
        <ele>201.8</ele>
        <time>2021-12-11T11:54:40Z</time>
      </trkpt>
      <trkpt lat="46.57716" lon="5.23297">
        <ele>201.4</ele>
        <time>2021-12-11T11:54:48Z</time>
      </trkpt>
      <trkpt lat="46.57734" lon="5.23316">
        <ele>200.6</ele>
        <time>2021-12-11T11:54:51Z</time>
      </trkpt>
      <trkpt lat="46.57745" lon="5.2333">
        <ele>199.4</ele>
        <time>2021-12-11T11:54:53Z</time>
      </trkpt>
      <trkpt lat="46.57757" lon="5.23344">
        <ele>199</ele>
        <time>2021-12-11T11:54:55Z</time>
      </trkpt>
      <trkpt lat="46.57764" lon="5.23349">
        <ele>199</ele>
        <time>2021-12-11T11:54:56Z</time>
      </trkpt>
      <trkpt lat="46.57779" lon="5.23353">
        <ele>198.4</ele>
        <time>2021-12-11T11:54:58Z</time>
      </trkpt>
      <trkpt lat="46.57794" lon="5.23349">
        <ele>198</ele>
        <time>2021-12-11T11:55:00Z</time>
      </trkpt>
      <trkpt lat="46.57801" lon="5.23346">
        <ele>197.8</ele>
        <time>2021-12-11T11:55:01Z</time>
      </trkpt>
      <trkpt lat="46.57827" lon="5.23327">
        <ele>197.4</ele>
        <time>2021-12-11T11:55:05Z</time>
      </trkpt>
      <trkpt lat="46.57833" lon="5.23321">
        <ele>197.4</ele>
        <time>2021-12-11T11:55:06Z</time>
      </trkpt>
      <trkpt lat="46.57859" lon="5.23288">
        <ele>197.6</ele>
        <time>2021-12-11T11:55:12Z</time>
      </trkpt>
      <trkpt lat="46.57878" lon="5.23263">
        <ele>198.6</ele>
        <time>2021-12-11T11:55:17Z</time>
      </trkpt>
      <trkpt lat="46.57882" lon="5.23258">
        <ele>198.8</ele>
        <time>2021-12-11T11:55:18Z</time>
      </trkpt>
      <trkpt lat="46.57903" lon="5.23227">
        <ele>199.8</ele>
        <time>2021-12-11T11:55:24Z</time>
      </trkpt>
      <trkpt lat="46.57906" lon="5.23222">
        <ele>200</ele>
        <time>2021-12-11T11:55:25Z</time>
      </trkpt>
      <trkpt lat="46.57909" lon="5.23216">
        <ele>200.2</ele>
        <time>2021-12-11T11:55:26Z</time>
      </trkpt>
      <trkpt lat="46.57915" lon="5.23197">
        <ele>201</ele>
        <time>2021-12-11T11:55:29Z</time>
      </trkpt>
      <trkpt lat="46.57924" lon="5.23171">
        <ele>201.4</ele>
        <time>2021-12-11T11:55:33Z</time>
      </trkpt>
      <trkpt lat="46.5793" lon="5.23158">
        <ele>201.6</ele>
        <time>2021-12-11T11:55:35Z</time>
      </trkpt>
      <trkpt lat="46.57945" lon="5.23138">
        <ele>202</ele>
        <time>2021-12-11T11:55:39Z</time>
      </trkpt>
      <trkpt lat="46.57969" lon="5.2311">
        <ele>203.2</ele>
        <time>2021-12-11T11:55:45Z</time>
      </trkpt>
      <trkpt lat="46.57995" lon="5.23081">
        <ele>204</ele>
        <time>2021-12-11T11:55:51Z</time>
      </trkpt>
      <trkpt lat="46.58017" lon="5.23055">
        <ele>204.2</ele>
        <time>2021-12-11T11:55:56Z</time>
      </trkpt>
      <trkpt lat="46.58026" lon="5.23046">
        <ele>204.2</ele>
        <time>2021-12-11T11:55:58Z</time>
      </trkpt>
      <trkpt lat="46.58048" lon="5.23021">
        <ele>204.4</ele>
        <time>2021-12-11T11:56:03Z</time>
      </trkpt>
      <trkpt lat="46.5808" lon="5.22985">
        <ele>204</ele>
        <time>2021-12-11T11:56:10Z</time>
      </trkpt>
      <trkpt lat="46.58085" lon="5.22979">
        <ele>204.4</ele>
        <time>2021-12-11T11:56:11Z</time>
      </trkpt>
      <trkpt lat="46.58121" lon="5.22942">
        <ele>204</ele>
        <time>2021-12-11T11:56:18Z</time>
      </trkpt>
      <trkpt lat="46.5816" lon="5.22905">
        <ele>204</ele>
        <time>2021-12-11T11:56:25Z</time>
      </trkpt>
      <trkpt lat="46.58166" lon="5.22901">
        <ele>204</ele>
        <time>2021-12-11T11:56:26Z</time>
      </trkpt>
      <trkpt lat="46.58172" lon="5.22898">
        <ele>203.8</ele>
        <time>2021-12-11T11:56:27Z</time>
      </trkpt>
      <trkpt lat="46.58197" lon="5.22893">
        <ele>204</ele>
        <time>2021-12-11T11:56:31Z</time>
      </trkpt>
      <trkpt lat="46.58253" lon="5.22888">
        <ele>204</ele>
        <time>2021-12-11T11:56:40Z</time>
      </trkpt>
      <trkpt lat="46.58309" lon="5.22885">
        <ele>203.8</ele>
        <time>2021-12-11T11:56:49Z</time>
      </trkpt>
      <trkpt lat="46.58322" lon="5.22884">
        <ele>204</ele>
        <time>2021-12-11T11:56:51Z</time>
      </trkpt>
      <trkpt lat="46.58379" lon="5.2288">
        <ele>203.8</ele>
        <time>2021-12-11T11:57:00Z</time>
      </trkpt>
      <trkpt lat="46.58436" lon="5.22878">
        <ele>204</ele>
        <time>2021-12-11T11:57:09Z</time>
      </trkpt>
      <trkpt lat="46.58443" lon="5.22879">
        <ele>204</ele>
        <time>2021-12-11T11:57:10Z</time>
      </trkpt>
      <trkpt lat="46.585" lon="5.22891">
        <ele>204</ele>
        <time>2021-12-11T11:57:19Z</time>
      </trkpt>
      <trkpt lat="46.58506" lon="5.22892">
        <ele>204.2</ele>
        <time>2021-12-11T11:57:20Z</time>
      </trkpt>
      <trkpt lat="46.58543" lon="5.22891">
        <ele>204.4</ele>
        <time>2021-12-11T11:57:26Z</time>
      </trkpt>
      <trkpt lat="46.58549" lon="5.22889">
        <ele>204.4</ele>
        <time>2021-12-11T11:57:27Z</time>
      </trkpt>
      <trkpt lat="46.58605" lon="5.22862">
        <ele>204.2</ele>
        <time>2021-12-11T11:57:37Z</time>
      </trkpt>
      <trkpt lat="46.58662" lon="5.22835">
        <ele>204.4</ele>
        <time>2021-12-11T11:57:47Z</time>
      </trkpt>
      <trkpt lat="46.58717" lon="5.22807">
        <ele>204.2</ele>
        <time>2021-12-11T11:57:57Z</time>
      </trkpt>
      <trkpt lat="46.58723" lon="5.22805">
        <ele>204.2</ele>
        <time>2021-12-11T11:57:58Z</time>
      </trkpt>
      <trkpt lat="46.58776" lon="5.22779">
        <ele>204.2</ele>
        <time>2021-12-11T11:58:07Z</time>
      </trkpt>
      <trkpt lat="46.58788" lon="5.22773">
        <ele>204.2</ele>
        <time>2021-12-11T11:58:09Z</time>
      </trkpt>
      <trkpt lat="46.5883" lon="5.22753">
        <ele>203.6</ele>
        <time>2021-12-11T11:58:16Z</time>
      </trkpt>
      <trkpt lat="46.58881" lon="5.22718">
        <ele>203.2</ele>
        <time>2021-12-11T11:58:25Z</time>
      </trkpt>
      <trkpt lat="46.58903" lon="5.22698">
        <ele>203</ele>
        <time>2021-12-11T11:58:29Z</time>
      </trkpt>
      <trkpt lat="46.58943" lon="5.2266">
        <ele>201.8</ele>
        <time>2021-12-11T11:58:36Z</time>
      </trkpt>
      <trkpt lat="46.5898" lon="5.22626">
        <ele>200.8</ele>
        <time>2021-12-11T11:58:42Z</time>
      </trkpt>
      <trkpt lat="46.58991" lon="5.22615">
        <ele>200.2</ele>
        <time>2021-12-11T11:58:44Z</time>
      </trkpt>
      <trkpt lat="46.59005" lon="5.22602">
        <ele>199.6</ele>
        <time>2021-12-11T11:58:46Z</time>
      </trkpt>
      <trkpt lat="46.59036" lon="5.22572">
        <ele>199</ele>
        <time>2021-12-11T11:58:51Z</time>
      </trkpt>
      <trkpt lat="46.59055" lon="5.22554">
        <ele>198.4</ele>
        <time>2021-12-11T11:58:54Z</time>
      </trkpt>
      <trkpt lat="46.59082" lon="5.22533">
        <ele>197.2</ele>
        <time>2021-12-11T11:58:58Z</time>
      </trkpt>
      <trkpt lat="46.59107" lon="5.2251">
        <ele>196.2</ele>
        <time>2021-12-11T11:59:02Z</time>
      </trkpt>
      <trkpt lat="46.59122" lon="5.22497">
        <ele>195.6</ele>
        <time>2021-12-11T11:59:04Z</time>
      </trkpt>
      <trkpt lat="46.59141" lon="5.22479">
        <ele>194.8</ele>
        <time>2021-12-11T11:59:07Z</time>
      </trkpt>
      <trkpt lat="46.59173" lon="5.22448">
        <ele>193.8</ele>
        <time>2021-12-11T11:59:12Z</time>
      </trkpt>
      <trkpt lat="46.59181" lon="5.22441">
        <ele>193.8</ele>
        <time>2021-12-11T11:59:13Z</time>
      </trkpt>
      <trkpt lat="46.59214" lon="5.2241">
        <ele>192.8</ele>
        <time>2021-12-11T11:59:18Z</time>
      </trkpt>
      <trkpt lat="46.59232" lon="5.22393">
        <ele>191.8</ele>
        <time>2021-12-11T11:59:21Z</time>
      </trkpt>
      <trkpt lat="46.59246" lon="5.22379">
        <ele>191</ele>
        <time>2021-12-11T11:59:23Z</time>
      </trkpt>
      <trkpt lat="46.59258" lon="5.22368">
        <ele>190.4</ele>
        <time>2021-12-11T11:59:25Z</time>
      </trkpt>
      <trkpt lat="46.59292" lon="5.22337">
        <ele>189.4</ele>
        <time>2021-12-11T11:59:30Z</time>
      </trkpt>
      <trkpt lat="46.59298" lon="5.22332">
        <ele>189.2</ele>
        <time>2021-12-11T11:59:31Z</time>
      </trkpt>
      <trkpt lat="46.59318" lon="5.22312">
        <ele>188.2</ele>
        <time>2021-12-11T11:59:34Z</time>
      </trkpt>
      <trkpt lat="46.59336" lon="5.22288">
        <ele>187.4</ele>
        <time>2021-12-11T11:59:37Z</time>
      </trkpt>
      <trkpt lat="46.59343" lon="5.22277">
        <ele>187.2</ele>
        <time>2021-12-11T11:59:38Z</time>
      </trkpt>
      <trkpt lat="46.59364" lon="5.22243">
        <ele>186</ele>
        <time>2021-12-11T11:59:42Z</time>
      </trkpt>
      <trkpt lat="46.5937" lon="5.22232">
        <ele>185.6</ele>
        <time>2021-12-11T11:59:43Z</time>
      </trkpt>
      <trkpt lat="46.59384" lon="5.22208">
        <ele>185</ele>
        <time>2021-12-11T11:59:46Z</time>
      </trkpt>
      <trkpt lat="46.59421" lon="5.22144">
        <ele>184.2</ele>
        <time>2021-12-11T11:59:54Z</time>
      </trkpt>
      <trkpt lat="46.59443" lon="5.22106">
        <ele>184</ele>
        <time>2021-12-11T11:59:59Z</time>
      </trkpt>
      <trkpt lat="46.59456" lon="5.22085">
        <ele>183.6</ele>
        <time>2021-12-11T12:00:02Z</time>
      </trkpt>
      <trkpt lat="46.59487" lon="5.22032">
        <ele>183</ele>
        <time>2021-12-11T12:00:09Z</time>
      </trkpt>
      <trkpt lat="46.59501" lon="5.22007">
        <ele>182.6</ele>
        <time>2021-12-11T12:00:12Z</time>
      </trkpt>
      <trkpt lat="46.59516" lon="5.21982">
        <ele>181.8</ele>
        <time>2021-12-11T12:00:15Z</time>
      </trkpt>
      <trkpt lat="46.59535" lon="5.21951">
        <ele>181.2</ele>
        <time>2021-12-11T12:00:19Z</time>
      </trkpt>
      <trkpt lat="46.59546" lon="5.2193">
        <ele>181.2</ele>
        <time>2021-12-11T12:00:22Z</time>
      </trkpt>
      <trkpt lat="46.59553" lon="5.21917">
        <ele>181</ele>
        <time>2021-12-11T12:00:24Z</time>
      </trkpt>
      <trkpt lat="46.59562" lon="5.21897">
        <ele>181</ele>
        <time>2021-12-11T12:00:27Z</time>
      </trkpt>
      <trkpt lat="46.59569" lon="5.21882">
        <ele>181</ele>
        <time>2021-12-11T12:00:29Z</time>
      </trkpt>
      <trkpt lat="46.59575" lon="5.21866">
        <ele>180.8</ele>
        <time>2021-12-11T12:00:31Z</time>
      </trkpt>
      <trkpt lat="46.59592" lon="5.21819">
        <ele>181</ele>
        <time>2021-12-11T12:00:37Z</time>
      </trkpt>
      <trkpt lat="46.59603" lon="5.21789">
        <ele>181</ele>
        <time>2021-12-11T12:00:41Z</time>
      </trkpt>
      <trkpt lat="46.59608" lon="5.21773">
        <ele>181.2</ele>
        <time>2021-12-11T12:00:43Z</time>
      </trkpt>
      <trkpt lat="46.59629" lon="5.21716">
        <ele>181.2</ele>
        <time>2021-12-11T12:00:50Z</time>
      </trkpt>
      <trkpt lat="46.59633" lon="5.21708">
        <ele>181.2</ele>
        <time>2021-12-11T12:00:51Z</time>
      </trkpt>
      <trkpt lat="46.59643" lon="5.21685">
        <ele>181</ele>
        <time>2021-12-11T12:00:54Z</time>
      </trkpt>
      <trkpt lat="46.59655" lon="5.21652">
        <ele>180.6</ele>
        <time>2021-12-11T12:00:58Z</time>
      </trkpt>
      <trkpt lat="46.5968" lon="5.21591">
        <ele>180.2</ele>
        <time>2021-12-11T12:01:05Z</time>
      </trkpt>
      <trkpt lat="46.5971" lon="5.21519">
        <ele>180</ele>
        <time>2021-12-11T12:01:15Z</time>
      </trkpt>
      <trkpt lat="46.59731" lon="5.21466">
        <ele>180.2</ele>
        <time>2021-12-11T12:01:22Z</time>
      </trkpt>
      <trkpt lat="46.59729" lon="5.2145">
        <ele>180.2</ele>
        <time>2021-12-11T12:01:24Z</time>
      </trkpt>
      <trkpt lat="46.59725" lon="5.21443">
        <ele>180.2</ele>
        <time>2021-12-11T12:01:25Z</time>
      </trkpt>
      <trkpt lat="46.5972" lon="5.21438">
        <ele>180.4</ele>
        <time>2021-12-11T12:01:26Z</time>
      </trkpt>
      <trkpt lat="46.59698" lon="5.21421">
        <ele>180.4</ele>
        <time>2021-12-11T12:01:30Z</time>
      </trkpt>
      <trkpt lat="46.59649" lon="5.21381">
        <ele>180.6</ele>
        <time>2021-12-11T12:01:40Z</time>
      </trkpt>
      <trkpt lat="46.59609" lon="5.21348">
        <ele>181.6</ele>
        <time>2021-12-11T12:01:49Z</time>
      </trkpt>
      <trkpt lat="46.59596" lon="5.21337">
        <ele>182</ele>
        <time>2021-12-11T12:01:52Z</time>
      </trkpt>
      <trkpt lat="46.59577" lon="5.21318">
        <ele>182.6</ele>
        <time>2021-12-11T12:01:57Z</time>
      </trkpt>
      <trkpt lat="46.59566" lon="5.21306">
        <ele>183.2</ele>
        <time>2021-12-11T12:02:00Z</time>
      </trkpt>
      <trkpt lat="46.5955" lon="5.21287">
        <ele>184</ele>
        <time>2021-12-11T12:02:05Z</time>
      </trkpt>
      <trkpt lat="46.59546" lon="5.21283">
        <ele>184.2</ele>
        <time>2021-12-11T12:02:06Z</time>
      </trkpt>
      <trkpt lat="46.5953" lon="5.21268">
        <ele>185.6</ele>
        <time>2021-12-11T12:02:11Z</time>
      </trkpt>
      <trkpt lat="46.59524" lon="5.21261">
        <ele>186.2</ele>
        <time>2021-12-11T12:02:13Z</time>
      </trkpt>
      <trkpt lat="46.59515" lon="5.21252">
        <ele>186.8</ele>
        <time>2021-12-11T12:02:16Z</time>
      </trkpt>
      <trkpt lat="46.59503" lon="5.21242">
        <ele>188</ele>
        <time>2021-12-11T12:02:20Z</time>
      </trkpt>
      <trkpt lat="46.59495" lon="5.21233">
        <ele>189</ele>
        <time>2021-12-11T12:02:23Z</time>
      </trkpt>
      <trkpt lat="46.59487" lon="5.21225">
        <ele>190.2</ele>
        <time>2021-12-11T12:02:26Z</time>
      </trkpt>
      <trkpt lat="46.59479" lon="5.21216">
        <ele>191.4</ele>
        <time>2021-12-11T12:02:29Z</time>
      </trkpt>
      <trkpt lat="46.59469" lon="5.21201">
        <ele>192.6</ele>
        <time>2021-12-11T12:02:34Z</time>
      </trkpt>
      <trkpt lat="46.59464" lon="5.21191">
        <ele>193.8</ele>
        <time>2021-12-11T12:02:37Z</time>
      </trkpt>
      <trkpt lat="46.59463" lon="5.21186">
        <ele>194</ele>
        <time>2021-12-11T12:02:38Z</time>
      </trkpt>
      <trkpt lat="46.59462" lon="5.21171">
        <ele>194.8</ele>
        <time>2021-12-11T12:02:41Z</time>
      </trkpt>
      <trkpt lat="46.59463" lon="5.21157">
        <ele>195.4</ele>
        <time>2021-12-11T12:02:44Z</time>
      </trkpt>
      <trkpt lat="46.59465" lon="5.21149">
        <ele>195.8</ele>
        <time>2021-12-11T12:02:46Z</time>
      </trkpt>
      <trkpt lat="46.59464" lon="5.21135">
        <ele>196.4</ele>
        <time>2021-12-11T12:02:49Z</time>
      </trkpt>
      <trkpt lat="46.59456" lon="5.21121">
        <ele>197</ele>
        <time>2021-12-11T12:02:52Z</time>
      </trkpt>
      <trkpt lat="46.59453" lon="5.21117">
        <ele>197</ele>
        <time>2021-12-11T12:02:53Z</time>
      </trkpt>
      <trkpt lat="46.59446" lon="5.21109">
        <ele>197.6</ele>
        <time>2021-12-11T12:02:55Z</time>
      </trkpt>
      <trkpt lat="46.59425" lon="5.21087">
        <ele>197.8</ele>
        <time>2021-12-11T12:03:00Z</time>
      </trkpt>
      <trkpt lat="46.59416" lon="5.21077">
        <ele>198</ele>
        <time>2021-12-11T12:03:02Z</time>
      </trkpt>
      <trkpt lat="46.59412" lon="5.21062">
        <ele>198</ele>
        <time>2021-12-11T12:03:04Z</time>
      </trkpt>
      <trkpt lat="46.59415" lon="5.21046">
        <ele>197.8</ele>
        <time>2021-12-11T12:03:06Z</time>
      </trkpt>
      <trkpt lat="46.59418" lon="5.21039">
        <ele>197.8</ele>
        <time>2021-12-11T12:03:07Z</time>
      </trkpt>
      <trkpt lat="46.59449" lon="5.20987">
        <ele>198</ele>
        <time>2021-12-11T12:03:16Z</time>
      </trkpt>
      <trkpt lat="46.59483" lon="5.20935">
        <ele>198.4</ele>
        <time>2021-12-11T12:03:25Z</time>
      </trkpt>
      <trkpt lat="46.59507" lon="5.20885">
        <ele>198.8</ele>
        <time>2021-12-11T12:03:33Z</time>
      </trkpt>
      <trkpt lat="46.5953" lon="5.20848">
        <ele>199</ele>
        <time>2021-12-11T12:03:39Z</time>
      </trkpt>
      <trkpt lat="46.59534" lon="5.20842">
        <ele>199.2</ele>
        <time>2021-12-11T12:03:40Z</time>
      </trkpt>
      <trkpt lat="46.5957" lon="5.20803">
        <ele>199.8</ele>
        <time>2021-12-11T12:03:49Z</time>
      </trkpt>
      <trkpt lat="46.59595" lon="5.20782">
        <ele>200</ele>
        <time>2021-12-11T12:03:54Z</time>
      </trkpt>
      <trkpt lat="46.596" lon="5.20776">
        <ele>200</ele>
        <time>2021-12-11T12:03:55Z</time>
      </trkpt>
      <trkpt lat="46.59608" lon="5.20763">
        <ele>199.8</ele>
        <time>2021-12-11T12:03:57Z</time>
      </trkpt>
      <trkpt lat="46.59619" lon="5.2074">
        <ele>199.8</ele>
        <time>2021-12-11T12:04:00Z</time>
      </trkpt>
      <trkpt lat="46.59625" lon="5.20721">
        <ele>199.2</ele>
        <time>2021-12-11T12:04:02Z</time>
      </trkpt>
      <trkpt lat="46.59629" lon="5.20699">
        <ele>198</ele>
        <time>2021-12-11T12:04:04Z</time>
      </trkpt>
      <trkpt lat="46.5963" lon="5.20687">
        <ele>197.8</ele>
        <time>2021-12-11T12:04:05Z</time>
      </trkpt>
      <trkpt lat="46.5963" lon="5.20638">
        <ele>196.8</ele>
        <time>2021-12-11T12:04:09Z</time>
      </trkpt>
      <trkpt lat="46.59629" lon="5.20625">
        <ele>196.4</ele>
        <time>2021-12-11T12:04:10Z</time>
      </trkpt>
      <trkpt lat="46.5963" lon="5.20585">
        <ele>195.2</ele>
        <time>2021-12-11T12:04:13Z</time>
      </trkpt>
      <trkpt lat="46.5963" lon="5.20571">
        <ele>194.8</ele>
        <time>2021-12-11T12:04:14Z</time>
      </trkpt>
      <trkpt lat="46.59631" lon="5.20558">
        <ele>194.2</ele>
        <time>2021-12-11T12:04:15Z</time>
      </trkpt>
      <trkpt lat="46.59631" lon="5.20531">
        <ele>193</ele>
        <time>2021-12-11T12:04:17Z</time>
      </trkpt>
      <trkpt lat="46.59633" lon="5.20494">
        <ele>191.6</ele>
        <time>2021-12-11T12:04:20Z</time>
      </trkpt>
      <trkpt lat="46.59639" lon="5.2047">
        <ele>191</ele>
        <time>2021-12-11T12:04:22Z</time>
      </trkpt>
      <trkpt lat="46.59647" lon="5.20449">
        <ele>190.4</ele>
        <time>2021-12-11T12:04:24Z</time>
      </trkpt>
      <trkpt lat="46.59667" lon="5.2039">
        <ele>189.6</ele>
        <time>2021-12-11T12:04:30Z</time>
      </trkpt>
      <trkpt lat="46.59676" lon="5.20334">
        <ele>189.6</ele>
        <time>2021-12-11T12:04:36Z</time>
      </trkpt>
      <trkpt lat="46.59689" lon="5.20283">
        <ele>189.6</ele>
        <time>2021-12-11T12:04:42Z</time>
      </trkpt>
      <trkpt lat="46.59692" lon="5.20267">
        <ele>189.8</ele>
        <time>2021-12-11T12:04:44Z</time>
      </trkpt>
      <trkpt lat="46.59701" lon="5.20236">
        <ele>189.8</ele>
        <time>2021-12-11T12:04:48Z</time>
      </trkpt>
      <trkpt lat="46.59703" lon="5.20228">
        <ele>190</ele>
        <time>2021-12-11T12:04:49Z</time>
      </trkpt>
      <trkpt lat="46.59708" lon="5.20207">
        <ele>190.4</ele>
        <time>2021-12-11T12:04:52Z</time>
      </trkpt>
      <trkpt lat="46.5971" lon="5.20201">
        <ele>190.6</ele>
        <time>2021-12-11T12:04:53Z</time>
      </trkpt>
      <trkpt lat="46.59723" lon="5.20157">
        <ele>191.4</ele>
        <time>2021-12-11T12:04:59Z</time>
      </trkpt>
      <trkpt lat="46.59725" lon="5.20148">
        <ele>191.6</ele>
        <time>2021-12-11T12:05:00Z</time>
      </trkpt>
      <trkpt lat="46.59745" lon="5.20075">
        <ele>191.8</ele>
        <time>2021-12-11T12:05:08Z</time>
      </trkpt>
      <trkpt lat="46.59752" lon="5.20023">
        <ele>191</ele>
        <time>2021-12-11T12:05:13Z</time>
      </trkpt>
      <trkpt lat="46.59751" lon="5.19981">
        <ele>190.4</ele>
        <time>2021-12-11T12:05:17Z</time>
      </trkpt>
      <trkpt lat="46.59753" lon="5.1994">
        <ele>189.8</ele>
        <time>2021-12-11T12:05:21Z</time>
      </trkpt>
      <trkpt lat="46.59757" lon="5.19921">
        <ele>189.6</ele>
        <time>2021-12-11T12:05:23Z</time>
      </trkpt>
      <trkpt lat="46.59765" lon="5.19904">
        <ele>189.6</ele>
        <time>2021-12-11T12:05:25Z</time>
      </trkpt>
      <trkpt lat="46.59785" lon="5.19868">
        <ele>189.4</ele>
        <time>2021-12-11T12:05:30Z</time>
      </trkpt>
      <trkpt lat="46.59788" lon="5.19861">
        <ele>189.4</ele>
        <time>2021-12-11T12:05:31Z</time>
      </trkpt>
      <trkpt lat="46.59801" lon="5.19818">
        <ele>189.4</ele>
        <time>2021-12-11T12:05:37Z</time>
      </trkpt>
      <trkpt lat="46.59813" lon="5.19779">
        <ele>190.2</ele>
        <time>2021-12-11T12:05:43Z</time>
      </trkpt>
      <trkpt lat="46.59815" lon="5.19773">
        <ele>190.4</ele>
        <time>2021-12-11T12:05:44Z</time>
      </trkpt>
      <trkpt lat="46.59822" lon="5.19741">
        <ele>191.6</ele>
        <time>2021-12-11T12:05:49Z</time>
      </trkpt>
      <trkpt lat="46.59823" lon="5.19735">
        <ele>191.8</ele>
        <time>2021-12-11T12:05:50Z</time>
      </trkpt>
      <trkpt lat="46.59826" lon="5.19716">
        <ele>192.8</ele>
        <time>2021-12-11T12:05:53Z</time>
      </trkpt>
      <trkpt lat="46.59829" lon="5.1968">
        <ele>193.2</ele>
        <time>2021-12-11T12:05:58Z</time>
      </trkpt>
      <trkpt lat="46.5983" lon="5.19658">
        <ele>193.8</ele>
        <time>2021-12-11T12:06:01Z</time>
      </trkpt>
      <trkpt lat="46.59832" lon="5.19642">
        <ele>194</ele>
        <time>2021-12-11T12:06:03Z</time>
      </trkpt>
      <trkpt lat="46.59834" lon="5.19635">
        <ele>194.2</ele>
        <time>2021-12-11T12:06:04Z</time>
      </trkpt>
      <trkpt lat="46.59851" lon="5.19594">
        <ele>194.2</ele>
        <time>2021-12-11T12:06:10Z</time>
      </trkpt>
      <trkpt lat="46.59882" lon="5.19531">
        <ele>194.2</ele>
        <time>2021-12-11T12:06:20Z</time>
      </trkpt>
      <trkpt lat="46.59892" lon="5.19514">
        <ele>194</ele>
        <time>2021-12-11T12:06:23Z</time>
      </trkpt>
      <trkpt lat="46.59901" lon="5.19513">
        <ele>193.8</ele>
        <time>2021-12-11T12:06:25Z</time>
      </trkpt>
      <trkpt lat="46.59905" lon="5.19516">
        <ele>193.8</ele>
        <time>2021-12-11T12:06:26Z</time>
      </trkpt>
      <trkpt lat="46.59922" lon="5.19535">
        <ele>193.6</ele>
        <time>2021-12-11T12:06:30Z</time>
      </trkpt>
      <trkpt lat="46.5996" lon="5.19573">
        <ele>193.6</ele>
        <time>2021-12-11T12:06:38Z</time>
      </trkpt>
      <trkpt lat="46.59979" lon="5.1959">
        <ele>194.6</ele>
        <time>2021-12-11T12:06:42Z</time>
      </trkpt>
      <trkpt lat="46.59984" lon="5.19591">
        <ele>194.8</ele>
        <time>2021-12-11T12:06:43Z</time>
      </trkpt>
      <trkpt lat="46.59989" lon="5.19589">
        <ele>194.8</ele>
        <time>2021-12-11T12:06:44Z</time>
      </trkpt>
      <trkpt lat="46.59993" lon="5.19583">
        <ele>194.8</ele>
        <time>2021-12-11T12:06:45Z</time>
      </trkpt>
      <trkpt lat="46.59996" lon="5.19576">
        <ele>194.8</ele>
        <time>2021-12-11T12:06:46Z</time>
      </trkpt>
      <trkpt lat="46.60001" lon="5.19557">
        <ele>194.8</ele>
        <time>2021-12-11T12:06:48Z</time>
      </trkpt>
      <trkpt lat="46.60007" lon="5.19537">
        <ele>194.6</ele>
        <time>2021-12-11T12:06:50Z</time>
      </trkpt>
      <trkpt lat="46.60016" lon="5.19518">
        <ele>194.4</ele>
        <time>2021-12-11T12:06:52Z</time>
      </trkpt>
      <trkpt lat="46.60027" lon="5.19502">
        <ele>193.6</ele>
        <time>2021-12-11T12:06:54Z</time>
      </trkpt>
      <trkpt lat="46.6004" lon="5.19486">
        <ele>192.8</ele>
        <time>2021-12-11T12:06:56Z</time>
      </trkpt>
      <trkpt lat="46.60047" lon="5.19478">
        <ele>192.4</ele>
        <time>2021-12-11T12:06:57Z</time>
      </trkpt>
      <trkpt lat="46.60074" lon="5.19447">
        <ele>191</ele>
        <time>2021-12-11T12:07:01Z</time>
      </trkpt>
      <trkpt lat="46.60079" lon="5.1944">
        <ele>190.6</ele>
        <time>2021-12-11T12:07:02Z</time>
      </trkpt>
      <trkpt lat="46.60085" lon="5.19432">
        <ele>189.6</ele>
        <time>2021-12-11T12:07:03Z</time>
      </trkpt>
      <trkpt lat="46.60107" lon="5.19402">
        <ele>188.6</ele>
        <time>2021-12-11T12:07:07Z</time>
      </trkpt>
      <trkpt lat="46.60113" lon="5.19394">
        <ele>188.6</ele>
        <time>2021-12-11T12:07:08Z</time>
      </trkpt>
      <trkpt lat="46.60135" lon="5.19364">
        <ele>187.8</ele>
        <time>2021-12-11T12:07:12Z</time>
      </trkpt>
      <trkpt lat="46.60142" lon="5.19359">
        <ele>187.6</ele>
        <time>2021-12-11T12:07:13Z</time>
      </trkpt>
      <trkpt lat="46.60149" lon="5.19356">
        <ele>187.6</ele>
        <time>2021-12-11T12:07:14Z</time>
      </trkpt>
      <trkpt lat="46.60163" lon="5.1936">
        <ele>187.2</ele>
        <time>2021-12-11T12:07:16Z</time>
      </trkpt>
      <trkpt lat="46.60169" lon="5.19364">
        <ele>187.2</ele>
        <time>2021-12-11T12:07:17Z</time>
      </trkpt>
      <trkpt lat="46.60202" lon="5.19388">
        <ele>187.2</ele>
        <time>2021-12-11T12:07:23Z</time>
      </trkpt>
      <trkpt lat="46.60229" lon="5.19408">
        <ele>188.6</ele>
        <time>2021-12-11T12:07:29Z</time>
      </trkpt>
      <trkpt lat="46.60247" lon="5.19417">
        <ele>189.6</ele>
        <time>2021-12-11T12:07:33Z</time>
      </trkpt>
      <trkpt lat="46.60264" lon="5.19422">
        <ele>190.8</ele>
        <time>2021-12-11T12:07:37Z</time>
      </trkpt>
      <trkpt lat="46.60268" lon="5.19424">
        <ele>191.2</ele>
        <time>2021-12-11T12:07:38Z</time>
      </trkpt>
      <trkpt lat="46.60285" lon="5.19429">
        <ele>191.8</ele>
        <time>2021-12-11T12:07:42Z</time>
      </trkpt>
      <trkpt lat="46.60297" lon="5.19431">
        <ele>192.6</ele>
        <time>2021-12-11T12:07:45Z</time>
      </trkpt>
      <trkpt lat="46.60305" lon="5.1943">
        <ele>193</ele>
        <time>2021-12-11T12:07:47Z</time>
      </trkpt>
      <trkpt lat="46.60309" lon="5.19429">
        <ele>193.2</ele>
        <time>2021-12-11T12:07:48Z</time>
      </trkpt>
      <trkpt lat="46.60322" lon="5.19426">
        <ele>194.2</ele>
        <time>2021-12-11T12:07:51Z</time>
      </trkpt>
      <trkpt lat="46.60344" lon="5.19418">
        <ele>195.6</ele>
        <time>2021-12-11T12:07:56Z</time>
      </trkpt>
      <trkpt lat="46.60348" lon="5.19417">
        <ele>195.8</ele>
        <time>2021-12-11T12:07:57Z</time>
      </trkpt>
      <trkpt lat="46.60368" lon="5.19408">
        <ele>196.8</ele>
        <time>2021-12-11T12:08:02Z</time>
      </trkpt>
      <trkpt lat="46.60372" lon="5.19406">
        <ele>197</ele>
        <time>2021-12-11T12:08:03Z</time>
      </trkpt>
      <trkpt lat="46.60378" lon="5.19399">
        <ele>197.2</ele>
        <time>2021-12-11T12:08:05Z</time>
      </trkpt>
      <trkpt lat="46.60381" lon="5.19394">
        <ele>197.4</ele>
        <time>2021-12-11T12:08:06Z</time>
      </trkpt>
      <trkpt lat="46.60386" lon="5.19383">
        <ele>197.6</ele>
        <time>2021-12-11T12:08:08Z</time>
      </trkpt>
      <trkpt lat="46.60389" lon="5.19377">
        <ele>197.8</ele>
        <time>2021-12-11T12:08:09Z</time>
      </trkpt>
      <trkpt lat="46.6039" lon="5.1937">
        <ele>198</ele>
        <time>2021-12-11T12:08:10Z</time>
      </trkpt>
      <trkpt lat="46.60397" lon="5.19342">
        <ele>198.2</ele>
        <time>2021-12-11T12:08:14Z</time>
      </trkpt>
      <trkpt lat="46.60403" lon="5.19329">
        <ele>198.2</ele>
        <time>2021-12-11T12:08:16Z</time>
      </trkpt>
      <trkpt lat="46.60412" lon="5.19318">
        <ele>198</ele>
        <time>2021-12-11T12:08:18Z</time>
      </trkpt>
      <trkpt lat="46.60426" lon="5.19305">
        <ele>197.8</ele>
        <time>2021-12-11T12:08:21Z</time>
      </trkpt>
      <trkpt lat="46.60442" lon="5.19296">
        <ele>197.8</ele>
        <time>2021-12-11T12:08:24Z</time>
      </trkpt>
      <trkpt lat="46.60454" lon="5.19295">
        <ele>197.8</ele>
        <time>2021-12-11T12:08:26Z</time>
      </trkpt>
      <trkpt lat="46.60482" lon="5.19308">
        <ele>198</ele>
        <time>2021-12-11T12:08:31Z</time>
      </trkpt>
      <trkpt lat="46.60535" lon="5.19334">
        <ele>198.4</ele>
        <time>2021-12-11T12:08:40Z</time>
      </trkpt>
      <trkpt lat="46.60541" lon="5.19337">
        <ele>198.4</ele>
        <time>2021-12-11T12:08:41Z</time>
      </trkpt>
      <trkpt lat="46.60595" lon="5.19359">
        <ele>198.2</ele>
        <time>2021-12-11T12:08:50Z</time>
      </trkpt>
      <trkpt lat="46.60607" lon="5.19363">
        <ele>198.2</ele>
        <time>2021-12-11T12:08:52Z</time>
      </trkpt>
      <trkpt lat="46.6066" lon="5.1939">
        <ele>198.4</ele>
        <time>2021-12-11T12:09:01Z</time>
      </trkpt>
      <trkpt lat="46.60709" lon="5.1943">
        <ele>198.2</ele>
        <time>2021-12-11T12:09:10Z</time>
      </trkpt>
      <trkpt lat="46.60758" lon="5.19449">
        <ele>197.8</ele>
        <time>2021-12-11T12:09:18Z</time>
      </trkpt>
      <trkpt lat="46.60802" lon="5.19456">
        <ele>197.8</ele>
        <time>2021-12-11T12:09:25Z</time>
      </trkpt>
      <trkpt lat="46.60859" lon="5.19446">
        <ele>197.2</ele>
        <time>2021-12-11T12:09:34Z</time>
      </trkpt>
      <trkpt lat="46.60917" lon="5.19434">
        <ele>196.8</ele>
        <time>2021-12-11T12:09:43Z</time>
      </trkpt>
      <trkpt lat="46.6093" lon="5.19436">
        <ele>196.8</ele>
        <time>2021-12-11T12:09:45Z</time>
      </trkpt>
      <trkpt lat="46.60949" lon="5.19443">
        <ele>196.8</ele>
        <time>2021-12-11T12:09:48Z</time>
      </trkpt>
      <trkpt lat="46.61" lon="5.19472">
        <ele>196.8</ele>
        <time>2021-12-11T12:09:57Z</time>
      </trkpt>
      <trkpt lat="46.6102" lon="5.19484">
        <ele>196.8</ele>
        <time>2021-12-11T12:10:01Z</time>
      </trkpt>
      <trkpt lat="46.61025" lon="5.19484">
        <ele>196.8</ele>
        <time>2021-12-11T12:10:02Z</time>
      </trkpt>
      <trkpt lat="46.61029" lon="5.19482">
        <ele>196.8</ele>
        <time>2021-12-11T12:10:03Z</time>
      </trkpt>
      <trkpt lat="46.61032" lon="5.19477">
        <ele>196.8</ele>
        <time>2021-12-11T12:10:04Z</time>
      </trkpt>
      <trkpt lat="46.61032" lon="5.19471">
        <ele>196.8</ele>
        <time>2021-12-11T12:10:05Z</time>
      </trkpt>
      <trkpt lat="46.61029" lon="5.19456">
        <ele>196.8</ele>
        <time>2021-12-11T12:10:07Z</time>
      </trkpt>
      <trkpt lat="46.61013" lon="5.19397">
        <ele>196.8</ele>
        <time>2021-12-11T12:10:14Z</time>
      </trkpt>
      <trkpt lat="46.61004" lon="5.19374">
        <ele>196.8</ele>
        <time>2021-12-11T12:10:17Z</time>
      </trkpt>
      <trkpt lat="46.60994" lon="5.1936">
        <ele>196.8</ele>
        <time>2021-12-11T12:10:19Z</time>
      </trkpt>
      <trkpt lat="46.60964" lon="5.19319">
        <ele>196.8</ele>
        <time>2021-12-11T12:10:25Z</time>
      </trkpt>
      <trkpt lat="46.60926" lon="5.19257">
        <ele>196.6</ele>
        <time>2021-12-11T12:10:33Z</time>
      </trkpt>
      <trkpt lat="46.60922" lon="5.19249">
        <ele>196.6</ele>
        <time>2021-12-11T12:10:34Z</time>
      </trkpt>
      <trkpt lat="46.60888" lon="5.1918">
        <ele>196.6</ele>
        <time>2021-12-11T12:10:42Z</time>
      </trkpt>
      <trkpt lat="46.60856" lon="5.19111">
        <ele>196.8</ele>
        <time>2021-12-11T12:10:50Z</time>
      </trkpt>
      <trkpt lat="46.60852" lon="5.19103">
        <ele>196.8</ele>
        <time>2021-12-11T12:10:51Z</time>
      </trkpt>
      <trkpt lat="46.60831" lon="5.19062">
        <ele>197</ele>
        <time>2021-12-11T12:10:56Z</time>
      </trkpt>
      <trkpt lat="46.6082" lon="5.19049">
        <ele>197</ele>
        <time>2021-12-11T12:10:58Z</time>
      </trkpt>
      <trkpt lat="46.6078" lon="5.19006">
        <ele>197</ele>
        <time>2021-12-11T12:11:05Z</time>
      </trkpt>
      <trkpt lat="46.60763" lon="5.18971">
        <ele>197.2</ele>
        <time>2021-12-11T12:11:09Z</time>
      </trkpt>
      <trkpt lat="46.6076" lon="5.18962">
        <ele>197.2</ele>
        <time>2021-12-11T12:11:10Z</time>
      </trkpt>
      <trkpt lat="46.60738" lon="5.18894">
        <ele>196.8</ele>
        <time>2021-12-11T12:11:17Z</time>
      </trkpt>
      <trkpt lat="46.60722" lon="5.18831">
        <ele>196.2</ele>
        <time>2021-12-11T12:11:23Z</time>
      </trkpt>
      <trkpt lat="46.60717" lon="5.18809">
        <ele>195.4</ele>
        <time>2021-12-11T12:11:25Z</time>
      </trkpt>
      <trkpt lat="46.60707" lon="5.18778">
        <ele>195</ele>
        <time>2021-12-11T12:11:28Z</time>
      </trkpt>
      <trkpt lat="46.60703" lon="5.18769">
        <ele>194.8</ele>
        <time>2021-12-11T12:11:29Z</time>
      </trkpt>
      <trkpt lat="46.60699" lon="5.1876">
        <ele>194.8</ele>
        <time>2021-12-11T12:11:30Z</time>
      </trkpt>
      <trkpt lat="46.60688" lon="5.18744">
        <ele>194.4</ele>
        <time>2021-12-11T12:11:32Z</time>
      </trkpt>
      <trkpt lat="46.60682" lon="5.18737">
        <ele>194.4</ele>
        <time>2021-12-11T12:11:33Z</time>
      </trkpt>
      <trkpt lat="46.60664" lon="5.18721">
        <ele>194.2</ele>
        <time>2021-12-11T12:11:36Z</time>
      </trkpt>
      <trkpt lat="46.60658" lon="5.18717">
        <ele>194.2</ele>
        <time>2021-12-11T12:11:37Z</time>
      </trkpt>
      <trkpt lat="46.60651" lon="5.18715">
        <ele>194.2</ele>
        <time>2021-12-11T12:11:38Z</time>
      </trkpt>
      <trkpt lat="46.60632" lon="5.18712">
        <ele>194.4</ele>
        <time>2021-12-11T12:11:41Z</time>
      </trkpt>
      <trkpt lat="46.60601" lon="5.1872">
        <ele>195</ele>
        <time>2021-12-11T12:11:46Z</time>
      </trkpt>
      <trkpt lat="46.60573" lon="5.18724">
        <ele>195.6</ele>
        <time>2021-12-11T12:11:50Z</time>
      </trkpt>
      <trkpt lat="46.6056" lon="5.18725">
        <ele>196</ele>
        <time>2021-12-11T12:11:52Z</time>
      </trkpt>
      <trkpt lat="46.60538" lon="5.18726">
        <ele>196.4</ele>
        <time>2021-12-11T12:11:55Z</time>
      </trkpt>
      <trkpt lat="46.60524" lon="5.18722">
        <ele>196.4</ele>
        <time>2021-12-11T12:11:57Z</time>
      </trkpt>
      <trkpt lat="46.60499" lon="5.18704">
        <ele>196.2</ele>
        <time>2021-12-11T12:12:01Z</time>
      </trkpt>
      <trkpt lat="46.60493" lon="5.18699">
        <ele>196.2</ele>
        <time>2021-12-11T12:12:02Z</time>
      </trkpt>
      <trkpt lat="46.60479" lon="5.18693">
        <ele>196.2</ele>
        <time>2021-12-11T12:12:04Z</time>
      </trkpt>
      <trkpt lat="46.60473" lon="5.18691">
        <ele>196</ele>
        <time>2021-12-11T12:12:05Z</time>
      </trkpt>
      <trkpt lat="46.60466" lon="5.18688">
        <ele>196</ele>
        <time>2021-12-11T12:12:06Z</time>
      </trkpt>
      <trkpt lat="46.60455" lon="5.18676">
        <ele>196</ele>
        <time>2021-12-11T12:12:08Z</time>
      </trkpt>
      <trkpt lat="46.60449" lon="5.18658">
        <ele>196</ele>
        <time>2021-12-11T12:12:10Z</time>
      </trkpt>
      <trkpt lat="46.60448" lon="5.18649">
        <ele>196</ele>
        <time>2021-12-11T12:12:11Z</time>
      </trkpt>
      <trkpt lat="46.60433" lon="5.18575">
        <ele>196.2</ele>
        <time>2021-12-11T12:12:19Z</time>
      </trkpt>
      <trkpt lat="46.60418" lon="5.18532">
        <ele>196.4</ele>
        <time>2021-12-11T12:12:24Z</time>
      </trkpt>
      <trkpt lat="46.60414" lon="5.18525">
        <ele>196.4</ele>
        <time>2021-12-11T12:12:25Z</time>
      </trkpt>
      <trkpt lat="46.60396" lon="5.18498">
        <ele>196.4</ele>
        <time>2021-12-11T12:12:29Z</time>
      </trkpt>
      <trkpt lat="46.60366" lon="5.18438">
        <ele>196.4</ele>
        <time>2021-12-11T12:12:37Z</time>
      </trkpt>
      <trkpt lat="46.60341" lon="5.18371">
        <ele>196.2</ele>
        <time>2021-12-11T12:12:45Z</time>
      </trkpt>
      <trkpt lat="46.60313" lon="5.18316">
        <ele>196.2</ele>
        <time>2021-12-11T12:12:52Z</time>
      </trkpt>
      <trkpt lat="46.60291" lon="5.18274">
        <ele>195.6</ele>
        <time>2021-12-11T12:12:57Z</time>
      </trkpt>
      <trkpt lat="46.60287" lon="5.18265">
        <ele>195.4</ele>
        <time>2021-12-11T12:12:58Z</time>
      </trkpt>
      <trkpt lat="46.60282" lon="5.18245">
        <ele>195</ele>
        <time>2021-12-11T12:13:00Z</time>
      </trkpt>
      <trkpt lat="46.60282" lon="5.18235">
        <ele>195</ele>
        <time>2021-12-11T12:13:01Z</time>
      </trkpt>
      <trkpt lat="46.60284" lon="5.18226">
        <ele>194.8</ele>
        <time>2021-12-11T12:13:02Z</time>
      </trkpt>
      <trkpt lat="46.60292" lon="5.18209">
        <ele>194.4</ele>
        <time>2021-12-11T12:13:04Z</time>
      </trkpt>
      <trkpt lat="46.60297" lon="5.18202">
        <ele>194.2</ele>
        <time>2021-12-11T12:13:05Z</time>
      </trkpt>
      <trkpt lat="46.60302" lon="5.18195">
        <ele>194.2</ele>
        <time>2021-12-11T12:13:06Z</time>
      </trkpt>
      <trkpt lat="46.60319" lon="5.18175">
        <ele>194</ele>
        <time>2021-12-11T12:13:09Z</time>
      </trkpt>
      <trkpt lat="46.6033" lon="5.18161">
        <ele>194</ele>
        <time>2021-12-11T12:13:11Z</time>
      </trkpt>
      <trkpt lat="46.60343" lon="5.18137">
        <ele>194</ele>
        <time>2021-12-11T12:13:14Z</time>
      </trkpt>
      <trkpt lat="46.60363" lon="5.18081">
        <ele>194</ele>
        <time>2021-12-11T12:13:20Z</time>
      </trkpt>
      <trkpt lat="46.60386" lon="5.18003">
        <ele>193.4</ele>
        <time>2021-12-11T12:13:28Z</time>
      </trkpt>
      <trkpt lat="46.60392" lon="5.17984">
        <ele>193.2</ele>
        <time>2021-12-11T12:13:30Z</time>
      </trkpt>
      <trkpt lat="46.60411" lon="5.17908">
        <ele>192.4</ele>
        <time>2021-12-11T12:13:38Z</time>
      </trkpt>
      <trkpt lat="46.60414" lon="5.17899">
        <ele>192.2</ele>
        <time>2021-12-11T12:13:39Z</time>
      </trkpt>
      <trkpt lat="46.60433" lon="5.17818">
        <ele>191.6</ele>
        <time>2021-12-11T12:13:48Z</time>
      </trkpt>
      <trkpt lat="46.60435" lon="5.17809">
        <ele>191.6</ele>
        <time>2021-12-11T12:13:49Z</time>
      </trkpt>
      <trkpt lat="46.60444" lon="5.17732">
        <ele>191.2</ele>
        <time>2021-12-11T12:13:57Z</time>
      </trkpt>
      <trkpt lat="46.60445" lon="5.17722">
        <ele>191.2</ele>
        <time>2021-12-11T12:13:58Z</time>
      </trkpt>
      <trkpt lat="46.60454" lon="5.17636">
        <ele>190.2</ele>
        <time>2021-12-11T12:14:06Z</time>
      </trkpt>
      <trkpt lat="46.60451" lon="5.17613">
        <ele>190</ele>
        <time>2021-12-11T12:14:08Z</time>
      </trkpt>
      <trkpt lat="46.60446" lon="5.1759">
        <ele>189.6</ele>
        <time>2021-12-11T12:14:10Z</time>
      </trkpt>
      <trkpt lat="46.60443" lon="5.17578">
        <ele>189.4</ele>
        <time>2021-12-11T12:14:11Z</time>
      </trkpt>
      <trkpt lat="46.60443" lon="5.17566">
        <ele>189.2</ele>
        <time>2021-12-11T12:14:12Z</time>
      </trkpt>
      <trkpt lat="46.60444" lon="5.17553">
        <ele>188.8</ele>
        <time>2021-12-11T12:14:13Z</time>
      </trkpt>
      <trkpt lat="46.6045" lon="5.17531">
        <ele>188.2</ele>
        <time>2021-12-11T12:14:15Z</time>
      </trkpt>
      <trkpt lat="46.60453" lon="5.1752">
        <ele>188</ele>
        <time>2021-12-11T12:14:16Z</time>
      </trkpt>
      <trkpt lat="46.60462" lon="5.1749">
        <ele>187</ele>
        <time>2021-12-11T12:14:19Z</time>
      </trkpt>
      <trkpt lat="46.60471" lon="5.1746">
        <ele>186.4</ele>
        <time>2021-12-11T12:14:22Z</time>
      </trkpt>
      <trkpt lat="46.60497" lon="5.17403">
        <ele>185.8</ele>
        <time>2021-12-11T12:14:28Z</time>
      </trkpt>
      <trkpt lat="46.60524" lon="5.1735">
        <ele>185</ele>
        <time>2021-12-11T12:14:34Z</time>
      </trkpt>
      <trkpt lat="46.60539" lon="5.17325">
        <ele>184.8</ele>
        <time>2021-12-11T12:14:37Z</time>
      </trkpt>
      <trkpt lat="46.6056" lon="5.17297">
        <ele>184.6</ele>
        <time>2021-12-11T12:14:41Z</time>
      </trkpt>
      <trkpt lat="46.60566" lon="5.17291">
        <ele>184.4</ele>
        <time>2021-12-11T12:14:42Z</time>
      </trkpt>
      <trkpt lat="46.60585" lon="5.17278">
        <ele>184.4</ele>
        <time>2021-12-11T12:14:45Z</time>
      </trkpt>
      <trkpt lat="46.60637" lon="5.17254">
        <ele>184.2</ele>
        <time>2021-12-11T12:14:53Z</time>
      </trkpt>
      <trkpt lat="46.60643" lon="5.17253">
        <ele>184.2</ele>
        <time>2021-12-11T12:14:54Z</time>
      </trkpt>
      <trkpt lat="46.60699" lon="5.17236">
        <ele>184.6</ele>
        <time>2021-12-11T12:15:03Z</time>
      </trkpt>
      <trkpt lat="46.60712" lon="5.17221">
        <ele>184.6</ele>
        <time>2021-12-11T12:15:06Z</time>
      </trkpt>
      <trkpt lat="46.60717" lon="5.17215">
        <ele>184.6</ele>
        <time>2021-12-11T12:15:07Z</time>
      </trkpt>
      <trkpt lat="46.60726" lon="5.17202">
        <ele>184.6</ele>
        <time>2021-12-11T12:15:09Z</time>
      </trkpt>
      <trkpt lat="46.60737" lon="5.17193">
        <ele>184.8</ele>
        <time>2021-12-11T12:15:11Z</time>
      </trkpt>
      <trkpt lat="46.60742" lon="5.1719">
        <ele>184.8</ele>
        <time>2021-12-11T12:15:12Z</time>
      </trkpt>
      <trkpt lat="46.6076" lon="5.17185">
        <ele>184.6</ele>
        <time>2021-12-11T12:15:15Z</time>
      </trkpt>
      <trkpt lat="46.60799" lon="5.17188">
        <ele>185</ele>
        <time>2021-12-11T12:15:22Z</time>
      </trkpt>
      <trkpt lat="46.60832" lon="5.17191">
        <ele>185.8</ele>
        <time>2021-12-11T12:15:28Z</time>
      </trkpt>
      <trkpt lat="46.6084" lon="5.17192">
        <ele>186.2</ele>
        <time>2021-12-11T12:15:30Z</time>
      </trkpt>
      <trkpt lat="46.60862" lon="5.17197">
        <ele>187.2</ele>
        <time>2021-12-11T12:15:35Z</time>
      </trkpt>
      <trkpt lat="46.60866" lon="5.17198">
        <ele>187.4</ele>
        <time>2021-12-11T12:15:36Z</time>
      </trkpt>
      <trkpt lat="46.60878" lon="5.17202">
        <ele>188.2</ele>
        <time>2021-12-11T12:15:39Z</time>
      </trkpt>
      <trkpt lat="46.60895" lon="5.17205">
        <ele>189.4</ele>
        <time>2021-12-11T12:15:43Z</time>
      </trkpt>
      <trkpt lat="46.60899" lon="5.17206">
        <ele>189.8</ele>
        <time>2021-12-11T12:15:44Z</time>
      </trkpt>
      <trkpt lat="46.60912" lon="5.17205">
        <ele>190.4</ele>
        <time>2021-12-11T12:15:47Z</time>
      </trkpt>
      <trkpt lat="46.60921" lon="5.17203">
        <ele>190.4</ele>
        <time>2021-12-11T12:15:49Z</time>
      </trkpt>
      <trkpt lat="46.6093" lon="5.172">
        <ele>190.8</ele>
        <time>2021-12-11T12:15:51Z</time>
      </trkpt>
      <trkpt lat="46.60947" lon="5.17189">
        <ele>191.6</ele>
        <time>2021-12-11T12:15:55Z</time>
      </trkpt>
      <trkpt lat="46.6096" lon="5.1718">
        <ele>192.2</ele>
        <time>2021-12-11T12:15:58Z</time>
      </trkpt>
      <trkpt lat="46.60974" lon="5.17172">
        <ele>192.6</ele>
        <time>2021-12-11T12:16:01Z</time>
      </trkpt>
      <trkpt lat="46.60997" lon="5.17165">
        <ele>193.4</ele>
        <time>2021-12-11T12:16:06Z</time>
      </trkpt>
      <trkpt lat="46.61011" lon="5.17162">
        <ele>193.8</ele>
        <time>2021-12-11T12:16:09Z</time>
      </trkpt>
      <trkpt lat="46.61033" lon="5.17159">
        <ele>194.4</ele>
        <time>2021-12-11T12:16:14Z</time>
      </trkpt>
      <trkpt lat="46.61053" lon="5.17156">
        <ele>194.8</ele>
        <time>2021-12-11T12:16:18Z</time>
      </trkpt>
      <trkpt lat="46.61079" lon="5.17151">
        <ele>195.2</ele>
        <time>2021-12-11T12:16:23Z</time>
      </trkpt>
      <trkpt lat="46.61122" lon="5.17143">
        <ele>195.6</ele>
        <time>2021-12-11T12:16:31Z</time>
      </trkpt>
      <trkpt lat="46.61133" lon="5.17143">
        <ele>195.8</ele>
        <time>2021-12-11T12:16:33Z</time>
      </trkpt>
      <trkpt lat="46.6115" lon="5.17144">
        <ele>195.8</ele>
        <time>2021-12-11T12:16:36Z</time>
      </trkpt>
      <trkpt lat="46.61162" lon="5.17145">
        <ele>196</ele>
        <time>2021-12-11T12:16:38Z</time>
      </trkpt>
      <trkpt lat="46.61213" lon="5.17155">
        <ele>196.2</ele>
        <time>2021-12-11T12:16:47Z</time>
      </trkpt>
      <trkpt lat="46.61262" lon="5.17158">
        <ele>196.6</ele>
        <time>2021-12-11T12:16:55Z</time>
      </trkpt>
      <trkpt lat="46.61317" lon="5.17163">
        <ele>196.4</ele>
        <time>2021-12-11T12:17:04Z</time>
      </trkpt>
      <trkpt lat="46.61367" lon="5.1717">
        <ele>196</ele>
        <time>2021-12-11T12:17:12Z</time>
      </trkpt>
      <trkpt lat="46.61417" lon="5.17191">
        <ele>196.2</ele>
        <time>2021-12-11T12:17:20Z</time>
      </trkpt>
      <trkpt lat="46.61467" lon="5.1721">
        <ele>196.4</ele>
        <time>2021-12-11T12:17:28Z</time>
      </trkpt>
      <trkpt lat="46.61518" lon="5.17209">
        <ele>196.4</ele>
        <time>2021-12-11T12:17:36Z</time>
      </trkpt>
      <trkpt lat="46.61577" lon="5.17207">
        <ele>195.8</ele>
        <time>2021-12-11T12:17:45Z</time>
      </trkpt>
      <trkpt lat="46.6159" lon="5.1721">
        <ele>195.8</ele>
        <time>2021-12-11T12:17:47Z</time>
      </trkpt>
      <trkpt lat="46.61633" lon="5.17232">
        <ele>195.6</ele>
        <time>2021-12-11T12:17:54Z</time>
      </trkpt>
      <trkpt lat="46.61688" lon="5.17255">
        <ele>195.8</ele>
        <time>2021-12-11T12:18:03Z</time>
      </trkpt>
      <trkpt lat="46.61731" lon="5.17273">
        <ele>195.8</ele>
        <time>2021-12-11T12:18:10Z</time>
      </trkpt>
      <trkpt lat="46.61737" lon="5.17277">
        <ele>195.8</ele>
        <time>2021-12-11T12:18:11Z</time>
      </trkpt>
      <trkpt lat="46.61742" lon="5.17283">
        <ele>195.8</ele>
        <time>2021-12-11T12:18:12Z</time>
      </trkpt>
      <trkpt lat="46.61755" lon="5.17303">
        <ele>195.6</ele>
        <time>2021-12-11T12:18:15Z</time>
      </trkpt>
      <trkpt lat="46.6177" lon="5.17333">
        <ele>195.6</ele>
        <time>2021-12-11T12:18:19Z</time>
      </trkpt>
      <trkpt lat="46.61785" lon="5.17362">
        <ele>195.4</ele>
        <time>2021-12-11T12:18:23Z</time>
      </trkpt>
      <trkpt lat="46.61796" lon="5.17373">
        <ele>195.4</ele>
        <time>2021-12-11T12:18:25Z</time>
      </trkpt>
      <trkpt lat="46.61802" lon="5.17377">
        <ele>195.4</ele>
        <time>2021-12-11T12:18:26Z</time>
      </trkpt>
      <trkpt lat="46.61851" lon="5.17398">
        <ele>195.4</ele>
        <time>2021-12-11T12:18:34Z</time>
      </trkpt>
      <trkpt lat="46.61908" lon="5.17423">
        <ele>195</ele>
        <time>2021-12-11T12:18:43Z</time>
      </trkpt>
      <trkpt lat="46.61927" lon="5.17431">
        <ele>194.8</ele>
        <time>2021-12-11T12:18:46Z</time>
      </trkpt>
      <trkpt lat="46.61973" lon="5.17446">
        <ele>194.4</ele>
        <time>2021-12-11T12:18:53Z</time>
      </trkpt>
      <trkpt lat="46.62021" lon="5.17459">
        <ele>193.4</ele>
        <time>2021-12-11T12:19:00Z</time>
      </trkpt>
      <trkpt lat="46.62036" lon="5.1746">
        <ele>193</ele>
        <time>2021-12-11T12:19:02Z</time>
      </trkpt>
      <trkpt lat="46.62043" lon="5.17459">
        <ele>192.6</ele>
        <time>2021-12-11T12:19:03Z</time>
      </trkpt>
      <trkpt lat="46.62051" lon="5.17457">
        <ele>192.2</ele>
        <time>2021-12-11T12:19:04Z</time>
      </trkpt>
      <trkpt lat="46.62058" lon="5.17453">
        <ele>191.8</ele>
        <time>2021-12-11T12:19:05Z</time>
      </trkpt>
      <trkpt lat="46.62065" lon="5.17449">
        <ele>191.6</ele>
        <time>2021-12-11T12:19:06Z</time>
      </trkpt>
      <trkpt lat="46.62071" lon="5.17445">
        <ele>191.2</ele>
        <time>2021-12-11T12:19:07Z</time>
      </trkpt>
      <trkpt lat="46.62105" lon="5.17417">
        <ele>190</ele>
        <time>2021-12-11T12:19:12Z</time>
      </trkpt>
      <trkpt lat="46.62112" lon="5.17411">
        <ele>189.8</ele>
        <time>2021-12-11T12:19:13Z</time>
      </trkpt>
      <trkpt lat="46.62131" lon="5.17394">
        <ele>188.8</ele>
        <time>2021-12-11T12:19:16Z</time>
      </trkpt>
      <trkpt lat="46.62151" lon="5.17378">
        <ele>187.8</ele>
        <time>2021-12-11T12:19:19Z</time>
      </trkpt>
      <trkpt lat="46.62171" lon="5.17365">
        <ele>187.2</ele>
        <time>2021-12-11T12:19:22Z</time>
      </trkpt>
      <trkpt lat="46.62178" lon="5.17362">
        <ele>187</ele>
        <time>2021-12-11T12:19:23Z</time>
      </trkpt>
      <trkpt lat="46.62194" lon="5.17361">
        <ele>186.6</ele>
        <time>2021-12-11T12:19:25Z</time>
      </trkpt>
      <trkpt lat="46.62224" lon="5.17366">
        <ele>185.6</ele>
        <time>2021-12-11T12:19:29Z</time>
      </trkpt>
      <trkpt lat="46.62235" lon="5.17368">
        <ele>184.6</ele>
        <time>2021-12-11T12:19:31Z</time>
      </trkpt>
      <trkpt lat="46.62239" lon="5.17369">
        <ele>184.2</ele>
        <time>2021-12-11T12:19:32Z</time>
      </trkpt>
      <trkpt lat="46.62244" lon="5.17365">
        <ele>183.4</ele>
        <time>2021-12-11T12:19:34Z</time>
      </trkpt>
      <trkpt lat="46.62244" lon="5.17361">
        <ele>183</ele>
        <time>2021-12-11T12:19:35Z</time>
      </trkpt>
      <trkpt lat="46.62241" lon="5.17356">
        <ele>183</ele>
        <time>2021-12-11T12:19:36Z</time>
      </trkpt>
      <trkpt lat="46.62238" lon="5.17352">
        <ele>182.8</ele>
        <time>2021-12-11T12:19:37Z</time>
      </trkpt>
      <trkpt lat="46.62225" lon="5.17337">
        <ele>182.6</ele>
        <time>2021-12-11T12:19:40Z</time>
      </trkpt>
      <trkpt lat="46.62205" lon="5.17314">
        <ele>182.4</ele>
        <time>2021-12-11T12:19:44Z</time>
      </trkpt>
      <trkpt lat="46.62198" lon="5.173">
        <ele>182.2</ele>
        <time>2021-12-11T12:19:46Z</time>
      </trkpt>
      <trkpt lat="46.62168" lon="5.17229">
        <ele>184</ele>
        <time>2021-12-11T12:19:56Z</time>
      </trkpt>
      <trkpt lat="46.62165" lon="5.17222">
        <ele>184.4</ele>
        <time>2021-12-11T12:19:57Z</time>
      </trkpt>
      <trkpt lat="46.62148" lon="5.17201">
        <ele>185.2</ele>
        <time>2021-12-11T12:20:01Z</time>
      </trkpt>
      <trkpt lat="46.62143" lon="5.17197">
        <ele>185.4</ele>
        <time>2021-12-11T12:20:02Z</time>
      </trkpt>
      <trkpt lat="46.62103" lon="5.17162">
        <ele>186.4</ele>
        <time>2021-12-11T12:20:10Z</time>
      </trkpt>
      <trkpt lat="46.62054" lon="5.17122">
        <ele>187.2</ele>
        <time>2021-12-11T12:20:20Z</time>
      </trkpt>
      <trkpt lat="46.62049" lon="5.17119">
        <ele>187.4</ele>
        <time>2021-12-11T12:20:21Z</time>
      </trkpt>
      <trkpt lat="46.62044" lon="5.17116">
        <ele>187.4</ele>
        <time>2021-12-11T12:20:22Z</time>
      </trkpt>
      <trkpt lat="46.62029" lon="5.1711">
        <ele>188.2</ele>
        <time>2021-12-11T12:20:25Z</time>
      </trkpt>
      <trkpt lat="46.62018" lon="5.17105">
        <ele>188.4</ele>
        <time>2021-12-11T12:20:27Z</time>
      </trkpt>
      <trkpt lat="46.61993" lon="5.17088">
        <ele>189.2</ele>
        <time>2021-12-11T12:20:32Z</time>
      </trkpt>
      <trkpt lat="46.61988" lon="5.17084">
        <ele>189.4</ele>
        <time>2021-12-11T12:20:33Z</time>
      </trkpt>
      <trkpt lat="46.6196" lon="5.17063">
        <ele>190.6</ele>
        <time>2021-12-11T12:20:39Z</time>
      </trkpt>
      <trkpt lat="46.61946" lon="5.17055">
        <ele>191.4</ele>
        <time>2021-12-11T12:20:42Z</time>
      </trkpt>
      <trkpt lat="46.6194" lon="5.17053">
        <ele>191.6</ele>
        <time>2021-12-11T12:20:43Z</time>
      </trkpt>
      <trkpt lat="46.61935" lon="5.17052">
        <ele>191.8</ele>
        <time>2021-12-11T12:20:44Z</time>
      </trkpt>
      <trkpt lat="46.61919" lon="5.1705">
        <ele>192.6</ele>
        <time>2021-12-11T12:20:47Z</time>
      </trkpt>
      <trkpt lat="46.61899" lon="5.17051">
        <ele>193.4</ele>
        <time>2021-12-11T12:20:51Z</time>
      </trkpt>
      <trkpt lat="46.61895" lon="5.17055">
        <ele>193.6</ele>
        <time>2021-12-11T12:20:52Z</time>
      </trkpt>
      <trkpt lat="46.61892" lon="5.17061">
        <ele>193.6</ele>
        <time>2021-12-11T12:20:53Z</time>
      </trkpt>
      <trkpt lat="46.6189" lon="5.17076">
        <ele>193.6</ele>
        <time>2021-12-11T12:20:55Z</time>
      </trkpt>
      <trkpt lat="46.61886" lon="5.17129">
        <ele>194</ele>
        <time>2021-12-11T12:21:01Z</time>
      </trkpt>
      <trkpt lat="46.61885" lon="5.17149">
        <ele>194</ele>
        <time>2021-12-11T12:21:05Z</time>
      </trkpt>
      <trkpt lat="46.61888" lon="5.17148">
        <ele>193.6</ele>
        <time>2021-12-11T12:21:08Z</time>
      </trkpt>
      <trkpt lat="46.61889" lon="5.17127">
        <ele>193.4</ele>
        <time>2021-12-11T12:21:13Z</time>
      </trkpt>
      <trkpt lat="46.61891" lon="5.1709">
        <ele>193.4</ele>
        <time>2021-12-11T12:21:18Z</time>
      </trkpt>
      <trkpt lat="46.61892" lon="5.17068">
        <ele>193.6</ele>
        <time>2021-12-11T12:21:21Z</time>
      </trkpt>
      <trkpt lat="46.6189" lon="5.17054">
        <ele>193.6</ele>
        <time>2021-12-11T12:21:23Z</time>
      </trkpt>
      <trkpt lat="46.61883" lon="5.17043">
        <ele>193.6</ele>
        <time>2021-12-11T12:21:25Z</time>
      </trkpt>
      <trkpt lat="46.61878" lon="5.17039">
        <ele>193.8</ele>
        <time>2021-12-11T12:21:26Z</time>
      </trkpt>
      <trkpt lat="46.61837" lon="5.17006">
        <ele>193.8</ele>
        <time>2021-12-11T12:21:34Z</time>
      </trkpt>
      <trkpt lat="46.61832" lon="5.17">
        <ele>193.8</ele>
        <time>2021-12-11T12:21:35Z</time>
      </trkpt>
      <trkpt lat="46.61824" lon="5.16988">
        <ele>194</ele>
        <time>2021-12-11T12:21:37Z</time>
      </trkpt>
      <trkpt lat="46.61818" lon="5.16973">
        <ele>194</ele>
        <time>2021-12-11T12:21:39Z</time>
      </trkpt>
      <trkpt lat="46.61815" lon="5.16956">
        <ele>194.2</ele>
        <time>2021-12-11T12:21:41Z</time>
      </trkpt>
      <trkpt lat="46.61815" lon="5.16939">
        <ele>194.2</ele>
        <time>2021-12-11T12:21:43Z</time>
      </trkpt>
      <trkpt lat="46.61816" lon="5.16923">
        <ele>194.4</ele>
        <time>2021-12-11T12:21:45Z</time>
      </trkpt>
      <trkpt lat="46.61812" lon="5.16907">
        <ele>194.6</ele>
        <time>2021-12-11T12:21:47Z</time>
      </trkpt>
      <trkpt lat="46.61803" lon="5.16896">
        <ele>194.6</ele>
        <time>2021-12-11T12:21:49Z</time>
      </trkpt>
      <trkpt lat="46.61797" lon="5.16892">
        <ele>194.8</ele>
        <time>2021-12-11T12:21:50Z</time>
      </trkpt>
      <trkpt lat="46.61754" lon="5.16869">
        <ele>194.8</ele>
        <time>2021-12-11T12:21:57Z</time>
      </trkpt>
      <trkpt lat="46.6171" lon="5.16845">
        <ele>195</ele>
        <time>2021-12-11T12:22:04Z</time>
      </trkpt>
      <trkpt lat="46.6168" lon="5.16815">
        <ele>195</ele>
        <time>2021-12-11T12:22:09Z</time>
      </trkpt>
      <trkpt lat="46.61658" lon="5.16787">
        <ele>194.8</ele>
        <time>2021-12-11T12:22:13Z</time>
      </trkpt>
      <trkpt lat="46.61641" lon="5.16767">
        <ele>194.6</ele>
        <time>2021-12-11T12:22:16Z</time>
      </trkpt>
      <trkpt lat="46.61593" lon="5.16714">
        <ele>194.4</ele>
        <time>2021-12-11T12:22:24Z</time>
      </trkpt>
      <trkpt lat="46.61587" lon="5.16707">
        <ele>194.4</ele>
        <time>2021-12-11T12:22:25Z</time>
      </trkpt>
      <trkpt lat="46.61549" lon="5.16656">
        <ele>194</ele>
        <time>2021-12-11T12:22:32Z</time>
      </trkpt>
      <trkpt lat="46.61543" lon="5.16649">
        <ele>194</ele>
        <time>2021-12-11T12:22:33Z</time>
      </trkpt>
      <trkpt lat="46.61524" lon="5.16632">
        <ele>193.8</ele>
        <time>2021-12-11T12:22:36Z</time>
      </trkpt>
      <trkpt lat="46.61516" lon="5.16627">
        <ele>193.6</ele>
        <time>2021-12-11T12:22:37Z</time>
      </trkpt>
      <trkpt lat="46.61471" lon="5.16594">
        <ele>193</ele>
        <time>2021-12-11T12:22:43Z</time>
      </trkpt>
      <trkpt lat="46.61449" lon="5.16574">
        <ele>192.6</ele>
        <time>2021-12-11T12:22:46Z</time>
      </trkpt>
      <trkpt lat="46.61435" lon="5.16558">
        <ele>192.4</ele>
        <time>2021-12-11T12:22:48Z</time>
      </trkpt>
      <trkpt lat="46.61406" lon="5.16521">
        <ele>191.4</ele>
        <time>2021-12-11T12:22:52Z</time>
      </trkpt>
      <trkpt lat="46.61391" lon="5.16502">
        <ele>190.6</ele>
        <time>2021-12-11T12:22:54Z</time>
      </trkpt>
      <trkpt lat="46.61376" lon="5.16483">
        <ele>189.8</ele>
        <time>2021-12-11T12:22:56Z</time>
      </trkpt>
      <trkpt lat="46.61354" lon="5.16456">
        <ele>188.6</ele>
        <time>2021-12-11T12:22:59Z</time>
      </trkpt>
      <trkpt lat="46.61339" lon="5.16439">
        <ele>188</ele>
        <time>2021-12-11T12:23:01Z</time>
      </trkpt>
      <trkpt lat="46.61325" lon="5.16423">
        <ele>187.6</ele>
        <time>2021-12-11T12:23:03Z</time>
      </trkpt>
      <trkpt lat="46.61289" lon="5.16386">
        <ele>187</ele>
        <time>2021-12-11T12:23:08Z</time>
      </trkpt>
      <trkpt lat="46.61251" lon="5.16343">
        <ele>186.6</ele>
        <time>2021-12-11T12:23:14Z</time>
      </trkpt>
      <trkpt lat="46.61217" lon="5.16293">
        <ele>187</ele>
        <time>2021-12-11T12:23:21Z</time>
      </trkpt>
      <trkpt lat="46.61184" lon="5.16242">
        <ele>187.2</ele>
        <time>2021-12-11T12:23:27Z</time>
      </trkpt>
      <trkpt lat="46.61162" lon="5.16209">
        <ele>186.6</ele>
        <time>2021-12-11T12:23:31Z</time>
      </trkpt>
      <trkpt lat="46.61144" lon="5.16182">
        <ele>186</ele>
        <time>2021-12-11T12:23:34Z</time>
      </trkpt>
      <trkpt lat="46.61126" lon="5.16156">
        <ele>185.4</ele>
        <time>2021-12-11T12:23:37Z</time>
      </trkpt>
      <trkpt lat="46.61091" lon="5.16104">
        <ele>184.8</ele>
        <time>2021-12-11T12:23:43Z</time>
      </trkpt>
      <trkpt lat="46.61074" lon="5.16079">
        <ele>184.4</ele>
        <time>2021-12-11T12:23:46Z</time>
      </trkpt>
      <trkpt lat="46.61034" lon="5.16021">
        <ele>183.4</ele>
        <time>2021-12-11T12:23:53Z</time>
      </trkpt>
      <trkpt lat="46.61028" lon="5.16013">
        <ele>183.4</ele>
        <time>2021-12-11T12:23:54Z</time>
      </trkpt>
      <trkpt lat="46.61006" lon="5.15982">
        <ele>183.2</ele>
        <time>2021-12-11T12:23:58Z</time>
      </trkpt>
      <trkpt lat="46.60963" lon="5.15922">
        <ele>183</ele>
        <time>2021-12-11T12:24:06Z</time>
      </trkpt>
      <trkpt lat="46.60921" lon="5.15863">
        <ele>183.6</ele>
        <time>2021-12-11T12:24:15Z</time>
      </trkpt>
      <trkpt lat="46.60917" lon="5.15857">
        <ele>184</ele>
        <time>2021-12-11T12:24:16Z</time>
      </trkpt>
      <trkpt lat="46.60906" lon="5.15839">
        <ele>184.2</ele>
        <time>2021-12-11T12:24:19Z</time>
      </trkpt>
      <trkpt lat="46.60903" lon="5.15833">
        <ele>184.4</ele>
        <time>2021-12-11T12:24:20Z</time>
      </trkpt>
      <trkpt lat="46.60887" lon="5.15808">
        <ele>185.6</ele>
        <time>2021-12-11T12:24:25Z</time>
      </trkpt>
      <trkpt lat="46.60885" lon="5.15803">
        <ele>185.8</ele>
        <time>2021-12-11T12:24:26Z</time>
      </trkpt>
      <trkpt lat="46.60876" lon="5.15789">
        <ele>186.8</ele>
        <time>2021-12-11T12:24:29Z</time>
      </trkpt>
      <trkpt lat="46.60865" lon="5.15771">
        <ele>188</ele>
        <time>2021-12-11T12:24:33Z</time>
      </trkpt>
      <trkpt lat="46.60862" lon="5.15767">
        <ele>188.2</ele>
        <time>2021-12-11T12:24:34Z</time>
      </trkpt>
      <trkpt lat="46.60853" lon="5.15755">
        <ele>189.2</ele>
        <time>2021-12-11T12:24:37Z</time>
      </trkpt>
      <trkpt lat="46.6084" lon="5.15739">
        <ele>190.2</ele>
        <time>2021-12-11T12:24:41Z</time>
      </trkpt>
      <trkpt lat="46.60818" lon="5.1571">
        <ele>191.2</ele>
        <time>2021-12-11T12:24:47Z</time>
      </trkpt>
      <trkpt lat="46.60792" lon="5.15677">
        <ele>192.4</ele>
        <time>2021-12-11T12:24:54Z</time>
      </trkpt>
      <trkpt lat="46.60788" lon="5.15672">
        <ele>192.6</ele>
        <time>2021-12-11T12:24:55Z</time>
      </trkpt>
      <trkpt lat="46.60762" lon="5.15635">
        <ele>193.4</ele>
        <time>2021-12-11T12:25:02Z</time>
      </trkpt>
      <trkpt lat="46.60758" lon="5.15629">
        <ele>193.6</ele>
        <time>2021-12-11T12:25:03Z</time>
      </trkpt>
      <trkpt lat="46.60729" lon="5.15588">
        <ele>193.6</ele>
        <time>2021-12-11T12:25:10Z</time>
      </trkpt>
      <trkpt lat="46.60725" lon="5.15582">
        <ele>193.6</ele>
        <time>2021-12-11T12:25:11Z</time>
      </trkpt>
      <trkpt lat="46.60712" lon="5.15563">
        <ele>193.8</ele>
        <time>2021-12-11T12:25:14Z</time>
      </trkpt>
      <trkpt lat="46.60699" lon="5.15546">
        <ele>193.8</ele>
        <time>2021-12-11T12:25:17Z</time>
      </trkpt>
      <trkpt lat="46.6066" lon="5.15489">
        <ele>193.8</ele>
        <time>2021-12-11T12:25:26Z</time>
      </trkpt>
      <trkpt lat="46.60624" lon="5.15437">
        <ele>194</ele>
        <time>2021-12-11T12:25:34Z</time>
      </trkpt>
      <trkpt lat="46.60603" lon="5.15407">
        <ele>194.4</ele>
        <time>2021-12-11T12:25:39Z</time>
      </trkpt>
      <trkpt lat="46.6059" lon="5.15387">
        <ele>194.4</ele>
        <time>2021-12-11T12:25:42Z</time>
      </trkpt>
      <trkpt lat="46.6058" lon="5.15374">
        <ele>194.4</ele>
        <time>2021-12-11T12:25:44Z</time>
      </trkpt>
      <trkpt lat="46.60566" lon="5.15354">
        <ele>194.4</ele>
        <time>2021-12-11T12:25:47Z</time>
      </trkpt>
      <trkpt lat="46.60553" lon="5.15334">
        <ele>194.4</ele>
        <time>2021-12-11T12:25:50Z</time>
      </trkpt>
      <trkpt lat="46.60519" lon="5.15286">
        <ele>194</ele>
        <time>2021-12-11T12:25:57Z</time>
      </trkpt>
      <trkpt lat="46.60477" lon="5.15224">
        <ele>194.2</ele>
        <time>2021-12-11T12:26:06Z</time>
      </trkpt>
      <trkpt lat="46.60473" lon="5.15217">
        <ele>193.8</ele>
        <time>2021-12-11T12:26:07Z</time>
      </trkpt>
      <trkpt lat="46.60433" lon="5.15158">
        <ele>193.8</ele>
        <time>2021-12-11T12:26:16Z</time>
      </trkpt>
      <trkpt lat="46.60428" lon="5.15151">
        <ele>193.6</ele>
        <time>2021-12-11T12:26:17Z</time>
      </trkpt>
      <trkpt lat="46.60384" lon="5.15091">
        <ele>192.8</ele>
        <time>2021-12-11T12:26:26Z</time>
      </trkpt>
      <trkpt lat="46.60372" lon="5.15077">
        <ele>192.4</ele>
        <time>2021-12-11T12:26:28Z</time>
      </trkpt>
      <trkpt lat="46.60367" lon="5.1507">
        <ele>192.4</ele>
        <time>2021-12-11T12:26:29Z</time>
      </trkpt>
      <trkpt lat="46.60361" lon="5.15064">
        <ele>192</ele>
        <time>2021-12-11T12:26:30Z</time>
      </trkpt>
      <trkpt lat="46.60318" lon="5.15014">
        <ele>191</ele>
        <time>2021-12-11T12:26:37Z</time>
      </trkpt>
      <trkpt lat="46.60286" lon="5.14977">
        <ele>189.6</ele>
        <time>2021-12-11T12:26:42Z</time>
      </trkpt>
      <trkpt lat="46.60266" lon="5.14955">
        <ele>188.4</ele>
        <time>2021-12-11T12:26:45Z</time>
      </trkpt>
      <trkpt lat="46.60259" lon="5.14947">
        <ele>188.2</ele>
        <time>2021-12-11T12:26:46Z</time>
      </trkpt>
      <trkpt lat="46.60233" lon="5.14917">
        <ele>187.2</ele>
        <time>2021-12-11T12:26:50Z</time>
      </trkpt>
      <trkpt lat="46.60204" lon="5.14884">
        <ele>186</ele>
        <time>2021-12-11T12:26:54Z</time>
      </trkpt>
      <trkpt lat="46.60185" lon="5.14862">
        <ele>184.8</ele>
        <time>2021-12-11T12:26:57Z</time>
      </trkpt>
      <trkpt lat="46.60164" lon="5.14838">
        <ele>183.8</ele>
        <time>2021-12-11T12:27:00Z</time>
      </trkpt>
      <trkpt lat="46.60143" lon="5.14815">
        <ele>182.6</ele>
        <time>2021-12-11T12:27:03Z</time>
      </trkpt>
      <trkpt lat="46.6013" lon="5.148">
        <ele>182</ele>
        <time>2021-12-11T12:27:05Z</time>
      </trkpt>
      <trkpt lat="46.60123" lon="5.14793">
        <ele>181.6</ele>
        <time>2021-12-11T12:27:06Z</time>
      </trkpt>
      <trkpt lat="46.60117" lon="5.14786">
        <ele>181.4</ele>
        <time>2021-12-11T12:27:07Z</time>
      </trkpt>
      <trkpt lat="46.60103" lon="5.14778">
        <ele>181.2</ele>
        <time>2021-12-11T12:27:09Z</time>
      </trkpt>
      <trkpt lat="46.60088" lon="5.14778">
        <ele>180.8</ele>
        <time>2021-12-11T12:27:11Z</time>
      </trkpt>
      <trkpt lat="46.6008" lon="5.1478">
        <ele>180.8</ele>
        <time>2021-12-11T12:27:12Z</time>
      </trkpt>
      <trkpt lat="46.60022" lon="5.14796">
        <ele>180.8</ele>
        <time>2021-12-11T12:27:20Z</time>
      </trkpt>
      <trkpt lat="46.60001" lon="5.14799">
        <ele>180.6</ele>
        <time>2021-12-11T12:27:23Z</time>
      </trkpt>
      <trkpt lat="46.59993" lon="5.14798">
        <ele>180.6</ele>
        <time>2021-12-11T12:27:24Z</time>
      </trkpt>
      <trkpt lat="46.59987" lon="5.14795">
        <ele>180.4</ele>
        <time>2021-12-11T12:27:25Z</time>
      </trkpt>
      <trkpt lat="46.59974" lon="5.14785">
        <ele>180.4</ele>
        <time>2021-12-11T12:27:27Z</time>
      </trkpt>
      <trkpt lat="46.59963" lon="5.14773">
        <ele>180.4</ele>
        <time>2021-12-11T12:27:29Z</time>
      </trkpt>
      <trkpt lat="46.59937" lon="5.14735">
        <ele>180.4</ele>
        <time>2021-12-11T12:27:35Z</time>
      </trkpt>
      <trkpt lat="46.59916" lon="5.14703">
        <ele>180.8</ele>
        <time>2021-12-11T12:27:40Z</time>
      </trkpt>
      <trkpt lat="46.59911" lon="5.14697">
        <ele>181</ele>
        <time>2021-12-11T12:27:41Z</time>
      </trkpt>
      <trkpt lat="46.59893" lon="5.14682">
        <ele>181.2</ele>
        <time>2021-12-11T12:27:44Z</time>
      </trkpt>
      <trkpt lat="46.59879" lon="5.14677">
        <ele>181.2</ele>
        <time>2021-12-11T12:27:46Z</time>
      </trkpt>
      <trkpt lat="46.59864" lon="5.14676">
        <ele>181</ele>
        <time>2021-12-11T12:27:48Z</time>
      </trkpt>
      <trkpt lat="46.59833" lon="5.14676">
        <ele>180.8</ele>
        <time>2021-12-11T12:27:52Z</time>
      </trkpt>
      <trkpt lat="46.59811" lon="5.1467">
        <ele>180.2</ele>
        <time>2021-12-11T12:27:55Z</time>
      </trkpt>
      <trkpt lat="46.59763" lon="5.14648">
        <ele>179.8</ele>
        <time>2021-12-11T12:28:02Z</time>
      </trkpt>
      <trkpt lat="46.59746" lon="5.14639">
        <ele>179.8</ele>
        <time>2021-12-11T12:28:05Z</time>
      </trkpt>
      <trkpt lat="46.5974" lon="5.14639">
        <ele>179.8</ele>
        <time>2021-12-11T12:28:06Z</time>
      </trkpt>
      <trkpt lat="46.59735" lon="5.14642">
        <ele>179.8</ele>
        <time>2021-12-11T12:28:07Z</time>
      </trkpt>
      <trkpt lat="46.59731" lon="5.14647">
        <ele>179.8</ele>
        <time>2021-12-11T12:28:08Z</time>
      </trkpt>
      <trkpt lat="46.59729" lon="5.14653">
        <ele>179.8</ele>
        <time>2021-12-11T12:28:09Z</time>
      </trkpt>
      <trkpt lat="46.59726" lon="5.14664">
        <ele>179.8</ele>
        <time>2021-12-11T12:28:11Z</time>
      </trkpt>
      <trkpt lat="46.59724" lon="5.14677">
        <ele>180</ele>
        <time>2021-12-11T12:28:15Z</time>
      </trkpt>
      <trkpt lat="46.59723" lon="5.14678">
        <ele>180.4</ele>
        <time>2021-12-11T12:28:17Z</time>
      </trkpt>
      <trkpt lat="46.59725" lon="5.14672">
        <ele>181.6</ele>
        <time>2021-12-11T12:30:42Z</time>
      </trkpt>
      <trkpt lat="46.5973" lon="5.14655">
        <ele>181.6</ele>
        <time>2021-12-11T12:30:45Z</time>
      </trkpt>
      <trkpt lat="46.59731" lon="5.14647">
        <ele>181.4</ele>
        <time>2021-12-11T12:30:46Z</time>
      </trkpt>
      <trkpt lat="46.5973" lon="5.1464">
        <ele>181.4</ele>
        <time>2021-12-11T12:30:47Z</time>
      </trkpt>
      <trkpt lat="46.59722" lon="5.14628">
        <ele>181.2</ele>
        <time>2021-12-11T12:30:49Z</time>
      </trkpt>
      <trkpt lat="46.59692" lon="5.14609">
        <ele>180.4</ele>
        <time>2021-12-11T12:30:54Z</time>
      </trkpt>
      <trkpt lat="46.59657" lon="5.14577">
        <ele>180</ele>
        <time>2021-12-11T12:31:00Z</time>
      </trkpt>
      <trkpt lat="46.59608" lon="5.14527">
        <ele>180</ele>
        <time>2021-12-11T12:31:09Z</time>
      </trkpt>
      <trkpt lat="46.59603" lon="5.14521">
        <ele>180</ele>
        <time>2021-12-11T12:31:10Z</time>
      </trkpt>
      <trkpt lat="46.59592" lon="5.14512">
        <ele>180</ele>
        <time>2021-12-11T12:31:12Z</time>
      </trkpt>
      <trkpt lat="46.59575" lon="5.14501">
        <ele>180</ele>
        <time>2021-12-11T12:31:15Z</time>
      </trkpt>
      <trkpt lat="46.59564" lon="5.14497">
        <ele>180.6</ele>
        <time>2021-12-11T12:31:17Z</time>
      </trkpt>
      <trkpt lat="46.59548" lon="5.14494">
        <ele>181</ele>
        <time>2021-12-11T12:31:20Z</time>
      </trkpt>
      <trkpt lat="46.59533" lon="5.14491">
        <ele>181.6</ele>
        <time>2021-12-11T12:31:23Z</time>
      </trkpt>
      <trkpt lat="46.59513" lon="5.14488">
        <ele>182.6</ele>
        <time>2021-12-11T12:31:27Z</time>
      </trkpt>
      <trkpt lat="46.59484" lon="5.14485">
        <ele>183.8</ele>
        <time>2021-12-11T12:31:33Z</time>
      </trkpt>
      <trkpt lat="46.5948" lon="5.14484">
        <ele>184</ele>
        <time>2021-12-11T12:31:34Z</time>
      </trkpt>
      <trkpt lat="46.59457" lon="5.14478">
        <ele>185</ele>
        <time>2021-12-11T12:31:39Z</time>
      </trkpt>
      <trkpt lat="46.59432" lon="5.14469">
        <ele>185.6</ele>
        <time>2021-12-11T12:31:44Z</time>
      </trkpt>
      <trkpt lat="46.59427" lon="5.14466">
        <ele>186</ele>
        <time>2021-12-11T12:31:45Z</time>
      </trkpt>
      <trkpt lat="46.59397" lon="5.1445">
        <ele>186.8</ele>
        <time>2021-12-11T12:31:51Z</time>
      </trkpt>
      <trkpt lat="46.59382" lon="5.14442">
        <ele>187.2</ele>
        <time>2021-12-11T12:31:54Z</time>
      </trkpt>
      <trkpt lat="46.5934" lon="5.14419">
        <ele>187.8</ele>
        <time>2021-12-11T12:32:02Z</time>
      </trkpt>
      <trkpt lat="46.59334" lon="5.14416">
        <ele>187.8</ele>
        <time>2021-12-11T12:32:03Z</time>
      </trkpt>
      <trkpt lat="46.59283" lon="5.14385">
        <ele>187.8</ele>
        <time>2021-12-11T12:32:12Z</time>
      </trkpt>
      <trkpt lat="46.59229" lon="5.14356">
        <ele>187</ele>
        <time>2021-12-11T12:32:20Z</time>
      </trkpt>
      <trkpt lat="46.59214" lon="5.14348">
        <ele>186.6</ele>
        <time>2021-12-11T12:32:22Z</time>
      </trkpt>
      <trkpt lat="46.59169" lon="5.14324">
        <ele>185.4</ele>
        <time>2021-12-11T12:32:28Z</time>
      </trkpt>
      <trkpt lat="46.59111" lon="5.143">
        <ele>183.8</ele>
        <time>2021-12-11T12:32:35Z</time>
      </trkpt>
      <trkpt lat="46.59103" lon="5.14297">
        <ele>183.6</ele>
        <time>2021-12-11T12:32:36Z</time>
      </trkpt>
      <trkpt lat="46.59086" lon="5.14289">
        <ele>182.8</ele>
        <time>2021-12-11T12:32:38Z</time>
      </trkpt>
      <trkpt lat="46.59064" lon="5.14275">
        <ele>182</ele>
        <time>2021-12-11T12:32:41Z</time>
      </trkpt>
      <trkpt lat="46.59057" lon="5.14269">
        <ele>181.8</ele>
        <time>2021-12-11T12:32:42Z</time>
      </trkpt>
      <trkpt lat="46.59051" lon="5.14262">
        <ele>181.8</ele>
        <time>2021-12-11T12:32:43Z</time>
      </trkpt>
      <trkpt lat="46.59037" lon="5.14238">
        <ele>181.4</ele>
        <time>2021-12-11T12:32:46Z</time>
      </trkpt>
      <trkpt lat="46.59006" lon="5.14185">
        <ele>181.2</ele>
        <time>2021-12-11T12:32:53Z</time>
      </trkpt>
      <trkpt lat="46.58982" lon="5.14156">
        <ele>181.4</ele>
        <time>2021-12-11T12:32:58Z</time>
      </trkpt>
      <trkpt lat="46.58957" lon="5.14142">
        <ele>182</ele>
        <time>2021-12-11T12:33:03Z</time>
      </trkpt>
      <trkpt lat="46.58941" lon="5.14135">
        <ele>182.8</ele>
        <time>2021-12-11T12:33:06Z</time>
      </trkpt>
      <trkpt lat="46.58916" lon="5.14122">
        <ele>184</ele>
        <time>2021-12-11T12:33:11Z</time>
      </trkpt>
      <trkpt lat="46.58889" lon="5.1411">
        <ele>185.2</ele>
        <time>2021-12-11T12:33:16Z</time>
      </trkpt>
      <trkpt lat="46.58873" lon="5.141">
        <ele>185.8</ele>
        <time>2021-12-11T12:33:19Z</time>
      </trkpt>
      <trkpt lat="46.58852" lon="5.14088">
        <ele>186.4</ele>
        <time>2021-12-11T12:33:23Z</time>
      </trkpt>
      <trkpt lat="46.58824" lon="5.14071">
        <ele>187.2</ele>
        <time>2021-12-11T12:33:28Z</time>
      </trkpt>
      <trkpt lat="46.58807" lon="5.14051">
        <ele>187.4</ele>
        <time>2021-12-11T12:33:32Z</time>
      </trkpt>
      <trkpt lat="46.58799" lon="5.14039">
        <ele>187.6</ele>
        <time>2021-12-11T12:33:34Z</time>
      </trkpt>
      <trkpt lat="46.58777" lon="5.13998">
        <ele>188.4</ele>
        <time>2021-12-11T12:33:41Z</time>
      </trkpt>
      <trkpt lat="46.58774" lon="5.13992">
        <ele>188.6</ele>
        <time>2021-12-11T12:33:42Z</time>
      </trkpt>
      <trkpt lat="46.58756" lon="5.13957">
        <ele>189.6</ele>
        <time>2021-12-11T12:33:48Z</time>
      </trkpt>
      <trkpt lat="46.58736" lon="5.13921">
        <ele>190.6</ele>
        <time>2021-12-11T12:33:54Z</time>
      </trkpt>
      <trkpt lat="46.58733" lon="5.13914">
        <ele>190.8</ele>
        <time>2021-12-11T12:33:55Z</time>
      </trkpt>
      <trkpt lat="46.58701" lon="5.13858">
        <ele>191.2</ele>
        <time>2021-12-11T12:34:04Z</time>
      </trkpt>
      <trkpt lat="46.58681" lon="5.1382">
        <ele>191.8</ele>
        <time>2021-12-11T12:34:10Z</time>
      </trkpt>
      <trkpt lat="46.58668" lon="5.13795">
        <ele>192.2</ele>
        <time>2021-12-11T12:34:14Z</time>
      </trkpt>
      <trkpt lat="46.58638" lon="5.1374">
        <ele>192.8</ele>
        <time>2021-12-11T12:34:23Z</time>
      </trkpt>
      <trkpt lat="46.58634" lon="5.13734">
        <ele>192.8</ele>
        <time>2021-12-11T12:34:24Z</time>
      </trkpt>
      <trkpt lat="46.586" lon="5.13671">
        <ele>193.2</ele>
        <time>2021-12-11T12:34:34Z</time>
      </trkpt>
      <trkpt lat="46.5859" lon="5.13653">
        <ele>193.4</ele>
        <time>2021-12-11T12:34:37Z</time>
      </trkpt>
      <trkpt lat="46.58567" lon="5.1361">
        <ele>193.6</ele>
        <time>2021-12-11T12:34:43Z</time>
      </trkpt>
      <trkpt lat="46.58533" lon="5.13547">
        <ele>193.6</ele>
        <time>2021-12-11T12:34:52Z</time>
      </trkpt>
      <trkpt lat="46.58525" lon="5.13533">
        <ele>193.6</ele>
        <time>2021-12-11T12:34:54Z</time>
      </trkpt>
      <trkpt lat="46.58495" lon="5.13483">
        <ele>193.6</ele>
        <time>2021-12-11T12:35:02Z</time>
      </trkpt>
      <trkpt lat="46.58487" lon="5.13474">
        <ele>193.4</ele>
        <time>2021-12-11T12:35:04Z</time>
      </trkpt>
      <trkpt lat="46.58476" lon="5.13467">
        <ele>193.2</ele>
        <time>2021-12-11T12:35:06Z</time>
      </trkpt>
      <trkpt lat="46.58433" lon="5.13449">
        <ele>193.2</ele>
        <time>2021-12-11T12:35:13Z</time>
      </trkpt>
      <trkpt lat="46.58388" lon="5.13432">
        <ele>194</ele>
        <time>2021-12-11T12:35:20Z</time>
      </trkpt>
      <trkpt lat="46.58375" lon="5.13427">
        <ele>194.2</ele>
        <time>2021-12-11T12:35:22Z</time>
      </trkpt>
      <trkpt lat="46.58324" lon="5.13405">
        <ele>194.6</ele>
        <time>2021-12-11T12:35:30Z</time>
      </trkpt>
      <trkpt lat="46.58293" lon="5.13393">
        <ele>195</ele>
        <time>2021-12-11T12:35:35Z</time>
      </trkpt>
      <trkpt lat="46.58274" lon="5.13389">
        <ele>195.2</ele>
        <time>2021-12-11T12:35:38Z</time>
      </trkpt>
      <trkpt lat="46.58226" lon="5.13393">
        <ele>195.4</ele>
        <time>2021-12-11T12:35:45Z</time>
      </trkpt>
      <trkpt lat="46.58167" lon="5.13404">
        <ele>195.6</ele>
        <time>2021-12-11T12:35:54Z</time>
      </trkpt>
      <trkpt lat="46.5816" lon="5.13405">
        <ele>195.6</ele>
        <time>2021-12-11T12:35:55Z</time>
      </trkpt>
      <trkpt lat="46.58148" lon="5.13403">
        <ele>195.6</ele>
        <time>2021-12-11T12:35:57Z</time>
      </trkpt>
      <trkpt lat="46.58135" lon="5.13397">
        <ele>195.6</ele>
        <time>2021-12-11T12:35:59Z</time>
      </trkpt>
      <trkpt lat="46.58118" lon="5.13385">
        <ele>196</ele>
        <time>2021-12-11T12:36:02Z</time>
      </trkpt>
      <trkpt lat="46.58097" lon="5.13367">
        <ele>196.4</ele>
        <time>2021-12-11T12:36:06Z</time>
      </trkpt>
      <trkpt lat="46.58069" lon="5.13344">
        <ele>196.6</ele>
        <time>2021-12-11T12:36:11Z</time>
      </trkpt>
      <trkpt lat="46.5803" lon="5.13311">
        <ele>196.8</ele>
        <time>2021-12-11T12:36:18Z</time>
      </trkpt>
      <trkpt lat="46.5798" lon="5.13267">
        <ele>196.8</ele>
        <time>2021-12-11T12:36:27Z</time>
      </trkpt>
      <trkpt lat="46.57944" lon="5.13233">
        <ele>197</ele>
        <time>2021-12-11T12:36:34Z</time>
      </trkpt>
      <trkpt lat="46.57939" lon="5.13228">
        <ele>197.2</ele>
        <time>2021-12-11T12:36:35Z</time>
      </trkpt>
      <trkpt lat="46.57894" lon="5.13178">
        <ele>198</ele>
        <time>2021-12-11T12:36:44Z</time>
      </trkpt>
      <trkpt lat="46.57883" lon="5.13167">
        <ele>198.2</ele>
        <time>2021-12-11T12:36:46Z</time>
      </trkpt>
      <trkpt lat="46.57838" lon="5.13117">
        <ele>198.4</ele>
        <time>2021-12-11T12:36:55Z</time>
      </trkpt>
      <trkpt lat="46.57828" lon="5.13107">
        <ele>198.4</ele>
        <time>2021-12-11T12:36:57Z</time>
      </trkpt>
      <trkpt lat="46.57784" lon="5.13056">
        <ele>198.4</ele>
        <time>2021-12-11T12:37:06Z</time>
      </trkpt>
      <trkpt lat="46.57778" lon="5.1305">
        <ele>198.4</ele>
        <time>2021-12-11T12:37:07Z</time>
      </trkpt>
      <trkpt lat="46.57742" lon="5.13018">
        <ele>198.4</ele>
        <time>2021-12-11T12:37:14Z</time>
      </trkpt>
      <trkpt lat="46.57693" lon="5.12996">
        <ele>198.8</ele>
        <time>2021-12-11T12:37:22Z</time>
      </trkpt>
      <trkpt lat="46.57653" lon="5.12992">
        <ele>198.8</ele>
        <time>2021-12-11T12:37:28Z</time>
      </trkpt>
      <trkpt lat="46.576" lon="5.12998">
        <ele>198.8</ele>
        <time>2021-12-11T12:37:36Z</time>
      </trkpt>
      <trkpt lat="46.5754" lon="5.13003">
        <ele>198.8</ele>
        <time>2021-12-11T12:37:45Z</time>
      </trkpt>
      <trkpt lat="46.5748" lon="5.13008">
        <ele>198.6</ele>
        <time>2021-12-11T12:37:54Z</time>
      </trkpt>
      <trkpt lat="46.57473" lon="5.13009">
        <ele>198.6</ele>
        <time>2021-12-11T12:37:55Z</time>
      </trkpt>
      <trkpt lat="46.57447" lon="5.13017">
        <ele>198.8</ele>
        <time>2021-12-11T12:37:59Z</time>
      </trkpt>
      <trkpt lat="46.57441" lon="5.13021">
        <ele>198.8</ele>
        <time>2021-12-11T12:38:00Z</time>
      </trkpt>
      <trkpt lat="46.57435" lon="5.13024">
        <ele>198.8</ele>
        <time>2021-12-11T12:38:01Z</time>
      </trkpt>
      <trkpt lat="46.57421" lon="5.13027">
        <ele>198.8</ele>
        <time>2021-12-11T12:38:03Z</time>
      </trkpt>
      <trkpt lat="46.57414" lon="5.13026">
        <ele>198.8</ele>
        <time>2021-12-11T12:38:04Z</time>
      </trkpt>
      <trkpt lat="46.57362" lon="5.13012">
        <ele>199.2</ele>
        <time>2021-12-11T12:38:12Z</time>
      </trkpt>
      <trkpt lat="46.57355" lon="5.13009">
        <ele>199.2</ele>
        <time>2021-12-11T12:38:13Z</time>
      </trkpt>
      <trkpt lat="46.57316" lon="5.12983">
        <ele>199.2</ele>
        <time>2021-12-11T12:38:19Z</time>
      </trkpt>
      <trkpt lat="46.57292" lon="5.12947">
        <ele>198.8</ele>
        <time>2021-12-11T12:38:24Z</time>
      </trkpt>
      <trkpt lat="46.5726" lon="5.12897">
        <ele>198.6</ele>
        <time>2021-12-11T12:38:31Z</time>
      </trkpt>
      <trkpt lat="46.57221" lon="5.12848">
        <ele>198.8</ele>
        <time>2021-12-11T12:38:39Z</time>
      </trkpt>
      <trkpt lat="46.57174" lon="5.128">
        <ele>199.2</ele>
        <time>2021-12-11T12:38:48Z</time>
      </trkpt>
      <trkpt lat="46.57136" lon="5.12765">
        <ele>199.6</ele>
        <time>2021-12-11T12:38:55Z</time>
      </trkpt>
      <trkpt lat="46.57131" lon="5.1276">
        <ele>199.4</ele>
        <time>2021-12-11T12:38:56Z</time>
      </trkpt>
      <trkpt lat="46.57086" lon="5.12716">
        <ele>199.4</ele>
        <time>2021-12-11T12:39:04Z</time>
      </trkpt>
      <trkpt lat="46.57068" lon="5.12699">
        <ele>199.4</ele>
        <time>2021-12-11T12:39:07Z</time>
      </trkpt>
      <trkpt lat="46.5702" lon="5.12652">
        <ele>199.4</ele>
        <time>2021-12-11T12:39:15Z</time>
      </trkpt>
      <trkpt lat="46.57014" lon="5.12646">
        <ele>199.4</ele>
        <time>2021-12-11T12:39:16Z</time>
      </trkpt>
      <trkpt lat="46.56964" lon="5.12598">
        <ele>199.6</ele>
        <time>2021-12-11T12:39:24Z</time>
      </trkpt>
      <trkpt lat="46.56958" lon="5.12592">
        <ele>199.6</ele>
        <time>2021-12-11T12:39:25Z</time>
      </trkpt>
      <trkpt lat="46.56938" lon="5.12578">
        <ele>199.6</ele>
        <time>2021-12-11T12:39:28Z</time>
      </trkpt>
      <trkpt lat="46.56924" lon="5.12572">
        <ele>199.6</ele>
        <time>2021-12-11T12:39:30Z</time>
      </trkpt>
      <trkpt lat="46.56873" lon="5.12565">
        <ele>199.8</ele>
        <time>2021-12-11T12:39:37Z</time>
      </trkpt>
      <trkpt lat="46.56822" lon="5.12555">
        <ele>199.4</ele>
        <time>2021-12-11T12:39:44Z</time>
      </trkpt>
      <trkpt lat="46.56815" lon="5.1255">
        <ele>199.4</ele>
        <time>2021-12-11T12:39:45Z</time>
      </trkpt>
      <trkpt lat="46.56809" lon="5.12545">
        <ele>199.4</ele>
        <time>2021-12-11T12:39:46Z</time>
      </trkpt>
      <trkpt lat="46.56798" lon="5.12531">
        <ele>199.2</ele>
        <time>2021-12-11T12:39:48Z</time>
      </trkpt>
      <trkpt lat="46.56783" lon="5.12496">
        <ele>199.2</ele>
        <time>2021-12-11T12:39:52Z</time>
      </trkpt>
      <trkpt lat="46.56757" lon="5.12433">
        <ele>199</ele>
        <time>2021-12-11T12:39:59Z</time>
      </trkpt>
      <trkpt lat="46.56723" lon="5.1239">
        <ele>198.6</ele>
        <time>2021-12-11T12:40:05Z</time>
      </trkpt>
      <trkpt lat="46.56689" lon="5.12369">
        <ele>198.4</ele>
        <time>2021-12-11T12:40:10Z</time>
      </trkpt>
      <trkpt lat="46.56653" lon="5.1235">
        <ele>198</ele>
        <time>2021-12-11T12:40:15Z</time>
      </trkpt>
      <trkpt lat="46.56632" lon="5.12334">
        <ele>197.4</ele>
        <time>2021-12-11T12:40:18Z</time>
      </trkpt>
      <trkpt lat="46.56611" lon="5.12315">
        <ele>196.8</ele>
        <time>2021-12-11T12:40:21Z</time>
      </trkpt>
      <trkpt lat="46.56579" lon="5.12282">
        <ele>196.2</ele>
        <time>2021-12-11T12:40:26Z</time>
      </trkpt>
      <trkpt lat="46.56568" lon="5.12267">
        <ele>196</ele>
        <time>2021-12-11T12:40:28Z</time>
      </trkpt>
      <trkpt lat="46.56561" lon="5.12248">
        <ele>196</ele>
        <time>2021-12-11T12:40:30Z</time>
      </trkpt>
      <trkpt lat="46.56555" lon="5.12219">
        <ele>195.8</ele>
        <time>2021-12-11T12:40:33Z</time>
      </trkpt>
      <trkpt lat="46.56556" lon="5.12209">
        <ele>195.8</ele>
        <time>2021-12-11T12:40:34Z</time>
      </trkpt>
      <trkpt lat="46.56559" lon="5.1218">
        <ele>195.8</ele>
        <time>2021-12-11T12:40:37Z</time>
      </trkpt>
      <trkpt lat="46.5656" lon="5.12159">
        <ele>195.6</ele>
        <time>2021-12-11T12:40:39Z</time>
      </trkpt>
      <trkpt lat="46.5656" lon="5.12138">
        <ele>195.6</ele>
        <time>2021-12-11T12:40:41Z</time>
      </trkpt>
      <trkpt lat="46.56556" lon="5.12117">
        <ele>195.4</ele>
        <time>2021-12-11T12:40:43Z</time>
      </trkpt>
      <trkpt lat="46.56548" lon="5.121">
        <ele>195.6</ele>
        <time>2021-12-11T12:40:45Z</time>
      </trkpt>
      <trkpt lat="46.56543" lon="5.12093">
        <ele>195.8</ele>
        <time>2021-12-11T12:40:46Z</time>
      </trkpt>
      <trkpt lat="46.56538" lon="5.12088">
        <ele>195.8</ele>
        <time>2021-12-11T12:40:47Z</time>
      </trkpt>
      <trkpt lat="46.56512" lon="5.1207">
        <ele>196</ele>
        <time>2021-12-11T12:40:51Z</time>
      </trkpt>
      <trkpt lat="46.56459" lon="5.12037">
        <ele>195.8</ele>
        <time>2021-12-11T12:40:59Z</time>
      </trkpt>
      <trkpt lat="46.56436" lon="5.12022">
        <ele>195.4</ele>
        <time>2021-12-11T12:41:02Z</time>
      </trkpt>
      <trkpt lat="46.56389" lon="5.11993">
        <ele>194.6</ele>
        <time>2021-12-11T12:41:08Z</time>
      </trkpt>
      <trkpt lat="46.56381" lon="5.11988">
        <ele>194.4</ele>
        <time>2021-12-11T12:41:09Z</time>
      </trkpt>
      <trkpt lat="46.56346" lon="5.11966">
        <ele>193.2</ele>
        <time>2021-12-11T12:41:13Z</time>
      </trkpt>
      <trkpt lat="46.56338" lon="5.11961">
        <ele>192.6</ele>
        <time>2021-12-11T12:41:14Z</time>
      </trkpt>
      <trkpt lat="46.5632" lon="5.11951">
        <ele>191.8</ele>
        <time>2021-12-11T12:41:16Z</time>
      </trkpt>
      <trkpt lat="46.56283" lon="5.11929">
        <ele>190.4</ele>
        <time>2021-12-11T12:41:20Z</time>
      </trkpt>
      <trkpt lat="46.56265" lon="5.11919">
        <ele>189.4</ele>
        <time>2021-12-11T12:41:22Z</time>
      </trkpt>
      <trkpt lat="46.56256" lon="5.11914">
        <ele>188.8</ele>
        <time>2021-12-11T12:41:23Z</time>
      </trkpt>
      <trkpt lat="46.56216" lon="5.1189">
        <ele>187.8</ele>
        <time>2021-12-11T12:41:28Z</time>
      </trkpt>
      <trkpt lat="46.56185" lon="5.11871">
        <ele>187.4</ele>
        <time>2021-12-11T12:41:33Z</time>
      </trkpt>
      <trkpt lat="46.56142" lon="5.11846">
        <ele>188.4</ele>
        <time>2021-12-11T12:41:41Z</time>
      </trkpt>
      <trkpt lat="46.56131" lon="5.11839">
        <ele>188.8</ele>
        <time>2021-12-11T12:41:43Z</time>
      </trkpt>
      <trkpt lat="46.56101" lon="5.11818">
        <ele>189.8</ele>
        <time>2021-12-11T12:41:48Z</time>
      </trkpt>
      <trkpt lat="46.56095" lon="5.11813">
        <ele>190</ele>
        <time>2021-12-11T12:41:49Z</time>
      </trkpt>
      <trkpt lat="46.56067" lon="5.11775">
        <ele>190.2</ele>
        <time>2021-12-11T12:41:55Z</time>
      </trkpt>
      <trkpt lat="46.56043" lon="5.11741">
        <ele>190.4</ele>
        <time>2021-12-11T12:42:01Z</time>
      </trkpt>
      <trkpt lat="46.5603" lon="5.11731">
        <ele>191</ele>
        <time>2021-12-11T12:42:04Z</time>
      </trkpt>
      <trkpt lat="46.56017" lon="5.11724">
        <ele>192.2</ele>
        <time>2021-12-11T12:42:07Z</time>
      </trkpt>
      <trkpt lat="46.56003" lon="5.11721">
        <ele>193.2</ele>
        <time>2021-12-11T12:42:10Z</time>
      </trkpt>
      <trkpt lat="46.55988" lon="5.11718">
        <ele>194.4</ele>
        <time>2021-12-11T12:42:13Z</time>
      </trkpt>
      <trkpt lat="46.55977" lon="5.11715">
        <ele>195</ele>
        <time>2021-12-11T12:42:15Z</time>
      </trkpt>
      <trkpt lat="46.55967" lon="5.11712">
        <ele>195.6</ele>
        <time>2021-12-11T12:42:17Z</time>
      </trkpt>
      <trkpt lat="46.55936" lon="5.11704">
        <ele>196.4</ele>
        <time>2021-12-11T12:42:23Z</time>
      </trkpt>
      <trkpt lat="46.55932" lon="5.11703">
        <ele>196.6</ele>
        <time>2021-12-11T12:42:24Z</time>
      </trkpt>
      <trkpt lat="46.55907" lon="5.11693">
        <ele>197.8</ele>
        <time>2021-12-11T12:42:29Z</time>
      </trkpt>
      <trkpt lat="46.55896" lon="5.11687">
        <ele>197.8</ele>
        <time>2021-12-11T12:42:31Z</time>
      </trkpt>
      <trkpt lat="46.55857" lon="5.11653">
        <ele>198.2</ele>
        <time>2021-12-11T12:42:39Z</time>
      </trkpt>
      <trkpt lat="46.5581" lon="5.11607">
        <ele>198.4</ele>
        <time>2021-12-11T12:42:49Z</time>
      </trkpt>
      <trkpt lat="46.55801" lon="5.11598">
        <ele>198.6</ele>
        <time>2021-12-11T12:42:51Z</time>
      </trkpt>
      <trkpt lat="46.55779" lon="5.11585">
        <ele>198.8</ele>
        <time>2021-12-11T12:42:55Z</time>
      </trkpt>
      <trkpt lat="46.55774" lon="5.11582">
        <ele>198.8</ele>
        <time>2021-12-11T12:42:56Z</time>
      </trkpt>
      <trkpt lat="46.55742" lon="5.11575">
        <ele>198.6</ele>
        <time>2021-12-11T12:43:02Z</time>
      </trkpt>
      <trkpt lat="46.55737" lon="5.11572">
        <ele>198.6</ele>
        <time>2021-12-11T12:43:03Z</time>
      </trkpt>
      <trkpt lat="46.55732" lon="5.11568">
        <ele>198.6</ele>
        <time>2021-12-11T12:43:04Z</time>
      </trkpt>
      <trkpt lat="46.55725" lon="5.11554">
        <ele>198.6</ele>
        <time>2021-12-11T12:43:06Z</time>
      </trkpt>
      <trkpt lat="46.55722" lon="5.11537">
        <ele>198.4</ele>
        <time>2021-12-11T12:43:08Z</time>
      </trkpt>
      <trkpt lat="46.55721" lon="5.11527">
        <ele>198.4</ele>
        <time>2021-12-11T12:43:09Z</time>
      </trkpt>
      <trkpt lat="46.55714" lon="5.11478">
        <ele>198</ele>
        <time>2021-12-11T12:43:14Z</time>
      </trkpt>
      <trkpt lat="46.55711" lon="5.11469">
        <ele>198</ele>
        <time>2021-12-11T12:43:15Z</time>
      </trkpt>
      <trkpt lat="46.55706" lon="5.1146">
        <ele>198</ele>
        <time>2021-12-11T12:43:16Z</time>
      </trkpt>
      <trkpt lat="46.55689" lon="5.11434">
        <ele>197.6</ele>
        <time>2021-12-11T12:43:19Z</time>
      </trkpt>
      <trkpt lat="46.55682" lon="5.11426">
        <ele>197.2</ele>
        <time>2021-12-11T12:43:20Z</time>
      </trkpt>
      <trkpt lat="46.5565" lon="5.11378">
        <ele>195.4</ele>
        <time>2021-12-11T12:43:25Z</time>
      </trkpt>
      <trkpt lat="46.55636" lon="5.11353">
        <ele>194.6</ele>
        <time>2021-12-11T12:43:27Z</time>
      </trkpt>
      <trkpt lat="46.55621" lon="5.11327">
        <ele>192.8</ele>
        <time>2021-12-11T12:43:29Z</time>
      </trkpt>
      <trkpt lat="46.55608" lon="5.11297">
        <ele>190.8</ele>
        <time>2021-12-11T12:43:31Z</time>
      </trkpt>
      <trkpt lat="46.55602" lon="5.11282">
        <ele>189.2</ele>
        <time>2021-12-11T12:43:32Z</time>
      </trkpt>
      <trkpt lat="46.55597" lon="5.11267">
        <ele>188.4</ele>
        <time>2021-12-11T12:43:33Z</time>
      </trkpt>
      <trkpt lat="46.55592" lon="5.11252">
        <ele>187</ele>
        <time>2021-12-11T12:43:34Z</time>
      </trkpt>
      <trkpt lat="46.55583" lon="5.11223">
        <ele>185.2</ele>
        <time>2021-12-11T12:43:36Z</time>
      </trkpt>
      <trkpt lat="46.55575" lon="5.11195">
        <ele>183.6</ele>
        <time>2021-12-11T12:43:38Z</time>
      </trkpt>
      <trkpt lat="46.55567" lon="5.11156">
        <ele>182.4</ele>
        <time>2021-12-11T12:43:41Z</time>
      </trkpt>
      <trkpt lat="46.55563" lon="5.11128">
        <ele>182.2</ele>
        <time>2021-12-11T12:43:43Z</time>
      </trkpt>
      <trkpt lat="46.55557" lon="5.11106">
        <ele>181.4</ele>
        <time>2021-12-11T12:43:45Z</time>
      </trkpt>
      <trkpt lat="46.55553" lon="5.11097">
        <ele>181.2</ele>
        <time>2021-12-11T12:43:46Z</time>
      </trkpt>
      <trkpt lat="46.55546" lon="5.1109">
        <ele>181</ele>
        <time>2021-12-11T12:43:47Z</time>
      </trkpt>
      <trkpt lat="46.55533" lon="5.11084">
        <ele>180.6</ele>
        <time>2021-12-11T12:43:49Z</time>
      </trkpt>
      <trkpt lat="46.55526" lon="5.11083">
        <ele>180.4</ele>
        <time>2021-12-11T12:43:50Z</time>
      </trkpt>
      <trkpt lat="46.5552" lon="5.11083">
        <ele>180.4</ele>
        <time>2021-12-11T12:43:51Z</time>
      </trkpt>
      <trkpt lat="46.555" lon="5.11085">
        <ele>180.4</ele>
        <time>2021-12-11T12:43:54Z</time>
      </trkpt>
      <trkpt lat="46.55464" lon="5.11086">
        <ele>181</ele>
        <time>2021-12-11T12:44:00Z</time>
      </trkpt>
      <trkpt lat="46.55459" lon="5.11085">
        <ele>181.2</ele>
        <time>2021-12-11T12:44:01Z</time>
      </trkpt>
      <trkpt lat="46.55453" lon="5.11086">
        <ele>181.4</ele>
        <time>2021-12-11T12:44:02Z</time>
      </trkpt>
      <trkpt lat="46.55443" lon="5.11087">
        <ele>182</ele>
        <time>2021-12-11T12:44:04Z</time>
      </trkpt>
      <trkpt lat="46.55433" lon="5.11088">
        <ele>182.6</ele>
        <time>2021-12-11T12:44:06Z</time>
      </trkpt>
      <trkpt lat="46.55423" lon="5.11088">
        <ele>183.2</ele>
        <time>2021-12-11T12:44:08Z</time>
      </trkpt>
      <trkpt lat="46.55413" lon="5.11089">
        <ele>183.6</ele>
        <time>2021-12-11T12:44:10Z</time>
      </trkpt>
      <trkpt lat="46.55394" lon="5.11089">
        <ele>185</ele>
        <time>2021-12-11T12:44:14Z</time>
      </trkpt>
      <trkpt lat="46.55375" lon="5.1109">
        <ele>186.2</ele>
        <time>2021-12-11T12:44:18Z</time>
      </trkpt>
      <trkpt lat="46.55369" lon="5.1109">
        <ele>186.4</ele>
        <time>2021-12-11T12:44:19Z</time>
      </trkpt>
      <trkpt lat="46.55353" lon="5.1109">
        <ele>187.2</ele>
        <time>2021-12-11T12:44:22Z</time>
      </trkpt>
      <trkpt lat="46.55322" lon="5.11089">
        <ele>187.4</ele>
        <time>2021-12-11T12:44:27Z</time>
      </trkpt>
      <trkpt lat="46.55276" lon="5.11092">
        <ele>187.2</ele>
        <time>2021-12-11T12:44:34Z</time>
      </trkpt>
      <trkpt lat="46.55218" lon="5.11099">
        <ele>186.8</ele>
        <time>2021-12-11T12:44:43Z</time>
      </trkpt>
      <trkpt lat="46.55173" lon="5.11108">
        <ele>186.8</ele>
        <time>2021-12-11T12:44:50Z</time>
      </trkpt>
      <trkpt lat="46.55145" lon="5.11124">
        <ele>186.6</ele>
        <time>2021-12-11T12:44:54Z</time>
      </trkpt>
      <trkpt lat="46.5513" lon="5.11123">
        <ele>186</ele>
        <time>2021-12-11T12:44:56Z</time>
      </trkpt>
      <trkpt lat="46.55123" lon="5.1112">
        <ele>185.8</ele>
        <time>2021-12-11T12:44:57Z</time>
      </trkpt>
      <trkpt lat="46.55087" lon="5.11102">
        <ele>185</ele>
        <time>2021-12-11T12:45:02Z</time>
      </trkpt>
      <trkpt lat="46.55065" lon="5.11089">
        <ele>184.6</ele>
        <time>2021-12-11T12:45:05Z</time>
      </trkpt>
      <trkpt lat="46.55028" lon="5.1107">
        <ele>184.4</ele>
        <time>2021-12-11T12:45:10Z</time>
      </trkpt>
      <trkpt lat="46.55012" lon="5.11067">
        <ele>184</ele>
        <time>2021-12-11T12:45:12Z</time>
      </trkpt>
      <trkpt lat="46.55004" lon="5.11068">
        <ele>183.8</ele>
        <time>2021-12-11T12:45:13Z</time>
      </trkpt>
      <trkpt lat="46.54996" lon="5.11071">
        <ele>183.6</ele>
        <time>2021-12-11T12:45:14Z</time>
      </trkpt>
      <trkpt lat="46.54981" lon="5.11079">
        <ele>183.4</ele>
        <time>2021-12-11T12:45:16Z</time>
      </trkpt>
      <trkpt lat="46.54939" lon="5.11114">
        <ele>182.8</ele>
        <time>2021-12-11T12:45:22Z</time>
      </trkpt>
      <trkpt lat="46.54931" lon="5.11119">
        <ele>182.6</ele>
        <time>2021-12-11T12:45:23Z</time>
      </trkpt>
      <trkpt lat="46.54907" lon="5.11129">
        <ele>182.4</ele>
        <time>2021-12-11T12:45:26Z</time>
      </trkpt>
      <trkpt lat="46.54868" lon="5.11131">
        <ele>182.2</ele>
        <time>2021-12-11T12:45:31Z</time>
      </trkpt>
      <trkpt lat="46.54811" lon="5.11128">
        <ele>182.4</ele>
        <time>2021-12-11T12:45:39Z</time>
      </trkpt>
      <trkpt lat="46.54774" lon="5.11121">
        <ele>183</ele>
        <time>2021-12-11T12:45:45Z</time>
      </trkpt>
      <trkpt lat="46.54739" lon="5.11107">
        <ele>183.8</ele>
        <time>2021-12-11T12:45:51Z</time>
      </trkpt>
      <trkpt lat="46.54733" lon="5.11104">
        <ele>184</ele>
        <time>2021-12-11T12:45:52Z</time>
      </trkpt>
      <trkpt lat="46.54676" lon="5.11076">
        <ele>184.8</ele>
        <time>2021-12-11T12:46:01Z</time>
      </trkpt>
      <trkpt lat="46.5467" lon="5.11072">
        <ele>184.8</ele>
        <time>2021-12-11T12:46:02Z</time>
      </trkpt>
      <trkpt lat="46.5462" lon="5.11043">
        <ele>184.6</ele>
        <time>2021-12-11T12:46:10Z</time>
      </trkpt>
      <trkpt lat="46.54614" lon="5.11038">
        <ele>184.6</ele>
        <time>2021-12-11T12:46:11Z</time>
      </trkpt>
      <trkpt lat="46.54594" lon="5.11015">
        <ele>184.4</ele>
        <time>2021-12-11T12:46:15Z</time>
      </trkpt>
      <trkpt lat="46.54568" lon="5.1098">
        <ele>185</ele>
        <time>2021-12-11T12:46:21Z</time>
      </trkpt>
      <trkpt lat="46.54564" lon="5.10974">
        <ele>185</ele>
        <time>2021-12-11T12:46:22Z</time>
      </trkpt>
      <trkpt lat="46.54553" lon="5.10958">
        <ele>185.6</ele>
        <time>2021-12-11T12:46:25Z</time>
      </trkpt>
      <trkpt lat="46.54545" lon="5.10949">
        <ele>186</ele>
        <time>2021-12-11T12:46:27Z</time>
      </trkpt>
      <trkpt lat="46.54532" lon="5.10937">
        <ele>186.4</ele>
        <time>2021-12-11T12:46:30Z</time>
      </trkpt>
      <trkpt lat="46.54519" lon="5.10927">
        <ele>187.2</ele>
        <time>2021-12-11T12:46:33Z</time>
      </trkpt>
      <trkpt lat="46.54514" lon="5.10925">
        <ele>187.4</ele>
        <time>2021-12-11T12:46:34Z</time>
      </trkpt>
      <trkpt lat="46.54505" lon="5.10921">
        <ele>187.6</ele>
        <time>2021-12-11T12:46:36Z</time>
      </trkpt>
      <trkpt lat="46.54496" lon="5.10919">
        <ele>188.2</ele>
        <time>2021-12-11T12:46:38Z</time>
      </trkpt>
      <trkpt lat="46.54491" lon="5.10919">
        <ele>188.2</ele>
        <time>2021-12-11T12:46:39Z</time>
      </trkpt>
      <trkpt lat="46.54486" lon="5.1092">
        <ele>188.6</ele>
        <time>2021-12-11T12:46:40Z</time>
      </trkpt>
      <trkpt lat="46.54481" lon="5.10922">
        <ele>188.8</ele>
        <time>2021-12-11T12:46:41Z</time>
      </trkpt>
      <trkpt lat="46.54463" lon="5.10931">
        <ele>189.4</ele>
        <time>2021-12-11T12:46:45Z</time>
      </trkpt>
      <trkpt lat="46.54458" lon="5.10935">
        <ele>189.8</ele>
        <time>2021-12-11T12:46:46Z</time>
      </trkpt>
      <trkpt lat="46.54439" lon="5.10952">
        <ele>190.8</ele>
        <time>2021-12-11T12:46:51Z</time>
      </trkpt>
      <trkpt lat="46.54427" lon="5.10963">
        <ele>191.6</ele>
        <time>2021-12-11T12:46:54Z</time>
      </trkpt>
      <trkpt lat="46.54423" lon="5.10966">
        <ele>192</ele>
        <time>2021-12-11T12:46:55Z</time>
      </trkpt>
      <trkpt lat="46.54418" lon="5.1097">
        <ele>192.4</ele>
        <time>2021-12-11T12:46:56Z</time>
      </trkpt>
      <trkpt lat="46.54394" lon="5.1099">
        <ele>193</ele>
        <time>2021-12-11T12:47:01Z</time>
      </trkpt>
      <trkpt lat="46.54389" lon="5.10994">
        <ele>193.2</ele>
        <time>2021-12-11T12:47:02Z</time>
      </trkpt>
      <trkpt lat="46.54363" lon="5.1101">
        <ele>193.6</ele>
        <time>2021-12-11T12:47:07Z</time>
      </trkpt>
      <trkpt lat="46.54357" lon="5.11011">
        <ele>193.6</ele>
        <time>2021-12-11T12:47:08Z</time>
      </trkpt>
      <trkpt lat="46.54329" lon="5.11009">
        <ele>194</ele>
        <time>2021-12-11T12:47:13Z</time>
      </trkpt>
      <trkpt lat="46.54308" lon="5.10997">
        <ele>194.4</ele>
        <time>2021-12-11T12:47:17Z</time>
      </trkpt>
      <trkpt lat="46.54298" lon="5.10991">
        <ele>194.6</ele>
        <time>2021-12-11T12:47:19Z</time>
      </trkpt>
      <trkpt lat="46.54268" lon="5.10975">
        <ele>195</ele>
        <time>2021-12-11T12:47:25Z</time>
      </trkpt>
      <trkpt lat="46.54263" lon="5.10973">
        <ele>195.2</ele>
        <time>2021-12-11T12:47:26Z</time>
      </trkpt>
      <trkpt lat="46.54247" lon="5.10971">
        <ele>195.4</ele>
        <time>2021-12-11T12:47:29Z</time>
      </trkpt>
      <trkpt lat="46.54242" lon="5.10972">
        <ele>195.4</ele>
        <time>2021-12-11T12:47:30Z</time>
      </trkpt>
      <trkpt lat="46.54231" lon="5.10973">
        <ele>195.6</ele>
        <time>2021-12-11T12:47:32Z</time>
      </trkpt>
      <trkpt lat="46.54185" lon="5.10982">
        <ele>196.2</ele>
        <time>2021-12-11T12:47:40Z</time>
      </trkpt>
      <trkpt lat="46.54146" lon="5.10987">
        <ele>196.4</ele>
        <time>2021-12-11T12:47:47Z</time>
      </trkpt>
      <trkpt lat="46.54135" lon="5.10988">
        <ele>196.4</ele>
        <time>2021-12-11T12:47:49Z</time>
      </trkpt>
      <trkpt lat="46.54129" lon="5.10988">
        <ele>196.4</ele>
        <time>2021-12-11T12:47:50Z</time>
      </trkpt>
      <trkpt lat="46.54112" lon="5.10982">
        <ele>196.6</ele>
        <time>2021-12-11T12:47:53Z</time>
      </trkpt>
      <trkpt lat="46.54097" lon="5.10971">
        <ele>196.6</ele>
        <time>2021-12-11T12:47:56Z</time>
      </trkpt>
      <trkpt lat="46.54088" lon="5.1096">
        <ele>196.2</ele>
        <time>2021-12-11T12:47:58Z</time>
      </trkpt>
      <trkpt lat="46.54071" lon="5.10926">
        <ele>196.6</ele>
        <time>2021-12-11T12:48:03Z</time>
      </trkpt>
      <trkpt lat="46.54045" lon="5.10882">
        <ele>197.2</ele>
        <time>2021-12-11T12:48:10Z</time>
      </trkpt>
      <trkpt lat="46.54041" lon="5.10876">
        <ele>197.2</ele>
        <time>2021-12-11T12:48:11Z</time>
      </trkpt>
      <trkpt lat="46.54036" lon="5.10871">
        <ele>197.4</ele>
        <time>2021-12-11T12:48:12Z</time>
      </trkpt>
      <trkpt lat="46.54015" lon="5.10855">
        <ele>197</ele>
        <time>2021-12-11T12:48:16Z</time>
      </trkpt>
      <trkpt lat="46.53969" lon="5.10833">
        <ele>197.4</ele>
        <time>2021-12-11T12:48:24Z</time>
      </trkpt>
      <trkpt lat="46.53929" lon="5.10814">
        <ele>198.2</ele>
        <time>2021-12-11T12:48:31Z</time>
      </trkpt>
      <trkpt lat="46.53876" lon="5.10793">
        <ele>197.8</ele>
        <time>2021-12-11T12:48:40Z</time>
      </trkpt>
      <trkpt lat="46.53839" lon="5.10786">
        <ele>198</ele>
        <time>2021-12-11T12:48:46Z</time>
      </trkpt>
      <trkpt lat="46.53832" lon="5.10784">
        <ele>198</ele>
        <time>2021-12-11T12:48:47Z</time>
      </trkpt>
      <trkpt lat="46.538" lon="5.10777">
        <ele>198.2</ele>
        <time>2021-12-11T12:48:52Z</time>
      </trkpt>
      <trkpt lat="46.53794" lon="5.10776">
        <ele>198.4</ele>
        <time>2021-12-11T12:48:53Z</time>
      </trkpt>
      <trkpt lat="46.53756" lon="5.10767">
        <ele>198.6</ele>
        <time>2021-12-11T12:48:59Z</time>
      </trkpt>
      <trkpt lat="46.5372" lon="5.10753">
        <ele>199.2</ele>
        <time>2021-12-11T12:49:05Z</time>
      </trkpt>
      <trkpt lat="46.53704" lon="5.10744">
        <ele>199.2</ele>
        <time>2021-12-11T12:49:08Z</time>
      </trkpt>
      <trkpt lat="46.53698" lon="5.10741">
        <ele>199.4</ele>
        <time>2021-12-11T12:49:09Z</time>
      </trkpt>
      <trkpt lat="46.5368" lon="5.10732">
        <ele>199.6</ele>
        <time>2021-12-11T12:49:12Z</time>
      </trkpt>
      <trkpt lat="46.53652" lon="5.10716">
        <ele>199.6</ele>
        <time>2021-12-11T12:49:16Z</time>
      </trkpt>
      <trkpt lat="46.53606" lon="5.10695">
        <ele>199.8</ele>
        <time>2021-12-11T12:49:23Z</time>
      </trkpt>
      <trkpt lat="46.53586" lon="5.10685">
        <ele>199.6</ele>
        <time>2021-12-11T12:49:26Z</time>
      </trkpt>
      <trkpt lat="46.53574" lon="5.10679">
        <ele>199.6</ele>
        <time>2021-12-11T12:49:28Z</time>
      </trkpt>
      <trkpt lat="46.53539" lon="5.1066">
        <ele>200</ele>
        <time>2021-12-11T12:49:34Z</time>
      </trkpt>
      <trkpt lat="46.535" lon="5.10641">
        <ele>200</ele>
        <time>2021-12-11T12:49:40Z</time>
      </trkpt>
      <trkpt lat="46.53465" lon="5.10624">
        <ele>199.8</ele>
        <time>2021-12-11T12:49:46Z</time>
      </trkpt>
      <trkpt lat="46.53443" lon="5.10612">
        <ele>199.8</ele>
        <time>2021-12-11T12:49:50Z</time>
      </trkpt>
      <trkpt lat="46.53438" lon="5.10609">
        <ele>199.8</ele>
        <time>2021-12-11T12:49:51Z</time>
      </trkpt>
      <trkpt lat="46.53421" lon="5.10599">
        <ele>200</ele>
        <time>2021-12-11T12:49:54Z</time>
      </trkpt>
      <trkpt lat="46.5341" lon="5.10593">
        <ele>200.2</ele>
        <time>2021-12-11T12:49:56Z</time>
      </trkpt>
      <trkpt lat="46.53372" lon="5.10573">
        <ele>200.2</ele>
        <time>2021-12-11T12:50:02Z</time>
      </trkpt>
      <trkpt lat="46.53346" lon="5.1056">
        <ele>200.4</ele>
        <time>2021-12-11T12:50:06Z</time>
      </trkpt>
      <trkpt lat="46.53341" lon="5.10556">
        <ele>200.6</ele>
        <time>2021-12-11T12:50:07Z</time>
      </trkpt>
      <trkpt lat="46.53318" lon="5.10544">
        <ele>201</ele>
        <time>2021-12-11T12:50:11Z</time>
      </trkpt>
      <trkpt lat="46.53293" lon="5.10529">
        <ele>201.2</ele>
        <time>2021-12-11T12:50:15Z</time>
      </trkpt>
      <trkpt lat="46.53288" lon="5.10527">
        <ele>201.2</ele>
        <time>2021-12-11T12:50:16Z</time>
      </trkpt>
      <trkpt lat="46.53282" lon="5.10523">
        <ele>201.4</ele>
        <time>2021-12-11T12:50:17Z</time>
      </trkpt>
      <trkpt lat="46.53266" lon="5.10511">
        <ele>201.4</ele>
        <time>2021-12-11T12:50:20Z</time>
      </trkpt>
      <trkpt lat="46.5326" lon="5.10506">
        <ele>201.4</ele>
        <time>2021-12-11T12:50:21Z</time>
      </trkpt>
      <trkpt lat="46.53252" lon="5.10503">
        <ele>201.4</ele>
        <time>2021-12-11T12:50:22Z</time>
      </trkpt>
      <trkpt lat="46.53224" lon="5.10491">
        <ele>201.6</ele>
        <time>2021-12-11T12:50:26Z</time>
      </trkpt>
      <trkpt lat="46.53212" lon="5.10482">
        <ele>201.6</ele>
        <time>2021-12-11T12:50:28Z</time>
      </trkpt>
      <trkpt lat="46.53194" lon="5.10471">
        <ele>201.6</ele>
        <time>2021-12-11T12:50:31Z</time>
      </trkpt>
      <trkpt lat="46.53143" lon="5.10444">
        <ele>201.2</ele>
        <time>2021-12-11T12:50:39Z</time>
      </trkpt>
      <trkpt lat="46.53137" lon="5.1044">
        <ele>201.2</ele>
        <time>2021-12-11T12:50:40Z</time>
      </trkpt>
      <trkpt lat="46.53086" lon="5.10413">
        <ele>201.2</ele>
        <time>2021-12-11T12:50:48Z</time>
      </trkpt>
      <trkpt lat="46.53079" lon="5.10409">
        <ele>201.2</ele>
        <time>2021-12-11T12:50:49Z</time>
      </trkpt>
      <trkpt lat="46.53027" lon="5.10382">
        <ele>201.2</ele>
        <time>2021-12-11T12:50:57Z</time>
      </trkpt>
      <trkpt lat="46.53008" lon="5.10373">
        <ele>201.2</ele>
        <time>2021-12-11T12:51:00Z</time>
      </trkpt>
      <trkpt lat="46.52957" lon="5.10349">
        <ele>201.4</ele>
        <time>2021-12-11T12:51:08Z</time>
      </trkpt>
      <trkpt lat="46.5291" lon="5.10325">
        <ele>201.8</ele>
        <time>2021-12-11T12:51:16Z</time>
      </trkpt>
      <trkpt lat="46.52868" lon="5.10305">
        <ele>202</ele>
        <time>2021-12-11T12:51:23Z</time>
      </trkpt>
      <trkpt lat="46.52813" lon="5.10287">
        <ele>202</ele>
        <time>2021-12-11T12:51:32Z</time>
      </trkpt>
      <trkpt lat="46.52755" lon="5.10274">
        <ele>202</ele>
        <time>2021-12-11T12:51:41Z</time>
      </trkpt>
      <trkpt lat="46.52698" lon="5.10269">
        <ele>201.8</ele>
        <time>2021-12-11T12:51:49Z</time>
      </trkpt>
      <trkpt lat="46.52655" lon="5.10266">
        <ele>201</ele>
        <time>2021-12-11T12:51:54Z</time>
      </trkpt>
      <trkpt lat="46.52646" lon="5.10265">
        <ele>200.2</ele>
        <time>2021-12-11T12:51:55Z</time>
      </trkpt>
      <trkpt lat="46.52627" lon="5.10264">
        <ele>199</ele>
        <time>2021-12-11T12:51:57Z</time>
      </trkpt>
      <trkpt lat="46.52598" lon="5.10262">
        <ele>197.8</ele>
        <time>2021-12-11T12:52:00Z</time>
      </trkpt>
      <trkpt lat="46.52579" lon="5.10262">
        <ele>196.8</ele>
        <time>2021-12-11T12:52:02Z</time>
      </trkpt>
      <trkpt lat="46.52542" lon="5.10266">
        <ele>196.2</ele>
        <time>2021-12-11T12:52:06Z</time>
      </trkpt>
      <trkpt lat="46.52493" lon="5.10275">
        <ele>196</ele>
        <time>2021-12-11T12:52:12Z</time>
      </trkpt>
      <trkpt lat="46.52451" lon="5.10275">
        <ele>196.2</ele>
        <time>2021-12-11T12:52:18Z</time>
      </trkpt>
      <trkpt lat="46.52401" lon="5.10271">
        <ele>197.8</ele>
        <time>2021-12-11T12:52:26Z</time>
      </trkpt>
      <trkpt lat="46.52371" lon="5.1027">
        <ele>199.4</ele>
        <time>2021-12-11T12:52:31Z</time>
      </trkpt>
      <trkpt lat="46.52354" lon="5.10269">
        <ele>200</ele>
        <time>2021-12-11T12:52:34Z</time>
      </trkpt>
      <trkpt lat="46.52349" lon="5.10269">
        <ele>200.4</ele>
        <time>2021-12-11T12:52:35Z</time>
      </trkpt>
      <trkpt lat="46.52322" lon="5.10266">
        <ele>201.6</ele>
        <time>2021-12-11T12:52:40Z</time>
      </trkpt>
      <trkpt lat="46.52306" lon="5.10264">
        <ele>202.6</ele>
        <time>2021-12-11T12:52:43Z</time>
      </trkpt>
      <trkpt lat="46.52301" lon="5.10262">
        <ele>203</ele>
        <time>2021-12-11T12:52:44Z</time>
      </trkpt>
      <trkpt lat="46.52284" lon="5.10256">
        <ele>203.6</ele>
        <time>2021-12-11T12:52:47Z</time>
      </trkpt>
      <trkpt lat="46.52274" lon="5.10249">
        <ele>204</ele>
        <time>2021-12-11T12:52:49Z</time>
      </trkpt>
      <trkpt lat="46.52269" lon="5.10245">
        <ele>204</ele>
        <time>2021-12-11T12:52:50Z</time>
      </trkpt>
      <trkpt lat="46.52242" lon="5.10217">
        <ele>204.2</ele>
        <time>2021-12-11T12:52:56Z</time>
      </trkpt>
      <trkpt lat="46.52221" lon="5.10193">
        <ele>204.8</ele>
        <time>2021-12-11T12:53:01Z</time>
      </trkpt>
      <trkpt lat="46.52217" lon="5.10188">
        <ele>205</ele>
        <time>2021-12-11T12:53:02Z</time>
      </trkpt>
      <trkpt lat="46.52183" lon="5.10156">
        <ele>205.6</ele>
        <time>2021-12-11T12:53:09Z</time>
      </trkpt>
      <trkpt lat="46.52143" lon="5.10133">
        <ele>205.8</ele>
        <time>2021-12-11T12:53:16Z</time>
      </trkpt>
      <trkpt lat="46.52092" lon="5.10108">
        <ele>206.2</ele>
        <time>2021-12-11T12:53:25Z</time>
      </trkpt>
      <trkpt lat="46.52042" lon="5.10091">
        <ele>206.6</ele>
        <time>2021-12-11T12:53:33Z</time>
      </trkpt>
      <trkpt lat="46.51985" lon="5.10071">
        <ele>206.6</ele>
        <time>2021-12-11T12:53:42Z</time>
      </trkpt>
      <trkpt lat="46.51973" lon="5.10068">
        <ele>206.6</ele>
        <time>2021-12-11T12:53:44Z</time>
      </trkpt>
      <trkpt lat="46.51922" lon="5.1006">
        <ele>206.6</ele>
        <time>2021-12-11T12:53:51Z</time>
      </trkpt>
      <trkpt lat="46.51862" lon="5.10051">
        <ele>205.2</ele>
        <time>2021-12-11T12:53:58Z</time>
      </trkpt>
      <trkpt lat="46.51853" lon="5.1005">
        <ele>204.8</ele>
        <time>2021-12-11T12:53:59Z</time>
      </trkpt>
      <trkpt lat="46.51827" lon="5.10046">
        <ele>203.6</ele>
        <time>2021-12-11T12:54:02Z</time>
      </trkpt>
      <trkpt lat="46.51792" lon="5.10037">
        <ele>202.6</ele>
        <time>2021-12-11T12:54:06Z</time>
      </trkpt>
      <trkpt lat="46.51751" lon="5.10024">
        <ele>201.4</ele>
        <time>2021-12-11T12:54:11Z</time>
      </trkpt>
      <trkpt lat="46.51735" lon="5.10019">
        <ele>201.4</ele>
        <time>2021-12-11T12:54:13Z</time>
      </trkpt>
      <trkpt lat="46.51678" lon="5.1">
        <ele>201.4</ele>
        <time>2021-12-11T12:54:21Z</time>
      </trkpt>
      <trkpt lat="46.51633" lon="5.09985">
        <ele>201.8</ele>
        <time>2021-12-11T12:54:28Z</time>
      </trkpt>
      <trkpt lat="46.51591" lon="5.09971">
        <ele>202.4</ele>
        <time>2021-12-11T12:54:35Z</time>
      </trkpt>
      <trkpt lat="46.51585" lon="5.09969">
        <ele>202.6</ele>
        <time>2021-12-11T12:54:36Z</time>
      </trkpt>
      <trkpt lat="46.51539" lon="5.09954">
        <ele>203.6</ele>
        <time>2021-12-11T12:54:44Z</time>
      </trkpt>
      <trkpt lat="46.51528" lon="5.09951">
        <ele>204</ele>
        <time>2021-12-11T12:54:46Z</time>
      </trkpt>
      <trkpt lat="46.51512" lon="5.09945">
        <ele>204.8</ele>
        <time>2021-12-11T12:54:49Z</time>
      </trkpt>
      <trkpt lat="46.51485" lon="5.09936">
        <ele>205.8</ele>
        <time>2021-12-11T12:54:54Z</time>
      </trkpt>
      <trkpt lat="46.51479" lon="5.09935">
        <ele>205.8</ele>
        <time>2021-12-11T12:54:55Z</time>
      </trkpt>
      <trkpt lat="46.51429" lon="5.09921">
        <ele>206.2</ele>
        <time>2021-12-11T12:55:03Z</time>
      </trkpt>
      <trkpt lat="46.51377" lon="5.09907">
        <ele>205.6</ele>
        <time>2021-12-11T12:55:10Z</time>
      </trkpt>
      <trkpt lat="46.51331" lon="5.09894">
        <ele>204.6</ele>
        <time>2021-12-11T12:55:16Z</time>
      </trkpt>
      <trkpt lat="46.51309" lon="5.09888">
        <ele>203.8</ele>
        <time>2021-12-11T12:55:19Z</time>
      </trkpt>
      <trkpt lat="46.51295" lon="5.09885">
        <ele>203.4</ele>
        <time>2021-12-11T12:55:21Z</time>
      </trkpt>
      <trkpt lat="46.51268" lon="5.09878">
        <ele>202.4</ele>
        <time>2021-12-11T12:55:25Z</time>
      </trkpt>
      <trkpt lat="46.51262" lon="5.09877">
        <ele>202.4</ele>
        <time>2021-12-11T12:55:26Z</time>
      </trkpt>
      <trkpt lat="46.5125" lon="5.09874">
        <ele>202.2</ele>
        <time>2021-12-11T12:55:28Z</time>
      </trkpt>
      <trkpt lat="46.5124" lon="5.09869">
        <ele>202</ele>
        <time>2021-12-11T12:55:30Z</time>
      </trkpt>
      <trkpt lat="46.51232" lon="5.09857">
        <ele>202</ele>
        <time>2021-12-11T12:55:32Z</time>
      </trkpt>
      <trkpt lat="46.5123" lon="5.09849">
        <ele>202</ele>
        <time>2021-12-11T12:55:33Z</time>
      </trkpt>
      <trkpt lat="46.51217" lon="5.09803">
        <ele>202</ele>
        <time>2021-12-11T12:55:38Z</time>
      </trkpt>
      <trkpt lat="46.51195" lon="5.09723">
        <ele>202.6</ele>
        <time>2021-12-11T12:55:47Z</time>
      </trkpt>
      <trkpt lat="46.51193" lon="5.09715">
        <ele>202.6</ele>
        <time>2021-12-11T12:55:48Z</time>
      </trkpt>
      <trkpt lat="46.51177" lon="5.09637">
        <ele>202.8</ele>
        <time>2021-12-11T12:55:56Z</time>
      </trkpt>
      <trkpt lat="46.51164" lon="5.09556">
        <ele>202</ele>
        <time>2021-12-11T12:56:04Z</time>
      </trkpt>
      <trkpt lat="46.5116" lon="5.09537">
        <ele>201.8</ele>
        <time>2021-12-11T12:56:06Z</time>
      </trkpt>
      <trkpt lat="46.51148" lon="5.09466">
        <ele>201.8</ele>
        <time>2021-12-11T12:56:14Z</time>
      </trkpt>
      <trkpt lat="46.51138" lon="5.09411">
        <ele>202.4</ele>
        <time>2021-12-11T12:56:21Z</time>
      </trkpt>
      <trkpt lat="46.51135" lon="5.09397">
        <ele>202.8</ele>
        <time>2021-12-11T12:56:23Z</time>
      </trkpt>
      <trkpt lat="46.51127" lon="5.09391">
        <ele>203.2</ele>
        <time>2021-12-11T12:56:25Z</time>
      </trkpt>
      <trkpt lat="46.51117" lon="5.09392">
        <ele>203.6</ele>
        <time>2021-12-11T12:56:27Z</time>
      </trkpt>
      <trkpt lat="46.51099" lon="5.09394">
        <ele>203.8</ele>
        <time>2021-12-11T12:56:30Z</time>
      </trkpt>
      <trkpt lat="46.51063" lon="5.09406">
        <ele>204.4</ele>
        <time>2021-12-11T12:56:36Z</time>
      </trkpt>
      <trkpt lat="46.51032" lon="5.09423">
        <ele>204.6</ele>
        <time>2021-12-11T12:56:41Z</time>
      </trkpt>
      <trkpt lat="46.50992" lon="5.09446">
        <ele>204</ele>
        <time>2021-12-11T12:56:47Z</time>
      </trkpt>
      <trkpt lat="46.50978" lon="5.09453">
        <ele>203.6</ele>
        <time>2021-12-11T12:56:49Z</time>
      </trkpt>
      <trkpt lat="46.50937" lon="5.09468">
        <ele>203.2</ele>
        <time>2021-12-11T12:56:55Z</time>
      </trkpt>
      <trkpt lat="46.50878" lon="5.09486">
        <ele>203.4</ele>
        <time>2021-12-11T12:57:04Z</time>
      </trkpt>
      <trkpt lat="46.50829" lon="5.095">
        <ele>203</ele>
        <time>2021-12-11T12:57:11Z</time>
      </trkpt>
      <trkpt lat="46.50787" lon="5.09519">
        <ele>203.2</ele>
        <time>2021-12-11T12:57:17Z</time>
      </trkpt>
      <trkpt lat="46.50733" lon="5.09546">
        <ele>203.2</ele>
        <time>2021-12-11T12:57:25Z</time>
      </trkpt>
      <trkpt lat="46.50719" lon="5.09553">
        <ele>203.2</ele>
        <time>2021-12-11T12:57:27Z</time>
      </trkpt>
      <trkpt lat="46.50674" lon="5.09572">
        <ele>202.6</ele>
        <time>2021-12-11T12:57:33Z</time>
      </trkpt>
      <trkpt lat="46.50666" lon="5.09574">
        <ele>202.4</ele>
        <time>2021-12-11T12:57:34Z</time>
      </trkpt>
      <trkpt lat="46.50634" lon="5.0958">
        <ele>201.4</ele>
        <time>2021-12-11T12:57:38Z</time>
      </trkpt>
      <trkpt lat="46.50619" lon="5.09582">
        <ele>200.6</ele>
        <time>2021-12-11T12:57:40Z</time>
      </trkpt>
      <trkpt lat="46.50601" lon="5.09585">
        <ele>200.4</ele>
        <time>2021-12-11T12:57:42Z</time>
      </trkpt>
      <trkpt lat="46.50553" lon="5.09591">
        <ele>199.4</ele>
        <time>2021-12-11T12:57:48Z</time>
      </trkpt>
      <trkpt lat="46.50546" lon="5.09592">
        <ele>199.2</ele>
        <time>2021-12-11T12:57:49Z</time>
      </trkpt>
      <trkpt lat="46.50506" lon="5.09594">
        <ele>198</ele>
        <time>2021-12-11T12:57:53Z</time>
      </trkpt>
      <trkpt lat="46.50478" lon="5.09591">
        <ele>196.8</ele>
        <time>2021-12-11T12:57:56Z</time>
      </trkpt>
      <trkpt lat="46.50457" lon="5.09591">
        <ele>195.8</ele>
        <time>2021-12-11T12:57:58Z</time>
      </trkpt>
      <trkpt lat="46.50447" lon="5.09592">
        <ele>195.4</ele>
        <time>2021-12-11T12:57:59Z</time>
      </trkpt>
      <trkpt lat="46.50437" lon="5.09593">
        <ele>194.6</ele>
        <time>2021-12-11T12:58:00Z</time>
      </trkpt>
      <trkpt lat="46.50414" lon="5.096">
        <ele>193.2</ele>
        <time>2021-12-11T12:58:02Z</time>
      </trkpt>
      <trkpt lat="46.50395" lon="5.09606">
        <ele>191.6</ele>
        <time>2021-12-11T12:58:04Z</time>
      </trkpt>
      <trkpt lat="46.50372" lon="5.09613">
        <ele>190.4</ele>
        <time>2021-12-11T12:58:06Z</time>
      </trkpt>
      <trkpt lat="46.50351" lon="5.09617">
        <ele>188.8</ele>
        <time>2021-12-11T12:58:08Z</time>
      </trkpt>
      <trkpt lat="46.50343" lon="5.09618">
        <ele>188</ele>
        <time>2021-12-11T12:58:09Z</time>
      </trkpt>
      <trkpt lat="46.50333" lon="5.09619">
        <ele>187.6</ele>
        <time>2021-12-11T12:58:10Z</time>
      </trkpt>
      <trkpt lat="46.50302" lon="5.09626">
        <ele>186.8</ele>
        <time>2021-12-11T12:58:13Z</time>
      </trkpt>
      <trkpt lat="46.50293" lon="5.09631">
        <ele>186.6</ele>
        <time>2021-12-11T12:58:14Z</time>
      </trkpt>
      <trkpt lat="46.50286" lon="5.09638">
        <ele>186.6</ele>
        <time>2021-12-11T12:58:15Z</time>
      </trkpt>
      <trkpt lat="46.50266" lon="5.09661">
        <ele>186.4</ele>
        <time>2021-12-11T12:58:18Z</time>
      </trkpt>
      <trkpt lat="46.50247" lon="5.0968">
        <ele>186.6</ele>
        <time>2021-12-11T12:58:21Z</time>
      </trkpt>
      <trkpt lat="46.50241" lon="5.09684">
        <ele>186.6</ele>
        <time>2021-12-11T12:58:22Z</time>
      </trkpt>
      <trkpt lat="46.50229" lon="5.09689">
        <ele>186.8</ele>
        <time>2021-12-11T12:58:24Z</time>
      </trkpt>
      <trkpt lat="46.50217" lon="5.09691">
        <ele>187.4</ele>
        <time>2021-12-11T12:58:26Z</time>
      </trkpt>
      <trkpt lat="46.50211" lon="5.09692">
        <ele>187.8</ele>
        <time>2021-12-11T12:58:27Z</time>
      </trkpt>
      <trkpt lat="46.50199" lon="5.09692">
        <ele>189</ele>
        <time>2021-12-11T12:58:29Z</time>
      </trkpt>
      <trkpt lat="46.50181" lon="5.0969">
        <ele>190.2</ele>
        <time>2021-12-11T12:58:32Z</time>
      </trkpt>
      <trkpt lat="46.50168" lon="5.0969">
        <ele>191</ele>
        <time>2021-12-11T12:58:34Z</time>
      </trkpt>
      <trkpt lat="46.50147" lon="5.09689">
        <ele>191.4</ele>
        <time>2021-12-11T12:58:37Z</time>
      </trkpt>
      <trkpt lat="46.50132" lon="5.09685">
        <ele>191.4</ele>
        <time>2021-12-11T12:58:39Z</time>
      </trkpt>
      <trkpt lat="46.5009" lon="5.09663">
        <ele>190.6</ele>
        <time>2021-12-11T12:58:45Z</time>
      </trkpt>
      <trkpt lat="46.50072" lon="5.09645">
        <ele>190</ele>
        <time>2021-12-11T12:58:48Z</time>
      </trkpt>
      <trkpt lat="46.50045" lon="5.09615">
        <ele>189.2</ele>
        <time>2021-12-11T12:58:53Z</time>
      </trkpt>
      <trkpt lat="46.5004" lon="5.09609">
        <ele>189</ele>
        <time>2021-12-11T12:58:54Z</time>
      </trkpt>
      <trkpt lat="46.5002" lon="5.09589">
        <ele>188.4</ele>
        <time>2021-12-11T12:58:58Z</time>
      </trkpt>
      <trkpt lat="46.50015" lon="5.09588">
        <ele>188.2</ele>
        <time>2021-12-11T12:58:59Z</time>
      </trkpt>
      <trkpt lat="46.5001" lon="5.09589">
        <ele>188.2</ele>
        <time>2021-12-11T12:59:00Z</time>
      </trkpt>
      <trkpt lat="46.50007" lon="5.09593">
        <ele>188</ele>
        <time>2021-12-11T12:59:01Z</time>
      </trkpt>
      <trkpt lat="46.50004" lon="5.09599">
        <ele>187.6</ele>
        <time>2021-12-11T12:59:02Z</time>
      </trkpt>
      <trkpt lat="46.49995" lon="5.09635">
        <ele>187</ele>
        <time>2021-12-11T12:59:06Z</time>
      </trkpt>
      <trkpt lat="46.49971" lon="5.09716">
        <ele>186</ele>
        <time>2021-12-11T12:59:14Z</time>
      </trkpt>
      <trkpt lat="46.49964" lon="5.09748">
        <ele>186</ele>
        <time>2021-12-11T12:59:17Z</time>
      </trkpt>
      <trkpt lat="46.49952" lon="5.09802">
        <ele>185.4</ele>
        <time>2021-12-11T12:59:22Z</time>
      </trkpt>
      <trkpt lat="46.49946" lon="5.09873">
        <ele>185.8</ele>
        <time>2021-12-11T12:59:29Z</time>
      </trkpt>
      <trkpt lat="46.49943" lon="5.09936">
        <ele>186.4</ele>
        <time>2021-12-11T12:59:36Z</time>
      </trkpt>
      <trkpt lat="46.49942" lon="5.09968">
        <ele>187</ele>
        <time>2021-12-11T12:59:40Z</time>
      </trkpt>
      <trkpt lat="46.4994" lon="5.09998">
        <ele>187.8</ele>
        <time>2021-12-11T12:59:44Z</time>
      </trkpt>
      <trkpt lat="46.49939" lon="5.10006">
        <ele>188.2</ele>
        <time>2021-12-11T12:59:45Z</time>
      </trkpt>
      <trkpt lat="46.49932" lon="5.10054">
        <ele>189.6</ele>
        <time>2021-12-11T12:59:51Z</time>
      </trkpt>
      <trkpt lat="46.49931" lon="5.10064">
        <ele>189.8</ele>
        <time>2021-12-11T12:59:52Z</time>
      </trkpt>
      <trkpt lat="46.49919" lon="5.1013">
        <ele>189.8</ele>
        <time>2021-12-11T12:59:59Z</time>
      </trkpt>
      <trkpt lat="46.49911" lon="5.1021">
        <ele>189.2</ele>
        <time>2021-12-11T13:00:07Z</time>
      </trkpt>
      <trkpt lat="46.49915" lon="5.10296">
        <ele>189.6</ele>
        <time>2021-12-11T13:00:15Z</time>
      </trkpt>
      <trkpt lat="46.49912" lon="5.10346">
        <ele>190.2</ele>
        <time>2021-12-11T13:00:21Z</time>
      </trkpt>
      <trkpt lat="46.49909" lon="5.1037">
        <ele>190.8</ele>
        <time>2021-12-11T13:00:25Z</time>
      </trkpt>
      <trkpt lat="46.49903" lon="5.10407">
        <ele>191.2</ele>
        <time>2021-12-11T13:00:29Z</time>
      </trkpt>
      <trkpt lat="46.499" lon="5.10433">
        <ele>192</ele>
        <time>2021-12-11T13:00:33Z</time>
      </trkpt>
      <trkpt lat="46.49897" lon="5.10459">
        <ele>193.2</ele>
        <time>2021-12-11T13:00:37Z</time>
      </trkpt>
      <trkpt lat="46.49896" lon="5.10465">
        <ele>193.4</ele>
        <time>2021-12-11T13:00:38Z</time>
      </trkpt>
      <trkpt lat="46.49892" lon="5.10495">
        <ele>194.2</ele>
        <time>2021-12-11T13:00:43Z</time>
      </trkpt>
      <trkpt lat="46.49888" lon="5.10518">
        <ele>195.2</ele>
        <time>2021-12-11T13:00:47Z</time>
      </trkpt>
      <trkpt lat="46.49886" lon="5.1053">
        <ele>196.4</ele>
        <time>2021-12-11T13:00:49Z</time>
      </trkpt>
      <trkpt lat="46.49883" lon="5.1054">
        <ele>197.2</ele>
        <time>2021-12-11T13:00:51Z</time>
      </trkpt>
      <trkpt lat="46.49881" lon="5.10545">
        <ele>197.6</ele>
        <time>2021-12-11T13:00:52Z</time>
      </trkpt>
      <trkpt lat="46.49876" lon="5.10561">
        <ele>198.8</ele>
        <time>2021-12-11T13:00:55Z</time>
      </trkpt>
      <trkpt lat="46.49874" lon="5.10566">
        <ele>199</ele>
        <time>2021-12-11T13:00:56Z</time>
      </trkpt>
      <trkpt lat="46.4987" lon="5.10578">
        <ele>200</ele>
        <time>2021-12-11T13:00:58Z</time>
      </trkpt>
      <trkpt lat="46.49861" lon="5.10606">
        <ele>201.2</ele>
        <time>2021-12-11T13:01:03Z</time>
      </trkpt>
      <trkpt lat="46.49853" lon="5.1063">
        <ele>202.4</ele>
        <time>2021-12-11T13:01:07Z</time>
      </trkpt>
      <trkpt lat="46.49842" lon="5.10659">
        <ele>203.4</ele>
        <time>2021-12-11T13:01:12Z</time>
      </trkpt>
      <trkpt lat="46.49836" lon="5.10678">
        <ele>204.2</ele>
        <time>2021-12-11T13:01:16Z</time>
      </trkpt>
      <trkpt lat="46.49829" lon="5.10697">
        <ele>204.4</ele>
        <time>2021-12-11T13:01:18Z</time>
      </trkpt>
      <trkpt lat="46.4981" lon="5.10749">
        <ele>205</ele>
        <time>2021-12-11T13:01:26Z</time>
      </trkpt>
      <trkpt lat="46.49803" lon="5.10768">
        <ele>205.4</ele>
        <time>2021-12-11T13:01:29Z</time>
      </trkpt>
      <trkpt lat="46.49784" lon="5.10817">
        <ele>206.4</ele>
        <time>2021-12-11T13:01:36Z</time>
      </trkpt>
      <trkpt lat="46.49778" lon="5.10833">
        <ele>206.4</ele>
        <time>2021-12-11T13:01:38Z</time>
      </trkpt>
      <trkpt lat="46.49762" lon="5.10876">
        <ele>206.4</ele>
        <time>2021-12-11T13:01:43Z</time>
      </trkpt>
      <trkpt lat="46.49734" lon="5.10951">
        <ele>205.4</ele>
        <time>2021-12-11T13:01:51Z</time>
      </trkpt>
      <trkpt lat="46.49712" lon="5.11007">
        <ele>204.2</ele>
        <time>2021-12-11T13:01:57Z</time>
      </trkpt>
      <trkpt lat="46.49705" lon="5.11027">
        <ele>204</ele>
        <time>2021-12-11T13:01:59Z</time>
      </trkpt>
      <trkpt lat="46.4969" lon="5.11082">
        <ele>203</ele>
        <time>2021-12-11T13:02:04Z</time>
      </trkpt>
      <trkpt lat="46.49678" lon="5.11118">
        <ele>201.8</ele>
        <time>2021-12-11T13:02:07Z</time>
      </trkpt>
      <trkpt lat="46.49667" lon="5.11142">
        <ele>201</ele>
        <time>2021-12-11T13:02:09Z</time>
      </trkpt>
      <trkpt lat="46.49661" lon="5.11153">
        <ele>200.6</ele>
        <time>2021-12-11T13:02:10Z</time>
      </trkpt>
      <trkpt lat="46.49643" lon="5.11187">
        <ele>199.4</ele>
        <time>2021-12-11T13:02:13Z</time>
      </trkpt>
      <trkpt lat="46.49637" lon="5.11198">
        <ele>199.2</ele>
        <time>2021-12-11T13:02:14Z</time>
      </trkpt>
      <trkpt lat="46.49625" lon="5.11219">
        <ele>198</ele>
        <time>2021-12-11T13:02:16Z</time>
      </trkpt>
      <trkpt lat="46.49608" lon="5.11251">
        <ele>196.2</ele>
        <time>2021-12-11T13:02:19Z</time>
      </trkpt>
      <trkpt lat="46.49597" lon="5.11271">
        <ele>194.6</ele>
        <time>2021-12-11T13:02:21Z</time>
      </trkpt>
      <trkpt lat="46.49581" lon="5.113">
        <ele>193.8</ele>
        <time>2021-12-11T13:02:24Z</time>
      </trkpt>
      <trkpt lat="46.4956" lon="5.11338">
        <ele>193.4</ele>
        <time>2021-12-11T13:02:28Z</time>
      </trkpt>
      <trkpt lat="46.49535" lon="5.11386">
        <ele>192.8</ele>
        <time>2021-12-11T13:02:33Z</time>
      </trkpt>
      <trkpt lat="46.49515" lon="5.11424">
        <ele>192.4</ele>
        <time>2021-12-11T13:02:37Z</time>
      </trkpt>
      <trkpt lat="46.495" lon="5.11452">
        <ele>191.8</ele>
        <time>2021-12-11T13:02:40Z</time>
      </trkpt>
      <trkpt lat="46.49496" lon="5.11462">
        <ele>191.6</ele>
        <time>2021-12-11T13:02:41Z</time>
      </trkpt>
      <trkpt lat="46.49493" lon="5.11473">
        <ele>191</ele>
        <time>2021-12-11T13:02:42Z</time>
      </trkpt>
      <trkpt lat="46.4949" lon="5.11484">
        <ele>190.6</ele>
        <time>2021-12-11T13:02:43Z</time>
      </trkpt>
      <trkpt lat="46.49489" lon="5.11495">
        <ele>190.4</ele>
        <time>2021-12-11T13:02:44Z</time>
      </trkpt>
      <trkpt lat="46.49489" lon="5.11507">
        <ele>190.4</ele>
        <time>2021-12-11T13:02:45Z</time>
      </trkpt>
      <trkpt lat="46.49493" lon="5.11541">
        <ele>190.2</ele>
        <time>2021-12-11T13:02:48Z</time>
      </trkpt>
      <trkpt lat="46.49493" lon="5.11552">
        <ele>190</ele>
        <time>2021-12-11T13:02:49Z</time>
      </trkpt>
      <trkpt lat="46.49492" lon="5.11587">
        <ele>190</ele>
        <time>2021-12-11T13:02:52Z</time>
      </trkpt>
      <trkpt lat="46.4949" lon="5.11598">
        <ele>190</ele>
        <time>2021-12-11T13:02:53Z</time>
      </trkpt>
      <trkpt lat="46.49485" lon="5.11619">
        <ele>190</ele>
        <time>2021-12-11T13:02:55Z</time>
      </trkpt>
      <trkpt lat="46.49482" lon="5.11628">
        <ele>190</ele>
        <time>2021-12-11T13:02:56Z</time>
      </trkpt>
      <trkpt lat="46.49478" lon="5.11637">
        <ele>190</ele>
        <time>2021-12-11T13:02:57Z</time>
      </trkpt>
      <trkpt lat="46.49463" lon="5.11659">
        <ele>190</ele>
        <time>2021-12-11T13:03:00Z</time>
      </trkpt>
      <trkpt lat="46.49435" lon="5.11686">
        <ele>190.6</ele>
        <time>2021-12-11T13:03:05Z</time>
      </trkpt>
      <trkpt lat="46.49408" lon="5.11707">
        <ele>192</ele>
        <time>2021-12-11T13:03:11Z</time>
      </trkpt>
      <trkpt lat="46.49403" lon="5.1171">
        <ele>192.2</ele>
        <time>2021-12-11T13:03:12Z</time>
      </trkpt>
      <trkpt lat="46.49386" lon="5.11722">
        <ele>193.2</ele>
        <time>2021-12-11T13:03:16Z</time>
      </trkpt>
      <trkpt lat="46.4937" lon="5.11734">
        <ele>194.2</ele>
        <time>2021-12-11T13:03:20Z</time>
      </trkpt>
      <trkpt lat="46.49366" lon="5.11737">
        <ele>194.6</ele>
        <time>2021-12-11T13:03:21Z</time>
      </trkpt>
      <trkpt lat="46.49358" lon="5.11743">
        <ele>195.4</ele>
        <time>2021-12-11T13:03:23Z</time>
      </trkpt>
      <trkpt lat="46.49343" lon="5.11754">
        <ele>196.4</ele>
        <time>2021-12-11T13:03:28Z</time>
      </trkpt>
      <trkpt lat="46.49336" lon="5.1176">
        <ele>196.6</ele>
        <time>2021-12-11T13:03:29Z</time>
      </trkpt>
      <trkpt lat="46.49321" lon="5.11771">
        <ele>197.6</ele>
        <time>2021-12-11T13:03:34Z</time>
      </trkpt>
      <trkpt lat="46.49297" lon="5.11788">
        <ele>198.6</ele>
        <time>2021-12-11T13:03:39Z</time>
      </trkpt>
      <trkpt lat="46.49293" lon="5.11791">
        <ele>198.8</ele>
        <time>2021-12-11T13:03:40Z</time>
      </trkpt>
      <trkpt lat="46.49268" lon="5.11809">
        <ele>199.8</ele>
        <time>2021-12-11T13:03:46Z</time>
      </trkpt>
      <trkpt lat="46.49264" lon="5.11812">
        <ele>199.8</ele>
        <time>2021-12-11T13:03:47Z</time>
      </trkpt>
      <trkpt lat="46.49236" lon="5.11835">
        <ele>200.2</ele>
        <time>2021-12-11T13:03:54Z</time>
      </trkpt>
      <trkpt lat="46.49216" lon="5.11855">
        <ele>200.8</ele>
        <time>2021-12-11T13:03:59Z</time>
      </trkpt>
      <trkpt lat="46.49208" lon="5.11864">
        <ele>201.2</ele>
        <time>2021-12-11T13:04:01Z</time>
      </trkpt>
      <trkpt lat="46.49176" lon="5.11909">
        <ele>201.6</ele>
        <time>2021-12-11T13:04:09Z</time>
      </trkpt>
      <trkpt lat="46.49163" lon="5.11935">
        <ele>201.8</ele>
        <time>2021-12-11T13:04:13Z</time>
      </trkpt>
      <trkpt lat="46.49161" lon="5.11943">
        <ele>201.8</ele>
        <time>2021-12-11T13:04:14Z</time>
      </trkpt>
      <trkpt lat="46.49155" lon="5.11985">
        <ele>202</ele>
        <time>2021-12-11T13:04:19Z</time>
      </trkpt>
      <trkpt lat="46.49153" lon="5.12011">
        <ele>202</ele>
        <time>2021-12-11T13:04:22Z</time>
      </trkpt>
      <trkpt lat="46.49143" lon="5.12069">
        <ele>202.6</ele>
        <time>2021-12-11T13:04:29Z</time>
      </trkpt>
      <trkpt lat="46.49132" lon="5.12109">
        <ele>203</ele>
        <time>2021-12-11T13:04:34Z</time>
      </trkpt>
      <trkpt lat="46.49123" lon="5.12144">
        <ele>203.4</ele>
        <time>2021-12-11T13:04:38Z</time>
      </trkpt>
      <trkpt lat="46.49117" lon="5.12182">
        <ele>203.4</ele>
        <time>2021-12-11T13:04:42Z</time>
      </trkpt>
      <trkpt lat="46.49117" lon="5.12202">
        <ele>203.4</ele>
        <time>2021-12-11T13:04:44Z</time>
      </trkpt>
      <trkpt lat="46.49116" lon="5.12285">
        <ele>203.2</ele>
        <time>2021-12-11T13:04:52Z</time>
      </trkpt>
      <trkpt lat="46.49121" lon="5.12372">
        <ele>202.6</ele>
        <time>2021-12-11T13:05:00Z</time>
      </trkpt>
      <trkpt lat="46.49126" lon="5.12393">
        <ele>202.6</ele>
        <time>2021-12-11T13:05:02Z</time>
      </trkpt>
      <trkpt lat="46.49133" lon="5.12412">
        <ele>202.4</ele>
        <time>2021-12-11T13:05:04Z</time>
      </trkpt>
      <trkpt lat="46.49153" lon="5.12454">
        <ele>202</ele>
        <time>2021-12-11T13:05:09Z</time>
      </trkpt>
      <trkpt lat="46.49162" lon="5.12472">
        <ele>201.4</ele>
        <time>2021-12-11T13:05:13Z</time>
      </trkpt>
      <trkpt lat="46.49166" lon="5.1248">
        <ele>200.8</ele>
        <time>2021-12-11T13:05:16Z</time>
      </trkpt>
      <trkpt lat="46.49175" lon="5.12499">
        <ele>200.4</ele>
        <time>2021-12-11T13:05:21Z</time>
      </trkpt>
      <trkpt lat="46.49179" lon="5.1251">
        <ele>200.2</ele>
        <time>2021-12-11T13:05:23Z</time>
      </trkpt>
      <trkpt lat="46.49187" lon="5.12532">
        <ele>200</ele>
        <time>2021-12-11T13:05:26Z</time>
      </trkpt>
      <trkpt lat="46.49195" lon="5.12561">
        <ele>200</ele>
        <time>2021-12-11T13:05:29Z</time>
      </trkpt>
      <trkpt lat="46.49196" lon="5.12572">
        <ele>199.8</ele>
        <time>2021-12-11T13:05:30Z</time>
      </trkpt>
      <trkpt lat="46.49199" lon="5.12605">
        <ele>199.4</ele>
        <time>2021-12-11T13:05:33Z</time>
      </trkpt>
      <trkpt lat="46.49196" lon="5.12629">
        <ele>199.2</ele>
        <time>2021-12-11T13:05:35Z</time>
      </trkpt>
      <trkpt lat="46.49193" lon="5.12653">
        <ele>198.8</ele>
        <time>2021-12-11T13:05:37Z</time>
      </trkpt>
      <trkpt lat="46.49184" lon="5.12714">
        <ele>198</ele>
        <time>2021-12-11T13:05:42Z</time>
      </trkpt>
      <trkpt lat="46.49177" lon="5.12738">
        <ele>197.8</ele>
        <time>2021-12-11T13:05:44Z</time>
      </trkpt>
      <trkpt lat="46.49164" lon="5.1277">
        <ele>197.4</ele>
        <time>2021-12-11T13:05:47Z</time>
      </trkpt>
      <trkpt lat="46.49147" lon="5.12811">
        <ele>196.8</ele>
        <time>2021-12-11T13:05:51Z</time>
      </trkpt>
      <trkpt lat="46.49145" lon="5.12822">
        <ele>196.8</ele>
        <time>2021-12-11T13:05:52Z</time>
      </trkpt>
      <trkpt lat="46.49143" lon="5.12833">
        <ele>196.8</ele>
        <time>2021-12-11T13:05:53Z</time>
      </trkpt>
      <trkpt lat="46.49142" lon="5.12865">
        <ele>196.8</ele>
        <time>2021-12-11T13:05:56Z</time>
      </trkpt>
      <trkpt lat="46.49142" lon="5.12932">
        <ele>197.8</ele>
        <time>2021-12-11T13:06:03Z</time>
      </trkpt>
      <trkpt lat="46.49141" lon="5.12974">
        <ele>199</ele>
        <time>2021-12-11T13:06:08Z</time>
      </trkpt>
      <trkpt lat="46.49141" lon="5.12989">
        <ele>199.6</ele>
        <time>2021-12-11T13:06:10Z</time>
      </trkpt>
      <trkpt lat="46.49141" lon="5.13005">
        <ele>200.2</ele>
        <time>2021-12-11T13:06:12Z</time>
      </trkpt>
      <trkpt lat="46.49142" lon="5.13027">
        <ele>201.2</ele>
        <time>2021-12-11T13:06:15Z</time>
      </trkpt>
      <trkpt lat="46.49141" lon="5.13048">
        <ele>202</ele>
        <time>2021-12-11T13:06:18Z</time>
      </trkpt>
      <trkpt lat="46.4914" lon="5.13054">
        <ele>202.4</ele>
        <time>2021-12-11T13:06:19Z</time>
      </trkpt>
      <trkpt lat="46.49137" lon="5.13066">
        <ele>202.8</ele>
        <time>2021-12-11T13:06:21Z</time>
      </trkpt>
      <trkpt lat="46.49134" lon="5.13072">
        <ele>203.4</ele>
        <time>2021-12-11T13:06:22Z</time>
      </trkpt>
      <trkpt lat="46.49134" lon="5.13072">
        <ele>203.6</ele>
        <time>2021-12-11T13:06:23Z</time>
      </trkpt>
      <trkpt lat="46.49127" lon="5.13081">
        <ele>204</ele>
        <time>2021-12-11T13:06:24Z</time>
      </trkpt>
      <trkpt lat="46.49118" lon="5.13089">
        <ele>204.8</ele>
        <time>2021-12-11T13:06:26Z</time>
      </trkpt>
      <trkpt lat="46.49113" lon="5.13093">
        <ele>205.4</ele>
        <time>2021-12-11T13:06:27Z</time>
      </trkpt>
      <trkpt lat="46.49104" lon="5.13099">
        <ele>205.8</ele>
        <time>2021-12-11T13:06:29Z</time>
      </trkpt>
      <trkpt lat="46.49077" lon="5.13123">
        <ele>206.8</ele>
        <time>2021-12-11T13:06:35Z</time>
      </trkpt>
      <trkpt lat="46.49073" lon="5.13128">
        <ele>207</ele>
        <time>2021-12-11T13:06:36Z</time>
      </trkpt>
      <trkpt lat="46.49034" lon="5.13171">
        <ele>207</ele>
        <time>2021-12-11T13:06:44Z</time>
      </trkpt>
      <trkpt lat="46.49021" lon="5.13193">
        <ele>207</ele>
        <time>2021-12-11T13:06:47Z</time>
      </trkpt>
      <trkpt lat="46.49014" lon="5.13209">
        <ele>207</ele>
        <time>2021-12-11T13:06:49Z</time>
      </trkpt>
      <trkpt lat="46.49003" lon="5.13265">
        <ele>207</ele>
        <time>2021-12-11T13:06:55Z</time>
      </trkpt>
      <trkpt lat="46.48998" lon="5.13295">
        <ele>207</ele>
        <time>2021-12-11T13:06:58Z</time>
      </trkpt>
      <trkpt lat="46.48993" lon="5.13324">
        <ele>206.8</ele>
        <time>2021-12-11T13:07:01Z</time>
      </trkpt>
      <trkpt lat="46.48988" lon="5.13363">
        <ele>207</ele>
        <time>2021-12-11T13:07:05Z</time>
      </trkpt>
      <trkpt lat="46.48987" lon="5.13382">
        <ele>207</ele>
        <time>2021-12-11T13:07:07Z</time>
      </trkpt>
      <trkpt lat="46.48989" lon="5.13401">
        <ele>207</ele>
        <time>2021-12-11T13:07:09Z</time>
      </trkpt>
      <trkpt lat="46.48995" lon="5.13439">
        <ele>207.2</ele>
        <time>2021-12-11T13:07:13Z</time>
      </trkpt>
      <trkpt lat="46.49012" lon="5.13495">
        <ele>206.8</ele>
        <time>2021-12-11T13:07:19Z</time>
      </trkpt>
      <trkpt lat="46.49015" lon="5.13508">
        <ele>206.8</ele>
        <time>2021-12-11T13:07:20Z</time>
      </trkpt>
      <trkpt lat="46.49016" lon="5.1354">
        <ele>206.6</ele>
        <time>2021-12-11T13:07:23Z</time>
      </trkpt>
      <trkpt lat="46.49015" lon="5.1362">
        <ele>205.6</ele>
        <time>2021-12-11T13:07:30Z</time>
      </trkpt>
      <trkpt lat="46.49014" lon="5.13643">
        <ele>205.6</ele>
        <time>2021-12-11T13:07:32Z</time>
      </trkpt>
      <trkpt lat="46.49009" lon="5.13676">
        <ele>205.2</ele>
        <time>2021-12-11T13:07:36Z</time>
      </trkpt>
      <trkpt lat="46.49002" lon="5.13741">
        <ele>205.4</ele>
        <time>2021-12-11T13:07:42Z</time>
      </trkpt>
      <trkpt lat="46.48998" lon="5.13826">
        <ele>205.4</ele>
        <time>2021-12-11T13:07:49Z</time>
      </trkpt>
      <trkpt lat="46.48997" lon="5.13845">
        <ele>205.4</ele>
        <time>2021-12-11T13:07:51Z</time>
      </trkpt>
      <trkpt lat="46.48998" lon="5.13864">
        <ele>205.4</ele>
        <time>2021-12-11T13:07:53Z</time>
      </trkpt>
      <trkpt lat="46.49002" lon="5.13881">
        <ele>205.6</ele>
        <time>2021-12-11T13:07:55Z</time>
      </trkpt>
      <trkpt lat="46.49012" lon="5.13895">
        <ele>205.8</ele>
        <time>2021-12-11T13:07:57Z</time>
      </trkpt>
      <trkpt lat="46.49018" lon="5.13899">
        <ele>205.8</ele>
        <time>2021-12-11T13:07:58Z</time>
      </trkpt>
      <trkpt lat="46.49024" lon="5.13903">
        <ele>205.8</ele>
        <time>2021-12-11T13:07:59Z</time>
      </trkpt>
      <trkpt lat="46.49046" lon="5.13909">
        <ele>206</ele>
        <time>2021-12-11T13:08:02Z</time>
      </trkpt>
      <trkpt lat="46.49115" lon="5.13923">
        <ele>205.6</ele>
        <time>2021-12-11T13:08:11Z</time>
      </trkpt>
      <trkpt lat="46.49123" lon="5.13925">
        <ele>205.4</ele>
        <time>2021-12-11T13:08:12Z</time>
      </trkpt>
      <trkpt lat="46.49169" lon="5.13936">
        <ele>204.6</ele>
        <time>2021-12-11T13:08:18Z</time>
      </trkpt>
      <trkpt lat="46.49201" lon="5.13943">
        <ele>203.8</ele>
        <time>2021-12-11T13:08:22Z</time>
      </trkpt>
      <trkpt lat="46.49217" lon="5.13946">
        <ele>203.4</ele>
        <time>2021-12-11T13:08:24Z</time>
      </trkpt>
      <trkpt lat="46.49248" lon="5.13953">
        <ele>202.2</ele>
        <time>2021-12-11T13:08:28Z</time>
      </trkpt>
      <trkpt lat="46.49256" lon="5.13955">
        <ele>202</ele>
        <time>2021-12-11T13:08:29Z</time>
      </trkpt>
      <trkpt lat="46.49287" lon="5.13962">
        <ele>201</ele>
        <time>2021-12-11T13:08:33Z</time>
      </trkpt>
      <trkpt lat="46.49318" lon="5.1397">
        <ele>200</ele>
        <time>2021-12-11T13:08:38Z</time>
      </trkpt>
      <trkpt lat="46.49334" lon="5.13977">
        <ele>199.8</ele>
        <time>2021-12-11T13:08:39Z</time>
      </trkpt>
      <trkpt lat="46.4935" lon="5.13989">
        <ele>199.6</ele>
        <time>2021-12-11T13:08:41Z</time>
      </trkpt>
      <trkpt lat="46.49372" lon="5.14011">
        <ele>198.2</ele>
        <time>2021-12-11T13:08:44Z</time>
      </trkpt>
      <trkpt lat="46.49392" lon="5.14035">
        <ele>197</ele>
        <time>2021-12-11T13:08:47Z</time>
      </trkpt>
      <trkpt lat="46.49412" lon="5.14077">
        <ele>195.8</ele>
        <time>2021-12-11T13:08:51Z</time>
      </trkpt>
      <trkpt lat="46.49438" lon="5.14142">
        <ele>194.8</ele>
        <time>2021-12-11T13:08:57Z</time>
      </trkpt>
      <trkpt lat="46.49443" lon="5.14152">
        <ele>194.8</ele>
        <time>2021-12-11T13:08:58Z</time>
      </trkpt>
      <trkpt lat="46.49467" lon="5.14185">
        <ele>194.4</ele>
        <time>2021-12-11T13:09:02Z</time>
      </trkpt>
      <trkpt lat="46.49479" lon="5.14202">
        <ele>194.2</ele>
        <time>2021-12-11T13:09:04Z</time>
      </trkpt>
      <trkpt lat="46.49487" lon="5.14222">
        <ele>194.2</ele>
        <time>2021-12-11T13:09:06Z</time>
      </trkpt>
      <trkpt lat="46.49491" lon="5.14244">
        <ele>194</ele>
        <time>2021-12-11T13:09:08Z</time>
      </trkpt>
      <trkpt lat="46.49491" lon="5.14256">
        <ele>193.8</ele>
        <time>2021-12-11T13:09:09Z</time>
      </trkpt>
      <trkpt lat="46.49483" lon="5.14335">
        <ele>193.8</ele>
        <time>2021-12-11T13:09:16Z</time>
      </trkpt>
      <trkpt lat="46.49477" lon="5.14396">
        <ele>193.8</ele>
        <time>2021-12-11T13:09:21Z</time>
      </trkpt>
      <trkpt lat="46.49476" lon="5.14409">
        <ele>193.8</ele>
        <time>2021-12-11T13:09:22Z</time>
      </trkpt>
      <trkpt lat="46.49467" lon="5.14494">
        <ele>193</ele>
        <time>2021-12-11T13:09:29Z</time>
      </trkpt>
      <trkpt lat="46.49465" lon="5.14518">
        <ele>192.8</ele>
        <time>2021-12-11T13:09:31Z</time>
      </trkpt>
      <trkpt lat="46.49464" lon="5.1453">
        <ele>192.6</ele>
        <time>2021-12-11T13:09:32Z</time>
      </trkpt>
      <trkpt lat="46.49456" lon="5.14614">
        <ele>191.8</ele>
        <time>2021-12-11T13:09:39Z</time>
      </trkpt>
      <trkpt lat="46.49453" lon="5.14673">
        <ele>191.6</ele>
        <time>2021-12-11T13:09:44Z</time>
      </trkpt>
      <trkpt lat="46.49457" lon="5.14755">
        <ele>191.4</ele>
        <time>2021-12-11T13:09:51Z</time>
      </trkpt>
      <trkpt lat="46.49463" lon="5.14823">
        <ele>190.6</ele>
        <time>2021-12-11T13:09:57Z</time>
      </trkpt>
      <trkpt lat="46.49465" lon="5.14857">
        <ele>190.4</ele>
        <time>2021-12-11T13:10:00Z</time>
      </trkpt>
      <trkpt lat="46.49465" lon="5.14945">
        <ele>190.2</ele>
        <time>2021-12-11T13:10:08Z</time>
      </trkpt>
      <trkpt lat="46.49464" lon="5.14956">
        <ele>190.2</ele>
        <time>2021-12-11T13:10:09Z</time>
      </trkpt>
      <trkpt lat="46.49459" lon="5.15042">
        <ele>190</ele>
        <time>2021-12-11T13:10:17Z</time>
      </trkpt>
      <trkpt lat="46.49458" lon="5.15053">
        <ele>190</ele>
        <time>2021-12-11T13:10:18Z</time>
      </trkpt>
      <trkpt lat="46.4945" lon="5.15137">
        <ele>190.2</ele>
        <time>2021-12-11T13:10:26Z</time>
      </trkpt>
      <trkpt lat="46.49449" lon="5.15147">
        <ele>190.2</ele>
        <time>2021-12-11T13:10:27Z</time>
      </trkpt>
      <trkpt lat="46.49443" lon="5.15211">
        <ele>190.6</ele>
        <time>2021-12-11T13:10:34Z</time>
      </trkpt>
      <trkpt lat="46.49439" lon="5.15249">
        <ele>191.8</ele>
        <time>2021-12-11T13:10:39Z</time>
      </trkpt>
      <trkpt lat="46.49437" lon="5.15257">
        <ele>192</ele>
        <time>2021-12-11T13:10:40Z</time>
      </trkpt>
      <trkpt lat="46.49432" lon="5.15284">
        <ele>192.8</ele>
        <time>2021-12-11T13:10:44Z</time>
      </trkpt>
      <trkpt lat="46.49428" lon="5.15302">
        <ele>194</ele>
        <time>2021-12-11T13:10:47Z</time>
      </trkpt>
      <trkpt lat="46.49427" lon="5.15308">
        <ele>194.2</ele>
        <time>2021-12-11T13:10:48Z</time>
      </trkpt>
      <trkpt lat="46.49423" lon="5.15321">
        <ele>195</ele>
        <time>2021-12-11T13:10:50Z</time>
      </trkpt>
      <trkpt lat="46.49418" lon="5.15341">
        <ele>196</ele>
        <time>2021-12-11T13:10:53Z</time>
      </trkpt>
      <trkpt lat="46.49412" lon="5.15362">
        <ele>197.2</ele>
        <time>2021-12-11T13:10:56Z</time>
      </trkpt>
      <trkpt lat="46.49404" lon="5.15391">
        <ele>198.4</ele>
        <time>2021-12-11T13:11:00Z</time>
      </trkpt>
      <trkpt lat="46.49397" lon="5.15414">
        <ele>198.8</ele>
        <time>2021-12-11T13:11:03Z</time>
      </trkpt>
      <trkpt lat="46.49379" lon="5.15476">
        <ele>198.8</ele>
        <time>2021-12-11T13:11:11Z</time>
      </trkpt>
      <trkpt lat="46.49362" lon="5.15546">
        <ele>198</ele>
        <time>2021-12-11T13:11:16Z</time>
      </trkpt>
      <trkpt lat="46.49356" lon="5.15573">
        <ele>197.2</ele>
        <time>2021-12-11T13:11:18Z</time>
      </trkpt>
      <trkpt lat="46.49351" lon="5.15602">
        <ele>196.2</ele>
        <time>2021-12-11T13:11:20Z</time>
      </trkpt>
      <trkpt lat="46.49347" lon="5.1563">
        <ele>195.2</ele>
        <time>2021-12-11T13:11:22Z</time>
      </trkpt>
      <trkpt lat="46.49342" lon="5.15659">
        <ele>193.4</ele>
        <time>2021-12-11T13:11:24Z</time>
      </trkpt>
      <trkpt lat="46.49337" lon="5.15687">
        <ele>192.2</ele>
        <time>2021-12-11T13:11:26Z</time>
      </trkpt>
      <trkpt lat="46.4933" lon="5.15714">
        <ele>191.4</ele>
        <time>2021-12-11T13:11:28Z</time>
      </trkpt>
      <trkpt lat="46.49326" lon="5.15727">
        <ele>191.2</ele>
        <time>2021-12-11T13:11:29Z</time>
      </trkpt>
      <trkpt lat="46.49314" lon="5.15765">
        <ele>190.2</ele>
        <time>2021-12-11T13:11:32Z</time>
      </trkpt>
      <trkpt lat="46.49312" lon="5.15778">
        <ele>190</ele>
        <time>2021-12-11T13:11:33Z</time>
      </trkpt>
      <trkpt lat="46.4931" lon="5.15791">
        <ele>190</ele>
        <time>2021-12-11T13:11:34Z</time>
      </trkpt>
      <trkpt lat="46.4931" lon="5.15804">
        <ele>189.8</ele>
        <time>2021-12-11T13:11:35Z</time>
      </trkpt>
      <trkpt lat="46.49313" lon="5.1583">
        <ele>189.6</ele>
        <time>2021-12-11T13:11:37Z</time>
      </trkpt>
      <trkpt lat="46.49316" lon="5.15841">
        <ele>189.6</ele>
        <time>2021-12-11T13:11:38Z</time>
      </trkpt>
      <trkpt lat="46.49328" lon="5.15873">
        <ele>189.6</ele>
        <time>2021-12-11T13:11:41Z</time>
      </trkpt>
      <trkpt lat="46.49347" lon="5.15929">
        <ele>190.4</ele>
        <time>2021-12-11T13:11:47Z</time>
      </trkpt>
      <trkpt lat="46.49351" lon="5.15947">
        <ele>191.4</ele>
        <time>2021-12-11T13:11:49Z</time>
      </trkpt>
      <trkpt lat="46.49356" lon="5.15982">
        <ele>192.4</ele>
        <time>2021-12-11T13:11:53Z</time>
      </trkpt>
      <trkpt lat="46.49359" lon="5.16017">
        <ele>193.8</ele>
        <time>2021-12-11T13:11:57Z</time>
      </trkpt>
      <trkpt lat="46.49361" lon="5.16035">
        <ele>194.4</ele>
        <time>2021-12-11T13:11:59Z</time>
      </trkpt>
      <trkpt lat="46.49364" lon="5.16087">
        <ele>194.8</ele>
        <time>2021-12-11T13:12:04Z</time>
      </trkpt>
      <trkpt lat="46.49365" lon="5.16098">
        <ele>194.8</ele>
        <time>2021-12-11T13:12:05Z</time>
      </trkpt>
      <trkpt lat="46.49367" lon="5.16109">
        <ele>194.8</ele>
        <time>2021-12-11T13:12:06Z</time>
      </trkpt>
      <trkpt lat="46.49377" lon="5.16142">
        <ele>194.2</ele>
        <time>2021-12-11T13:12:09Z</time>
      </trkpt>
      <trkpt lat="46.49389" lon="5.1616">
        <ele>193.6</ele>
        <time>2021-12-11T13:12:11Z</time>
      </trkpt>
      <trkpt lat="46.49395" lon="5.16168">
        <ele>193.4</ele>
        <time>2021-12-11T13:12:12Z</time>
      </trkpt>
      <trkpt lat="46.49402" lon="5.16175">
        <ele>192.8</ele>
        <time>2021-12-11T13:12:13Z</time>
      </trkpt>
      <trkpt lat="46.49417" lon="5.16185">
        <ele>192.2</ele>
        <time>2021-12-11T13:12:15Z</time>
      </trkpt>
      <trkpt lat="46.49424" lon="5.16189">
        <ele>192</ele>
        <time>2021-12-11T13:12:16Z</time>
      </trkpt>
      <trkpt lat="46.49475" lon="5.16212">
        <ele>191.6</ele>
        <time>2021-12-11T13:12:23Z</time>
      </trkpt>
      <trkpt lat="46.4952" lon="5.16231">
        <ele>192</ele>
        <time>2021-12-11T13:12:30Z</time>
      </trkpt>
      <trkpt lat="46.4955" lon="5.16249">
        <ele>192</ele>
        <time>2021-12-11T13:12:35Z</time>
      </trkpt>
      <trkpt lat="46.4956" lon="5.16257">
        <ele>192.4</ele>
        <time>2021-12-11T13:12:37Z</time>
      </trkpt>
      <trkpt lat="46.49568" lon="5.16269">
        <ele>192.2</ele>
        <time>2021-12-11T13:12:39Z</time>
      </trkpt>
      <trkpt lat="46.49574" lon="5.16284">
        <ele>192.8</ele>
        <time>2021-12-11T13:12:41Z</time>
      </trkpt>
      <trkpt lat="46.49575" lon="5.16299">
        <ele>192.8</ele>
        <time>2021-12-11T13:12:43Z</time>
      </trkpt>
      <trkpt lat="46.49573" lon="5.16314">
        <ele>193</ele>
        <time>2021-12-11T13:12:45Z</time>
      </trkpt>
      <trkpt lat="46.49571" lon="5.16327">
        <ele>193.4</ele>
        <time>2021-12-11T13:12:47Z</time>
      </trkpt>
      <trkpt lat="46.49568" lon="5.16352">
        <ele>194.8</ele>
        <time>2021-12-11T13:12:51Z</time>
      </trkpt>
      <trkpt lat="46.49565" lon="5.16377">
        <ele>196.2</ele>
        <time>2021-12-11T13:12:55Z</time>
      </trkpt>
      <trkpt lat="46.49562" lon="5.16404">
        <ele>197.2</ele>
        <time>2021-12-11T13:12:59Z</time>
      </trkpt>
      <trkpt lat="46.49559" lon="5.1643">
        <ele>198.2</ele>
        <time>2021-12-11T13:13:03Z</time>
      </trkpt>
      <trkpt lat="46.49556" lon="5.16461">
        <ele>199.4</ele>
        <time>2021-12-11T13:13:08Z</time>
      </trkpt>
      <trkpt lat="46.49552" lon="5.16493">
        <ele>200.4</ele>
        <time>2021-12-11T13:13:13Z</time>
      </trkpt>
      <trkpt lat="46.49549" lon="5.16523">
        <ele>201.6</ele>
        <time>2021-12-11T13:13:18Z</time>
      </trkpt>
      <trkpt lat="46.49549" lon="5.16529">
        <ele>201.8</ele>
        <time>2021-12-11T13:13:19Z</time>
      </trkpt>
      <trkpt lat="46.49542" lon="5.16583">
        <ele>203</ele>
        <time>2021-12-11T13:13:27Z</time>
      </trkpt>
      <trkpt lat="46.49541" lon="5.1659">
        <ele>203.2</ele>
        <time>2021-12-11T13:13:28Z</time>
      </trkpt>
      <trkpt lat="46.49538" lon="5.16596">
        <ele>203.4</ele>
        <time>2021-12-11T13:13:29Z</time>
      </trkpt>
      <trkpt lat="46.49535" lon="5.16603">
        <ele>203.4</ele>
        <time>2021-12-11T13:13:30Z</time>
      </trkpt>
      <trkpt lat="46.49525" lon="5.16612">
        <ele>203.6</ele>
        <time>2021-12-11T13:13:32Z</time>
      </trkpt>
      <trkpt lat="46.49495" lon="5.16625">
        <ele>203.6</ele>
        <time>2021-12-11T13:13:37Z</time>
      </trkpt>
      <trkpt lat="46.49485" lon="5.16636">
        <ele>203.2</ele>
        <time>2021-12-11T13:13:39Z</time>
      </trkpt>
      <trkpt lat="46.49483" lon="5.16643">
        <ele>203.2</ele>
        <time>2021-12-11T13:13:40Z</time>
      </trkpt>
      <trkpt lat="46.49482" lon="5.16652">
        <ele>203.2</ele>
        <time>2021-12-11T13:13:41Z</time>
      </trkpt>
      <trkpt lat="46.49484" lon="5.16678">
        <ele>202.8</ele>
        <time>2021-12-11T13:13:44Z</time>
      </trkpt>
      <trkpt lat="46.49491" lon="5.1675">
        <ele>203</ele>
        <time>2021-12-11T13:13:52Z</time>
      </trkpt>
      <trkpt lat="46.49497" lon="5.16802">
        <ele>204</ele>
        <time>2021-12-11T13:13:58Z</time>
      </trkpt>
      <trkpt lat="46.495" lon="5.16819">
        <ele>204.4</ele>
        <time>2021-12-11T13:14:00Z</time>
      </trkpt>
      <trkpt lat="46.49518" lon="5.16873">
        <ele>204.8</ele>
        <time>2021-12-11T13:14:06Z</time>
      </trkpt>
      <trkpt lat="46.49526" lon="5.16929">
        <ele>204</ele>
        <time>2021-12-11T13:14:11Z</time>
      </trkpt>
      <trkpt lat="46.49525" lon="5.16964">
        <ele>202.8</ele>
        <time>2021-12-11T13:14:14Z</time>
      </trkpt>
      <trkpt lat="46.49523" lon="5.16976">
        <ele>202.4</ele>
        <time>2021-12-11T13:14:15Z</time>
      </trkpt>
      <trkpt lat="46.4952" lon="5.16987">
        <ele>202.2</ele>
        <time>2021-12-11T13:14:16Z</time>
      </trkpt>
      <trkpt lat="46.49516" lon="5.16998">
        <ele>201.6</ele>
        <time>2021-12-11T13:14:17Z</time>
      </trkpt>
      <trkpt lat="46.49511" lon="5.17008">
        <ele>201.4</ele>
        <time>2021-12-11T13:14:18Z</time>
      </trkpt>
      <trkpt lat="46.49492" lon="5.17034">
        <ele>200.6</ele>
        <time>2021-12-11T13:14:21Z</time>
      </trkpt>
      <trkpt lat="46.49468" lon="5.1707">
        <ele>199.6</ele>
        <time>2021-12-11T13:14:25Z</time>
      </trkpt>
      <trkpt lat="46.49457" lon="5.17089">
        <ele>199.4</ele>
        <time>2021-12-11T13:14:27Z</time>
      </trkpt>
      <trkpt lat="46.49431" lon="5.17132">
        <ele>198.8</ele>
        <time>2021-12-11T13:14:32Z</time>
      </trkpt>
      <trkpt lat="46.49409" lon="5.17176">
        <ele>198.6</ele>
        <time>2021-12-11T13:14:37Z</time>
      </trkpt>
      <trkpt lat="46.49406" lon="5.17185">
        <ele>198.6</ele>
        <time>2021-12-11T13:14:38Z</time>
      </trkpt>
      <trkpt lat="46.49405" lon="5.17194">
        <ele>198.6</ele>
        <time>2021-12-11T13:14:39Z</time>
      </trkpt>
      <trkpt lat="46.49402" lon="5.17212">
        <ele>198.8</ele>
        <time>2021-12-11T13:14:41Z</time>
      </trkpt>
      <trkpt lat="46.49402" lon="5.17221">
        <ele>198.8</ele>
        <time>2021-12-11T13:14:42Z</time>
      </trkpt>
      <trkpt lat="46.494" lon="5.17282">
        <ele>200.6</ele>
        <time>2021-12-11T13:14:49Z</time>
      </trkpt>
      <trkpt lat="46.49401" lon="5.17291">
        <ele>200.8</ele>
        <time>2021-12-11T13:14:50Z</time>
      </trkpt>
      <trkpt lat="46.49405" lon="5.17326">
        <ele>202</ele>
        <time>2021-12-11T13:14:54Z</time>
      </trkpt>
      <trkpt lat="46.49407" lon="5.17355">
        <ele>202.6</ele>
        <time>2021-12-11T13:14:57Z</time>
      </trkpt>
      <trkpt lat="46.49406" lon="5.17407">
        <ele>203</ele>
        <time>2021-12-11T13:15:02Z</time>
      </trkpt>
      <trkpt lat="46.49406" lon="5.17417">
        <ele>203</ele>
        <time>2021-12-11T13:15:03Z</time>
      </trkpt>
      <trkpt lat="46.49397" lon="5.17484">
        <ele>202.6</ele>
        <time>2021-12-11T13:15:10Z</time>
      </trkpt>
      <trkpt lat="46.49383" lon="5.17536">
        <ele>202.6</ele>
        <time>2021-12-11T13:15:16Z</time>
      </trkpt>
      <trkpt lat="46.49361" lon="5.17591">
        <ele>203</ele>
        <time>2021-12-11T13:15:23Z</time>
      </trkpt>
      <trkpt lat="46.49339" lon="5.17657">
        <ele>203.8</ele>
        <time>2021-12-11T13:15:31Z</time>
      </trkpt>
      <trkpt lat="46.49334" lon="5.17674">
        <ele>203.8</ele>
        <time>2021-12-11T13:15:33Z</time>
      </trkpt>
      <trkpt lat="46.49324" lon="5.17708">
        <ele>204.2</ele>
        <time>2021-12-11T13:15:37Z</time>
      </trkpt>
      <trkpt lat="46.49324" lon="5.17717">
        <ele>204.2</ele>
        <time>2021-12-11T13:15:38Z</time>
      </trkpt>
      <trkpt lat="46.49324" lon="5.17725">
        <ele>204.2</ele>
        <time>2021-12-11T13:15:39Z</time>
      </trkpt>
      <trkpt lat="46.49328" lon="5.17746">
        <ele>204.2</ele>
        <time>2021-12-11T13:15:41Z</time>
      </trkpt>
      <trkpt lat="46.49332" lon="5.17755">
        <ele>204.2</ele>
        <time>2021-12-11T13:15:42Z</time>
      </trkpt>
      <trkpt lat="46.49335" lon="5.17762">
        <ele>204.2</ele>
        <time>2021-12-11T13:15:43Z</time>
      </trkpt>
      <trkpt lat="46.49351" lon="5.17786">
        <ele>204.2</ele>
        <time>2021-12-11T13:15:46Z</time>
      </trkpt>
      <trkpt lat="46.49392" lon="5.17833">
        <ele>204.4</ele>
        <time>2021-12-11T13:15:53Z</time>
      </trkpt>
      <trkpt lat="46.49417" lon="5.17875">
        <ele>204.2</ele>
        <time>2021-12-11T13:15:58Z</time>
      </trkpt>
      <trkpt lat="46.49452" lon="5.17946">
        <ele>202.8</ele>
        <time>2021-12-11T13:16:06Z</time>
      </trkpt>
      <trkpt lat="46.49458" lon="5.17956">
        <ele>202.6</ele>
        <time>2021-12-11T13:16:07Z</time>
      </trkpt>
      <trkpt lat="46.49493" lon="5.18013">
        <ele>202</ele>
        <time>2021-12-11T13:16:14Z</time>
      </trkpt>
      <trkpt lat="46.49497" lon="5.18023">
        <ele>201.8</ele>
        <time>2021-12-11T13:16:15Z</time>
      </trkpt>
      <trkpt lat="46.495" lon="5.18033">
        <ele>201.8</ele>
        <time>2021-12-11T13:16:16Z</time>
      </trkpt>
      <trkpt lat="46.49502" lon="5.18045">
        <ele>201.6</ele>
        <time>2021-12-11T13:16:17Z</time>
      </trkpt>
      <trkpt lat="46.49507" lon="5.18069">
        <ele>201.2</ele>
        <time>2021-12-11T13:16:19Z</time>
      </trkpt>
      <trkpt lat="46.49515" lon="5.18107">
        <ele>200.6</ele>
        <time>2021-12-11T13:16:22Z</time>
      </trkpt>
      <trkpt lat="46.49526" lon="5.18146">
        <ele>199.8</ele>
        <time>2021-12-11T13:16:25Z</time>
      </trkpt>
      <trkpt lat="46.4953" lon="5.18159">
        <ele>199.4</ele>
        <time>2021-12-11T13:16:26Z</time>
      </trkpt>
      <trkpt lat="46.49538" lon="5.18185">
        <ele>198</ele>
        <time>2021-12-11T13:16:28Z</time>
      </trkpt>
      <trkpt lat="46.49549" lon="5.18224">
        <ele>196.4</ele>
        <time>2021-12-11T13:16:31Z</time>
      </trkpt>
      <trkpt lat="46.49555" lon="5.18249">
        <ele>195.8</ele>
        <time>2021-12-11T13:16:33Z</time>
      </trkpt>
      <trkpt lat="46.49565" lon="5.18286">
        <ele>195.4</ele>
        <time>2021-12-11T13:16:36Z</time>
      </trkpt>
      <trkpt lat="46.49573" lon="5.18321">
        <ele>195</ele>
        <time>2021-12-11T13:16:39Z</time>
      </trkpt>
      <trkpt lat="46.49587" lon="5.18385">
        <ele>194.8</ele>
        <time>2021-12-11T13:16:45Z</time>
      </trkpt>
      <trkpt lat="46.49601" lon="5.18449">
        <ele>195.4</ele>
        <time>2021-12-11T13:16:52Z</time>
      </trkpt>
      <trkpt lat="46.49613" lon="5.18505">
        <ele>196.2</ele>
        <time>2021-12-11T13:16:59Z</time>
      </trkpt>
      <trkpt lat="46.49615" lon="5.18512">
        <ele>196.6</ele>
        <time>2021-12-11T13:17:00Z</time>
      </trkpt>
      <trkpt lat="46.49623" lon="5.18556">
        <ele>197.6</ele>
        <time>2021-12-11T13:17:06Z</time>
      </trkpt>
      <trkpt lat="46.49624" lon="5.18564">
        <ele>198</ele>
        <time>2021-12-11T13:17:07Z</time>
      </trkpt>
      <trkpt lat="46.49628" lon="5.18588">
        <ele>198.8</ele>
        <time>2021-12-11T13:17:10Z</time>
      </trkpt>
      <trkpt lat="46.49637" lon="5.18638">
        <ele>200</ele>
        <time>2021-12-11T13:17:16Z</time>
      </trkpt>
      <trkpt lat="46.49643" lon="5.18673">
        <ele>200.2</ele>
        <time>2021-12-11T13:17:20Z</time>
      </trkpt>
      <trkpt lat="46.49647" lon="5.187">
        <ele>200.4</ele>
        <time>2021-12-11T13:17:23Z</time>
      </trkpt>
      <trkpt lat="46.49656" lon="5.1877">
        <ele>200.2</ele>
        <time>2021-12-11T13:17:30Z</time>
      </trkpt>
      <trkpt lat="46.49662" lon="5.18814">
        <ele>199.8</ele>
        <time>2021-12-11T13:17:34Z</time>
      </trkpt>
      <trkpt lat="46.49663" lon="5.18836">
        <ele>199.6</ele>
        <time>2021-12-11T13:17:36Z</time>
      </trkpt>
      <trkpt lat="46.49661" lon="5.18904">
        <ele>199.2</ele>
        <time>2021-12-11T13:17:42Z</time>
      </trkpt>
      <trkpt lat="46.4966" lon="5.18915">
        <ele>198.8</ele>
        <time>2021-12-11T13:17:43Z</time>
      </trkpt>
      <trkpt lat="46.4965" lon="5.18969">
        <ele>198.4</ele>
        <time>2021-12-11T13:17:48Z</time>
      </trkpt>
      <trkpt lat="46.49632" lon="5.19028">
        <ele>198.4</ele>
        <time>2021-12-11T13:17:54Z</time>
      </trkpt>
      <trkpt lat="46.49599" lon="5.191">
        <ele>198.8</ele>
        <time>2021-12-11T13:18:02Z</time>
      </trkpt>
      <trkpt lat="46.49575" lon="5.19135">
        <ele>198</ele>
        <time>2021-12-11T13:18:06Z</time>
      </trkpt>
      <trkpt lat="46.49553" lon="5.19157">
        <ele>197.6</ele>
        <time>2021-12-11T13:18:09Z</time>
      </trkpt>
      <trkpt lat="46.49531" lon="5.19178">
        <ele>197.2</ele>
        <time>2021-12-11T13:18:12Z</time>
      </trkpt>
      <trkpt lat="46.49504" lon="5.19212">
        <ele>196.4</ele>
        <time>2021-12-11T13:18:16Z</time>
      </trkpt>
      <trkpt lat="46.49498" lon="5.19222">
        <ele>196</ele>
        <time>2021-12-11T13:18:17Z</time>
      </trkpt>
      <trkpt lat="46.49489" lon="5.19244">
        <ele>195.6</ele>
        <time>2021-12-11T13:18:19Z</time>
      </trkpt>
      <trkpt lat="46.49486" lon="5.19255">
        <ele>195.2</ele>
        <time>2021-12-11T13:18:20Z</time>
      </trkpt>
      <trkpt lat="46.49483" lon="5.19267">
        <ele>195</ele>
        <time>2021-12-11T13:18:21Z</time>
      </trkpt>
      <trkpt lat="46.49472" lon="5.19337">
        <ele>194.2</ele>
        <time>2021-12-11T13:18:27Z</time>
      </trkpt>
      <trkpt lat="46.4947" lon="5.1936">
        <ele>194.2</ele>
        <time>2021-12-11T13:18:29Z</time>
      </trkpt>
      <trkpt lat="46.49464" lon="5.19421">
        <ele>194.2</ele>
        <time>2021-12-11T13:18:35Z</time>
      </trkpt>
      <trkpt lat="46.49457" lon="5.19493">
        <ele>194.8</ele>
        <time>2021-12-11T13:18:42Z</time>
      </trkpt>
      <trkpt lat="46.49452" lon="5.19539">
        <ele>195.2</ele>
        <time>2021-12-11T13:18:47Z</time>
      </trkpt>
      <trkpt lat="46.49449" lon="5.19566">
        <ele>195.6</ele>
        <time>2021-12-11T13:18:50Z</time>
      </trkpt>
      <trkpt lat="46.49447" lon="5.196">
        <ele>196.4</ele>
        <time>2021-12-11T13:18:54Z</time>
      </trkpt>
      <trkpt lat="46.49447" lon="5.19626">
        <ele>197</ele>
        <time>2021-12-11T13:18:57Z</time>
      </trkpt>
      <trkpt lat="46.49448" lon="5.19653">
        <ele>197.6</ele>
        <time>2021-12-11T13:19:00Z</time>
      </trkpt>
      <trkpt lat="46.49451" lon="5.19689">
        <ele>198.4</ele>
        <time>2021-12-11T13:19:04Z</time>
      </trkpt>
      <trkpt lat="46.49453" lon="5.19731">
        <ele>198.8</ele>
        <time>2021-12-11T13:19:09Z</time>
      </trkpt>
      <trkpt lat="46.49452" lon="5.19783">
        <ele>199.8</ele>
        <time>2021-12-11T13:19:15Z</time>
      </trkpt>
      <trkpt lat="46.49451" lon="5.1979">
        <ele>200</ele>
        <time>2021-12-11T13:19:16Z</time>
      </trkpt>
      <trkpt lat="46.49451" lon="5.1982">
        <ele>201</ele>
        <time>2021-12-11T13:19:20Z</time>
      </trkpt>
      <trkpt lat="46.4945" lon="5.1983">
        <ele>201.2</ele>
        <time>2021-12-11T13:19:21Z</time>
      </trkpt>
      <trkpt lat="46.4945" lon="5.19838">
        <ele>201.2</ele>
        <time>2021-12-11T13:19:22Z</time>
      </trkpt>
      <trkpt lat="46.4945" lon="5.19862">
        <ele>202.4</ele>
        <time>2021-12-11T13:19:25Z</time>
      </trkpt>
      <trkpt lat="46.49452" lon="5.19904">
        <ele>203.6</ele>
        <time>2021-12-11T13:19:30Z</time>
      </trkpt>
      <trkpt lat="46.49451" lon="5.19938">
        <ele>204.2</ele>
        <time>2021-12-11T13:19:34Z</time>
      </trkpt>
      <trkpt lat="46.49451" lon="5.19956">
        <ele>204.4</ele>
        <time>2021-12-11T13:19:36Z</time>
      </trkpt>
      <trkpt lat="46.49452" lon="5.19965">
        <ele>204.4</ele>
        <time>2021-12-11T13:19:37Z</time>
      </trkpt>
      <trkpt lat="46.49456" lon="5.20014">
        <ele>204.4</ele>
        <time>2021-12-11T13:19:42Z</time>
      </trkpt>
      <trkpt lat="46.49467" lon="5.2008">
        <ele>203.6</ele>
        <time>2021-12-11T13:19:48Z</time>
      </trkpt>
      <trkpt lat="46.49478" lon="5.20139">
        <ele>202.4</ele>
        <time>2021-12-11T13:19:53Z</time>
      </trkpt>
      <trkpt lat="46.49488" lon="5.20185">
        <ele>201.2</ele>
        <time>2021-12-11T13:19:57Z</time>
      </trkpt>
      <trkpt lat="46.4949" lon="5.20195">
        <ele>200.6</ele>
        <time>2021-12-11T13:19:58Z</time>
      </trkpt>
      <trkpt lat="46.49493" lon="5.20205">
        <ele>200.4</ele>
        <time>2021-12-11T13:19:59Z</time>
      </trkpt>
      <trkpt lat="46.49496" lon="5.20216">
        <ele>199.4</ele>
        <time>2021-12-11T13:20:00Z</time>
      </trkpt>
      <trkpt lat="46.49501" lon="5.20239">
        <ele>198</ele>
        <time>2021-12-11T13:20:02Z</time>
      </trkpt>
      <trkpt lat="46.49506" lon="5.20263">
        <ele>196.8</ele>
        <time>2021-12-11T13:20:04Z</time>
      </trkpt>
      <trkpt lat="46.49511" lon="5.20288">
        <ele>195.6</ele>
        <time>2021-12-11T13:20:06Z</time>
      </trkpt>
      <trkpt lat="46.49516" lon="5.20313">
        <ele>194.6</ele>
        <time>2021-12-11T13:20:08Z</time>
      </trkpt>
      <trkpt lat="46.49518" lon="5.20325">
        <ele>194.2</ele>
        <time>2021-12-11T13:20:09Z</time>
      </trkpt>
      <trkpt lat="46.49525" lon="5.20377">
        <ele>192.8</ele>
        <time>2021-12-11T13:20:13Z</time>
      </trkpt>
      <trkpt lat="46.49526" lon="5.2039">
        <ele>192.8</ele>
        <time>2021-12-11T13:20:14Z</time>
      </trkpt>
      <trkpt lat="46.49525" lon="5.20438">
        <ele>191.6</ele>
        <time>2021-12-11T13:20:18Z</time>
      </trkpt>
      <trkpt lat="46.49524" lon="5.2045">
        <ele>191.6</ele>
        <time>2021-12-11T13:20:19Z</time>
      </trkpt>
      <trkpt lat="46.49513" lon="5.2052">
        <ele>190.8</ele>
        <time>2021-12-11T13:20:25Z</time>
      </trkpt>
      <trkpt lat="46.49497" lon="5.20595">
        <ele>190.8</ele>
        <time>2021-12-11T13:20:32Z</time>
      </trkpt>
      <trkpt lat="46.49495" lon="5.20606">
        <ele>190.8</ele>
        <time>2021-12-11T13:20:33Z</time>
      </trkpt>
      <trkpt lat="46.49486" lon="5.20646">
        <ele>190.6</ele>
        <time>2021-12-11T13:20:37Z</time>
      </trkpt>
      <trkpt lat="46.49479" lon="5.20683">
        <ele>190.8</ele>
        <time>2021-12-11T13:20:41Z</time>
      </trkpt>
      <trkpt lat="46.49469" lon="5.20734">
        <ele>191.8</ele>
        <time>2021-12-11T13:20:47Z</time>
      </trkpt>
      <trkpt lat="46.49467" lon="5.20742">
        <ele>192</ele>
        <time>2021-12-11T13:20:48Z</time>
      </trkpt>
      <trkpt lat="46.4946" lon="5.20792">
        <ele>193</ele>
        <time>2021-12-11T13:20:54Z</time>
      </trkpt>
      <trkpt lat="46.4946" lon="5.20808">
        <ele>193.2</ele>
        <time>2021-12-11T13:20:56Z</time>
      </trkpt>
      <trkpt lat="46.49462" lon="5.2084">
        <ele>194.2</ele>
        <time>2021-12-11T13:21:00Z</time>
      </trkpt>
      <trkpt lat="46.49464" lon="5.2088">
        <ele>195.6</ele>
        <time>2021-12-11T13:21:05Z</time>
      </trkpt>
      <trkpt lat="46.49467" lon="5.20927">
        <ele>196.6</ele>
        <time>2021-12-11T13:21:11Z</time>
      </trkpt>
      <trkpt lat="46.49468" lon="5.20943">
        <ele>197</ele>
        <time>2021-12-11T13:21:13Z</time>
      </trkpt>
      <trkpt lat="46.49468" lon="5.20959">
        <ele>197.8</ele>
        <time>2021-12-11T13:21:15Z</time>
      </trkpt>
      <trkpt lat="46.49472" lon="5.2102">
        <ele>198.6</ele>
        <time>2021-12-11T13:21:22Z</time>
      </trkpt>
      <trkpt lat="46.49473" lon="5.21029">
        <ele>198.8</ele>
        <time>2021-12-11T13:21:23Z</time>
      </trkpt>
      <trkpt lat="46.49476" lon="5.21085">
        <ele>199.2</ele>
        <time>2021-12-11T13:21:29Z</time>
      </trkpt>
      <trkpt lat="46.49481" lon="5.21169">
        <ele>199.2</ele>
        <time>2021-12-11T13:21:37Z</time>
      </trkpt>
      <trkpt lat="46.49485" lon="5.21252">
        <ele>199</ele>
        <time>2021-12-11T13:21:45Z</time>
      </trkpt>
      <trkpt lat="46.49484" lon="5.21264">
        <ele>199</ele>
        <time>2021-12-11T13:21:46Z</time>
      </trkpt>
      <trkpt lat="46.49475" lon="5.21328">
        <ele>198.2</ele>
        <time>2021-12-11T13:21:51Z</time>
      </trkpt>
      <trkpt lat="46.4947" lon="5.2135">
        <ele>197.6</ele>
        <time>2021-12-11T13:21:53Z</time>
      </trkpt>
      <trkpt lat="46.49458" lon="5.21413">
        <ele>196.4</ele>
        <time>2021-12-11T13:21:58Z</time>
      </trkpt>
      <trkpt lat="46.49456" lon="5.21425">
        <ele>196.2</ele>
        <time>2021-12-11T13:21:59Z</time>
      </trkpt>
      <trkpt lat="46.49454" lon="5.21437">
        <ele>196</ele>
        <time>2021-12-11T13:22:00Z</time>
      </trkpt>
      <trkpt lat="46.49442" lon="5.21482">
        <ele>195.6</ele>
        <time>2021-12-11T13:22:04Z</time>
      </trkpt>
      <trkpt lat="46.49438" lon="5.21492">
        <ele>195.6</ele>
        <time>2021-12-11T13:22:05Z</time>
      </trkpt>
      <trkpt lat="46.49414" lon="5.21554">
        <ele>195.4</ele>
        <time>2021-12-11T13:22:12Z</time>
      </trkpt>
      <trkpt lat="46.49393" lon="5.21631">
        <ele>196.6</ele>
        <time>2021-12-11T13:22:21Z</time>
      </trkpt>
      <trkpt lat="46.49386" lon="5.21657">
        <ele>197.2</ele>
        <time>2021-12-11T13:22:24Z</time>
      </trkpt>
      <trkpt lat="46.49385" lon="5.21663">
        <ele>197.4</ele>
        <time>2021-12-11T13:22:25Z</time>
      </trkpt>
      <trkpt lat="46.49381" lon="5.21679">
        <ele>197.8</ele>
        <time>2021-12-11T13:22:27Z</time>
      </trkpt>
      <trkpt lat="46.49373" lon="5.21719">
        <ele>198.6</ele>
        <time>2021-12-11T13:22:32Z</time>
      </trkpt>
      <trkpt lat="46.49363" lon="5.21763">
        <ele>199.6</ele>
        <time>2021-12-11T13:22:38Z</time>
      </trkpt>
      <trkpt lat="46.49356" lon="5.21785">
        <ele>200.4</ele>
        <time>2021-12-11T13:22:41Z</time>
      </trkpt>
      <trkpt lat="46.4935" lon="5.21799">
        <ele>200.8</ele>
        <time>2021-12-11T13:22:43Z</time>
      </trkpt>
      <trkpt lat="46.49347" lon="5.21805">
        <ele>201</ele>
        <time>2021-12-11T13:22:44Z</time>
      </trkpt>
      <trkpt lat="46.49337" lon="5.21821">
        <ele>202</ele>
        <time>2021-12-11T13:22:47Z</time>
      </trkpt>
      <trkpt lat="46.49322" lon="5.21842">
        <ele>202.8</ele>
        <time>2021-12-11T13:22:51Z</time>
      </trkpt>
      <trkpt lat="46.49319" lon="5.21847">
        <ele>203.2</ele>
        <time>2021-12-11T13:22:52Z</time>
      </trkpt>
      <trkpt lat="46.49299" lon="5.21888">
        <ele>204.2</ele>
        <time>2021-12-11T13:22:59Z</time>
      </trkpt>
      <trkpt lat="46.49287" lon="5.2192">
        <ele>205.4</ele>
        <time>2021-12-11T13:23:04Z</time>
      </trkpt>
      <trkpt lat="46.49275" lon="5.21953">
        <ele>205.8</ele>
        <time>2021-12-11T13:23:09Z</time>
      </trkpt>
      <trkpt lat="46.49268" lon="5.21974">
        <ele>206.4</ele>
        <time>2021-12-11T13:23:12Z</time>
      </trkpt>
      <trkpt lat="46.49246" lon="5.22034">
        <ele>207.2</ele>
        <time>2021-12-11T13:23:20Z</time>
      </trkpt>
      <trkpt lat="46.49225" lon="5.22081">
        <ele>207.4</ele>
        <time>2021-12-11T13:23:26Z</time>
      </trkpt>
      <trkpt lat="46.4922" lon="5.22087">
        <ele>207.4</ele>
        <time>2021-12-11T13:23:27Z</time>
      </trkpt>
      <trkpt lat="46.49185" lon="5.22132">
        <ele>207.2</ele>
        <time>2021-12-11T13:23:34Z</time>
      </trkpt>
      <trkpt lat="46.49181" lon="5.22139">
        <ele>207.2</ele>
        <time>2021-12-11T13:23:35Z</time>
      </trkpt>
      <trkpt lat="46.49173" lon="5.22157">
        <ele>207.2</ele>
        <time>2021-12-11T13:23:37Z</time>
      </trkpt>
      <trkpt lat="46.49171" lon="5.22166">
        <ele>207.2</ele>
        <time>2021-12-11T13:23:38Z</time>
      </trkpt>
      <trkpt lat="46.49168" lon="5.22177">
        <ele>207</ele>
        <time>2021-12-11T13:23:39Z</time>
      </trkpt>
      <trkpt lat="46.49165" lon="5.2221">
        <ele>206.8</ele>
        <time>2021-12-11T13:23:42Z</time>
      </trkpt>
      <trkpt lat="46.49165" lon="5.2227">
        <ele>206.2</ele>
        <time>2021-12-11T13:23:47Z</time>
      </trkpt>
      <trkpt lat="46.49164" lon="5.22344">
        <ele>205.2</ele>
        <time>2021-12-11T13:23:53Z</time>
      </trkpt>
      <trkpt lat="46.49163" lon="5.22369">
        <ele>204.6</ele>
        <time>2021-12-11T13:23:55Z</time>
      </trkpt>
      <trkpt lat="46.49165" lon="5.22407">
        <ele>204</ele>
        <time>2021-12-11T13:23:58Z</time>
      </trkpt>
      <trkpt lat="46.4917" lon="5.22455">
        <ele>203.2</ele>
        <time>2021-12-11T13:24:02Z</time>
      </trkpt>
      <trkpt lat="46.49173" lon="5.22467">
        <ele>203</ele>
        <time>2021-12-11T13:24:03Z</time>
      </trkpt>
      <trkpt lat="46.49187" lon="5.22508">
        <ele>202.6</ele>
        <time>2021-12-11T13:24:07Z</time>
      </trkpt>
      <trkpt lat="46.49209" lon="5.22574">
        <ele>202.4</ele>
        <time>2021-12-11T13:24:14Z</time>
      </trkpt>
      <trkpt lat="46.49222" lon="5.22624">
        <ele>202.8</ele>
        <time>2021-12-11T13:24:20Z</time>
      </trkpt>
      <trkpt lat="46.49232" lon="5.22671">
        <ele>203.8</ele>
        <time>2021-12-11T13:24:26Z</time>
      </trkpt>
      <trkpt lat="46.49234" lon="5.22679">
        <ele>204</ele>
        <time>2021-12-11T13:24:27Z</time>
      </trkpt>
      <trkpt lat="46.49237" lon="5.22695">
        <ele>204.4</ele>
        <time>2021-12-11T13:24:29Z</time>
      </trkpt>
      <trkpt lat="46.49238" lon="5.22719">
        <ele>205</ele>
        <time>2021-12-11T13:24:32Z</time>
      </trkpt>
      <trkpt lat="46.49238" lon="5.22752">
        <ele>205.6</ele>
        <time>2021-12-11T13:24:36Z</time>
      </trkpt>
      <trkpt lat="46.49236" lon="5.22762">
        <ele>205.8</ele>
        <time>2021-12-11T13:24:37Z</time>
      </trkpt>
      <trkpt lat="46.49234" lon="5.22771">
        <ele>205.8</ele>
        <time>2021-12-11T13:24:38Z</time>
      </trkpt>
      <trkpt lat="46.49227" lon="5.22786">
        <ele>206</ele>
        <time>2021-12-11T13:24:40Z</time>
      </trkpt>
      <trkpt lat="46.49215" lon="5.22793">
        <ele>206</ele>
        <time>2021-12-11T13:24:42Z</time>
      </trkpt>
      <trkpt lat="46.49208" lon="5.22795">
        <ele>206</ele>
        <time>2021-12-11T13:24:43Z</time>
      </trkpt>
      <trkpt lat="46.49196" lon="5.22796">
        <ele>206</ele>
        <time>2021-12-11T13:24:45Z</time>
      </trkpt>
      <trkpt lat="46.49177" lon="5.22795">
        <ele>206.2</ele>
        <time>2021-12-11T13:24:48Z</time>
      </trkpt>
      <trkpt lat="46.49165" lon="5.22791">
        <ele>206.4</ele>
        <time>2021-12-11T13:24:50Z</time>
      </trkpt>
      <trkpt lat="46.49124" lon="5.22772">
        <ele>206.4</ele>
        <time>2021-12-11T13:24:56Z</time>
      </trkpt>
      <trkpt lat="46.49069" lon="5.22742">
        <ele>206</ele>
        <time>2021-12-11T13:25:04Z</time>
      </trkpt>
      <trkpt lat="46.49042" lon="5.22728">
        <ele>205.8</ele>
        <time>2021-12-11T13:25:08Z</time>
      </trkpt>
      <trkpt lat="46.49015" lon="5.22713">
        <ele>205.8</ele>
        <time>2021-12-11T13:25:12Z</time>
      </trkpt>
      <trkpt lat="46.48966" lon="5.22686">
        <ele>205.6</ele>
        <time>2021-12-11T13:25:19Z</time>
      </trkpt>
      <trkpt lat="46.48922" lon="5.22662">
        <ele>204.8</ele>
        <time>2021-12-11T13:25:25Z</time>
      </trkpt>
      <trkpt lat="46.48907" lon="5.22656">
        <ele>204.6</ele>
        <time>2021-12-11T13:25:27Z</time>
      </trkpt>
      <trkpt lat="46.48855" lon="5.22629">
        <ele>204</ele>
        <time>2021-12-11T13:25:34Z</time>
      </trkpt>
      <trkpt lat="46.4884" lon="5.2262">
        <ele>203.8</ele>
        <time>2021-12-11T13:25:36Z</time>
      </trkpt>
      <trkpt lat="46.48825" lon="5.22612">
        <ele>203.6</ele>
        <time>2021-12-11T13:25:38Z</time>
      </trkpt>
      <trkpt lat="46.48781" lon="5.22586">
        <ele>203.4</ele>
        <time>2021-12-11T13:25:44Z</time>
      </trkpt>
      <trkpt lat="46.4873" lon="5.22557">
        <ele>203.4</ele>
        <time>2021-12-11T13:25:51Z</time>
      </trkpt>
      <trkpt lat="46.48709" lon="5.22545">
        <ele>203.2</ele>
        <time>2021-12-11T13:25:54Z</time>
      </trkpt>
      <trkpt lat="46.48677" lon="5.2252">
        <ele>203.2</ele>
        <time>2021-12-11T13:25:59Z</time>
      </trkpt>
      <trkpt lat="46.48644" lon="5.22479">
        <ele>203.4</ele>
        <time>2021-12-11T13:26:05Z</time>
      </trkpt>
      <trkpt lat="46.4864" lon="5.22474">
        <ele>203.6</ele>
        <time>2021-12-11T13:26:06Z</time>
      </trkpt>
      <trkpt lat="46.48606" lon="5.22444">
        <ele>204.2</ele>
        <time>2021-12-11T13:26:12Z</time>
      </trkpt>
      <trkpt lat="46.48578" lon="5.22418">
        <ele>204.8</ele>
        <time>2021-12-11T13:26:17Z</time>
      </trkpt>
      <trkpt lat="46.4856" lon="5.22402">
        <ele>205.4</ele>
        <time>2021-12-11T13:26:20Z</time>
      </trkpt>
      <trkpt lat="46.48521" lon="5.22375">
        <ele>205.6</ele>
        <time>2021-12-11T13:26:26Z</time>
      </trkpt>
      <trkpt lat="46.48482" lon="5.22347">
        <ele>205.8</ele>
        <time>2021-12-11T13:26:32Z</time>
      </trkpt>
      <trkpt lat="46.48471" lon="5.22334">
        <ele>205.8</ele>
        <time>2021-12-11T13:26:34Z</time>
      </trkpt>
      <trkpt lat="46.48465" lon="5.22327">
        <ele>206</ele>
        <time>2021-12-11T13:26:35Z</time>
      </trkpt>
      <trkpt lat="46.48422" lon="5.2227">
        <ele>205.6</ele>
        <time>2021-12-11T13:26:43Z</time>
      </trkpt>
      <trkpt lat="46.4839" lon="5.2224">
        <ele>205</ele>
        <time>2021-12-11T13:26:48Z</time>
      </trkpt>
      <trkpt lat="46.48383" lon="5.22236">
        <ele>204.8</ele>
        <time>2021-12-11T13:26:49Z</time>
      </trkpt>
      <trkpt lat="46.48344" lon="5.2222">
        <ele>204.6</ele>
        <time>2021-12-11T13:26:54Z</time>
      </trkpt>
      <trkpt lat="46.48305" lon="5.22219">
        <ele>204.2</ele>
        <time>2021-12-11T13:26:59Z</time>
      </trkpt>
      <trkpt lat="46.48272" lon="5.22216">
        <ele>203.8</ele>
        <time>2021-12-11T13:27:03Z</time>
      </trkpt>
      <trkpt lat="46.48255" lon="5.22212">
        <ele>203.4</ele>
        <time>2021-12-11T13:27:05Z</time>
      </trkpt>
      <trkpt lat="46.48215" lon="5.22202">
        <ele>203</ele>
        <time>2021-12-11T13:27:10Z</time>
      </trkpt>
      <trkpt lat="46.48207" lon="5.22203">
        <ele>203</ele>
        <time>2021-12-11T13:27:11Z</time>
      </trkpt>
      <trkpt lat="46.48175" lon="5.22212">
        <ele>202.8</ele>
        <time>2021-12-11T13:27:15Z</time>
      </trkpt>
      <trkpt lat="46.48151" lon="5.22218">
        <ele>202.6</ele>
        <time>2021-12-11T13:27:18Z</time>
      </trkpt>
      <trkpt lat="46.48097" lon="5.22231">
        <ele>202.4</ele>
        <time>2021-12-11T13:27:25Z</time>
      </trkpt>
      <trkpt lat="46.4809" lon="5.22235">
        <ele>202.4</ele>
        <time>2021-12-11T13:27:26Z</time>
      </trkpt>
      <trkpt lat="46.48083" lon="5.22241">
        <ele>202.4</ele>
        <time>2021-12-11T13:27:27Z</time>
      </trkpt>
      <trkpt lat="46.48058" lon="5.22266">
        <ele>202.4</ele>
        <time>2021-12-11T13:27:31Z</time>
      </trkpt>
      <trkpt lat="46.48044" lon="5.22276">
        <ele>202.4</ele>
        <time>2021-12-11T13:27:33Z</time>
      </trkpt>
      <trkpt lat="46.48029" lon="5.22281">
        <ele>202.4</ele>
        <time>2021-12-11T13:27:35Z</time>
      </trkpt>
      <trkpt lat="46.4799" lon="5.22283">
        <ele>202.6</ele>
        <time>2021-12-11T13:27:40Z</time>
      </trkpt>
      <trkpt lat="46.47931" lon="5.22291">
        <ele>203.2</ele>
        <time>2021-12-11T13:27:48Z</time>
      </trkpt>
      <trkpt lat="46.47884" lon="5.22296">
        <ele>203.8</ele>
        <time>2021-12-11T13:27:55Z</time>
      </trkpt>
      <trkpt lat="46.47877" lon="5.22297">
        <ele>203.8</ele>
        <time>2021-12-11T13:27:56Z</time>
      </trkpt>
      <trkpt lat="46.4783" lon="5.22304">
        <ele>204.6</ele>
        <time>2021-12-11T13:28:04Z</time>
      </trkpt>
      <trkpt lat="46.4782" lon="5.22305">
        <ele>204.8</ele>
        <time>2021-12-11T13:28:06Z</time>
      </trkpt>
      <trkpt lat="46.47796" lon="5.22308">
        <ele>205</ele>
        <time>2021-12-11T13:28:11Z</time>
      </trkpt>
      <trkpt lat="46.47783" lon="5.2231">
        <ele>205.2</ele>
        <time>2021-12-11T13:28:15Z</time>
      </trkpt>
      <trkpt lat="46.47782" lon="5.2231">
        <ele>205.2</ele>
        <time>2021-12-11T13:28:18Z</time>
      </trkpt>
      <trkpt lat="46.47777" lon="5.22311">
        <ele>204.6</ele>
        <time>2021-12-11T13:28:55Z</time>
      </trkpt>
      <trkpt lat="46.47763" lon="5.22313">
        <ele>204.4</ele>
        <time>2021-12-11T13:29:00Z</time>
      </trkpt>
      <trkpt lat="46.47761" lon="5.22317">
        <ele>204.4</ele>
        <time>2021-12-11T13:29:01Z</time>
      </trkpt>
      <trkpt lat="46.4776" lon="5.22322">
        <ele>204.4</ele>
        <time>2021-12-11T13:29:02Z</time>
      </trkpt>
      <trkpt lat="46.47762" lon="5.22336">
        <ele>204.6</ele>
        <time>2021-12-11T13:29:04Z</time>
      </trkpt>
      <trkpt lat="46.47771" lon="5.22387">
        <ele>204.6</ele>
        <time>2021-12-11T13:29:11Z</time>
      </trkpt>
      <trkpt lat="46.47773" lon="5.22401">
        <ele>204.8</ele>
        <time>2021-12-11T13:29:13Z</time>
      </trkpt>
      <trkpt lat="46.4778" lon="5.22439">
        <ele>205.6</ele>
        <time>2021-12-11T13:29:18Z</time>
      </trkpt>
      <trkpt lat="46.47782" lon="5.22447">
        <ele>205.8</ele>
        <time>2021-12-11T13:29:19Z</time>
      </trkpt>
      <trkpt lat="46.47792" lon="5.22495">
        <ele>206</ele>
        <time>2021-12-11T13:29:25Z</time>
      </trkpt>
      <trkpt lat="46.47809" lon="5.22558">
        <ele>206</ele>
        <time>2021-12-11T13:29:33Z</time>
      </trkpt>
      <trkpt lat="46.47825" lon="5.22587">
        <ele>205.8</ele>
        <time>2021-12-11T13:29:37Z</time>
      </trkpt>
      <trkpt lat="46.47831" lon="5.22593">
        <ele>205.8</ele>
        <time>2021-12-11T13:29:38Z</time>
      </trkpt>
      <trkpt lat="46.47866" lon="5.22629">
        <ele>204.6</ele>
        <time>2021-12-11T13:29:44Z</time>
      </trkpt>
      <trkpt lat="46.47902" lon="5.22668">
        <ele>203.2</ele>
        <time>2021-12-11T13:29:50Z</time>
      </trkpt>
      <trkpt lat="46.47921" lon="5.22689">
        <ele>202.2</ele>
        <time>2021-12-11T13:29:53Z</time>
      </trkpt>
      <trkpt lat="46.47941" lon="5.2271">
        <ele>201</ele>
        <time>2021-12-11T13:29:56Z</time>
      </trkpt>
      <trkpt lat="46.47947" lon="5.22717">
        <ele>200</ele>
        <time>2021-12-11T13:29:57Z</time>
      </trkpt>
      <trkpt lat="46.47966" lon="5.22742">
        <ele>198.6</ele>
        <time>2021-12-11T13:30:00Z</time>
      </trkpt>
      <trkpt lat="46.47977" lon="5.22761">
        <ele>198</ele>
        <time>2021-12-11T13:30:02Z</time>
      </trkpt>
      <trkpt lat="46.47986" lon="5.22781">
        <ele>197.4</ele>
        <time>2021-12-11T13:30:04Z</time>
      </trkpt>
      <trkpt lat="46.4799" lon="5.22792">
        <ele>197</ele>
        <time>2021-12-11T13:30:05Z</time>
      </trkpt>
      <trkpt lat="46.48001" lon="5.22824">
        <ele>196.2</ele>
        <time>2021-12-11T13:30:08Z</time>
      </trkpt>
      <trkpt lat="46.4802" lon="5.22876">
        <ele>195</ele>
        <time>2021-12-11T13:30:13Z</time>
      </trkpt>
      <trkpt lat="46.48023" lon="5.22886">
        <ele>194.8</ele>
        <time>2021-12-11T13:30:14Z</time>
      </trkpt>
      <trkpt lat="46.48037" lon="5.22928">
        <ele>193.8</ele>
        <time>2021-12-11T13:30:18Z</time>
      </trkpt>
      <trkpt lat="46.48041" lon="5.22949">
        <ele>193.4</ele>
        <time>2021-12-11T13:30:20Z</time>
      </trkpt>
      <trkpt lat="46.48045" lon="5.22985">
        <ele>192.8</ele>
        <time>2021-12-11T13:30:23Z</time>
      </trkpt>
      <trkpt lat="46.48046" lon="5.23023">
        <ele>192.2</ele>
        <time>2021-12-11T13:30:26Z</time>
      </trkpt>
      <trkpt lat="46.48046" lon="5.23034">
        <ele>191.8</ele>
        <time>2021-12-11T13:30:27Z</time>
      </trkpt>
      <trkpt lat="46.48047" lon="5.23094">
        <ele>190.6</ele>
        <time>2021-12-11T13:30:32Z</time>
      </trkpt>
      <trkpt lat="46.48048" lon="5.23143">
        <ele>189.6</ele>
        <time>2021-12-11T13:30:36Z</time>
      </trkpt>
      <trkpt lat="46.48049" lon="5.23156">
        <ele>189.4</ele>
        <time>2021-12-11T13:30:37Z</time>
      </trkpt>
      <trkpt lat="46.4805" lon="5.23195">
        <ele>188.4</ele>
        <time>2021-12-11T13:30:40Z</time>
      </trkpt>
      <trkpt lat="46.48051" lon="5.23233">
        <ele>187.2</ele>
        <time>2021-12-11T13:30:43Z</time>
      </trkpt>
      <trkpt lat="46.48052" lon="5.23269">
        <ele>186.4</ele>
        <time>2021-12-11T13:30:46Z</time>
      </trkpt>
      <trkpt lat="46.48052" lon="5.23281">
        <ele>186</ele>
        <time>2021-12-11T13:30:47Z</time>
      </trkpt>
      <trkpt lat="46.48054" lon="5.23348">
        <ele>185</ele>
        <time>2021-12-11T13:30:53Z</time>
      </trkpt>
      <trkpt lat="46.48055" lon="5.23373">
        <ele>184.8</ele>
        <time>2021-12-11T13:30:55Z</time>
      </trkpt>
      <trkpt lat="46.48056" lon="5.23439">
        <ele>184</ele>
        <time>2021-12-11T13:31:01Z</time>
      </trkpt>
      <trkpt lat="46.48057" lon="5.23458">
        <ele>183.4</ele>
        <time>2021-12-11T13:31:03Z</time>
      </trkpt>
      <trkpt lat="46.48059" lon="5.23544">
        <ele>183</ele>
        <time>2021-12-11T13:31:11Z</time>
      </trkpt>
      <trkpt lat="46.48059" lon="5.23554">
        <ele>183</ele>
        <time>2021-12-11T13:31:12Z</time>
      </trkpt>
      <trkpt lat="46.48062" lon="5.23626">
        <ele>183</ele>
        <time>2021-12-11T13:31:19Z</time>
      </trkpt>
      <trkpt lat="46.48063" lon="5.23637">
        <ele>183</ele>
        <time>2021-12-11T13:31:20Z</time>
      </trkpt>
      <trkpt lat="46.4807" lon="5.23673">
        <ele>183.2</ele>
        <time>2021-12-11T13:31:24Z</time>
      </trkpt>
      <trkpt lat="46.4809" lon="5.23732">
        <ele>183.4</ele>
        <time>2021-12-11T13:31:31Z</time>
      </trkpt>
      <trkpt lat="46.48119" lon="5.23779">
        <ele>184</ele>
        <time>2021-12-11T13:31:38Z</time>
      </trkpt>
      <trkpt lat="46.48144" lon="5.23807">
        <ele>184</ele>
        <time>2021-12-11T13:31:43Z</time>
      </trkpt>
      <trkpt lat="46.48153" lon="5.2382">
        <ele>184.2</ele>
        <time>2021-12-11T13:31:45Z</time>
      </trkpt>
      <trkpt lat="46.48176" lon="5.23852">
        <ele>184.2</ele>
        <time>2021-12-11T13:31:50Z</time>
      </trkpt>
      <trkpt lat="46.48182" lon="5.23868">
        <ele>184.4</ele>
        <time>2021-12-11T13:31:52Z</time>
      </trkpt>
      <trkpt lat="46.48189" lon="5.23903">
        <ele>184.4</ele>
        <time>2021-12-11T13:31:56Z</time>
      </trkpt>
      <trkpt lat="46.48189" lon="5.23912">
        <ele>184.4</ele>
        <time>2021-12-11T13:31:57Z</time>
      </trkpt>
      <trkpt lat="46.48189" lon="5.2392">
        <ele>184.6</ele>
        <time>2021-12-11T13:31:58Z</time>
      </trkpt>
      <trkpt lat="46.48184" lon="5.23946">
        <ele>184.8</ele>
        <time>2021-12-11T13:32:01Z</time>
      </trkpt>
      <trkpt lat="46.48182" lon="5.23954">
        <ele>185</ele>
        <time>2021-12-11T13:32:02Z</time>
      </trkpt>
      <trkpt lat="46.4817" lon="5.23988">
        <ele>185.6</ele>
        <time>2021-12-11T13:32:07Z</time>
      </trkpt>
      <trkpt lat="46.48167" lon="5.23998">
        <ele>186</ele>
        <time>2021-12-11T13:32:09Z</time>
      </trkpt>
      <trkpt lat="46.48158" lon="5.24021">
        <ele>187</ele>
        <time>2021-12-11T13:32:13Z</time>
      </trkpt>
      <trkpt lat="46.48156" lon="5.24025">
        <ele>187.2</ele>
        <time>2021-12-11T13:32:14Z</time>
      </trkpt>
      <trkpt lat="46.48148" lon="5.24047">
        <ele>188.4</ele>
        <time>2021-12-11T13:32:18Z</time>
      </trkpt>
      <trkpt lat="46.48144" lon="5.24056">
        <ele>188.6</ele>
        <time>2021-12-11T13:32:20Z</time>
      </trkpt>
      <trkpt lat="46.48137" lon="5.24071">
        <ele>189.4</ele>
        <time>2021-12-11T13:32:23Z</time>
      </trkpt>
      <trkpt lat="46.48127" lon="5.24095">
        <ele>190.8</ele>
        <time>2021-12-11T13:32:28Z</time>
      </trkpt>
      <trkpt lat="46.48118" lon="5.2412">
        <ele>191.8</ele>
        <time>2021-12-11T13:32:33Z</time>
      </trkpt>
      <trkpt lat="46.48111" lon="5.24139">
        <ele>193.2</ele>
        <time>2021-12-11T13:32:37Z</time>
      </trkpt>
      <trkpt lat="46.48109" lon="5.24144">
        <ele>193.2</ele>
        <time>2021-12-11T13:32:38Z</time>
      </trkpt>
      <trkpt lat="46.481" lon="5.24167">
        <ele>194.4</ele>
        <time>2021-12-11T13:32:43Z</time>
      </trkpt>
      <trkpt lat="46.48093" lon="5.24185">
        <ele>195.2</ele>
        <time>2021-12-11T13:32:47Z</time>
      </trkpt>
      <trkpt lat="46.48092" lon="5.24189">
        <ele>195.6</ele>
        <time>2021-12-11T13:32:48Z</time>
      </trkpt>
      <trkpt lat="46.48082" lon="5.24215">
        <ele>196.6</ele>
        <time>2021-12-11T13:32:54Z</time>
      </trkpt>
      <trkpt lat="46.4808" lon="5.2422">
        <ele>197</ele>
        <time>2021-12-11T13:32:55Z</time>
      </trkpt>
      <trkpt lat="46.48076" lon="5.24233">
        <ele>197.6</ele>
        <time>2021-12-11T13:32:58Z</time>
      </trkpt>
      <trkpt lat="46.48073" lon="5.24253">
        <ele>198.8</ele>
        <time>2021-12-11T13:33:02Z</time>
      </trkpt>
      <trkpt lat="46.48072" lon="5.24258">
        <ele>199</ele>
        <time>2021-12-11T13:33:03Z</time>
      </trkpt>
      <trkpt lat="46.48073" lon="5.24283">
        <ele>200.2</ele>
        <time>2021-12-11T13:33:08Z</time>
      </trkpt>
      <trkpt lat="46.48075" lon="5.24293">
        <ele>200.4</ele>
        <time>2021-12-11T13:33:10Z</time>
      </trkpt>
      <trkpt lat="46.4808" lon="5.24306">
        <ele>201.2</ele>
        <time>2021-12-11T13:33:13Z</time>
      </trkpt>
      <trkpt lat="46.48089" lon="5.2432">
        <ele>201.8</ele>
        <time>2021-12-11T13:33:17Z</time>
      </trkpt>
      <trkpt lat="46.48095" lon="5.24326">
        <ele>202.4</ele>
        <time>2021-12-11T13:33:19Z</time>
      </trkpt>
      <trkpt lat="46.48107" lon="5.24343">
        <ele>203.4</ele>
        <time>2021-12-11T13:33:24Z</time>
      </trkpt>
      <trkpt lat="46.48106" lon="5.24362">
        <ele>204.6</ele>
        <time>2021-12-11T13:33:28Z</time>
      </trkpt>
      <trkpt lat="46.48089" lon="5.2438">
        <ele>205.8</ele>
        <time>2021-12-11T13:33:33Z</time>
      </trkpt>
      <trkpt lat="46.48057" lon="5.24405">
        <ele>206.6</ele>
        <time>2021-12-11T13:33:40Z</time>
      </trkpt>
      <trkpt lat="46.48032" lon="5.24422">
        <ele>206.8</ele>
        <time>2021-12-11T13:33:45Z</time>
      </trkpt>
      <trkpt lat="46.48017" lon="5.24432">
        <ele>206.8</ele>
        <time>2021-12-11T13:33:48Z</time>
      </trkpt>
      <trkpt lat="46.47976" lon="5.24459">
        <ele>207</ele>
        <time>2021-12-11T13:33:56Z</time>
      </trkpt>
      <trkpt lat="46.4793" lon="5.2449">
        <ele>207.8</ele>
        <time>2021-12-11T13:34:05Z</time>
      </trkpt>
      <trkpt lat="46.47918" lon="5.24494">
        <ele>208</ele>
        <time>2021-12-11T13:34:07Z</time>
      </trkpt>
      <trkpt lat="46.47878" lon="5.24496">
        <ele>208.6</ele>
        <time>2021-12-11T13:34:14Z</time>
      </trkpt>
      <trkpt lat="46.47826" lon="5.24495">
        <ele>208.8</ele>
        <time>2021-12-11T13:34:22Z</time>
      </trkpt>
      <trkpt lat="46.47769" lon="5.24501">
        <ele>207.8</ele>
        <time>2021-12-11T13:34:30Z</time>
      </trkpt>
      <trkpt lat="46.47717" lon="5.24516">
        <ele>207.2</ele>
        <time>2021-12-11T13:34:37Z</time>
      </trkpt>
      <trkpt lat="46.47677" lon="5.24531">
        <ele>206.8</ele>
        <time>2021-12-11T13:34:43Z</time>
      </trkpt>
      <trkpt lat="46.47663" lon="5.24539">
        <ele>206.8</ele>
        <time>2021-12-11T13:34:45Z</time>
      </trkpt>
      <trkpt lat="46.4763" lon="5.24558">
        <ele>206.6</ele>
        <time>2021-12-11T13:34:50Z</time>
      </trkpt>
      <trkpt lat="46.47586" lon="5.24584">
        <ele>206.4</ele>
        <time>2021-12-11T13:34:56Z</time>
      </trkpt>
      <trkpt lat="46.47538" lon="5.24611">
        <ele>206</ele>
        <time>2021-12-11T13:35:03Z</time>
      </trkpt>
      <trkpt lat="46.47515" lon="5.24623">
        <ele>205.6</ele>
        <time>2021-12-11T13:35:06Z</time>
      </trkpt>
      <trkpt lat="46.47485" lon="5.24633">
        <ele>205</ele>
        <time>2021-12-11T13:35:10Z</time>
      </trkpt>
      <trkpt lat="46.47427" lon="5.2464">
        <ele>204.6</ele>
        <time>2021-12-11T13:35:18Z</time>
      </trkpt>
      <trkpt lat="46.47364" lon="5.24645">
        <ele>204</ele>
        <time>2021-12-11T13:35:26Z</time>
      </trkpt>
      <trkpt lat="46.47334" lon="5.24648">
        <ele>203.6</ele>
        <time>2021-12-11T13:35:30Z</time>
      </trkpt>
      <trkpt lat="46.47307" lon="5.24652">
        <ele>203</ele>
        <time>2021-12-11T13:35:33Z</time>
      </trkpt>
      <trkpt lat="46.47272" lon="5.24654">
        <ele>202.4</ele>
        <time>2021-12-11T13:35:37Z</time>
      </trkpt>
      <trkpt lat="46.47237" lon="5.24653">
        <ele>201.6</ele>
        <time>2021-12-11T13:35:41Z</time>
      </trkpt>
      <trkpt lat="46.47228" lon="5.24652">
        <ele>201.2</ele>
        <time>2021-12-11T13:35:42Z</time>
      </trkpt>
      <trkpt lat="46.47204" lon="5.24651">
        <ele>200</ele>
        <time>2021-12-11T13:35:45Z</time>
      </trkpt>
      <trkpt lat="46.4717" lon="5.24648">
        <ele>199</ele>
        <time>2021-12-11T13:35:49Z</time>
      </trkpt>
      <trkpt lat="46.47136" lon="5.24637">
        <ele>197.6</ele>
        <time>2021-12-11T13:35:53Z</time>
      </trkpt>
      <trkpt lat="46.47128" lon="5.24633">
        <ele>197.2</ele>
        <time>2021-12-11T13:35:54Z</time>
      </trkpt>
      <trkpt lat="46.47109" lon="5.24627">
        <ele>196.4</ele>
        <time>2021-12-11T13:35:56Z</time>
      </trkpt>
      <trkpt lat="46.47101" lon="5.2463">
        <ele>196.2</ele>
        <time>2021-12-11T13:35:57Z</time>
      </trkpt>
      <trkpt lat="46.47095" lon="5.24636">
        <ele>195.8</ele>
        <time>2021-12-11T13:35:58Z</time>
      </trkpt>
      <trkpt lat="46.47091" lon="5.24643">
        <ele>195.8</ele>
        <time>2021-12-11T13:35:59Z</time>
      </trkpt>
      <trkpt lat="46.47086" lon="5.24655">
        <ele>195.4</ele>
        <time>2021-12-11T13:36:00Z</time>
      </trkpt>
      <trkpt lat="46.47083" lon="5.24666">
        <ele>195.2</ele>
        <time>2021-12-11T13:36:01Z</time>
      </trkpt>
      <trkpt lat="46.47078" lon="5.24684">
        <ele>194.6</ele>
        <time>2021-12-11T13:36:03Z</time>
      </trkpt>
      <trkpt lat="46.47069" lon="5.24707">
        <ele>193.8</ele>
        <time>2021-12-11T13:36:05Z</time>
      </trkpt>
      <trkpt lat="46.47055" lon="5.24738">
        <ele>193.2</ele>
        <time>2021-12-11T13:36:08Z</time>
      </trkpt>
      <trkpt lat="46.47035" lon="5.24766">
        <ele>192.6</ele>
        <time>2021-12-11T13:36:11Z</time>
      </trkpt>
      <trkpt lat="46.47019" lon="5.24784">
        <ele>192.4</ele>
        <time>2021-12-11T13:36:13Z</time>
      </trkpt>
      <trkpt lat="46.46994" lon="5.24808">
        <ele>191.6</ele>
        <time>2021-12-11T13:36:16Z</time>
      </trkpt>
      <trkpt lat="46.46968" lon="5.24831">
        <ele>190.4</ele>
        <time>2021-12-11T13:36:19Z</time>
      </trkpt>
      <trkpt lat="46.46952" lon="5.24844">
        <ele>189.2</ele>
        <time>2021-12-11T13:36:21Z</time>
      </trkpt>
      <trkpt lat="46.46923" lon="5.24868">
        <ele>188.4</ele>
        <time>2021-12-11T13:36:25Z</time>
      </trkpt>
      <trkpt lat="46.46885" lon="5.24897">
        <ele>188.4</ele>
        <time>2021-12-11T13:36:31Z</time>
      </trkpt>
      <trkpt lat="46.46843" lon="5.2493">
        <ele>189.6</ele>
        <time>2021-12-11T13:36:38Z</time>
      </trkpt>
      <trkpt lat="46.46822" lon="5.24948">
        <ele>189.8</ele>
        <time>2021-12-11T13:36:42Z</time>
      </trkpt>
      <trkpt lat="46.46807" lon="5.24961">
        <ele>190.4</ele>
        <time>2021-12-11T13:36:45Z</time>
      </trkpt>
      <trkpt lat="46.46793" lon="5.24972">
        <ele>191</ele>
        <time>2021-12-11T13:36:48Z</time>
      </trkpt>
      <trkpt lat="46.46773" lon="5.24988">
        <ele>191.4</ele>
        <time>2021-12-11T13:36:52Z</time>
      </trkpt>
      <trkpt lat="46.46765" lon="5.24994">
        <ele>191.8</ele>
        <time>2021-12-11T13:36:54Z</time>
      </trkpt>
      <trkpt lat="46.46753" lon="5.25005">
        <ele>192.4</ele>
        <time>2021-12-11T13:36:57Z</time>
      </trkpt>
      <trkpt lat="46.46732" lon="5.25023">
        <ele>193</ele>
        <time>2021-12-11T13:37:01Z</time>
      </trkpt>
      <trkpt lat="46.46697" lon="5.25052">
        <ele>193.2</ele>
        <time>2021-12-11T13:37:06Z</time>
      </trkpt>
      <trkpt lat="46.46656" lon="5.25088">
        <ele>193.2</ele>
        <time>2021-12-11T13:37:13Z</time>
      </trkpt>
      <trkpt lat="46.46642" lon="5.25102">
        <ele>193.4</ele>
        <time>2021-12-11T13:37:16Z</time>
      </trkpt>
      <trkpt lat="46.46637" lon="5.25105">
        <ele>193.6</ele>
        <time>2021-12-11T13:37:17Z</time>
      </trkpt>
      <trkpt lat="46.46632" lon="5.25109">
        <ele>193.6</ele>
        <time>2021-12-11T13:37:18Z</time>
      </trkpt>
      <trkpt lat="46.46629" lon="5.25113">
        <ele>193.8</ele>
        <time>2021-12-11T13:37:19Z</time>
      </trkpt>
      <trkpt lat="46.46616" lon="5.25123">
        <ele>194.2</ele>
        <time>2021-12-11T13:37:22Z</time>
      </trkpt>
      <trkpt lat="46.46607" lon="5.25129">
        <ele>194.6</ele>
        <time>2021-12-11T13:37:24Z</time>
      </trkpt>
      <trkpt lat="46.46597" lon="5.25136">
        <ele>194.8</ele>
        <time>2021-12-11T13:37:26Z</time>
      </trkpt>
      <trkpt lat="46.46559" lon="5.25169">
        <ele>195.2</ele>
        <time>2021-12-11T13:37:34Z</time>
      </trkpt>
      <trkpt lat="46.46527" lon="5.25195">
        <ele>195.4</ele>
        <time>2021-12-11T13:37:40Z</time>
      </trkpt>
      <trkpt lat="46.46514" lon="5.25207">
        <ele>195.4</ele>
        <time>2021-12-11T13:37:42Z</time>
      </trkpt>
      <trkpt lat="46.46488" lon="5.25225">
        <ele>195.6</ele>
        <time>2021-12-11T13:37:47Z</time>
      </trkpt>
      <trkpt lat="46.46458" lon="5.25249">
        <ele>196</ele>
        <time>2021-12-11T13:37:53Z</time>
      </trkpt>
      <trkpt lat="46.46448" lon="5.25256">
        <ele>196.4</ele>
        <time>2021-12-11T13:37:55Z</time>
      </trkpt>
      <trkpt lat="46.46425" lon="5.25274">
        <ele>197.6</ele>
        <time>2021-12-11T13:38:00Z</time>
      </trkpt>
      <trkpt lat="46.46398" lon="5.25298">
        <ele>198.6</ele>
        <time>2021-12-11T13:38:06Z</time>
      </trkpt>
      <trkpt lat="46.46386" lon="5.25314">
        <ele>199.6</ele>
        <time>2021-12-11T13:38:09Z</time>
      </trkpt>
      <trkpt lat="46.46382" lon="5.25319">
        <ele>199.8</ele>
        <time>2021-12-11T13:38:10Z</time>
      </trkpt>
      <trkpt lat="46.4636" lon="5.25357">
        <ele>200.8</ele>
        <time>2021-12-11T13:38:16Z</time>
      </trkpt>
      <trkpt lat="46.46353" lon="5.2537">
        <ele>201</ele>
        <time>2021-12-11T13:38:18Z</time>
      </trkpt>
      <trkpt lat="46.46315" lon="5.25435">
        <ele>201.8</ele>
        <time>2021-12-11T13:38:28Z</time>
      </trkpt>
      <trkpt lat="46.46304" lon="5.25453">
        <ele>201.8</ele>
        <time>2021-12-11T13:38:31Z</time>
      </trkpt>
      <trkpt lat="46.46286" lon="5.25484">
        <ele>202.4</ele>
        <time>2021-12-11T13:38:36Z</time>
      </trkpt>
      <trkpt lat="46.46275" lon="5.25502">
        <ele>203</ele>
        <time>2021-12-11T13:38:39Z</time>
      </trkpt>
      <trkpt lat="46.46253" lon="5.2555">
        <ele>203.8</ele>
        <time>2021-12-11T13:38:46Z</time>
      </trkpt>
      <trkpt lat="46.46248" lon="5.25565">
        <ele>204</ele>
        <time>2021-12-11T13:38:48Z</time>
      </trkpt>
      <trkpt lat="46.46237" lon="5.25611">
        <ele>204.6</ele>
        <time>2021-12-11T13:38:54Z</time>
      </trkpt>
      <trkpt lat="46.46226" lon="5.25671">
        <ele>204.8</ele>
        <time>2021-12-11T13:39:01Z</time>
      </trkpt>
      <trkpt lat="46.46225" lon="5.25682">
        <ele>204.8</ele>
        <time>2021-12-11T13:39:02Z</time>
      </trkpt>
      <trkpt lat="46.46227" lon="5.25716">
        <ele>204.6</ele>
        <time>2021-12-11T13:39:05Z</time>
      </trkpt>
      <trkpt lat="46.4624" lon="5.25788">
        <ele>202.8</ele>
        <time>2021-12-11T13:39:11Z</time>
      </trkpt>
      <trkpt lat="46.46248" lon="5.2583">
        <ele>202.2</ele>
        <time>2021-12-11T13:39:15Z</time>
      </trkpt>
      <trkpt lat="46.4625" lon="5.25839">
        <ele>202.2</ele>
        <time>2021-12-11T13:39:16Z</time>
      </trkpt>
      <trkpt lat="46.46251" lon="5.25864">
        <ele>202.2</ele>
        <time>2021-12-11T13:39:19Z</time>
      </trkpt>
      <trkpt lat="46.46249" lon="5.2588">
        <ele>202.8</ele>
        <time>2021-12-11T13:39:21Z</time>
      </trkpt>
      <trkpt lat="46.46238" lon="5.25913">
        <ele>204.2</ele>
        <time>2021-12-11T13:39:26Z</time>
      </trkpt>
      <trkpt lat="46.46231" lon="5.25932">
        <ele>205.4</ele>
        <time>2021-12-11T13:39:29Z</time>
      </trkpt>
      <trkpt lat="46.46222" lon="5.25955">
        <ele>207</ele>
        <time>2021-12-11T13:39:33Z</time>
      </trkpt>
      <trkpt lat="46.46219" lon="5.25967">
        <ele>207.4</ele>
        <time>2021-12-11T13:39:35Z</time>
      </trkpt>
      <trkpt lat="46.46216" lon="5.25979">
        <ele>208</ele>
        <time>2021-12-11T13:39:37Z</time>
      </trkpt>
      <trkpt lat="46.46213" lon="5.25999">
        <ele>209</ele>
        <time>2021-12-11T13:39:40Z</time>
      </trkpt>
      <trkpt lat="46.46211" lon="5.26013">
        <ele>209.6</ele>
        <time>2021-12-11T13:39:42Z</time>
      </trkpt>
      <trkpt lat="46.4621" lon="5.26019">
        <ele>209.8</ele>
        <time>2021-12-11T13:39:43Z</time>
      </trkpt>
      <trkpt lat="46.46209" lon="5.26026">
        <ele>210</ele>
        <time>2021-12-11T13:39:44Z</time>
      </trkpt>
      <trkpt lat="46.46207" lon="5.26047">
        <ele>211</ele>
        <time>2021-12-11T13:39:47Z</time>
      </trkpt>
      <trkpt lat="46.46203" lon="5.26079">
        <ele>211.2</ele>
        <time>2021-12-11T13:39:51Z</time>
      </trkpt>
      <trkpt lat="46.462" lon="5.26111">
        <ele>211.6</ele>
        <time>2021-12-11T13:39:55Z</time>
      </trkpt>
      <trkpt lat="46.46194" lon="5.26183">
        <ele>211.4</ele>
        <time>2021-12-11T13:40:03Z</time>
      </trkpt>
      <trkpt lat="46.46186" lon="5.26265">
        <ele>210.4</ele>
        <time>2021-12-11T13:40:11Z</time>
      </trkpt>
      <trkpt lat="46.46183" lon="5.26301">
        <ele>210</ele>
        <time>2021-12-11T13:40:14Z</time>
      </trkpt>
      <trkpt lat="46.46179" lon="5.26342">
        <ele>209.2</ele>
        <time>2021-12-11T13:40:17Z</time>
      </trkpt>
      <trkpt lat="46.46178" lon="5.26356">
        <ele>208.4</ele>
        <time>2021-12-11T13:40:18Z</time>
      </trkpt>
      <trkpt lat="46.46174" lon="5.264">
        <ele>207</ele>
        <time>2021-12-11T13:40:21Z</time>
      </trkpt>
      <trkpt lat="46.46171" lon="5.26429">
        <ele>205.6</ele>
        <time>2021-12-11T13:40:23Z</time>
      </trkpt>
      <trkpt lat="46.46169" lon="5.26445">
        <ele>205.2</ele>
        <time>2021-12-11T13:40:24Z</time>
      </trkpt>
      <trkpt lat="46.46168" lon="5.2646">
        <ele>204.4</ele>
        <time>2021-12-11T13:40:25Z</time>
      </trkpt>
      <trkpt lat="46.46165" lon="5.26489">
        <ele>203.4</ele>
        <time>2021-12-11T13:40:27Z</time>
      </trkpt>
      <trkpt lat="46.46162" lon="5.2652">
        <ele>202.2</ele>
        <time>2021-12-11T13:40:29Z</time>
      </trkpt>
      <trkpt lat="46.46157" lon="5.26566">
        <ele>200.8</ele>
        <time>2021-12-11T13:40:32Z</time>
      </trkpt>
      <trkpt lat="46.46155" lon="5.266">
        <ele>199.4</ele>
        <time>2021-12-11T13:40:34Z</time>
      </trkpt>
      <trkpt lat="46.46153" lon="5.26628">
        <ele>198.2</ele>
        <time>2021-12-11T13:40:36Z</time>
      </trkpt>
      <trkpt lat="46.46151" lon="5.26675">
        <ele>197.2</ele>
        <time>2021-12-11T13:40:39Z</time>
      </trkpt>
      <trkpt lat="46.46149" lon="5.26707">
        <ele>195.6</ele>
        <time>2021-12-11T13:40:41Z</time>
      </trkpt>
      <trkpt lat="46.46148" lon="5.26723">
        <ele>195.2</ele>
        <time>2021-12-11T13:40:42Z</time>
      </trkpt>
      <trkpt lat="46.46148" lon="5.26739">
        <ele>194</ele>
        <time>2021-12-11T13:40:43Z</time>
      </trkpt>
      <trkpt lat="46.46147" lon="5.2677">
        <ele>192.8</ele>
        <time>2021-12-11T13:40:45Z</time>
      </trkpt>
      <trkpt lat="46.46146" lon="5.268">
        <ele>191.4</ele>
        <time>2021-12-11T13:40:47Z</time>
      </trkpt>
      <trkpt lat="46.46145" lon="5.26845">
        <ele>190.2</ele>
        <time>2021-12-11T13:40:50Z</time>
      </trkpt>
      <trkpt lat="46.46144" lon="5.26859">
        <ele>190</ele>
        <time>2021-12-11T13:40:51Z</time>
      </trkpt>
      <trkpt lat="46.46144" lon="5.26903">
        <ele>189</ele>
        <time>2021-12-11T13:40:54Z</time>
      </trkpt>
      <trkpt lat="46.46142" lon="5.26957">
        <ele>188</ele>
        <time>2021-12-11T13:40:58Z</time>
      </trkpt>
      <trkpt lat="46.46142" lon="5.2697">
        <ele>187.8</ele>
        <time>2021-12-11T13:40:59Z</time>
      </trkpt>
      <trkpt lat="46.46138" lon="5.2704">
        <ele>187.6</ele>
        <time>2021-12-11T13:41:05Z</time>
      </trkpt>
      <trkpt lat="46.46136" lon="5.27121">
        <ele>187.6</ele>
        <time>2021-12-11T13:41:12Z</time>
      </trkpt>
      <trkpt lat="46.46135" lon="5.27145">
        <ele>187.4</ele>
        <time>2021-12-11T13:41:14Z</time>
      </trkpt>
      <trkpt lat="46.46134" lon="5.27194">
        <ele>187</ele>
        <time>2021-12-11T13:41:18Z</time>
      </trkpt>
      <trkpt lat="46.46132" lon="5.27243">
        <ele>186.4</ele>
        <time>2021-12-11T13:41:22Z</time>
      </trkpt>
      <trkpt lat="46.46131" lon="5.27289">
        <ele>186</ele>
        <time>2021-12-11T13:41:26Z</time>
      </trkpt>
      <trkpt lat="46.46129" lon="5.27368">
        <ele>185.6</ele>
        <time>2021-12-11T13:41:33Z</time>
      </trkpt>
      <trkpt lat="46.46126" lon="5.27453">
        <ele>185.4</ele>
        <time>2021-12-11T13:41:41Z</time>
      </trkpt>
      <trkpt lat="46.46126" lon="5.27464">
        <ele>185.4</ele>
        <time>2021-12-11T13:41:42Z</time>
      </trkpt>
      <trkpt lat="46.46123" lon="5.27547">
        <ele>185.4</ele>
        <time>2021-12-11T13:41:50Z</time>
      </trkpt>
      <trkpt lat="46.46122" lon="5.27568">
        <ele>185.6</ele>
        <time>2021-12-11T13:41:52Z</time>
      </trkpt>
      <trkpt lat="46.46121" lon="5.27632">
        <ele>185.6</ele>
        <time>2021-12-11T13:41:58Z</time>
      </trkpt>
      <trkpt lat="46.46121" lon="5.27651">
        <ele>185.6</ele>
        <time>2021-12-11T13:42:00Z</time>
      </trkpt>
      <trkpt lat="46.4612" lon="5.27717">
        <ele>185.6</ele>
        <time>2021-12-11T13:42:07Z</time>
      </trkpt>
      <trkpt lat="46.46117" lon="5.27781">
        <ele>186.8</ele>
        <time>2021-12-11T13:42:15Z</time>
      </trkpt>
      <trkpt lat="46.46117" lon="5.27788">
        <ele>187</ele>
        <time>2021-12-11T13:42:16Z</time>
      </trkpt>
      <trkpt lat="46.46118" lon="5.27839">
        <ele>188</ele>
        <time>2021-12-11T13:42:23Z</time>
      </trkpt>
      <trkpt lat="46.46119" lon="5.27881">
        <ele>189.2</ele>
        <time>2021-12-11T13:42:29Z</time>
      </trkpt>
      <trkpt lat="46.4612" lon="5.27893">
        <ele>189.8</ele>
        <time>2021-12-11T13:42:31Z</time>
      </trkpt>
      <trkpt lat="46.4612" lon="5.27912">
        <ele>190.6</ele>
        <time>2021-12-11T13:42:34Z</time>
      </trkpt>
      <trkpt lat="46.4612" lon="5.27924">
        <ele>191</ele>
        <time>2021-12-11T13:42:36Z</time>
      </trkpt>
      <trkpt lat="46.46121" lon="5.27936">
        <ele>191.4</ele>
        <time>2021-12-11T13:42:38Z</time>
      </trkpt>
      <trkpt lat="46.46122" lon="5.27941">
        <ele>191.6</ele>
        <time>2021-12-11T13:42:39Z</time>
      </trkpt>
      <trkpt lat="46.46127" lon="5.27956">
        <ele>192.8</ele>
        <time>2021-12-11T13:42:42Z</time>
      </trkpt>
      <trkpt lat="46.4613" lon="5.2796">
        <ele>193.2</ele>
        <time>2021-12-11T13:42:43Z</time>
      </trkpt>
      <trkpt lat="46.46135" lon="5.27966">
        <ele>194</ele>
        <time>2021-12-11T13:42:45Z</time>
      </trkpt>
      <trkpt lat="46.46141" lon="5.27972">
        <ele>194.8</ele>
        <time>2021-12-11T13:42:47Z</time>
      </trkpt>
      <trkpt lat="46.46147" lon="5.27977">
        <ele>195.2</ele>
        <time>2021-12-11T13:42:49Z</time>
      </trkpt>
      <trkpt lat="46.46156" lon="5.27984">
        <ele>196.4</ele>
        <time>2021-12-11T13:42:52Z</time>
      </trkpt>
      <trkpt lat="46.46168" lon="5.27994">
        <ele>197.8</ele>
        <time>2021-12-11T13:42:56Z</time>
      </trkpt>
      <trkpt lat="46.46178" lon="5.28">
        <ele>198.6</ele>
        <time>2021-12-11T13:42:59Z</time>
      </trkpt>
      <trkpt lat="46.46181" lon="5.28002">
        <ele>199</ele>
        <time>2021-12-11T13:43:00Z</time>
      </trkpt>
      <trkpt lat="46.4619" lon="5.28011">
        <ele>200</ele>
        <time>2021-12-11T13:43:03Z</time>
      </trkpt>
      <trkpt lat="46.4619" lon="5.28016">
        <ele>200</ele>
        <time>2021-12-11T13:43:04Z</time>
      </trkpt>
      <trkpt lat="46.4619" lon="5.2804">
        <ele>200.8</ele>
        <time>2021-12-11T13:43:07Z</time>
      </trkpt>
      <trkpt lat="46.46191" lon="5.28046">
        <ele>201</ele>
        <time>2021-12-11T13:43:08Z</time>
      </trkpt>
      <trkpt lat="46.46191" lon="5.28097">
        <ele>201.2</ele>
        <time>2021-12-11T13:43:14Z</time>
      </trkpt>
      <trkpt lat="46.46184" lon="5.28152">
        <ele>201</ele>
        <time>2021-12-11T13:43:21Z</time>
      </trkpt>
      <trkpt lat="46.46175" lon="5.28207">
        <ele>201.4</ele>
        <time>2021-12-11T13:43:28Z</time>
      </trkpt>
      <trkpt lat="46.46168" lon="5.28266">
        <ele>201.4</ele>
        <time>2021-12-11T13:43:34Z</time>
      </trkpt>
      <trkpt lat="46.46172" lon="5.28313">
        <ele>200.4</ele>
        <time>2021-12-11T13:43:38Z</time>
      </trkpt>
      <trkpt lat="46.46176" lon="5.28338">
        <ele>199.6</ele>
        <time>2021-12-11T13:43:40Z</time>
      </trkpt>
      <trkpt lat="46.46183" lon="5.28387">
        <ele>198.4</ele>
        <time>2021-12-11T13:43:44Z</time>
      </trkpt>
      <trkpt lat="46.46188" lon="5.28423">
        <ele>197.4</ele>
        <time>2021-12-11T13:43:47Z</time>
      </trkpt>
      <trkpt lat="46.46192" lon="5.28455">
        <ele>197</ele>
        <time>2021-12-11T13:43:50Z</time>
      </trkpt>
      <trkpt lat="46.46197" lon="5.28498">
        <ele>197.2</ele>
        <time>2021-12-11T13:43:55Z</time>
      </trkpt>
      <trkpt lat="46.46202" lon="5.2854">
        <ele>198.2</ele>
        <time>2021-12-11T13:44:01Z</time>
      </trkpt>
      <trkpt lat="46.46203" lon="5.28547">
        <ele>198.8</ele>
        <time>2021-12-11T13:44:02Z</time>
      </trkpt>
      <trkpt lat="46.46209" lon="5.28579">
        <ele>200</ele>
        <time>2021-12-11T13:44:07Z</time>
      </trkpt>
      <trkpt lat="46.46213" lon="5.28603">
        <ele>200.8</ele>
        <time>2021-12-11T13:44:11Z</time>
      </trkpt>
      <trkpt lat="46.46215" lon="5.28614">
        <ele>201</ele>
        <time>2021-12-11T13:44:13Z</time>
      </trkpt>
      <trkpt lat="46.46216" lon="5.28624">
        <ele>201.8</ele>
        <time>2021-12-11T13:44:15Z</time>
      </trkpt>
      <trkpt lat="46.46216" lon="5.28629">
        <ele>202.2</ele>
        <time>2021-12-11T13:44:16Z</time>
      </trkpt>
      <trkpt lat="46.46218" lon="5.2865">
        <ele>203.2</ele>
        <time>2021-12-11T13:44:20Z</time>
      </trkpt>
      <trkpt lat="46.4622" lon="5.28661">
        <ele>203.8</ele>
        <time>2021-12-11T13:44:22Z</time>
      </trkpt>
      <trkpt lat="46.46223" lon="5.28672">
        <ele>204.6</ele>
        <time>2021-12-11T13:44:24Z</time>
      </trkpt>
      <trkpt lat="46.4623" lon="5.28686">
        <ele>205.4</ele>
        <time>2021-12-11T13:44:27Z</time>
      </trkpt>
      <trkpt lat="46.46236" lon="5.28695">
        <ele>206</ele>
        <time>2021-12-11T13:44:29Z</time>
      </trkpt>
      <trkpt lat="46.46259" lon="5.28714">
        <ele>207</ele>
        <time>2021-12-11T13:44:35Z</time>
      </trkpt>
      <trkpt lat="46.46271" lon="5.28722">
        <ele>208.2</ele>
        <time>2021-12-11T13:44:38Z</time>
      </trkpt>
      <trkpt lat="46.46276" lon="5.28725">
        <ele>208.4</ele>
        <time>2021-12-11T13:44:39Z</time>
      </trkpt>
      <trkpt lat="46.46288" lon="5.28735">
        <ele>209.2</ele>
        <time>2021-12-11T13:44:42Z</time>
      </trkpt>
      <trkpt lat="46.46305" lon="5.28746">
        <ele>210.2</ele>
        <time>2021-12-11T13:44:46Z</time>
      </trkpt>
      <trkpt lat="46.46321" lon="5.28758">
        <ele>211.2</ele>
        <time>2021-12-11T13:44:50Z</time>
      </trkpt>
      <trkpt lat="46.46329" lon="5.28764">
        <ele>211.4</ele>
        <time>2021-12-11T13:44:52Z</time>
      </trkpt>
      <trkpt lat="46.46353" lon="5.28781">
        <ele>212.4</ele>
        <time>2021-12-11T13:44:58Z</time>
      </trkpt>
      <trkpt lat="46.46365" lon="5.28791">
        <ele>213.2</ele>
        <time>2021-12-11T13:45:01Z</time>
      </trkpt>
      <trkpt lat="46.46376" lon="5.28802">
        <ele>213.6</ele>
        <time>2021-12-11T13:45:04Z</time>
      </trkpt>
      <trkpt lat="46.46388" lon="5.28815">
        <ele>214</ele>
        <time>2021-12-11T13:45:07Z</time>
      </trkpt>
      <trkpt lat="46.46392" lon="5.28821">
        <ele>214</ele>
        <time>2021-12-11T13:45:08Z</time>
      </trkpt>
      <trkpt lat="46.46395" lon="5.28827">
        <ele>214</ele>
        <time>2021-12-11T13:45:09Z</time>
      </trkpt>
      <trkpt lat="46.46401" lon="5.28839">
        <ele>214.2</ele>
        <time>2021-12-11T13:45:11Z</time>
      </trkpt>
      <trkpt lat="46.46408" lon="5.28858">
        <ele>214.6</ele>
        <time>2021-12-11T13:45:14Z</time>
      </trkpt>
      <trkpt lat="46.46424" lon="5.28917">
        <ele>215.2</ele>
        <time>2021-12-11T13:45:22Z</time>
      </trkpt>
      <trkpt lat="46.46436" lon="5.2897">
        <ele>215.8</ele>
        <time>2021-12-11T13:45:29Z</time>
      </trkpt>
      <trkpt lat="46.46443" lon="5.29001">
        <ele>216.2</ele>
        <time>2021-12-11T13:45:33Z</time>
      </trkpt>
      <trkpt lat="46.46456" lon="5.29063">
        <ele>216.8</ele>
        <time>2021-12-11T13:45:41Z</time>
      </trkpt>
      <trkpt lat="46.46458" lon="5.29071">
        <ele>217</ele>
        <time>2021-12-11T13:45:42Z</time>
      </trkpt>
      <trkpt lat="46.46468" lon="5.29124">
        <ele>217</ele>
        <time>2021-12-11T13:45:48Z</time>
      </trkpt>
      <trkpt lat="46.46487" lon="5.29207">
        <ele>217</ele>
        <time>2021-12-11T13:45:57Z</time>
      </trkpt>
      <trkpt lat="46.46491" lon="5.29228">
        <ele>216.6</ele>
        <time>2021-12-11T13:45:59Z</time>
      </trkpt>
      <trkpt lat="46.46506" lon="5.29303">
        <ele>216</ele>
        <time>2021-12-11T13:46:06Z</time>
      </trkpt>
      <trkpt lat="46.46508" lon="5.29314">
        <ele>215.8</ele>
        <time>2021-12-11T13:46:07Z</time>
      </trkpt>
      <trkpt lat="46.46512" lon="5.29335">
        <ele>215.4</ele>
        <time>2021-12-11T13:46:09Z</time>
      </trkpt>
      <trkpt lat="46.4653" lon="5.29416">
        <ele>214.6</ele>
        <time>2021-12-11T13:46:17Z</time>
      </trkpt>
      <trkpt lat="46.46532" lon="5.29426">
        <ele>214.4</ele>
        <time>2021-12-11T13:46:18Z</time>
      </trkpt>
      <trkpt lat="46.46536" lon="5.29446">
        <ele>214.4</ele>
        <time>2021-12-11T13:46:20Z</time>
      </trkpt>
      <trkpt lat="46.46553" lon="5.29518">
        <ele>214.2</ele>
        <time>2021-12-11T13:46:27Z</time>
      </trkpt>
      <trkpt lat="46.46567" lon="5.2957">
        <ele>214</ele>
        <time>2021-12-11T13:46:32Z</time>
      </trkpt>
      <trkpt lat="46.46579" lon="5.29611">
        <ele>213.8</ele>
        <time>2021-12-11T13:46:37Z</time>
      </trkpt>
      <trkpt lat="46.46598" lon="5.29682">
        <ele>215</ele>
        <time>2021-12-11T13:46:45Z</time>
      </trkpt>
      <trkpt lat="46.46613" lon="5.29735">
        <ele>215.6</ele>
        <time>2021-12-11T13:46:51Z</time>
      </trkpt>
      <trkpt lat="46.4662" lon="5.29762">
        <ele>215.8</ele>
        <time>2021-12-11T13:46:54Z</time>
      </trkpt>
      <trkpt lat="46.46627" lon="5.29796">
        <ele>216.4</ele>
        <time>2021-12-11T13:46:58Z</time>
      </trkpt>
      <trkpt lat="46.46629" lon="5.29804">
        <ele>216.6</ele>
        <time>2021-12-11T13:46:59Z</time>
      </trkpt>
      <trkpt lat="46.46634" lon="5.29822">
        <ele>216.8</ele>
        <time>2021-12-11T13:47:01Z</time>
      </trkpt>
      <trkpt lat="46.46635" lon="5.29831">
        <ele>216.8</ele>
        <time>2021-12-11T13:47:02Z</time>
      </trkpt>
      <trkpt lat="46.46639" lon="5.29848">
        <ele>216.8</ele>
        <time>2021-12-11T13:47:04Z</time>
      </trkpt>
      <trkpt lat="46.46641" lon="5.29857">
        <ele>217</ele>
        <time>2021-12-11T13:47:05Z</time>
      </trkpt>
      <trkpt lat="46.46644" lon="5.29866">
        <ele>217</ele>
        <time>2021-12-11T13:47:06Z</time>
      </trkpt>
      <trkpt lat="46.46647" lon="5.29884">
        <ele>217.2</ele>
        <time>2021-12-11T13:47:08Z</time>
      </trkpt>
      <trkpt lat="46.4665" lon="5.29892">
        <ele>217.4</ele>
        <time>2021-12-11T13:47:09Z</time>
      </trkpt>
      <trkpt lat="46.46653" lon="5.29902">
        <ele>217.4</ele>
        <time>2021-12-11T13:47:10Z</time>
      </trkpt>
      <trkpt lat="46.46662" lon="5.29932">
        <ele>217.4</ele>
        <time>2021-12-11T13:47:13Z</time>
      </trkpt>
      <trkpt lat="46.46678" lon="5.29986">
        <ele>217</ele>
        <time>2021-12-11T13:47:18Z</time>
      </trkpt>
      <trkpt lat="46.46681" lon="5.29997">
        <ele>216.6</ele>
        <time>2021-12-11T13:47:19Z</time>
      </trkpt>
      <trkpt lat="46.46703" lon="5.30073">
        <ele>215.8</ele>
        <time>2021-12-11T13:47:26Z</time>
      </trkpt>
      <trkpt lat="46.4671" lon="5.30104">
        <ele>215.4</ele>
        <time>2021-12-11T13:47:29Z</time>
      </trkpt>
      <trkpt lat="46.46722" lon="5.30152">
        <ele>215.2</ele>
        <time>2021-12-11T13:47:34Z</time>
      </trkpt>
      <trkpt lat="46.4674" lon="5.30213">
        <ele>215.4</ele>
        <time>2021-12-11T13:47:41Z</time>
      </trkpt>
      <trkpt lat="46.46743" lon="5.3022">
        <ele>215.6</ele>
        <time>2021-12-11T13:47:42Z</time>
      </trkpt>
      <trkpt lat="46.46757" lon="5.30239">
        <ele>215.8</ele>
        <time>2021-12-11T13:47:45Z</time>
      </trkpt>
      <trkpt lat="46.46788" lon="5.30274">
        <ele>216.4</ele>
        <time>2021-12-11T13:47:51Z</time>
      </trkpt>
      <trkpt lat="46.46819" lon="5.30311">
        <ele>216.6</ele>
        <time>2021-12-11T13:47:57Z</time>
      </trkpt>
      <trkpt lat="46.46861" lon="5.30361">
        <ele>216.4</ele>
        <time>2021-12-11T13:48:05Z</time>
      </trkpt>
      <trkpt lat="46.46871" lon="5.30371">
        <ele>216.4</ele>
        <time>2021-12-11T13:48:07Z</time>
      </trkpt>
      <trkpt lat="46.46909" lon="5.3039">
        <ele>216</ele>
        <time>2021-12-11T13:48:13Z</time>
      </trkpt>
      <trkpt lat="46.46954" lon="5.30409">
        <ele>215.4</ele>
        <time>2021-12-11T13:48:20Z</time>
      </trkpt>
      <trkpt lat="46.4696" lon="5.30413">
        <ele>215.4</ele>
        <time>2021-12-11T13:48:21Z</time>
      </trkpt>
      <trkpt lat="46.47009" lon="5.30454">
        <ele>215.4</ele>
        <time>2021-12-11T13:48:30Z</time>
      </trkpt>
      <trkpt lat="46.47058" lon="5.30497">
        <ele>216</ele>
        <time>2021-12-11T13:48:39Z</time>
      </trkpt>
      <trkpt lat="46.47095" lon="5.30528">
        <ele>216.2</ele>
        <time>2021-12-11T13:48:46Z</time>
      </trkpt>
      <trkpt lat="46.47106" lon="5.30535">
        <ele>216.4</ele>
        <time>2021-12-11T13:48:48Z</time>
      </trkpt>
      <trkpt lat="46.47137" lon="5.30551">
        <ele>216.8</ele>
        <time>2021-12-11T13:48:53Z</time>
      </trkpt>
      <trkpt lat="46.47163" lon="5.30561">
        <ele>217</ele>
        <time>2021-12-11T13:48:57Z</time>
      </trkpt>
      <trkpt lat="46.47177" lon="5.30562">
        <ele>217</ele>
        <time>2021-12-11T13:48:59Z</time>
      </trkpt>
      <trkpt lat="46.47184" lon="5.30562">
        <ele>217</ele>
        <time>2021-12-11T13:49:00Z</time>
      </trkpt>
      <trkpt lat="46.47212" lon="5.30559">
        <ele>216.6</ele>
        <time>2021-12-11T13:49:04Z</time>
      </trkpt>
      <trkpt lat="46.47225" lon="5.3056">
        <ele>216.4</ele>
        <time>2021-12-11T13:49:06Z</time>
      </trkpt>
      <trkpt lat="46.47238" lon="5.30566">
        <ele>216.4</ele>
        <time>2021-12-11T13:49:08Z</time>
      </trkpt>
      <trkpt lat="46.47262" lon="5.30584">
        <ele>216</ele>
        <time>2021-12-11T13:49:12Z</time>
      </trkpt>
      <trkpt lat="46.47267" lon="5.3059">
        <ele>216</ele>
        <time>2021-12-11T13:49:13Z</time>
      </trkpt>
      <trkpt lat="46.47301" lon="5.30633">
        <ele>216</ele>
        <time>2021-12-11T13:49:20Z</time>
      </trkpt>
      <trkpt lat="46.47306" lon="5.3064">
        <ele>216</ele>
        <time>2021-12-11T13:49:21Z</time>
      </trkpt>
      <trkpt lat="46.47314" lon="5.30656">
        <ele>216.2</ele>
        <time>2021-12-11T13:49:23Z</time>
      </trkpt>
      <trkpt lat="46.47316" lon="5.30666">
        <ele>216.2</ele>
        <time>2021-12-11T13:49:24Z</time>
      </trkpt>
      <trkpt lat="46.47317" lon="5.30675">
        <ele>216.2</ele>
        <time>2021-12-11T13:49:25Z</time>
      </trkpt>
      <trkpt lat="46.47318" lon="5.30726">
        <ele>216.2</ele>
        <time>2021-12-11T13:49:30Z</time>
      </trkpt>
      <trkpt lat="46.47323" lon="5.30805">
        <ele>215.2</ele>
        <time>2021-12-11T13:49:37Z</time>
      </trkpt>
      <trkpt lat="46.4733" lon="5.30877">
        <ele>214.8</ele>
        <time>2021-12-11T13:49:44Z</time>
      </trkpt>
      <trkpt lat="46.47338" lon="5.30892">
        <ele>214.8</ele>
        <time>2021-12-11T13:49:46Z</time>
      </trkpt>
      <trkpt lat="46.47344" lon="5.30896">
        <ele>214.8</ele>
        <time>2021-12-11T13:49:47Z</time>
      </trkpt>
      <trkpt lat="46.4735" lon="5.30898">
        <ele>214.8</ele>
        <time>2021-12-11T13:49:48Z</time>
      </trkpt>
      <trkpt lat="46.47357" lon="5.30898">
        <ele>214.8</ele>
        <time>2021-12-11T13:49:49Z</time>
      </trkpt>
      <trkpt lat="46.47364" lon="5.30896">
        <ele>214.8</ele>
        <time>2021-12-11T13:49:50Z</time>
      </trkpt>
      <trkpt lat="46.47415" lon="5.30874">
        <ele>215</ele>
        <time>2021-12-11T13:49:57Z</time>
      </trkpt>
      <trkpt lat="46.47468" lon="5.30846">
        <ele>215.2</ele>
        <time>2021-12-11T13:50:05Z</time>
      </trkpt>
      <trkpt lat="46.47513" lon="5.30822">
        <ele>215.6</ele>
        <time>2021-12-11T13:50:12Z</time>
      </trkpt>
      <trkpt lat="46.47549" lon="5.3081">
        <ele>216</ele>
        <time>2021-12-11T13:50:18Z</time>
      </trkpt>
      <trkpt lat="46.47556" lon="5.30809">
        <ele>216.2</ele>
        <time>2021-12-11T13:50:19Z</time>
      </trkpt>
      <trkpt lat="46.47614" lon="5.308">
        <ele>216.6</ele>
        <time>2021-12-11T13:50:28Z</time>
      </trkpt>
      <trkpt lat="46.47633" lon="5.30797">
        <ele>216.6</ele>
        <time>2021-12-11T13:50:31Z</time>
      </trkpt>
      <trkpt lat="46.4769" lon="5.30788">
        <ele>216.6</ele>
        <time>2021-12-11T13:50:40Z</time>
      </trkpt>
      <trkpt lat="46.47703" lon="5.30786">
        <ele>216.6</ele>
        <time>2021-12-11T13:50:42Z</time>
      </trkpt>
      <trkpt lat="46.47758" lon="5.30778">
        <ele>216</ele>
        <time>2021-12-11T13:50:50Z</time>
      </trkpt>
      <trkpt lat="46.47778" lon="5.30775">
        <ele>215.8</ele>
        <time>2021-12-11T13:50:53Z</time>
      </trkpt>
      <trkpt lat="46.47823" lon="5.30773">
        <ele>215.2</ele>
        <time>2021-12-11T13:51:00Z</time>
      </trkpt>
      <trkpt lat="46.47835" lon="5.30776">
        <ele>215.2</ele>
        <time>2021-12-11T13:51:02Z</time>
      </trkpt>
      <trkpt lat="46.47843" lon="5.30785">
        <ele>215.2</ele>
        <time>2021-12-11T13:51:04Z</time>
      </trkpt>
      <trkpt lat="46.47849" lon="5.30795">
        <ele>215.4</ele>
        <time>2021-12-11T13:51:06Z</time>
      </trkpt>
      <trkpt lat="46.47857" lon="5.30801">
        <ele>216</ele>
        <time>2021-12-11T13:51:08Z</time>
      </trkpt>
      <trkpt lat="46.47868" lon="5.30803">
        <ele>217.2</ele>
        <time>2021-12-11T13:51:10Z</time>
      </trkpt>
      <trkpt lat="46.47883" lon="5.30805">
        <ele>217.8</ele>
        <time>2021-12-11T13:51:12Z</time>
      </trkpt>
      <trkpt lat="46.47932" lon="5.3082">
        <ele>217.2</ele>
        <time>2021-12-11T13:51:18Z</time>
      </trkpt>
      <trkpt lat="46.4795" lon="5.30821">
        <ele>216</ele>
        <time>2021-12-11T13:51:20Z</time>
      </trkpt>
      <trkpt lat="46.47968" lon="5.30817">
        <ele>214.8</ele>
        <time>2021-12-11T13:51:22Z</time>
      </trkpt>
      <trkpt lat="46.47985" lon="5.3081">
        <ele>213.6</ele>
        <time>2021-12-11T13:51:24Z</time>
      </trkpt>
      <trkpt lat="46.48007" lon="5.30798">
        <ele>212.8</ele>
        <time>2021-12-11T13:51:27Z</time>
      </trkpt>
      <trkpt lat="46.48045" lon="5.30776">
        <ele>212.8</ele>
        <time>2021-12-11T13:51:33Z</time>
      </trkpt>
      <trkpt lat="46.48083" lon="5.30755">
        <ele>213.6</ele>
        <time>2021-12-11T13:51:40Z</time>
      </trkpt>
      <trkpt lat="46.48136" lon="5.30726">
        <ele>214.2</ele>
        <time>2021-12-11T13:51:49Z</time>
      </trkpt>
      <trkpt lat="46.48147" lon="5.3072">
        <ele>214</ele>
        <time>2021-12-11T13:51:51Z</time>
      </trkpt>
      <trkpt lat="46.48201" lon="5.30692">
        <ele>213.4</ele>
        <time>2021-12-11T13:51:59Z</time>
      </trkpt>
      <trkpt lat="46.48208" lon="5.30689">
        <ele>213.4</ele>
        <time>2021-12-11T13:52:00Z</time>
      </trkpt>
      <trkpt lat="46.48223" lon="5.30686">
        <ele>213.2</ele>
        <time>2021-12-11T13:52:02Z</time>
      </trkpt>
      <trkpt lat="46.48231" lon="5.30687">
        <ele>212.8</ele>
        <time>2021-12-11T13:52:03Z</time>
      </trkpt>
      <trkpt lat="46.48247" lon="5.30689">
        <ele>212.6</ele>
        <time>2021-12-11T13:52:05Z</time>
      </trkpt>
      <trkpt lat="46.4827" lon="5.30696">
        <ele>211.4</ele>
        <time>2021-12-11T13:52:08Z</time>
      </trkpt>
      <trkpt lat="46.48278" lon="5.30698">
        <ele>211.2</ele>
        <time>2021-12-11T13:52:09Z</time>
      </trkpt>
      <trkpt lat="46.48309" lon="5.30701">
        <ele>210.2</ele>
        <time>2021-12-11T13:52:13Z</time>
      </trkpt>
      <trkpt lat="46.48316" lon="5.307">
        <ele>210.2</ele>
        <time>2021-12-11T13:52:14Z</time>
      </trkpt>
      <trkpt lat="46.48324" lon="5.30697">
        <ele>210</ele>
        <time>2021-12-11T13:52:15Z</time>
      </trkpt>
      <trkpt lat="46.48343" lon="5.30684">
        <ele>209.6</ele>
        <time>2021-12-11T13:52:18Z</time>
      </trkpt>
      <trkpt lat="46.4839" lon="5.3064">
        <ele>209.6</ele>
        <time>2021-12-11T13:52:26Z</time>
      </trkpt>
      <trkpt lat="46.48436" lon="5.30596">
        <ele>210</ele>
        <time>2021-12-11T13:52:35Z</time>
      </trkpt>
      <trkpt lat="46.48441" lon="5.30591">
        <ele>210</ele>
        <time>2021-12-11T13:52:36Z</time>
      </trkpt>
      <trkpt lat="46.48474" lon="5.30557">
        <ele>210.4</ele>
        <time>2021-12-11T13:52:43Z</time>
      </trkpt>
      <trkpt lat="46.48518" lon="5.30517">
        <ele>211</ele>
        <time>2021-12-11T13:52:52Z</time>
      </trkpt>
      <trkpt lat="46.48544" lon="5.30499">
        <ele>210.8</ele>
        <time>2021-12-11T13:52:57Z</time>
      </trkpt>
      <trkpt lat="46.48549" lon="5.30497">
        <ele>210.8</ele>
        <time>2021-12-11T13:52:58Z</time>
      </trkpt>
      <trkpt lat="46.48553" lon="5.30498">
        <ele>210.8</ele>
        <time>2021-12-11T13:52:59Z</time>
      </trkpt>
      <trkpt lat="46.4856" lon="5.30508">
        <ele>210.8</ele>
        <time>2021-12-11T13:53:01Z</time>
      </trkpt>
      <trkpt lat="46.48559" lon="5.30531">
        <ele>210.6</ele>
        <time>2021-12-11T13:53:04Z</time>
      </trkpt>
      <trkpt lat="46.48553" lon="5.30574">
        <ele>210.2</ele>
        <time>2021-12-11T13:53:09Z</time>
      </trkpt>
      <trkpt lat="46.48545" lon="5.30632">
        <ele>209.4</ele>
        <time>2021-12-11T13:53:15Z</time>
      </trkpt>
      <trkpt lat="46.48542" lon="5.30656">
        <ele>209</ele>
        <time>2021-12-11T13:53:17Z</time>
      </trkpt>
      <trkpt lat="46.48544" lon="5.3068">
        <ele>208.4</ele>
        <time>2021-12-11T13:53:19Z</time>
      </trkpt>
      <trkpt lat="46.48548" lon="5.307">
        <ele>207.6</ele>
        <time>2021-12-11T13:53:21Z</time>
      </trkpt>
      <trkpt lat="46.48557" lon="5.30726">
        <ele>207</ele>
        <time>2021-12-11T13:53:23Z</time>
      </trkpt>
      <trkpt lat="46.48567" lon="5.30742">
        <ele>206.4</ele>
        <time>2021-12-11T13:53:25Z</time>
      </trkpt>
      <trkpt lat="46.48583" lon="5.30761">
        <ele>206</ele>
        <time>2021-12-11T13:53:27Z</time>
      </trkpt>
      <trkpt lat="46.48596" lon="5.30774">
        <ele>205.2</ele>
        <time>2021-12-11T13:53:29Z</time>
      </trkpt>
      <trkpt lat="46.4862" lon="5.30795">
        <ele>204.2</ele>
        <time>2021-12-11T13:53:32Z</time>
      </trkpt>
      <trkpt lat="46.48628" lon="5.30801">
        <ele>204</ele>
        <time>2021-12-11T13:53:33Z</time>
      </trkpt>
      <trkpt lat="46.48648" lon="5.30815">
        <ele>203.2</ele>
        <time>2021-12-11T13:53:36Z</time>
      </trkpt>
      <trkpt lat="46.48668" lon="5.30828">
        <ele>202.6</ele>
        <time>2021-12-11T13:53:39Z</time>
      </trkpt>
      <trkpt lat="46.48698" lon="5.30846">
        <ele>202.4</ele>
        <time>2021-12-11T13:53:44Z</time>
      </trkpt>
      <trkpt lat="46.4871" lon="5.30856">
        <ele>202.6</ele>
        <time>2021-12-11T13:53:46Z</time>
      </trkpt>
      <trkpt lat="46.48719" lon="5.30869">
        <ele>203</ele>
        <time>2021-12-11T13:53:48Z</time>
      </trkpt>
      <trkpt lat="46.48722" lon="5.30888">
        <ele>203.2</ele>
        <time>2021-12-11T13:53:50Z</time>
      </trkpt>
      <trkpt lat="46.48721" lon="5.30897">
        <ele>203.2</ele>
        <time>2021-12-11T13:53:51Z</time>
      </trkpt>
      <trkpt lat="46.48718" lon="5.30906">
        <ele>203.4</ele>
        <time>2021-12-11T13:53:52Z</time>
      </trkpt>
      <trkpt lat="46.48711" lon="5.30919">
        <ele>203.8</ele>
        <time>2021-12-11T13:53:54Z</time>
      </trkpt>
      <trkpt lat="46.48702" lon="5.30929">
        <ele>204</ele>
        <time>2021-12-11T13:53:56Z</time>
      </trkpt>
      <trkpt lat="46.48699" lon="5.30933">
        <ele>204.4</ele>
        <time>2021-12-11T13:53:57Z</time>
      </trkpt>
      <trkpt lat="46.48696" lon="5.30939">
        <ele>204.6</ele>
        <time>2021-12-11T13:53:58Z</time>
      </trkpt>
      <trkpt lat="46.48689" lon="5.30954">
        <ele>205.4</ele>
        <time>2021-12-11T13:54:00Z</time>
      </trkpt>
      <trkpt lat="46.4868" lon="5.30973">
        <ele>206.8</ele>
        <time>2021-12-11T13:54:03Z</time>
      </trkpt>
      <trkpt lat="46.48676" lon="5.30981">
        <ele>207</ele>
        <time>2021-12-11T13:54:04Z</time>
      </trkpt>
      <trkpt lat="46.48654" lon="5.31025">
        <ele>207.6</ele>
        <time>2021-12-11T13:54:10Z</time>
      </trkpt>
      <trkpt lat="46.48634" lon="5.31064">
        <ele>207.6</ele>
        <time>2021-12-11T13:54:15Z</time>
      </trkpt>
      <trkpt lat="46.48605" lon="5.31125">
        <ele>206.4</ele>
        <time>2021-12-11T13:54:22Z</time>
      </trkpt>
      <trkpt lat="46.48582" lon="5.31169">
        <ele>205.6</ele>
        <time>2021-12-11T13:54:27Z</time>
      </trkpt>
      <trkpt lat="46.48563" lon="5.31208">
        <ele>204.6</ele>
        <time>2021-12-11T13:54:31Z</time>
      </trkpt>
      <trkpt lat="46.48559" lon="5.31216">
        <ele>204.4</ele>
        <time>2021-12-11T13:54:32Z</time>
      </trkpt>
      <trkpt lat="46.48555" lon="5.31227">
        <ele>204.2</ele>
        <time>2021-12-11T13:54:33Z</time>
      </trkpt>
      <trkpt lat="46.48549" lon="5.31251">
        <ele>203.8</ele>
        <time>2021-12-11T13:54:35Z</time>
      </trkpt>
      <trkpt lat="46.48549" lon="5.31274">
        <ele>203.4</ele>
        <time>2021-12-11T13:54:37Z</time>
      </trkpt>
      <trkpt lat="46.48551" lon="5.31297">
        <ele>202.8</ele>
        <time>2021-12-11T13:54:39Z</time>
      </trkpt>
      <trkpt lat="46.48553" lon="5.31319">
        <ele>202.2</ele>
        <time>2021-12-11T13:54:41Z</time>
      </trkpt>
      <trkpt lat="46.48557" lon="5.31353">
        <ele>201.4</ele>
        <time>2021-12-11T13:54:44Z</time>
      </trkpt>
      <trkpt lat="46.4856" lon="5.31364">
        <ele>201.4</ele>
        <time>2021-12-11T13:54:45Z</time>
      </trkpt>
      <trkpt lat="46.48564" lon="5.31375">
        <ele>201.2</ele>
        <time>2021-12-11T13:54:46Z</time>
      </trkpt>
      <trkpt lat="46.4857" lon="5.31384">
        <ele>201</ele>
        <time>2021-12-11T13:54:47Z</time>
      </trkpt>
      <trkpt lat="46.48576" lon="5.31392">
        <ele>200.8</ele>
        <time>2021-12-11T13:54:48Z</time>
      </trkpt>
      <trkpt lat="46.48597" lon="5.31419">
        <ele>199.8</ele>
        <time>2021-12-11T13:54:51Z</time>
      </trkpt>
      <trkpt lat="46.48602" lon="5.3143">
        <ele>199.6</ele>
        <time>2021-12-11T13:54:52Z</time>
      </trkpt>
      <trkpt lat="46.48606" lon="5.31443">
        <ele>199</ele>
        <time>2021-12-11T13:54:53Z</time>
      </trkpt>
      <trkpt lat="46.48607" lon="5.31457">
        <ele>198.6</ele>
        <time>2021-12-11T13:54:54Z</time>
      </trkpt>
      <trkpt lat="46.48607" lon="5.3147">
        <ele>197.8</ele>
        <time>2021-12-11T13:54:55Z</time>
      </trkpt>
      <trkpt lat="46.48607" lon="5.31483">
        <ele>197.4</ele>
        <time>2021-12-11T13:54:56Z</time>
      </trkpt>
      <trkpt lat="46.48611" lon="5.31504">
        <ele>196.2</ele>
        <time>2021-12-11T13:54:58Z</time>
      </trkpt>
      <trkpt lat="46.48618" lon="5.31522">
        <ele>195.4</ele>
        <time>2021-12-11T13:55:00Z</time>
      </trkpt>
      <trkpt lat="46.48628" lon="5.31539">
        <ele>195.2</ele>
        <time>2021-12-11T13:55:02Z</time>
      </trkpt>
      <trkpt lat="46.48645" lon="5.31569">
        <ele>195.2</ele>
        <time>2021-12-11T13:55:06Z</time>
      </trkpt>
      <trkpt lat="46.48652" lon="5.31577">
        <ele>195.2</ele>
        <time>2021-12-11T13:55:07Z</time>
      </trkpt>
      <trkpt lat="46.48656" lon="5.31582">
        <ele>195.2</ele>
        <time>2021-12-11T13:55:08Z</time>
      </trkpt>
      <trkpt lat="46.48667" lon="5.31595">
        <ele>195.2</ele>
        <time>2021-12-11T13:55:10Z</time>
      </trkpt>
      <trkpt lat="46.48672" lon="5.31601">
        <ele>195.2</ele>
        <time>2021-12-11T13:55:11Z</time>
      </trkpt>
      <trkpt lat="46.48685" lon="5.31611">
        <ele>195.2</ele>
        <time>2021-12-11T13:55:13Z</time>
      </trkpt>
      <trkpt lat="46.48694" lon="5.31618">
        <ele>195</ele>
        <time>2021-12-11T13:55:14Z</time>
      </trkpt>
      <trkpt lat="46.48713" lon="5.31638">
        <ele>195</ele>
        <time>2021-12-11T13:55:17Z</time>
      </trkpt>
      <trkpt lat="46.4872" lon="5.31646">
        <ele>195</ele>
        <time>2021-12-11T13:55:18Z</time>
      </trkpt>
      <trkpt lat="46.4874" lon="5.31684">
        <ele>194.8</ele>
        <time>2021-12-11T13:55:23Z</time>
      </trkpt>
      <trkpt lat="46.48746" lon="5.3169">
        <ele>194.8</ele>
        <time>2021-12-11T13:55:24Z</time>
      </trkpt>
      <trkpt lat="46.48773" lon="5.31726">
        <ele>194.8</ele>
        <time>2021-12-11T13:55:29Z</time>
      </trkpt>
      <trkpt lat="46.48778" lon="5.31748">
        <ele>194.6</ele>
        <time>2021-12-11T13:55:31Z</time>
      </trkpt>
      <trkpt lat="46.48778" lon="5.31759">
        <ele>194.4</ele>
        <time>2021-12-11T13:55:32Z</time>
      </trkpt>
      <trkpt lat="46.48778" lon="5.31769">
        <ele>194.2</ele>
        <time>2021-12-11T13:55:33Z</time>
      </trkpt>
      <trkpt lat="46.48782" lon="5.31811">
        <ele>194</ele>
        <time>2021-12-11T13:55:37Z</time>
      </trkpt>
      <trkpt lat="46.48782" lon="5.31821">
        <ele>194</ele>
        <time>2021-12-11T13:55:38Z</time>
      </trkpt>
      <trkpt lat="46.48787" lon="5.31839">
        <ele>194</ele>
        <time>2021-12-11T13:55:40Z</time>
      </trkpt>
      <trkpt lat="46.48797" lon="5.31851">
        <ele>194</ele>
        <time>2021-12-11T13:55:42Z</time>
      </trkpt>
      <trkpt lat="46.48802" lon="5.31855">
        <ele>193.8</ele>
        <time>2021-12-11T13:55:43Z</time>
      </trkpt>
      <trkpt lat="46.48821" lon="5.31863">
        <ele>193.8</ele>
        <time>2021-12-11T13:55:46Z</time>
      </trkpt>
      <trkpt lat="46.48831" lon="5.31874">
        <ele>193.8</ele>
        <time>2021-12-11T13:55:48Z</time>
      </trkpt>
      <trkpt lat="46.48838" lon="5.3189">
        <ele>193.8</ele>
        <time>2021-12-11T13:55:50Z</time>
      </trkpt>
      <trkpt lat="46.48839" lon="5.31899">
        <ele>193.8</ele>
        <time>2021-12-11T13:55:51Z</time>
      </trkpt>
      <trkpt lat="46.48845" lon="5.31959">
        <ele>194.2</ele>
        <time>2021-12-11T13:55:58Z</time>
      </trkpt>
      <trkpt lat="46.48844" lon="5.32014">
        <ele>195</ele>
        <time>2021-12-11T13:56:05Z</time>
      </trkpt>
      <trkpt lat="46.48835" lon="5.3207">
        <ele>195.6</ele>
        <time>2021-12-11T13:56:12Z</time>
      </trkpt>
      <trkpt lat="46.48834" lon="5.32078">
        <ele>195.8</ele>
        <time>2021-12-11T13:56:13Z</time>
      </trkpt>
      <trkpt lat="46.48822" lon="5.32147">
        <ele>196.6</ele>
        <time>2021-12-11T13:56:22Z</time>
      </trkpt>
      <trkpt lat="46.48823" lon="5.32162">
        <ele>196.8</ele>
        <time>2021-12-11T13:56:24Z</time>
      </trkpt>
      <trkpt lat="46.48827" lon="5.32205">
        <ele>197.8</ele>
        <time>2021-12-11T13:56:31Z</time>
      </trkpt>
      <trkpt lat="46.48828" lon="5.32213">
        <ele>198</ele>
        <time>2021-12-11T13:56:32Z</time>
      </trkpt>
      <trkpt lat="46.48833" lon="5.32233">
        <ele>198.4</ele>
        <time>2021-12-11T13:56:35Z</time>
      </trkpt>
      <trkpt lat="46.48838" lon="5.32245">
        <ele>198.6</ele>
        <time>2021-12-11T13:56:37Z</time>
      </trkpt>
      <trkpt lat="46.48845" lon="5.32258">
        <ele>199.2</ele>
        <time>2021-12-11T13:56:39Z</time>
      </trkpt>
      <trkpt lat="46.48862" lon="5.32283">
        <ele>199.4</ele>
        <time>2021-12-11T13:56:43Z</time>
      </trkpt>
      <trkpt lat="46.48893" lon="5.32328">
        <ele>198.4</ele>
        <time>2021-12-11T13:56:48Z</time>
      </trkpt>
      <trkpt lat="46.48898" lon="5.32335">
        <ele>197.8</ele>
        <time>2021-12-11T13:56:49Z</time>
      </trkpt>
      <trkpt lat="46.48903" lon="5.32346">
        <ele>196.8</ele>
        <time>2021-12-11T13:56:50Z</time>
      </trkpt>
      <trkpt lat="46.48909" lon="5.32359">
        <ele>196.6</ele>
        <time>2021-12-11T13:56:51Z</time>
      </trkpt>
      <trkpt lat="46.48913" lon="5.32371">
        <ele>196</ele>
        <time>2021-12-11T13:56:52Z</time>
      </trkpt>
      <trkpt lat="46.48917" lon="5.32383">
        <ele>195.8</ele>
        <time>2021-12-11T13:56:53Z</time>
      </trkpt>
      <trkpt lat="46.48924" lon="5.32404">
        <ele>194.4</ele>
        <time>2021-12-11T13:56:55Z</time>
      </trkpt>
      <trkpt lat="46.48934" lon="5.32436">
        <ele>193.4</ele>
        <time>2021-12-11T13:56:58Z</time>
      </trkpt>
      <trkpt lat="46.48946" lon="5.32478">
        <ele>192.4</ele>
        <time>2021-12-11T13:57:02Z</time>
      </trkpt>
      <trkpt lat="46.4895" lon="5.32487">
        <ele>192.2</ele>
        <time>2021-12-11T13:57:03Z</time>
      </trkpt>
      <trkpt lat="46.48953" lon="5.32497">
        <ele>192</ele>
        <time>2021-12-11T13:57:04Z</time>
      </trkpt>
      <trkpt lat="46.48959" lon="5.32528">
        <ele>191.8</ele>
        <time>2021-12-11T13:57:07Z</time>
      </trkpt>
      <trkpt lat="46.48959" lon="5.32539">
        <ele>191.8</ele>
        <time>2021-12-11T13:57:08Z</time>
      </trkpt>
      <trkpt lat="46.48958" lon="5.32549">
        <ele>191.8</ele>
        <time>2021-12-11T13:57:09Z</time>
      </trkpt>
      <trkpt lat="46.48951" lon="5.32566">
        <ele>192</ele>
        <time>2021-12-11T13:57:11Z</time>
      </trkpt>
      <trkpt lat="46.48928" lon="5.32599">
        <ele>192.4</ele>
        <time>2021-12-11T13:57:16Z</time>
      </trkpt>
      <trkpt lat="46.48925" lon="5.32605">
        <ele>192.4</ele>
        <time>2021-12-11T13:57:17Z</time>
      </trkpt>
      <trkpt lat="46.48919" lon="5.32618">
        <ele>192.6</ele>
        <time>2021-12-11T13:57:19Z</time>
      </trkpt>
      <trkpt lat="46.48918" lon="5.32625">
        <ele>192.6</ele>
        <time>2021-12-11T13:57:20Z</time>
      </trkpt>
      <trkpt lat="46.48918" lon="5.3263">
        <ele>192.8</ele>
        <time>2021-12-11T13:57:21Z</time>
      </trkpt>
      <trkpt lat="46.48919" lon="5.32643">
        <ele>193.4</ele>
        <time>2021-12-11T13:57:23Z</time>
      </trkpt>
      <trkpt lat="46.4892" lon="5.32649">
        <ele>194</ele>
        <time>2021-12-11T13:57:24Z</time>
      </trkpt>
      <trkpt lat="46.48926" lon="5.32662">
        <ele>194.8</ele>
        <time>2021-12-11T13:57:27Z</time>
      </trkpt>
      <trkpt lat="46.48935" lon="5.32675">
        <ele>195.8</ele>
        <time>2021-12-11T13:57:30Z</time>
      </trkpt>
      <trkpt lat="46.48946" lon="5.32691">
        <ele>196.6</ele>
        <time>2021-12-11T13:57:34Z</time>
      </trkpt>
      <trkpt lat="46.48954" lon="5.32701">
        <ele>197.4</ele>
        <time>2021-12-11T13:57:37Z</time>
      </trkpt>
      <trkpt lat="46.48957" lon="5.32703">
        <ele>197.8</ele>
        <time>2021-12-11T13:57:38Z</time>
      </trkpt>
      <trkpt lat="46.48977" lon="5.32713">
        <ele>199</ele>
        <time>2021-12-11T13:57:44Z</time>
      </trkpt>
      <trkpt lat="46.4898" lon="5.32714">
        <ele>199.2</ele>
        <time>2021-12-11T13:57:45Z</time>
      </trkpt>
      <trkpt lat="46.48987" lon="5.32714">
        <ele>200</ele>
        <time>2021-12-11T13:57:47Z</time>
      </trkpt>
      <trkpt lat="46.49007" lon="5.32713">
        <ele>201.2</ele>
        <time>2021-12-11T13:57:53Z</time>
      </trkpt>
      <trkpt lat="46.49014" lon="5.32712">
        <ele>201.8</ele>
        <time>2021-12-11T13:57:55Z</time>
      </trkpt>
      <trkpt lat="46.49025" lon="5.32711">
        <ele>202.4</ele>
        <time>2021-12-11T13:57:58Z</time>
      </trkpt>
      <trkpt lat="46.49046" lon="5.32709">
        <ele>203.6</ele>
        <time>2021-12-11T13:58:04Z</time>
      </trkpt>
      <trkpt lat="46.49069" lon="5.32703">
        <ele>204.8</ele>
        <time>2021-12-11T13:58:11Z</time>
      </trkpt>
      <trkpt lat="46.49073" lon="5.32702">
        <ele>204.8</ele>
        <time>2021-12-11T13:58:12Z</time>
      </trkpt>
      <trkpt lat="46.49089" lon="5.32699">
        <ele>205.8</ele>
        <time>2021-12-11T13:58:17Z</time>
      </trkpt>
      <trkpt lat="46.49106" lon="5.32698">
        <ele>206.8</ele>
        <time>2021-12-11T13:58:22Z</time>
      </trkpt>
      <trkpt lat="46.49108" lon="5.32699">
        <ele>207</ele>
        <time>2021-12-11T13:58:23Z</time>
      </trkpt>
      <trkpt lat="46.49119" lon="5.32707">
        <ele>207.6</ele>
        <time>2021-12-11T13:58:27Z</time>
      </trkpt>
      <trkpt lat="46.49127" lon="5.3272">
        <ele>208.2</ele>
        <time>2021-12-11T13:58:29Z</time>
      </trkpt>
      <trkpt lat="46.4913" lon="5.32731">
        <ele>208.2</ele>
        <time>2021-12-11T13:58:31Z</time>
      </trkpt>
      <trkpt lat="46.49137" lon="5.3276">
        <ele>208.6</ele>
        <time>2021-12-11T13:58:36Z</time>
      </trkpt>
      <trkpt lat="46.49139" lon="5.32772">
        <ele>209</ele>
        <time>2021-12-11T13:58:38Z</time>
      </trkpt>
      <trkpt lat="46.49142" lon="5.32787">
        <ele>209.2</ele>
        <time>2021-12-11T13:58:40Z</time>
      </trkpt>
      <trkpt lat="46.49143" lon="5.32803">
        <ele>209.4</ele>
        <time>2021-12-11T13:58:42Z</time>
      </trkpt>
      <trkpt lat="46.49143" lon="5.3281">
        <ele>209.4</ele>
        <time>2021-12-11T13:58:43Z</time>
      </trkpt>
      <trkpt lat="46.49142" lon="5.32829">
        <ele>209.4</ele>
        <time>2021-12-11T13:58:45Z</time>
      </trkpt>
      <trkpt lat="46.49138" lon="5.32852">
        <ele>209.2</ele>
        <time>2021-12-11T13:58:48Z</time>
      </trkpt>
      <trkpt lat="46.49132" lon="5.32878">
        <ele>208.8</ele>
        <time>2021-12-11T13:58:51Z</time>
      </trkpt>
      <trkpt lat="46.49128" lon="5.32894">
        <ele>208.6</ele>
        <time>2021-12-11T13:58:53Z</time>
      </trkpt>
      <trkpt lat="46.49127" lon="5.32939">
        <ele>208.4</ele>
        <time>2021-12-11T13:58:58Z</time>
      </trkpt>
      <trkpt lat="46.49127" lon="5.32956">
        <ele>208.4</ele>
        <time>2021-12-11T13:59:00Z</time>
      </trkpt>
      <trkpt lat="46.49132" lon="5.32988">
        <ele>208.6</ele>
        <time>2021-12-11T13:59:04Z</time>
      </trkpt>
      <trkpt lat="46.49138" lon="5.33026">
        <ele>209</ele>
        <time>2021-12-11T13:59:09Z</time>
      </trkpt>
      <trkpt lat="46.49139" lon="5.33035">
        <ele>209.2</ele>
        <time>2021-12-11T13:59:10Z</time>
      </trkpt>
      <trkpt lat="46.49143" lon="5.33057">
        <ele>209.6</ele>
        <time>2021-12-11T13:59:13Z</time>
      </trkpt>
      <trkpt lat="46.49154" lon="5.33098">
        <ele>209.8</ele>
        <time>2021-12-11T13:59:18Z</time>
      </trkpt>
      <trkpt lat="46.4916" lon="5.33113">
        <ele>210</ele>
        <time>2021-12-11T13:59:20Z</time>
      </trkpt>
      <trkpt lat="46.49168" lon="5.33126">
        <ele>210</ele>
        <time>2021-12-11T13:59:22Z</time>
      </trkpt>
      <trkpt lat="46.49172" lon="5.33132">
        <ele>210</ele>
        <time>2021-12-11T13:59:23Z</time>
      </trkpt>
      <trkpt lat="46.49207" lon="5.33167">
        <ele>210</ele>
        <time>2021-12-11T13:59:31Z</time>
      </trkpt>
      <trkpt lat="46.49217" lon="5.33176">
        <ele>210.2</ele>
        <time>2021-12-11T13:59:33Z</time>
      </trkpt>
      <trkpt lat="46.4924" lon="5.33194">
        <ele>210.6</ele>
        <time>2021-12-11T13:59:38Z</time>
      </trkpt>
      <trkpt lat="46.49248" lon="5.33204">
        <ele>210.8</ele>
        <time>2021-12-11T13:59:40Z</time>
      </trkpt>
      <trkpt lat="46.49259" lon="5.33221">
        <ele>211</ele>
        <time>2021-12-11T13:59:43Z</time>
      </trkpt>
      <trkpt lat="46.49262" lon="5.33228">
        <ele>211.2</ele>
        <time>2021-12-11T13:59:44Z</time>
      </trkpt>
      <trkpt lat="46.49271" lon="5.33265">
        <ele>211.8</ele>
        <time>2021-12-11T13:59:49Z</time>
      </trkpt>
      <trkpt lat="46.49276" lon="5.33295">
        <ele>212.4</ele>
        <time>2021-12-11T13:59:53Z</time>
      </trkpt>
      <trkpt lat="46.49282" lon="5.33334">
        <ele>213</ele>
        <time>2021-12-11T13:59:58Z</time>
      </trkpt>
      <trkpt lat="46.49291" lon="5.33378">
        <ele>213.2</ele>
        <time>2021-12-11T14:00:04Z</time>
      </trkpt>
      <trkpt lat="46.49296" lon="5.334">
        <ele>213.8</ele>
        <time>2021-12-11T14:00:07Z</time>
      </trkpt>
      <trkpt lat="46.49302" lon="5.33428">
        <ele>214.2</ele>
        <time>2021-12-11T14:00:11Z</time>
      </trkpt>
      <trkpt lat="46.49307" lon="5.33456">
        <ele>214.8</ele>
        <time>2021-12-11T14:00:15Z</time>
      </trkpt>
      <trkpt lat="46.49316" lon="5.33515">
        <ele>215.2</ele>
        <time>2021-12-11T14:00:22Z</time>
      </trkpt>
      <trkpt lat="46.49317" lon="5.33524">
        <ele>215.2</ele>
        <time>2021-12-11T14:00:23Z</time>
      </trkpt>
      <trkpt lat="46.49318" lon="5.33558">
        <ele>215.4</ele>
        <time>2021-12-11T14:00:27Z</time>
      </trkpt>
      <trkpt lat="46.49317" lon="5.33567">
        <ele>215.4</ele>
        <time>2021-12-11T14:00:28Z</time>
      </trkpt>
      <trkpt lat="46.49305" lon="5.33637">
        <ele>215.2</ele>
        <time>2021-12-11T14:00:36Z</time>
      </trkpt>
      <trkpt lat="46.49301" lon="5.33709">
        <ele>215.4</ele>
        <time>2021-12-11T14:00:44Z</time>
      </trkpt>
      <trkpt lat="46.49294" lon="5.33772">
        <ele>215.8</ele>
        <time>2021-12-11T14:00:51Z</time>
      </trkpt>
      <trkpt lat="46.49284" lon="5.33823">
        <ele>216.4</ele>
        <time>2021-12-11T14:00:57Z</time>
      </trkpt>
      <trkpt lat="46.49281" lon="5.33838">
        <ele>216.6</ele>
        <time>2021-12-11T14:00:59Z</time>
      </trkpt>
      <trkpt lat="46.49268" lon="5.33909">
        <ele>217</ele>
        <time>2021-12-11T14:01:07Z</time>
      </trkpt>
      <trkpt lat="46.49262" lon="5.33943">
        <ele>216.8</ele>
        <time>2021-12-11T14:01:11Z</time>
      </trkpt>
      <trkpt lat="46.49258" lon="5.33961">
        <ele>216.8</ele>
        <time>2021-12-11T14:01:13Z</time>
      </trkpt>
      <trkpt lat="46.49244" lon="5.34033">
        <ele>217</ele>
        <time>2021-12-11T14:01:21Z</time>
      </trkpt>
      <trkpt lat="46.49241" lon="5.34049">
        <ele>217</ele>
        <time>2021-12-11T14:01:23Z</time>
      </trkpt>
      <trkpt lat="46.49239" lon="5.34057">
        <ele>217</ele>
        <time>2021-12-11T14:01:24Z</time>
      </trkpt>
      <trkpt lat="46.49228" lon="5.34117">
        <ele>216.8</ele>
        <time>2021-12-11T14:01:30Z</time>
      </trkpt>
      <trkpt lat="46.49212" lon="5.342">
        <ele>215.2</ele>
        <time>2021-12-11T14:01:37Z</time>
      </trkpt>
      <trkpt lat="46.4921" lon="5.34209">
        <ele>215</ele>
        <time>2021-12-11T14:01:38Z</time>
      </trkpt>
      <trkpt lat="46.49194" lon="5.34285">
        <ele>214.2</ele>
        <time>2021-12-11T14:01:45Z</time>
      </trkpt>
      <trkpt lat="46.49193" lon="5.34295">
        <ele>214.2</ele>
        <time>2021-12-11T14:01:46Z</time>
      </trkpt>
      <trkpt lat="46.49182" lon="5.34352">
        <ele>214.4</ele>
        <time>2021-12-11T14:01:52Z</time>
      </trkpt>
      <trkpt lat="46.49169" lon="5.34414">
        <ele>215</ele>
        <time>2021-12-11T14:01:58Z</time>
      </trkpt>
      <trkpt lat="46.49158" lon="5.3448">
        <ele>214.2</ele>
        <time>2021-12-11T14:02:04Z</time>
      </trkpt>
      <trkpt lat="46.49144" lon="5.3455">
        <ele>214</ele>
        <time>2021-12-11T14:02:11Z</time>
      </trkpt>
      <trkpt lat="46.49138" lon="5.34585">
        <ele>214</ele>
        <time>2021-12-11T14:02:15Z</time>
      </trkpt>
      <trkpt lat="46.49135" lon="5.34604">
        <ele>214.4</ele>
        <time>2021-12-11T14:02:17Z</time>
      </trkpt>
      <trkpt lat="46.49124" lon="5.34659">
        <ele>214.6</ele>
        <time>2021-12-11T14:02:23Z</time>
      </trkpt>
      <trkpt lat="46.49115" lon="5.34708">
        <ele>214.4</ele>
        <time>2021-12-11T14:02:28Z</time>
      </trkpt>
      <trkpt lat="46.49101" lon="5.34772">
        <ele>214.2</ele>
        <time>2021-12-11T14:02:35Z</time>
      </trkpt>
      <trkpt lat="46.49091" lon="5.34821">
        <ele>214.6</ele>
        <time>2021-12-11T14:02:41Z</time>
      </trkpt>
      <trkpt lat="46.49082" lon="5.34871">
        <ele>215.2</ele>
        <time>2021-12-11T14:02:47Z</time>
      </trkpt>
      <trkpt lat="46.49072" lon="5.34912">
        <ele>215.8</ele>
        <time>2021-12-11T14:02:52Z</time>
      </trkpt>
      <trkpt lat="46.49069" lon="5.34929">
        <ele>215.8</ele>
        <time>2021-12-11T14:02:54Z</time>
      </trkpt>
      <trkpt lat="46.49059" lon="5.3499">
        <ele>216.8</ele>
        <time>2021-12-11T14:03:01Z</time>
      </trkpt>
      <trkpt lat="46.49051" lon="5.35039">
        <ele>217.8</ele>
        <time>2021-12-11T14:03:07Z</time>
      </trkpt>
      <trkpt lat="46.4905" lon="5.35046">
        <ele>218</ele>
        <time>2021-12-11T14:03:08Z</time>
      </trkpt>
      <trkpt lat="46.4904" lon="5.35098">
        <ele>219.2</ele>
        <time>2021-12-11T14:03:15Z</time>
      </trkpt>
      <trkpt lat="46.49038" lon="5.35105">
        <ele>219.2</ele>
        <time>2021-12-11T14:03:16Z</time>
      </trkpt>
      <trkpt lat="46.49032" lon="5.35126">
        <ele>219.8</ele>
        <time>2021-12-11T14:03:19Z</time>
      </trkpt>
      <trkpt lat="46.49024" lon="5.35146">
        <ele>219.8</ele>
        <time>2021-12-11T14:03:22Z</time>
      </trkpt>
      <trkpt lat="46.49019" lon="5.35159">
        <ele>220.2</ele>
        <time>2021-12-11T14:03:24Z</time>
      </trkpt>
      <trkpt lat="46.49002" lon="5.35195">
        <ele>220.2</ele>
        <time>2021-12-11T14:03:29Z</time>
      </trkpt>
      <trkpt lat="46.48977" lon="5.35252">
        <ele>219.8</ele>
        <time>2021-12-11T14:03:36Z</time>
      </trkpt>
      <trkpt lat="46.48962" lon="5.35285">
        <ele>219.2</ele>
        <time>2021-12-11T14:03:40Z</time>
      </trkpt>
      <trkpt lat="46.48947" lon="5.35319">
        <ele>218.4</ele>
        <time>2021-12-11T14:03:44Z</time>
      </trkpt>
      <trkpt lat="46.48926" lon="5.3537">
        <ele>218</ele>
        <time>2021-12-11T14:03:50Z</time>
      </trkpt>
      <trkpt lat="46.48912" lon="5.354">
        <ele>217.8</ele>
        <time>2021-12-11T14:03:54Z</time>
      </trkpt>
      <trkpt lat="46.48892" lon="5.35443">
        <ele>218</ele>
        <time>2021-12-11T14:04:00Z</time>
      </trkpt>
      <trkpt lat="46.48885" lon="5.35456">
        <ele>218.4</ele>
        <time>2021-12-11T14:04:02Z</time>
      </trkpt>
      <trkpt lat="46.48862" lon="5.35509">
        <ele>219</ele>
        <time>2021-12-11T14:04:09Z</time>
      </trkpt>
      <trkpt lat="46.48855" lon="5.35524">
        <ele>219</ele>
        <time>2021-12-11T14:04:11Z</time>
      </trkpt>
      <trkpt lat="46.4883" lon="5.3558">
        <ele>219.2</ele>
        <time>2021-12-11T14:04:18Z</time>
      </trkpt>
      <trkpt lat="46.4881" lon="5.35629">
        <ele>219.4</ele>
        <time>2021-12-11T14:04:24Z</time>
      </trkpt>
      <trkpt lat="46.48786" lon="5.35684">
        <ele>219.2</ele>
        <time>2021-12-11T14:04:31Z</time>
      </trkpt>
      <trkpt lat="46.48754" lon="5.35755">
        <ele>219</ele>
        <time>2021-12-11T14:04:40Z</time>
      </trkpt>
      <trkpt lat="46.48751" lon="5.35763">
        <ele>219</ele>
        <time>2021-12-11T14:04:41Z</time>
      </trkpt>
      <trkpt lat="46.48723" lon="5.35831">
        <ele>219.2</ele>
        <time>2021-12-11T14:04:50Z</time>
      </trkpt>
      <trkpt lat="46.48716" lon="5.35846">
        <ele>219.2</ele>
        <time>2021-12-11T14:04:52Z</time>
      </trkpt>
      <trkpt lat="46.48703" lon="5.35872">
        <ele>219.4</ele>
        <time>2021-12-11T14:04:56Z</time>
      </trkpt>
      <trkpt lat="46.48691" lon="5.35907">
        <ele>220</ele>
        <time>2021-12-11T14:05:01Z</time>
      </trkpt>
      <trkpt lat="46.4869" lon="5.35915">
        <ele>220</ele>
        <time>2021-12-11T14:05:02Z</time>
      </trkpt>
      <trkpt lat="46.48684" lon="5.35948">
        <ele>221.2</ele>
        <time>2021-12-11T14:05:06Z</time>
      </trkpt>
      <trkpt lat="46.48681" lon="5.35966">
        <ele>221.4</ele>
        <time>2021-12-11T14:05:08Z</time>
      </trkpt>
      <trkpt lat="46.48678" lon="5.35993">
        <ele>222.2</ele>
        <time>2021-12-11T14:05:11Z</time>
      </trkpt>
      <trkpt lat="46.48673" lon="5.36022">
        <ele>222.4</ele>
        <time>2021-12-11T14:05:14Z</time>
      </trkpt>
      <trkpt lat="46.4866" lon="5.36076">
        <ele>222</ele>
        <time>2021-12-11T14:05:19Z</time>
      </trkpt>
      <trkpt lat="46.4865" lon="5.3613">
        <ele>220.8</ele>
        <time>2021-12-11T14:05:24Z</time>
      </trkpt>
      <trkpt lat="46.48646" lon="5.36151">
        <ele>220.6</ele>
        <time>2021-12-11T14:05:26Z</time>
      </trkpt>
      <trkpt lat="46.48641" lon="5.36208">
        <ele>220.2</ele>
        <time>2021-12-11T14:05:32Z</time>
      </trkpt>
      <trkpt lat="46.48632" lon="5.36284">
        <ele>221.2</ele>
        <time>2021-12-11T14:05:41Z</time>
      </trkpt>
      <trkpt lat="46.48627" lon="5.36306">
        <ele>221.4</ele>
        <time>2021-12-11T14:05:44Z</time>
      </trkpt>
      <trkpt lat="46.48619" lon="5.36317">
        <ele>221.8</ele>
        <time>2021-12-11T14:05:46Z</time>
      </trkpt>
      <trkpt lat="46.4861" lon="5.36323">
        <ele>222</ele>
        <time>2021-12-11T14:05:48Z</time>
      </trkpt>
      <trkpt lat="46.48605" lon="5.36324">
        <ele>222</ele>
        <time>2021-12-11T14:05:49Z</time>
      </trkpt>
      <trkpt lat="46.486" lon="5.36325">
        <ele>222.2</ele>
        <time>2021-12-11T14:05:50Z</time>
      </trkpt>
      <trkpt lat="46.48585" lon="5.36326">
        <ele>223.2</ele>
        <time>2021-12-11T14:05:53Z</time>
      </trkpt>
      <trkpt lat="46.48565" lon="5.36326">
        <ele>224.4</ele>
        <time>2021-12-11T14:05:57Z</time>
      </trkpt>
      <trkpt lat="46.48549" lon="5.36327">
        <ele>225</ele>
        <time>2021-12-11T14:06:00Z</time>
      </trkpt>
      <trkpt lat="46.48539" lon="5.36328">
        <ele>225.6</ele>
        <time>2021-12-11T14:06:02Z</time>
      </trkpt>
      <trkpt lat="46.48511" lon="5.36334">
        <ele>226.4</ele>
        <time>2021-12-11T14:06:07Z</time>
      </trkpt>
      <trkpt lat="46.48505" lon="5.36335">
        <ele>226.8</ele>
        <time>2021-12-11T14:06:08Z</time>
      </trkpt>
      <trkpt lat="46.48464" lon="5.36342">
        <ele>227.4</ele>
        <time>2021-12-11T14:06:15Z</time>
      </trkpt>
      <trkpt lat="46.48423" lon="5.36351">
        <ele>227.8</ele>
        <time>2021-12-11T14:06:22Z</time>
      </trkpt>
      <trkpt lat="46.48418" lon="5.36353">
        <ele>227.8</ele>
        <time>2021-12-11T14:06:23Z</time>
      </trkpt>
      <trkpt lat="46.48396" lon="5.36368">
        <ele>227.8</ele>
        <time>2021-12-11T14:06:27Z</time>
      </trkpt>
      <trkpt lat="46.48387" lon="5.36378">
        <ele>228</ele>
        <time>2021-12-11T14:06:29Z</time>
      </trkpt>
      <trkpt lat="46.48353" lon="5.36414">
        <ele>228.2</ele>
        <time>2021-12-11T14:06:36Z</time>
      </trkpt>
      <trkpt lat="46.48336" lon="5.36434">
        <ele>228.8</ele>
        <time>2021-12-11T14:06:40Z</time>
      </trkpt>
      <trkpt lat="46.48319" lon="5.36452">
        <ele>229.2</ele>
        <time>2021-12-11T14:06:44Z</time>
      </trkpt>
      <trkpt lat="46.48299" lon="5.36475">
        <ele>230</ele>
        <time>2021-12-11T14:06:49Z</time>
      </trkpt>
      <trkpt lat="46.48282" lon="5.36493">
        <ele>230.8</ele>
        <time>2021-12-11T14:06:53Z</time>
      </trkpt>
      <trkpt lat="46.48274" lon="5.36503">
        <ele>231.2</ele>
        <time>2021-12-11T14:06:55Z</time>
      </trkpt>
      <trkpt lat="46.4824" lon="5.3654">
        <ele>232.2</ele>
        <time>2021-12-11T14:07:03Z</time>
      </trkpt>
      <trkpt lat="46.48228" lon="5.36554">
        <ele>232.8</ele>
        <time>2021-12-11T14:07:06Z</time>
      </trkpt>
      <trkpt lat="46.48223" lon="5.36557">
        <ele>233</ele>
        <time>2021-12-11T14:07:07Z</time>
      </trkpt>
      <trkpt lat="46.48213" lon="5.36559">
        <ele>233.2</ele>
        <time>2021-12-11T14:07:09Z</time>
      </trkpt>
      <trkpt lat="46.48208" lon="5.36559">
        <ele>233.4</ele>
        <time>2021-12-11T14:07:10Z</time>
      </trkpt>
      <trkpt lat="46.48201" lon="5.3656">
        <ele>233.6</ele>
        <time>2021-12-11T14:07:11Z</time>
      </trkpt>
      <trkpt lat="46.48193" lon="5.36567">
        <ele>233.6</ele>
        <time>2021-12-11T14:07:13Z</time>
      </trkpt>
      <trkpt lat="46.48182" lon="5.36595">
        <ele>234</ele>
        <time>2021-12-11T14:07:17Z</time>
      </trkpt>
      <trkpt lat="46.48167" lon="5.36617">
        <ele>234.4</ele>
        <time>2021-12-11T14:07:21Z</time>
      </trkpt>
      <trkpt lat="46.48163" lon="5.36622">
        <ele>234.4</ele>
        <time>2021-12-11T14:07:22Z</time>
      </trkpt>
      <trkpt lat="46.48155" lon="5.36631">
        <ele>234.6</ele>
        <time>2021-12-11T14:07:24Z</time>
      </trkpt>
      <trkpt lat="46.48149" lon="5.36642">
        <ele>234.8</ele>
        <time>2021-12-11T14:07:26Z</time>
      </trkpt>
      <trkpt lat="46.48138" lon="5.36655">
        <ele>234.8</ele>
        <time>2021-12-11T14:07:29Z</time>
      </trkpt>
      <trkpt lat="46.48129" lon="5.36663">
        <ele>235</ele>
        <time>2021-12-11T14:07:31Z</time>
      </trkpt>
      <trkpt lat="46.48109" lon="5.36686">
        <ele>235.2</ele>
        <time>2021-12-11T14:07:37Z</time>
      </trkpt>
      <trkpt lat="46.48107" lon="5.36688">
        <ele>235.4</ele>
        <time>2021-12-11T14:07:38Z</time>
      </trkpt>
      <trkpt lat="46.48103" lon="5.36694">
        <ele>235.8</ele>
        <time>2021-12-11T14:07:40Z</time>
      </trkpt>
      <trkpt lat="46.48103" lon="5.36698">
        <ele>236</ele>
        <time>2021-12-11T14:07:41Z</time>
      </trkpt>
      <trkpt lat="46.48107" lon="5.36708">
        <ele>236.2</ele>
        <time>2021-12-11T14:07:43Z</time>
      </trkpt>
      <trkpt lat="46.4811" lon="5.3671">
        <ele>236.4</ele>
        <time>2021-12-11T14:07:44Z</time>
      </trkpt>
      <trkpt lat="46.48114" lon="5.36712">
        <ele>236.4</ele>
        <time>2021-12-11T14:07:45Z</time>
      </trkpt>
      <trkpt lat="46.48141" lon="5.36734">
        <ele>237.2</ele>
        <time>2021-12-11T14:07:53Z</time>
      </trkpt>
      <trkpt lat="46.48145" lon="5.36737">
        <ele>237.6</ele>
        <time>2021-12-11T14:07:54Z</time>
      </trkpt>
      <trkpt lat="46.48162" lon="5.36751">
        <ele>238.6</ele>
        <time>2021-12-11T14:07:59Z</time>
      </trkpt>
      <trkpt lat="46.48172" lon="5.36759">
        <ele>239.2</ele>
        <time>2021-12-11T14:08:02Z</time>
      </trkpt>
      <trkpt lat="46.48175" lon="5.36762">
        <ele>239.6</ele>
        <time>2021-12-11T14:08:03Z</time>
      </trkpt>
      <trkpt lat="46.48191" lon="5.36775">
        <ele>240.8</ele>
        <time>2021-12-11T14:08:08Z</time>
      </trkpt>
      <trkpt lat="46.48201" lon="5.36784">
        <ele>241.2</ele>
        <time>2021-12-11T14:08:11Z</time>
      </trkpt>
      <trkpt lat="46.48213" lon="5.36794">
        <ele>242.2</ele>
        <time>2021-12-11T14:08:15Z</time>
      </trkpt>
      <trkpt lat="46.48225" lon="5.36804">
        <ele>243.2</ele>
        <time>2021-12-11T14:08:19Z</time>
      </trkpt>
      <trkpt lat="46.48228" lon="5.36806">
        <ele>243.2</ele>
        <time>2021-12-11T14:08:20Z</time>
      </trkpt>
      <trkpt lat="46.48244" lon="5.36817">
        <ele>244.2</ele>
        <time>2021-12-11T14:08:25Z</time>
      </trkpt>
      <trkpt lat="46.48247" lon="5.3682">
        <ele>244.4</ele>
        <time>2021-12-11T14:08:26Z</time>
      </trkpt>
      <trkpt lat="46.48261" lon="5.36834">
        <ele>245.6</ele>
        <time>2021-12-11T14:08:31Z</time>
      </trkpt>
    </trkseg>
  </trk>
</gpx>